<?xml version="1.0" encoding="UTF-8" standalone="no" ?>
<gpx xmlns="http://www.topografix.com/GPX/1/1" xmlns:xsi="http://www.w3.org/2001/XMLSchema-instance" xsi:schemaLocation="http://www.topografix.com/GPX/1/1 http://www.topografix.com/GPX/1/1/gpx.xsd" version="1.1" creator="VisuGPX - https://www.visugpx.com">
  <metadata>
    <name>Balcons de Dabo 2013 \'Raid 65Km\'</name>
    <desc><![CDATA[Tracé des Balcons de Dabo 2013 version raid 65Km]]></desc>
  </metadata>
  <trk>
    <name><![CDATA[2013-08-11 08:14]]></name>
    <desc><![CDATA[<h1>OruxMaps</h1><br /><hr align="center" width="480" style="height: 2px; width: 517px"/><h2>Nom: 2013-08-11 08:14</h2><br /><p>Temps de départ: 08/11/2013 08:15</p><p>Temps d'arrivée: 08/11/2013 14:48</p><p>Distance: 62,2 km (06:32)</p><p>Temps déplacement: 04:30</p><p>Vitesse moyenne: 9,5 km/h</p><p>Vitesse moyenne: 13,8 km/h</p><p>Vitess Max.: 44 km/h</p><p>Altitude minimale: 277 m</p><p>Altitude maximale: 905 m</p><p>Vitesse d'élévation: 715,3 m/h</p><p>Vitesse de descente: -1100,4 m/h</p><p>Gain Altitude: 2341 m</p><p>Perte Altitude: -2311 m</p><p>Temps d'élévation: 03:16</p><p>Temps de descente: 02:06</p><hr align="center" width="480" style="height: 2px; width: 517px"/>]]></desc>
    <trkseg>
      <trkpt lat="48.65874" lon="7.22903">
        <ele>416.59</ele>
        <time>2013-08-11T06:15:57Z</time>
      </trkpt>
      <trkpt lat="48.65858" lon="7.22915">
        <ele>429.59</ele>
        <time>2013-08-11T06:16:47Z</time>
      </trkpt>
      <trkpt lat="48.65844" lon="7.22937">
        <ele>429.59</ele>
        <time>2013-08-11T06:16:53Z</time>
      </trkpt>
      <trkpt lat="48.65833" lon="7.2296">
        <ele>429.59</ele>
        <time>2013-08-11T06:16:59Z</time>
      </trkpt>
      <trkpt lat="48.65822" lon="7.22984">
        <ele>429.84</ele>
        <time>2013-08-11T06:17:05Z</time>
      </trkpt>
      <trkpt lat="48.65813" lon="7.2301">
        <ele>430.53</ele>
        <time>2013-08-11T06:17:14Z</time>
      </trkpt>
      <trkpt lat="48.658" lon="7.23029">
        <ele>431.02</ele>
        <time>2013-08-11T06:17:22Z</time>
      </trkpt>
      <trkpt lat="48.65786" lon="7.23046">
        <ele>431.51</ele>
        <time>2013-08-11T06:17:29Z</time>
      </trkpt>
      <trkpt lat="48.65772" lon="7.23063">
        <ele>431.83</ele>
        <time>2013-08-11T06:17:36Z</time>
      </trkpt>
      <trkpt lat="48.65758" lon="7.23085">
        <ele>432.51</ele>
        <time>2013-08-11T06:17:44Z</time>
      </trkpt>
      <trkpt lat="48.65747" lon="7.23109">
        <ele>433.34</ele>
        <time>2013-08-11T06:17:51Z</time>
      </trkpt>
      <trkpt lat="48.65742" lon="7.23139">
        <ele>434.33</ele>
        <time>2013-08-11T06:17:59Z</time>
      </trkpt>
      <trkpt lat="48.65743" lon="7.23166">
        <ele>435.62</ele>
        <time>2013-08-11T06:18:05Z</time>
      </trkpt>
      <trkpt lat="48.65744" lon="7.23194">
        <ele>436.42</ele>
        <time>2013-08-11T06:18:11Z</time>
      </trkpt>
      <trkpt lat="48.65748" lon="7.23224">
        <ele>437.43</ele>
        <time>2013-08-11T06:18:18Z</time>
      </trkpt>
      <trkpt lat="48.65755" lon="7.2325">
        <ele>438.44</ele>
        <time>2013-08-11T06:18:25Z</time>
      </trkpt>
      <trkpt lat="48.65766" lon="7.23274">
        <ele>439.75</ele>
        <time>2013-08-11T06:18:34Z</time>
      </trkpt>
      <trkpt lat="48.65778" lon="7.23297">
        <ele>441.21</ele>
        <time>2013-08-11T06:18:43Z</time>
      </trkpt>
      <trkpt lat="48.65789" lon="7.23321">
        <ele>442.62</ele>
        <time>2013-08-11T06:18:51Z</time>
      </trkpt>
      <trkpt lat="48.65794" lon="7.23349">
        <ele>444.59</ele>
        <time>2013-08-11T06:19:00Z</time>
      </trkpt>
      <trkpt lat="48.65799" lon="7.23379">
        <ele>446.2</ele>
        <time>2013-08-11T06:19:09Z</time>
      </trkpt>
      <trkpt lat="48.65801" lon="7.23409">
        <ele>448.04</ele>
        <time>2013-08-11T06:19:18Z</time>
      </trkpt>
      <trkpt lat="48.658" lon="7.23437">
        <ele>450.18</ele>
        <time>2013-08-11T06:19:30Z</time>
      </trkpt>
      <trkpt lat="48.65799" lon="7.23467">
        <ele>452.04</ele>
        <time>2013-08-11T06:19:39Z</time>
      </trkpt>
      <trkpt lat="48.65799" lon="7.23495">
        <ele>453.84</ele>
        <time>2013-08-11T06:19:47Z</time>
      </trkpt>
      <trkpt lat="48.65793" lon="7.23523">
        <ele>455.84</ele>
        <time>2013-08-11T06:19:56Z</time>
      </trkpt>
      <trkpt lat="48.65786" lon="7.23548">
        <ele>457.77</ele>
        <time>2013-08-11T06:20:04Z</time>
      </trkpt>
      <trkpt lat="48.65776" lon="7.23572">
        <ele>459.16</ele>
        <time>2013-08-11T06:20:11Z</time>
      </trkpt>
      <trkpt lat="48.65761" lon="7.23589">
        <ele>460.98</ele>
        <time>2013-08-11T06:20:18Z</time>
      </trkpt>
      <trkpt lat="48.65742" lon="7.23578">
        <ele>462.79</ele>
        <time>2013-08-11T06:20:26Z</time>
      </trkpt>
      <trkpt lat="48.65725" lon="7.23563">
        <ele>464.52</ele>
        <time>2013-08-11T06:20:34Z</time>
      </trkpt>
      <trkpt lat="48.65705" lon="7.23559">
        <ele>466.52</ele>
        <time>2013-08-11T06:20:43Z</time>
      </trkpt>
      <trkpt lat="48.65686" lon="7.23559">
        <ele>468.77</ele>
        <time>2013-08-11T06:20:52Z</time>
      </trkpt>
      <trkpt lat="48.65668" lon="7.23557">
        <ele>470.79</ele>
        <time>2013-08-11T06:21:01Z</time>
      </trkpt>
      <trkpt lat="48.65649" lon="7.23548">
        <ele>472.99</ele>
        <time>2013-08-11T06:21:11Z</time>
      </trkpt>
      <trkpt lat="48.65634" lon="7.23533">
        <ele>475.03</ele>
        <time>2013-08-11T06:21:21Z</time>
      </trkpt>
      <trkpt lat="48.65623" lon="7.2351">
        <ele>476.9</ele>
        <time>2013-08-11T06:21:31Z</time>
      </trkpt>
      <trkpt lat="48.65615" lon="7.23482">
        <ele>478.9</ele>
        <time>2013-08-11T06:21:42Z</time>
      </trkpt>
      <trkpt lat="48.65609" lon="7.23456">
        <ele>480.67</ele>
        <time>2013-08-11T06:21:52Z</time>
      </trkpt>
      <trkpt lat="48.65601" lon="7.2343">
        <ele>482.28</ele>
        <time>2013-08-11T06:22:01Z</time>
      </trkpt>
      <trkpt lat="48.65595" lon="7.23405">
        <ele>483.9</ele>
        <time>2013-08-11T06:22:10Z</time>
      </trkpt>
      <trkpt lat="48.65586" lon="7.23377">
        <ele>485.08</ele>
        <time>2013-08-11T06:22:17Z</time>
      </trkpt>
      <trkpt lat="48.65578" lon="7.23349">
        <ele>486.58</ele>
        <time>2013-08-11T06:22:23Z</time>
      </trkpt>
      <trkpt lat="48.65569" lon="7.23323">
        <ele>489.38</ele>
        <time>2013-08-11T06:22:28Z</time>
      </trkpt>
      <trkpt lat="48.6556" lon="7.23293">
        <ele>492.59</ele>
        <time>2013-08-11T06:22:32Z</time>
      </trkpt>
      <trkpt lat="48.65552" lon="7.23263">
        <ele>494.57</ele>
        <time>2013-08-11T06:22:35Z</time>
      </trkpt>
      <trkpt lat="48.65541" lon="7.23229">
        <ele>495.74</ele>
        <time>2013-08-11T06:22:38Z</time>
      </trkpt>
      <trkpt lat="48.65534" lon="7.23203">
        <ele>496.55</ele>
        <time>2013-08-11T06:22:40Z</time>
      </trkpt>
      <trkpt lat="48.65522" lon="7.23166">
        <ele>497.15</ele>
        <time>2013-08-11T06:22:43Z</time>
      </trkpt>
      <trkpt lat="48.65511" lon="7.2313">
        <ele>497.65</ele>
        <time>2013-08-11T06:22:46Z</time>
      </trkpt>
      <trkpt lat="48.65504" lon="7.23102">
        <ele>497.63</ele>
        <time>2013-08-11T06:22:48Z</time>
      </trkpt>
      <trkpt lat="48.655" lon="7.23063">
        <ele>497.17</ele>
        <time>2013-08-11T06:22:51Z</time>
      </trkpt>
      <trkpt lat="48.65501" lon="7.23033">
        <ele>496.4</ele>
        <time>2013-08-11T06:22:54Z</time>
      </trkpt>
      <trkpt lat="48.65505" lon="7.23006">
        <ele>495.49</ele>
        <time>2013-08-11T06:22:57Z</time>
      </trkpt>
      <trkpt lat="48.65512" lon="7.22971">
        <ele>494.88</ele>
        <time>2013-08-11T06:23:01Z</time>
      </trkpt>
      <trkpt lat="48.65523" lon="7.22941">
        <ele>495.61</ele>
        <time>2013-08-11T06:23:05Z</time>
      </trkpt>
      <trkpt lat="48.65538" lon="7.22911">
        <ele>496.28</ele>
        <time>2013-08-11T06:23:09Z</time>
      </trkpt>
      <trkpt lat="48.65554" lon="7.2289">
        <ele>496.46</ele>
        <time>2013-08-11T06:23:12Z</time>
      </trkpt>
      <trkpt lat="48.65573" lon="7.22868">
        <ele>496.1</ele>
        <time>2013-08-11T06:23:15Z</time>
      </trkpt>
      <trkpt lat="48.65594" lon="7.22851">
        <ele>495.37</ele>
        <time>2013-08-11T06:23:18Z</time>
      </trkpt>
      <trkpt lat="48.65616" lon="7.2284">
        <ele>494.09</ele>
        <time>2013-08-11T06:23:21Z</time>
      </trkpt>
      <trkpt lat="48.65636" lon="7.22836">
        <ele>492.39</ele>
        <time>2013-08-11T06:23:24Z</time>
      </trkpt>
      <trkpt lat="48.65656" lon="7.22838">
        <ele>490.15</ele>
        <time>2013-08-11T06:23:28Z</time>
      </trkpt>
      <trkpt lat="48.65678" lon="7.2283">
        <ele>488.4</ele>
        <time>2013-08-11T06:23:32Z</time>
      </trkpt>
      <trkpt lat="48.65696" lon="7.22815">
        <ele>487.49</ele>
        <time>2013-08-11T06:23:35Z</time>
      </trkpt>
      <trkpt lat="48.65716" lon="7.22797">
        <ele>486.88</ele>
        <time>2013-08-11T06:23:39Z</time>
      </trkpt>
      <trkpt lat="48.65735" lon="7.22787">
        <ele>486.68</ele>
        <time>2013-08-11T06:23:43Z</time>
      </trkpt>
      <trkpt lat="48.65755" lon="7.22778">
        <ele>486.61</ele>
        <time>2013-08-11T06:23:48Z</time>
      </trkpt>
      <trkpt lat="48.65772" lon="7.22767">
        <ele>488.11</ele>
        <time>2013-08-11T06:23:52Z</time>
      </trkpt>
      <trkpt lat="48.65792" lon="7.2275">
        <ele>490.63</ele>
        <time>2013-08-11T06:23:56Z</time>
      </trkpt>
      <trkpt lat="48.65809" lon="7.22724">
        <ele>492.01</ele>
        <time>2013-08-11T06:23:59Z</time>
      </trkpt>
      <trkpt lat="48.65825" lon="7.22694">
        <ele>493.75</ele>
        <time>2013-08-11T06:24:02Z</time>
      </trkpt>
      <trkpt lat="48.6584" lon="7.22667">
        <ele>495.39</ele>
        <time>2013-08-11T06:24:05Z</time>
      </trkpt>
      <trkpt lat="48.65858" lon="7.22639">
        <ele>496.91</ele>
        <time>2013-08-11T06:24:08Z</time>
      </trkpt>
      <trkpt lat="48.6587" lon="7.22609">
        <ele>497.88</ele>
        <time>2013-08-11T06:24:11Z</time>
      </trkpt>
      <trkpt lat="48.65882" lon="7.22574">
        <ele>498.54</ele>
        <time>2013-08-11T06:24:14Z</time>
      </trkpt>
      <trkpt lat="48.65891" lon="7.22538">
        <ele>499.15</ele>
        <time>2013-08-11T06:24:17Z</time>
      </trkpt>
      <trkpt lat="48.65893" lon="7.22506">
        <ele>499.98</ele>
        <time>2013-08-11T06:24:20Z</time>
      </trkpt>
      <trkpt lat="48.65891" lon="7.22473">
        <ele>501.08</ele>
        <time>2013-08-11T06:24:24Z</time>
      </trkpt>
      <trkpt lat="48.65887" lon="7.22443">
        <ele>501.47</ele>
        <time>2013-08-11T06:24:29Z</time>
      </trkpt>
      <trkpt lat="48.65877" lon="7.2242">
        <ele>502.58</ele>
        <time>2013-08-11T06:24:45Z</time>
      </trkpt>
      <trkpt lat="48.65867" lon="7.22394">
        <ele>503.41</ele>
        <time>2013-08-11T06:24:51Z</time>
      </trkpt>
      <trkpt lat="48.6585" lon="7.22377">
        <ele>502.35</ele>
        <time>2013-08-11T06:24:56Z</time>
      </trkpt>
      <trkpt lat="48.65837" lon="7.22358">
        <ele>500.84</ele>
        <time>2013-08-11T06:25:01Z</time>
      </trkpt>
      <trkpt lat="48.65819" lon="7.22349">
        <ele>497.06</ele>
        <time>2013-08-11T06:26:40Z</time>
      </trkpt>
      <trkpt lat="48.65802" lon="7.2234">
        <ele>494.79</ele>
        <time>2013-08-11T06:26:44Z</time>
      </trkpt>
      <trkpt lat="48.65782" lon="7.22336">
        <ele>492.17</ele>
        <time>2013-08-11T06:26:48Z</time>
      </trkpt>
      <trkpt lat="48.65761" lon="7.22342">
        <ele>490.39</ele>
        <time>2013-08-11T06:26:53Z</time>
      </trkpt>
      <trkpt lat="48.65746" lon="7.22368">
        <ele>489.16</ele>
        <time>2013-08-11T06:26:57Z</time>
      </trkpt>
      <trkpt lat="48.65734" lon="7.22392">
        <ele>488.83</ele>
        <time>2013-08-11T06:27:00Z</time>
      </trkpt>
      <trkpt lat="48.65716" lon="7.22392">
        <ele>488.35</ele>
        <time>2013-08-11T06:27:12Z</time>
      </trkpt>
      <trkpt lat="48.65711" lon="7.22364">
        <ele>485.2</ele>
        <time>2013-08-11T06:27:17Z</time>
      </trkpt>
      <trkpt lat="48.65707" lon="7.22332">
        <ele>483.88</ele>
        <time>2013-08-11T06:27:23Z</time>
      </trkpt>
      <trkpt lat="48.65716" lon="7.22302">
        <ele>483</ele>
        <time>2013-08-11T06:27:27Z</time>
      </trkpt>
      <trkpt lat="48.65725" lon="7.22276">
        <ele>482.69</ele>
        <time>2013-08-11T06:27:32Z</time>
      </trkpt>
      <trkpt lat="48.65732" lon="7.2225">
        <ele>482.19</ele>
        <time>2013-08-11T06:27:35Z</time>
      </trkpt>
      <trkpt lat="48.6574" lon="7.22222">
        <ele>482.28</ele>
        <time>2013-08-11T06:27:38Z</time>
      </trkpt>
      <trkpt lat="48.65745" lon="7.22188">
        <ele>482.85</ele>
        <time>2013-08-11T06:27:42Z</time>
      </trkpt>
      <trkpt lat="48.65746" lon="7.22156">
        <ele>483.96</ele>
        <time>2013-08-11T06:27:45Z</time>
      </trkpt>
      <trkpt lat="48.65748" lon="7.22124">
        <ele>486.17</ele>
        <time>2013-08-11T06:27:48Z</time>
      </trkpt>
      <trkpt lat="48.65749" lon="7.22089">
        <ele>489.41</ele>
        <time>2013-08-11T06:27:51Z</time>
      </trkpt>
      <trkpt lat="48.65751" lon="7.22055">
        <ele>491.83</ele>
        <time>2013-08-11T06:27:54Z</time>
      </trkpt>
      <trkpt lat="48.65754" lon="7.22023">
        <ele>493.42</ele>
        <time>2013-08-11T06:27:57Z</time>
      </trkpt>
      <trkpt lat="48.65754" lon="7.21988">
        <ele>493.85</ele>
        <time>2013-08-11T06:28:00Z</time>
      </trkpt>
      <trkpt lat="48.65756" lon="7.21952">
        <ele>493.12</ele>
        <time>2013-08-11T06:28:03Z</time>
      </trkpt>
      <trkpt lat="48.65759" lon="7.21918">
        <ele>491.55</ele>
        <time>2013-08-11T06:28:06Z</time>
      </trkpt>
      <trkpt lat="48.65763" lon="7.21888">
        <ele>489.59</ele>
        <time>2013-08-11T06:28:09Z</time>
      </trkpt>
      <trkpt lat="48.6577" lon="7.21858">
        <ele>487.49</ele>
        <time>2013-08-11T06:28:14Z</time>
      </trkpt>
      <trkpt lat="48.65777" lon="7.2183">
        <ele>486.41</ele>
        <time>2013-08-11T06:28:23Z</time>
      </trkpt>
      <trkpt lat="48.65788" lon="7.21802">
        <ele>484.66</ele>
        <time>2013-08-11T06:28:31Z</time>
      </trkpt>
      <trkpt lat="48.658" lon="7.21776">
        <ele>479.79</ele>
        <time>2013-08-11T06:28:36Z</time>
      </trkpt>
      <trkpt lat="48.6581" lon="7.21746">
        <ele>472.84</ele>
        <time>2013-08-11T06:28:40Z</time>
      </trkpt>
      <trkpt lat="48.65816" lon="7.21718">
        <ele>470.27</ele>
        <time>2013-08-11T06:28:47Z</time>
      </trkpt>
      <trkpt lat="48.65819" lon="7.21688">
        <ele>470.78</ele>
        <time>2013-08-11T06:28:53Z</time>
      </trkpt>
      <trkpt lat="48.65823" lon="7.21658">
        <ele>472.23</ele>
        <time>2013-08-11T06:28:58Z</time>
      </trkpt>
      <trkpt lat="48.6583" lon="7.21628">
        <ele>473.6</ele>
        <time>2013-08-11T06:29:02Z</time>
      </trkpt>
      <trkpt lat="48.65843" lon="7.21602">
        <ele>475.04</ele>
        <time>2013-08-11T06:29:07Z</time>
      </trkpt>
      <trkpt lat="48.65852" lon="7.21579">
        <ele>475.99</ele>
        <time>2013-08-11T06:29:11Z</time>
      </trkpt>
      <trkpt lat="48.65862" lon="7.21551">
        <ele>477.14</ele>
        <time>2013-08-11T06:29:16Z</time>
      </trkpt>
      <trkpt lat="48.65874" lon="7.21523">
        <ele>479.31</ele>
        <time>2013-08-11T06:29:20Z</time>
      </trkpt>
      <trkpt lat="48.65887" lon="7.21499">
        <ele>481.32</ele>
        <time>2013-08-11T06:29:23Z</time>
      </trkpt>
      <trkpt lat="48.65897" lon="7.21473">
        <ele>481.71</ele>
        <time>2013-08-11T06:29:27Z</time>
      </trkpt>
      <trkpt lat="48.65908" lon="7.21446">
        <ele>480.41</ele>
        <time>2013-08-11T06:29:33Z</time>
      </trkpt>
      <trkpt lat="48.65919" lon="7.21422">
        <ele>478.77</ele>
        <time>2013-08-11T06:29:38Z</time>
      </trkpt>
      <trkpt lat="48.65933" lon="7.21405">
        <ele>477.29</ele>
        <time>2013-08-11T06:29:43Z</time>
      </trkpt>
      <trkpt lat="48.65951" lon="7.21396">
        <ele>476.76</ele>
        <time>2013-08-11T06:29:48Z</time>
      </trkpt>
      <trkpt lat="48.65968" lon="7.21381">
        <ele>476.19</ele>
        <time>2013-08-11T06:29:53Z</time>
      </trkpt>
      <trkpt lat="48.65983" lon="7.21362">
        <ele>475.26</ele>
        <time>2013-08-11T06:29:59Z</time>
      </trkpt>
      <trkpt lat="48.66005" lon="7.21349">
        <ele>473.12</ele>
        <time>2013-08-11T06:30:05Z</time>
      </trkpt>
      <trkpt lat="48.66013" lon="7.21323">
        <ele>474.35</ele>
        <time>2013-08-11T06:30:09Z</time>
      </trkpt>
      <trkpt lat="48.66004" lon="7.21293">
        <ele>476.33</ele>
        <time>2013-08-11T06:30:12Z</time>
      </trkpt>
      <trkpt lat="48.65993" lon="7.2127">
        <ele>478.9</ele>
        <time>2013-08-11T06:30:15Z</time>
      </trkpt>
      <trkpt lat="48.65972" lon="7.2125">
        <ele>481.28</ele>
        <time>2013-08-11T06:30:18Z</time>
      </trkpt>
      <trkpt lat="48.65952" lon="7.21233">
        <ele>483.45</ele>
        <time>2013-08-11T06:30:21Z</time>
      </trkpt>
      <trkpt lat="48.65937" lon="7.21212">
        <ele>486.39</ele>
        <time>2013-08-11T06:30:24Z</time>
      </trkpt>
      <trkpt lat="48.65924" lon="7.21192">
        <ele>489.5</ele>
        <time>2013-08-11T06:30:27Z</time>
      </trkpt>
      <trkpt lat="48.65908" lon="7.21173">
        <ele>491.98</ele>
        <time>2013-08-11T06:30:30Z</time>
      </trkpt>
      <trkpt lat="48.65889" lon="7.21154">
        <ele>492.8</ele>
        <time>2013-08-11T06:30:33Z</time>
      </trkpt>
      <trkpt lat="48.65869" lon="7.21137">
        <ele>489.21</ele>
        <time>2013-08-11T06:30:36Z</time>
      </trkpt>
      <trkpt lat="48.65853" lon="7.21124">
        <ele>482.16</ele>
        <time>2013-08-11T06:30:39Z</time>
      </trkpt>
      <trkpt lat="48.65835" lon="7.21113">
        <ele>474.68</ele>
        <time>2013-08-11T06:30:42Z</time>
      </trkpt>
      <trkpt lat="48.6582" lon="7.21085">
        <ele>467.2</ele>
        <time>2013-08-11T06:30:46Z</time>
      </trkpt>
      <trkpt lat="48.65814" lon="7.21057">
        <ele>463.52</ele>
        <time>2013-08-11T06:30:49Z</time>
      </trkpt>
      <trkpt lat="48.65807" lon="7.21031">
        <ele>461.25</ele>
        <time>2013-08-11T06:30:52Z</time>
      </trkpt>
      <trkpt lat="48.65803" lon="7.21001">
        <ele>459.18</ele>
        <time>2013-08-11T06:30:56Z</time>
      </trkpt>
      <trkpt lat="48.65801" lon="7.20973">
        <ele>457.27</ele>
        <time>2013-08-11T06:31:00Z</time>
      </trkpt>
      <trkpt lat="48.658" lon="7.20943">
        <ele>454.85</ele>
        <time>2013-08-11T06:31:04Z</time>
      </trkpt>
      <trkpt lat="48.65795" lon="7.20905">
        <ele>450.55</ele>
        <time>2013-08-11T06:31:12Z</time>
      </trkpt>
      <trkpt lat="48.65793" lon="7.20875">
        <ele>444.85</ele>
        <time>2013-08-11T06:31:18Z</time>
      </trkpt>
      <trkpt lat="48.65793" lon="7.20843">
        <ele>435.34</ele>
        <time>2013-08-11T06:31:23Z</time>
      </trkpt>
      <trkpt lat="48.65796" lon="7.2081">
        <ele>430.52</ele>
        <time>2013-08-11T06:31:28Z</time>
      </trkpt>
      <trkpt lat="48.658" lon="7.20778">
        <ele>429.05</ele>
        <time>2013-08-11T06:31:33Z</time>
      </trkpt>
      <trkpt lat="48.65803" lon="7.2075">
        <ele>429.42</ele>
        <time>2013-08-11T06:31:37Z</time>
      </trkpt>
      <trkpt lat="48.65805" lon="7.20722">
        <ele>428.96</ele>
        <time>2013-08-11T06:31:41Z</time>
      </trkpt>
      <trkpt lat="48.65808" lon="7.20695">
        <ele>428.71</ele>
        <time>2013-08-11T06:31:45Z</time>
      </trkpt>
      <trkpt lat="48.6581" lon="7.2066">
        <ele>428.62</ele>
        <time>2013-08-11T06:31:50Z</time>
      </trkpt>
      <trkpt lat="48.65813" lon="7.2063">
        <ele>429.18</ele>
        <time>2013-08-11T06:31:54Z</time>
      </trkpt>
      <trkpt lat="48.65817" lon="7.20596">
        <ele>429.46</ele>
        <time>2013-08-11T06:31:58Z</time>
      </trkpt>
      <trkpt lat="48.65822" lon="7.20559">
        <ele>429.11</ele>
        <time>2013-08-11T06:32:02Z</time>
      </trkpt>
      <trkpt lat="48.65828" lon="7.20525">
        <ele>428.32</ele>
        <time>2013-08-11T06:32:06Z</time>
      </trkpt>
      <trkpt lat="48.65834" lon="7.20491">
        <ele>427.82</ele>
        <time>2013-08-11T06:32:10Z</time>
      </trkpt>
      <trkpt lat="48.65842" lon="7.20461">
        <ele>427.66</ele>
        <time>2013-08-11T06:32:14Z</time>
      </trkpt>
      <trkpt lat="48.65851" lon="7.20431">
        <ele>428.05</ele>
        <time>2013-08-11T06:32:18Z</time>
      </trkpt>
      <trkpt lat="48.65864" lon="7.20401">
        <ele>428.42</ele>
        <time>2013-08-11T06:32:22Z</time>
      </trkpt>
      <trkpt lat="48.65879" lon="7.20375">
        <ele>428.54</ele>
        <time>2013-08-11T06:32:26Z</time>
      </trkpt>
      <trkpt lat="48.65896" lon="7.20356">
        <ele>427.45</ele>
        <time>2013-08-11T06:32:30Z</time>
      </trkpt>
      <trkpt lat="48.65914" lon="7.20356">
        <ele>425.74</ele>
        <time>2013-08-11T06:32:34Z</time>
      </trkpt>
      <trkpt lat="48.65933" lon="7.20366">
        <ele>423.75</ele>
        <time>2013-08-11T06:32:43Z</time>
      </trkpt>
      <trkpt lat="48.65948" lon="7.20381">
        <ele>422.74</ele>
        <time>2013-08-11T06:32:52Z</time>
      </trkpt>
      <trkpt lat="48.65964" lon="7.20394">
        <ele>421.7</ele>
        <time>2013-08-11T06:33:01Z</time>
      </trkpt>
      <trkpt lat="48.65981" lon="7.20411">
        <ele>420.69</ele>
        <time>2013-08-11T06:33:14Z</time>
      </trkpt>
      <trkpt lat="48.65997" lon="7.20428">
        <ele>421.78</ele>
        <time>2013-08-11T06:33:32Z</time>
      </trkpt>
      <trkpt lat="48.66014" lon="7.20456">
        <ele>424.69</ele>
        <time>2013-08-11T06:33:49Z</time>
      </trkpt>
      <trkpt lat="48.66027" lon="7.20482">
        <ele>427.43</ele>
        <time>2013-08-11T06:33:59Z</time>
      </trkpt>
      <trkpt lat="48.6604" lon="7.20506">
        <ele>430.05</ele>
        <time>2013-08-11T06:34:09Z</time>
      </trkpt>
      <trkpt lat="48.66055" lon="7.20529">
        <ele>431.3</ele>
        <time>2013-08-11T06:34:17Z</time>
      </trkpt>
      <trkpt lat="48.66069" lon="7.20549">
        <ele>432.22</ele>
        <time>2013-08-11T06:34:23Z</time>
      </trkpt>
      <trkpt lat="48.66081" lon="7.2057">
        <ele>433.65</ele>
        <time>2013-08-11T06:34:34Z</time>
      </trkpt>
      <trkpt lat="48.66087" lon="7.20596">
        <ele>435.67</ele>
        <time>2013-08-11T06:34:45Z</time>
      </trkpt>
      <trkpt lat="48.66099" lon="7.20619">
        <ele>438.56</ele>
        <time>2013-08-11T06:34:55Z</time>
      </trkpt>
      <trkpt lat="48.66114" lon="7.20639">
        <ele>442.09</ele>
        <time>2013-08-11T06:35:05Z</time>
      </trkpt>
      <trkpt lat="48.66129" lon="7.2066">
        <ele>446.76</ele>
        <time>2013-08-11T06:35:18Z</time>
      </trkpt>
      <trkpt lat="48.66142" lon="7.2068">
        <ele>449.77</ele>
        <time>2013-08-11T06:35:27Z</time>
      </trkpt>
      <trkpt lat="48.66156" lon="7.20697">
        <ele>453.1</ele>
        <time>2013-08-11T06:35:38Z</time>
      </trkpt>
      <trkpt lat="48.66173" lon="7.20712">
        <ele>456.48</ele>
        <time>2013-08-11T06:35:50Z</time>
      </trkpt>
      <trkpt lat="48.66187" lon="7.20731">
        <ele>458.27</ele>
        <time>2013-08-11T06:35:59Z</time>
      </trkpt>
      <trkpt lat="48.66202" lon="7.20748">
        <ele>460.75</ele>
        <time>2013-08-11T06:36:08Z</time>
      </trkpt>
      <trkpt lat="48.66216" lon="7.20767">
        <ele>463.9</ele>
        <time>2013-08-11T06:36:19Z</time>
      </trkpt>
      <trkpt lat="48.66232" lon="7.2078">
        <ele>467.08</ele>
        <time>2013-08-11T06:36:31Z</time>
      </trkpt>
      <trkpt lat="48.66251" lon="7.20789">
        <ele>470.49</ele>
        <time>2013-08-11T06:36:45Z</time>
      </trkpt>
      <trkpt lat="48.6627" lon="7.20798">
        <ele>473.06</ele>
        <time>2013-08-11T06:36:54Z</time>
      </trkpt>
      <trkpt lat="48.66289" lon="7.208">
        <ele>476.08</ele>
        <time>2013-08-11T06:37:05Z</time>
      </trkpt>
      <trkpt lat="48.66307" lon="7.208">
        <ele>479.09</ele>
        <time>2013-08-11T06:37:17Z</time>
      </trkpt>
      <trkpt lat="48.66325" lon="7.208">
        <ele>482</ele>
        <time>2013-08-11T06:37:28Z</time>
      </trkpt>
      <trkpt lat="48.66345" lon="7.20795">
        <ele>484.96</ele>
        <time>2013-08-11T06:37:40Z</time>
      </trkpt>
      <trkpt lat="48.66363" lon="7.20791">
        <ele>488.67</ele>
        <time>2013-08-11T06:37:53Z</time>
      </trkpt>
      <trkpt lat="48.66381" lon="7.20793">
        <ele>491.97</ele>
        <time>2013-08-11T06:38:06Z</time>
      </trkpt>
      <trkpt lat="48.66399" lon="7.20798">
        <ele>494.14</ele>
        <time>2013-08-11T06:38:16Z</time>
      </trkpt>
      <trkpt lat="48.66419" lon="7.2081">
        <ele>494.73</ele>
        <time>2013-08-11T06:38:21Z</time>
      </trkpt>
      <trkpt lat="48.66439" lon="7.2083">
        <ele>495.32</ele>
        <time>2013-08-11T06:38:25Z</time>
      </trkpt>
      <trkpt lat="48.66454" lon="7.20847">
        <ele>495.48</ele>
        <time>2013-08-11T06:38:28Z</time>
      </trkpt>
      <trkpt lat="48.66469" lon="7.2087">
        <ele>493.5</ele>
        <time>2013-08-11T06:38:32Z</time>
      </trkpt>
      <trkpt lat="48.66487" lon="7.2089">
        <ele>488.71</ele>
        <time>2013-08-11T06:38:35Z</time>
      </trkpt>
      <trkpt lat="48.66503" lon="7.20909">
        <ele>482.72</ele>
        <time>2013-08-11T06:38:42Z</time>
      </trkpt>
      <trkpt lat="48.66527" lon="7.20918">
        <ele>481.6</ele>
        <time>2013-08-11T06:38:59Z</time>
      </trkpt>
      <trkpt lat="48.66544" lon="7.20931">
        <ele>482.09</ele>
        <time>2013-08-11T06:39:02Z</time>
      </trkpt>
      <trkpt lat="48.66565" lon="7.20943">
        <ele>483.79</ele>
        <time>2013-08-11T06:39:05Z</time>
      </trkpt>
      <trkpt lat="48.66589" lon="7.20956">
        <ele>485.6</ele>
        <time>2013-08-11T06:39:12Z</time>
      </trkpt>
      <trkpt lat="48.66611" lon="7.20956">
        <ele>488.13</ele>
        <time>2013-08-11T06:39:17Z</time>
      </trkpt>
      <trkpt lat="48.66629" lon="7.20956">
        <ele>489.68</ele>
        <time>2013-08-11T06:39:22Z</time>
      </trkpt>
      <trkpt lat="48.66648" lon="7.20967">
        <ele>490.95</ele>
        <time>2013-08-11T06:39:27Z</time>
      </trkpt>
      <trkpt lat="48.66667" lon="7.20965">
        <ele>491.88</ele>
        <time>2013-08-11T06:39:32Z</time>
      </trkpt>
      <trkpt lat="48.66685" lon="7.20948">
        <ele>492.67</ele>
        <time>2013-08-11T06:39:37Z</time>
      </trkpt>
      <trkpt lat="48.667" lon="7.20926">
        <ele>493.37</ele>
        <time>2013-08-11T06:39:42Z</time>
      </trkpt>
      <trkpt lat="48.66715" lon="7.20909">
        <ele>492.7</ele>
        <time>2013-08-11T06:39:50Z</time>
      </trkpt>
      <trkpt lat="48.66711" lon="7.20879">
        <ele>486.15</ele>
        <time>2013-08-11T06:40:54Z</time>
      </trkpt>
      <trkpt lat="48.66718" lon="7.20849">
        <ele>483.85</ele>
        <time>2013-08-11T06:41:02Z</time>
      </trkpt>
      <trkpt lat="48.66732" lon="7.20828">
        <ele>479.34</ele>
        <time>2013-08-11T06:41:06Z</time>
      </trkpt>
      <trkpt lat="48.66746" lon="7.20806">
        <ele>477.02</ele>
        <time>2013-08-11T06:41:10Z</time>
      </trkpt>
      <trkpt lat="48.66759" lon="7.20783">
        <ele>475.73</ele>
        <time>2013-08-11T06:41:18Z</time>
      </trkpt>
      <trkpt lat="48.66767" lon="7.20755">
        <ele>476.99</ele>
        <time>2013-08-11T06:41:23Z</time>
      </trkpt>
      <trkpt lat="48.66779" lon="7.20731">
        <ele>477.59</ele>
        <time>2013-08-11T06:41:46Z</time>
      </trkpt>
      <trkpt lat="48.66789" lon="7.20701">
        <ele>478.46</ele>
        <time>2013-08-11T06:42:01Z</time>
      </trkpt>
      <trkpt lat="48.66794" lon="7.20669">
        <ele>478.33</ele>
        <time>2013-08-11T06:42:09Z</time>
      </trkpt>
      <trkpt lat="48.66796" lon="7.20634">
        <ele>471.9</ele>
        <time>2013-08-11T06:42:47Z</time>
      </trkpt>
      <trkpt lat="48.66811" lon="7.20613">
        <ele>465.82</ele>
        <time>2013-08-11T06:42:59Z</time>
      </trkpt>
      <trkpt lat="48.66822" lon="7.20583">
        <ele>457.91</ele>
        <time>2013-08-11T06:43:03Z</time>
      </trkpt>
      <trkpt lat="48.66831" lon="7.20557">
        <ele>452.58</ele>
        <time>2013-08-11T06:43:07Z</time>
      </trkpt>
      <trkpt lat="48.66845" lon="7.20529">
        <ele>450.53</ele>
        <time>2013-08-11T06:43:11Z</time>
      </trkpt>
      <trkpt lat="48.66854" lon="7.20504">
        <ele>450.68</ele>
        <time>2013-08-11T06:43:14Z</time>
      </trkpt>
      <trkpt lat="48.66867" lon="7.20478">
        <ele>451.39</ele>
        <time>2013-08-11T06:43:17Z</time>
      </trkpt>
      <trkpt lat="48.6688" lon="7.20452">
        <ele>451.07</ele>
        <time>2013-08-11T06:43:20Z</time>
      </trkpt>
      <trkpt lat="48.66893" lon="7.20428">
        <ele>450.21</ele>
        <time>2013-08-11T06:43:23Z</time>
      </trkpt>
      <trkpt lat="48.66905" lon="7.20405">
        <ele>449.28</ele>
        <time>2013-08-11T06:43:26Z</time>
      </trkpt>
      <trkpt lat="48.66918" lon="7.20386">
        <ele>448.88</ele>
        <time>2013-08-11T06:43:29Z</time>
      </trkpt>
      <trkpt lat="48.66934" lon="7.20364">
        <ele>449.37</ele>
        <time>2013-08-11T06:43:33Z</time>
      </trkpt>
      <trkpt lat="48.66952" lon="7.20353">
        <ele>448.25</ele>
        <time>2013-08-11T06:43:37Z</time>
      </trkpt>
      <trkpt lat="48.66973" lon="7.20349">
        <ele>442.78</ele>
        <time>2013-08-11T06:43:41Z</time>
      </trkpt>
      <trkpt lat="48.66993" lon="7.20349">
        <ele>437.64</ele>
        <time>2013-08-11T06:43:45Z</time>
      </trkpt>
      <trkpt lat="48.67009" lon="7.20334">
        <ele>433.72</ele>
        <time>2013-08-11T06:43:50Z</time>
      </trkpt>
      <trkpt lat="48.67021" lon="7.20304">
        <ele>431.58</ele>
        <time>2013-08-11T06:43:54Z</time>
      </trkpt>
      <trkpt lat="48.67029" lon="7.20274">
        <ele>431.15</ele>
        <time>2013-08-11T06:43:57Z</time>
      </trkpt>
      <trkpt lat="48.6704" lon="7.2024">
        <ele>430.83</ele>
        <time>2013-08-11T06:44:00Z</time>
      </trkpt>
      <trkpt lat="48.67049" lon="7.20212">
        <ele>430</ele>
        <time>2013-08-11T06:44:03Z</time>
      </trkpt>
      <trkpt lat="48.67065" lon="7.20186">
        <ele>426.22</ele>
        <time>2013-08-11T06:44:06Z</time>
      </trkpt>
      <trkpt lat="48.67082" lon="7.20162">
        <ele>420.18</ele>
        <time>2013-08-11T06:44:09Z</time>
      </trkpt>
      <trkpt lat="48.67099" lon="7.20152">
        <ele>414.53</ele>
        <time>2013-08-11T06:44:12Z</time>
      </trkpt>
      <trkpt lat="48.67123" lon="7.20147">
        <ele>409.89</ele>
        <time>2013-08-11T06:44:16Z</time>
      </trkpt>
      <trkpt lat="48.67141" lon="7.2015">
        <ele>407.63</ele>
        <time>2013-08-11T06:44:20Z</time>
      </trkpt>
      <trkpt lat="48.67158" lon="7.20141">
        <ele>406.78</ele>
        <time>2013-08-11T06:44:26Z</time>
      </trkpt>
      <trkpt lat="48.67177" lon="7.20137">
        <ele>405.65</ele>
        <time>2013-08-11T06:44:29Z</time>
      </trkpt>
      <trkpt lat="48.672" lon="7.20137">
        <ele>404.46</ele>
        <time>2013-08-11T06:44:32Z</time>
      </trkpt>
      <trkpt lat="48.67224" lon="7.20137">
        <ele>402.44</ele>
        <time>2013-08-11T06:44:35Z</time>
      </trkpt>
      <trkpt lat="48.67246" lon="7.20141">
        <ele>397.82</ele>
        <time>2013-08-11T06:44:38Z</time>
      </trkpt>
      <trkpt lat="48.67263" lon="7.20162">
        <ele>392.9</ele>
        <time>2013-08-11T06:44:43Z</time>
      </trkpt>
      <trkpt lat="48.67273" lon="7.20186">
        <ele>387.66</ele>
        <time>2013-08-11T06:44:48Z</time>
      </trkpt>
      <trkpt lat="48.67268" lon="7.20216">
        <ele>377.38</ele>
        <time>2013-08-11T06:44:56Z</time>
      </trkpt>
      <trkpt lat="48.67267" lon="7.20244">
        <ele>373.62</ele>
        <time>2013-08-11T06:45:00Z</time>
      </trkpt>
      <trkpt lat="48.67263" lon="7.20272">
        <ele>368.91</ele>
        <time>2013-08-11T06:45:06Z</time>
      </trkpt>
      <trkpt lat="48.67258" lon="7.20302">
        <ele>365.53</ele>
        <time>2013-08-11T06:45:26Z</time>
      </trkpt>
      <trkpt lat="48.67278" lon="7.20306">
        <ele>364.31</ele>
        <time>2013-08-11T06:45:30Z</time>
      </trkpt>
      <trkpt lat="48.67296" lon="7.20287">
        <ele>362.56</ele>
        <time>2013-08-11T06:45:34Z</time>
      </trkpt>
      <trkpt lat="48.67309" lon="7.20265">
        <ele>362.44</ele>
        <time>2013-08-11T06:45:37Z</time>
      </trkpt>
      <trkpt lat="48.67322" lon="7.20244">
        <ele>362.96</ele>
        <time>2013-08-11T06:45:40Z</time>
      </trkpt>
      <trkpt lat="48.67337" lon="7.20214">
        <ele>364.32</ele>
        <time>2013-08-11T06:45:44Z</time>
      </trkpt>
      <trkpt lat="48.67344" lon="7.20188">
        <ele>365.49</ele>
        <time>2013-08-11T06:45:47Z</time>
      </trkpt>
      <trkpt lat="48.67336" lon="7.20158">
        <ele>367.36</ele>
        <time>2013-08-11T06:45:51Z</time>
      </trkpt>
      <trkpt lat="48.6732" lon="7.20132">
        <ele>368.2</ele>
        <time>2013-08-11T06:45:55Z</time>
      </trkpt>
      <trkpt lat="48.67308" lon="7.20111">
        <ele>367.16</ele>
        <time>2013-08-11T06:45:58Z</time>
      </trkpt>
      <trkpt lat="48.67294" lon="7.20085">
        <ele>364.97</ele>
        <time>2013-08-11T06:46:02Z</time>
      </trkpt>
      <trkpt lat="48.67279" lon="7.20057">
        <ele>362.4</ele>
        <time>2013-08-11T06:46:06Z</time>
      </trkpt>
      <trkpt lat="48.67263" lon="7.20038">
        <ele>358</ele>
        <time>2013-08-11T06:46:09Z</time>
      </trkpt>
      <trkpt lat="48.67245" lon="7.20021">
        <ele>351.58</ele>
        <time>2013-08-11T06:46:16Z</time>
      </trkpt>
      <trkpt lat="48.67229" lon="7.20004">
        <ele>351.28</ele>
        <time>2013-08-11T06:46:36Z</time>
      </trkpt>
      <trkpt lat="48.67216" lon="7.19984">
        <ele>356</ele>
        <time>2013-08-11T06:46:41Z</time>
      </trkpt>
      <trkpt lat="48.67217" lon="7.19956">
        <ele>358.08</ele>
        <time>2013-08-11T06:46:49Z</time>
      </trkpt>
      <trkpt lat="48.67228" lon="7.19931">
        <ele>356.97</ele>
        <time>2013-08-11T06:46:56Z</time>
      </trkpt>
      <trkpt lat="48.67238" lon="7.19907">
        <ele>355.29</ele>
        <time>2013-08-11T06:47:04Z</time>
      </trkpt>
      <trkpt lat="48.67251" lon="7.19883">
        <ele>353.46</ele>
        <time>2013-08-11T06:47:10Z</time>
      </trkpt>
      <trkpt lat="48.67264" lon="7.19864">
        <ele>350.4</ele>
        <time>2013-08-11T06:47:18Z</time>
      </trkpt>
      <trkpt lat="48.67276" lon="7.19841">
        <ele>347.57</ele>
        <time>2013-08-11T06:47:23Z</time>
      </trkpt>
      <trkpt lat="48.6729" lon="7.19821">
        <ele>337.16</ele>
        <time>2013-08-11T06:47:27Z</time>
      </trkpt>
      <trkpt lat="48.67302" lon="7.19795">
        <ele>327.29</ele>
        <time>2013-08-11T06:47:32Z</time>
      </trkpt>
      <trkpt lat="48.67315" lon="7.19774">
        <ele>322.23</ele>
        <time>2013-08-11T06:47:36Z</time>
      </trkpt>
      <trkpt lat="48.67333" lon="7.19761">
        <ele>318.25</ele>
        <time>2013-08-11T06:47:41Z</time>
      </trkpt>
      <trkpt lat="48.67354" lon="7.19763">
        <ele>311.96</ele>
        <time>2013-08-11T06:47:45Z</time>
      </trkpt>
      <trkpt lat="48.67375" lon="7.19765">
        <ele>305.08</ele>
        <time>2013-08-11T06:47:49Z</time>
      </trkpt>
      <trkpt lat="48.67392" lon="7.19774">
        <ele>300.21</ele>
        <time>2013-08-11T06:47:54Z</time>
      </trkpt>
      <trkpt lat="48.67412" lon="7.19776">
        <ele>298.12</ele>
        <time>2013-08-11T06:48:01Z</time>
      </trkpt>
      <trkpt lat="48.67432" lon="7.19776">
        <ele>296.28</ele>
        <time>2013-08-11T06:48:09Z</time>
      </trkpt>
      <trkpt lat="48.67428" lon="7.19742">
        <ele>288.61</ele>
        <time>2013-08-11T06:48:15Z</time>
      </trkpt>
      <trkpt lat="48.67434" lon="7.19707">
        <ele>281.86</ele>
        <time>2013-08-11T06:48:19Z</time>
      </trkpt>
      <trkpt lat="48.67443" lon="7.19677">
        <ele>278.5</ele>
        <time>2013-08-11T06:48:23Z</time>
      </trkpt>
      <trkpt lat="48.67454" lon="7.1965">
        <ele>277.32</ele>
        <time>2013-08-11T06:48:29Z</time>
      </trkpt>
      <trkpt lat="48.67452" lon="7.19622">
        <ele>277.75</ele>
        <time>2013-08-11T06:48:33Z</time>
      </trkpt>
      <trkpt lat="48.67451" lon="7.19594">
        <ele>278.44</ele>
        <time>2013-08-11T06:48:39Z</time>
      </trkpt>
      <trkpt lat="48.67449" lon="7.19564">
        <ele>279.25</ele>
        <time>2013-08-11T06:48:46Z</time>
      </trkpt>
      <trkpt lat="48.6744" lon="7.19538">
        <ele>279.55</ele>
        <time>2013-08-11T06:48:53Z</time>
      </trkpt>
      <trkpt lat="48.67427" lon="7.19512">
        <ele>279.59</ele>
        <time>2013-08-11T06:49:01Z</time>
      </trkpt>
      <trkpt lat="48.67415" lon="7.19491">
        <ele>280.21</ele>
        <time>2013-08-11T06:49:08Z</time>
      </trkpt>
      <trkpt lat="48.67396" lon="7.19484">
        <ele>279.7</ele>
        <time>2013-08-11T06:49:14Z</time>
      </trkpt>
      <trkpt lat="48.67377" lon="7.19484">
        <ele>279.62</ele>
        <time>2013-08-11T06:49:19Z</time>
      </trkpt>
      <trkpt lat="48.67356" lon="7.19486">
        <ele>279.85</ele>
        <time>2013-08-11T06:49:24Z</time>
      </trkpt>
      <trkpt lat="48.67338" lon="7.19486">
        <ele>280.41</ele>
        <time>2013-08-11T06:49:29Z</time>
      </trkpt>
      <trkpt lat="48.67319" lon="7.19486">
        <ele>280.82</ele>
        <time>2013-08-11T06:49:36Z</time>
      </trkpt>
      <trkpt lat="48.67297" lon="7.19476">
        <ele>282.33</ele>
        <time>2013-08-11T06:49:48Z</time>
      </trkpt>
      <trkpt lat="48.67282" lon="7.19461">
        <ele>283.59</ele>
        <time>2013-08-11T06:49:58Z</time>
      </trkpt>
      <trkpt lat="48.6726" lon="7.19441">
        <ele>287.85</ele>
        <time>2013-08-11T06:50:11Z</time>
      </trkpt>
      <trkpt lat="48.67244" lon="7.19424">
        <ele>292.28</ele>
        <time>2013-08-11T06:50:21Z</time>
      </trkpt>
      <trkpt lat="48.67228" lon="7.19407">
        <ele>296.43</ele>
        <time>2013-08-11T06:50:29Z</time>
      </trkpt>
      <trkpt lat="48.67208" lon="7.19394">
        <ele>300.23</ele>
        <time>2013-08-11T06:50:38Z</time>
      </trkpt>
      <trkpt lat="48.67192" lon="7.19381">
        <ele>304.19</ele>
        <time>2013-08-11T06:50:48Z</time>
      </trkpt>
      <trkpt lat="48.67174" lon="7.19366">
        <ele>307.81</ele>
        <time>2013-08-11T06:50:58Z</time>
      </trkpt>
      <trkpt lat="48.67156" lon="7.19351">
        <ele>311.85</ele>
        <time>2013-08-11T06:51:09Z</time>
      </trkpt>
      <trkpt lat="48.6714" lon="7.19338">
        <ele>316.14</ele>
        <time>2013-08-11T06:51:20Z</time>
      </trkpt>
      <trkpt lat="48.67125" lon="7.19323">
        <ele>320.13</ele>
        <time>2013-08-11T06:51:30Z</time>
      </trkpt>
      <trkpt lat="48.6711" lon="7.19308">
        <ele>325.07</ele>
        <time>2013-08-11T06:51:41Z</time>
      </trkpt>
      <trkpt lat="48.67096" lon="7.19291">
        <ele>329.71</ele>
        <time>2013-08-11T06:51:52Z</time>
      </trkpt>
      <trkpt lat="48.67083" lon="7.19272">
        <ele>332.93</ele>
        <time>2013-08-11T06:52:02Z</time>
      </trkpt>
      <trkpt lat="48.67068" lon="7.19257">
        <ele>335.42</ele>
        <time>2013-08-11T06:52:13Z</time>
      </trkpt>
      <trkpt lat="48.67052" lon="7.19238">
        <ele>338.62</ele>
        <time>2013-08-11T06:52:26Z</time>
      </trkpt>
      <trkpt lat="48.67039" lon="7.19216">
        <ele>342.61</ele>
        <time>2013-08-11T06:52:37Z</time>
      </trkpt>
      <trkpt lat="48.67028" lon="7.19193">
        <ele>346.85</ele>
        <time>2013-08-11T06:52:49Z</time>
      </trkpt>
      <trkpt lat="48.67022" lon="7.19167">
        <ele>349.73</ele>
        <time>2013-08-11T06:52:59Z</time>
      </trkpt>
      <trkpt lat="48.67009" lon="7.19145">
        <ele>351.68</ele>
        <time>2013-08-11T06:53:08Z</time>
      </trkpt>
      <trkpt lat="48.66998" lon="7.19122">
        <ele>351.85</ele>
        <time>2013-08-11T06:53:18Z</time>
      </trkpt>
      <trkpt lat="48.66993" lon="7.19094">
        <ele>351.6</ele>
        <time>2013-08-11T06:53:30Z</time>
      </trkpt>
      <trkpt lat="48.66986" lon="7.19068">
        <ele>351.34</ele>
        <time>2013-08-11T06:53:41Z</time>
      </trkpt>
      <trkpt lat="48.6698" lon="7.19042">
        <ele>351.19</ele>
        <time>2013-08-11T06:53:53Z</time>
      </trkpt>
      <trkpt lat="48.66978" lon="7.19014">
        <ele>352</ele>
        <time>2013-08-11T06:54:03Z</time>
      </trkpt>
      <trkpt lat="48.66974" lon="7.18987">
        <ele>348.63</ele>
        <time>2013-08-11T06:54:18Z</time>
      </trkpt>
      <trkpt lat="48.66967" lon="7.18961">
        <ele>348.41</ele>
        <time>2013-08-11T06:54:59Z</time>
      </trkpt>
      <trkpt lat="48.66967" lon="7.18933">
        <ele>347.46</ele>
        <time>2013-08-11T06:55:29Z</time>
      </trkpt>
      <trkpt lat="48.66965" lon="7.18905">
        <ele>352.2</ele>
        <time>2013-08-11T06:56:00Z</time>
      </trkpt>
      <trkpt lat="48.66964" lon="7.18877">
        <ele>357.66</ele>
        <time>2013-08-11T06:56:30Z</time>
      </trkpt>
      <trkpt lat="48.66954" lon="7.18853">
        <ele>367.09</ele>
        <time>2013-08-11T06:56:55Z</time>
      </trkpt>
      <trkpt lat="48.66943" lon="7.1883">
        <ele>368.7</ele>
        <time>2013-08-11T06:57:14Z</time>
      </trkpt>
      <trkpt lat="48.66939" lon="7.18802">
        <ele>368.6</ele>
        <time>2013-08-11T06:57:24Z</time>
      </trkpt>
      <trkpt lat="48.66933" lon="7.18774">
        <ele>371.97</ele>
        <time>2013-08-11T06:57:40Z</time>
      </trkpt>
      <trkpt lat="48.66926" lon="7.18748">
        <ele>377.16</ele>
        <time>2013-08-11T06:58:13Z</time>
      </trkpt>
      <trkpt lat="48.6692" lon="7.1872">
        <ele>381.54</ele>
        <time>2013-08-11T06:58:38Z</time>
      </trkpt>
      <trkpt lat="48.66913" lon="7.18695">
        <ele>380.83</ele>
        <time>2013-08-11T07:00:09Z</time>
      </trkpt>
      <trkpt lat="48.66902" lon="7.18673">
        <ele>380.61</ele>
        <time>2013-08-11T07:00:18Z</time>
      </trkpt>
      <trkpt lat="48.6689" lon="7.18652">
        <ele>381.49</ele>
        <time>2013-08-11T07:00:30Z</time>
      </trkpt>
      <trkpt lat="48.66878" lon="7.18628">
        <ele>383.14</ele>
        <time>2013-08-11T07:00:46Z</time>
      </trkpt>
      <trkpt lat="48.66875" lon="7.186">
        <ele>387.13</ele>
        <time>2013-08-11T07:01:03Z</time>
      </trkpt>
      <trkpt lat="48.6688" lon="7.18572">
        <ele>391.12</ele>
        <time>2013-08-11T07:01:18Z</time>
      </trkpt>
      <trkpt lat="48.66863" lon="7.18564">
        <ele>394.25</ele>
        <time>2013-08-11T07:01:32Z</time>
      </trkpt>
      <trkpt lat="48.66846" lon="7.18553">
        <ele>396.58</ele>
        <time>2013-08-11T07:01:54Z</time>
      </trkpt>
      <trkpt lat="48.66837" lon="7.18527">
        <ele>400.72</ele>
        <time>2013-08-11T07:03:04Z</time>
      </trkpt>
      <trkpt lat="48.66821" lon="7.18512">
        <ele>403.3</ele>
        <time>2013-08-11T07:03:20Z</time>
      </trkpt>
      <trkpt lat="48.66806" lon="7.18497">
        <ele>407.13</ele>
        <time>2013-08-11T07:03:36Z</time>
      </trkpt>
      <trkpt lat="48.66789" lon="7.18484">
        <ele>411.07</ele>
        <time>2013-08-11T07:03:50Z</time>
      </trkpt>
      <trkpt lat="48.66772" lon="7.18476">
        <ele>414.11</ele>
        <time>2013-08-11T07:04:01Z</time>
      </trkpt>
      <trkpt lat="48.66753" lon="7.18467">
        <ele>417.14</ele>
        <time>2013-08-11T07:04:15Z</time>
      </trkpt>
      <trkpt lat="48.66737" lon="7.18452">
        <ele>420.13</ele>
        <time>2013-08-11T07:04:27Z</time>
      </trkpt>
      <trkpt lat="48.66721" lon="7.18439">
        <ele>423.46</ele>
        <time>2013-08-11T07:04:39Z</time>
      </trkpt>
      <trkpt lat="48.66706" lon="7.18424">
        <ele>426.49</ele>
        <time>2013-08-11T07:04:51Z</time>
      </trkpt>
      <trkpt lat="48.66688" lon="7.1842">
        <ele>428.42</ele>
        <time>2013-08-11T07:05:03Z</time>
      </trkpt>
      <trkpt lat="48.6667" lon="7.18414">
        <ele>429.56</ele>
        <time>2013-08-11T07:05:16Z</time>
      </trkpt>
      <trkpt lat="48.66652" lon="7.18407">
        <ele>429.59</ele>
        <time>2013-08-11T07:05:26Z</time>
      </trkpt>
      <trkpt lat="48.66633" lon="7.18403">
        <ele>429.59</ele>
        <time>2013-08-11T07:05:36Z</time>
      </trkpt>
      <trkpt lat="48.66615" lon="7.18399">
        <ele>428.77</ele>
        <time>2013-08-11T07:05:46Z</time>
      </trkpt>
      <trkpt lat="48.66597" lon="7.18396">
        <ele>428.59</ele>
        <time>2013-08-11T07:06:01Z</time>
      </trkpt>
      <trkpt lat="48.66579" lon="7.18396">
        <ele>429.35</ele>
        <time>2013-08-11T07:06:21Z</time>
      </trkpt>
      <trkpt lat="48.66559" lon="7.18399">
        <ele>432.32</ele>
        <time>2013-08-11T07:06:40Z</time>
      </trkpt>
      <trkpt lat="48.66542" lon="7.18407">
        <ele>434.78</ele>
        <time>2013-08-11T07:07:00Z</time>
      </trkpt>
      <trkpt lat="48.66525" lon="7.18418">
        <ele>439.03</ele>
        <time>2013-08-11T07:07:28Z</time>
      </trkpt>
      <trkpt lat="48.66541" lon="7.18431">
        <ele>440.55</ele>
        <time>2013-08-11T07:07:47Z</time>
      </trkpt>
      <trkpt lat="48.6656" lon="7.18433">
        <ele>442.61</ele>
        <time>2013-08-11T07:07:52Z</time>
      </trkpt>
      <trkpt lat="48.66582" lon="7.18439">
        <ele>445.47</ele>
        <time>2013-08-11T07:07:56Z</time>
      </trkpt>
      <trkpt lat="48.66604" lon="7.18454">
        <ele>446.92</ele>
        <time>2013-08-11T07:08:00Z</time>
      </trkpt>
      <trkpt lat="48.66624" lon="7.18467">
        <ele>447.06</ele>
        <time>2013-08-11T07:08:03Z</time>
      </trkpt>
      <trkpt lat="48.66643" lon="7.18478">
        <ele>446.54</ele>
        <time>2013-08-11T07:08:06Z</time>
      </trkpt>
      <trkpt lat="48.66662" lon="7.18491">
        <ele>445.55</ele>
        <time>2013-08-11T07:08:09Z</time>
      </trkpt>
      <trkpt lat="48.66679" lon="7.18508">
        <ele>443.98</ele>
        <time>2013-08-11T07:08:12Z</time>
      </trkpt>
      <trkpt lat="48.66692" lon="7.18536">
        <ele>442.35</ele>
        <time>2013-08-11T07:08:15Z</time>
      </trkpt>
      <trkpt lat="48.667" lon="7.1857">
        <ele>440.5</ele>
        <time>2013-08-11T07:08:18Z</time>
      </trkpt>
      <trkpt lat="48.66701" lon="7.18605">
        <ele>438.71</ele>
        <time>2013-08-11T07:08:21Z</time>
      </trkpt>
      <trkpt lat="48.667" lon="7.18641">
        <ele>436.8</ele>
        <time>2013-08-11T07:08:24Z</time>
      </trkpt>
      <trkpt lat="48.66694" lon="7.18678">
        <ele>434.83</ele>
        <time>2013-08-11T07:08:27Z</time>
      </trkpt>
      <trkpt lat="48.66688" lon="7.18714">
        <ele>433.29</ele>
        <time>2013-08-11T07:08:30Z</time>
      </trkpt>
      <trkpt lat="48.66681" lon="7.18748">
        <ele>431.87</ele>
        <time>2013-08-11T07:08:33Z</time>
      </trkpt>
      <trkpt lat="48.66671" lon="7.18781">
        <ele>430.11</ele>
        <time>2013-08-11T07:08:36Z</time>
      </trkpt>
      <trkpt lat="48.6666" lon="7.18808">
        <ele>428.4</ele>
        <time>2013-08-11T07:08:39Z</time>
      </trkpt>
      <trkpt lat="48.66642" lon="7.1883">
        <ele>426.59</ele>
        <time>2013-08-11T07:08:43Z</time>
      </trkpt>
      <trkpt lat="48.6662" lon="7.18832">
        <ele>424.99</ele>
        <time>2013-08-11T07:08:46Z</time>
      </trkpt>
      <trkpt lat="48.66598" lon="7.18832">
        <ele>423.93</ele>
        <time>2013-08-11T07:08:49Z</time>
      </trkpt>
      <trkpt lat="48.66575" lon="7.18821">
        <ele>422.91</ele>
        <time>2013-08-11T07:08:52Z</time>
      </trkpt>
      <trkpt lat="48.66552" lon="7.18808">
        <ele>422.15</ele>
        <time>2013-08-11T07:08:55Z</time>
      </trkpt>
      <trkpt lat="48.66527" lon="7.18806">
        <ele>421.82</ele>
        <time>2013-08-11T07:08:58Z</time>
      </trkpt>
      <trkpt lat="48.66509" lon="7.18815">
        <ele>422.16</ele>
        <time>2013-08-11T07:09:00Z</time>
      </trkpt>
      <trkpt lat="48.66483" lon="7.18815">
        <ele>422.99</ele>
        <time>2013-08-11T07:09:03Z</time>
      </trkpt>
      <trkpt lat="48.66458" lon="7.18815">
        <ele>423.91</ele>
        <time>2013-08-11T07:09:06Z</time>
      </trkpt>
      <trkpt lat="48.66433" lon="7.18826">
        <ele>423.87</ele>
        <time>2013-08-11T07:09:09Z</time>
      </trkpt>
      <trkpt lat="48.66414" lon="7.18856">
        <ele>423.71</ele>
        <time>2013-08-11T07:09:12Z</time>
      </trkpt>
      <trkpt lat="48.66407" lon="7.18881">
        <ele>423.41</ele>
        <time>2013-08-11T07:09:14Z</time>
      </trkpt>
      <trkpt lat="48.664" lon="7.18907">
        <ele>421.42</ele>
        <time>2013-08-11T07:09:16Z</time>
      </trkpt>
      <trkpt lat="48.664" lon="7.18948">
        <ele>415.08</ele>
        <time>2013-08-11T07:09:19Z</time>
      </trkpt>
      <trkpt lat="48.66405" lon="7.18978">
        <ele>410.43</ele>
        <time>2013-08-11T07:09:21Z</time>
      </trkpt>
      <trkpt lat="48.66409" lon="7.19008">
        <ele>406.06</ele>
        <time>2013-08-11T07:09:23Z</time>
      </trkpt>
      <trkpt lat="48.66416" lon="7.1904">
        <ele>401.86</ele>
        <time>2013-08-11T07:09:25Z</time>
      </trkpt>
      <trkpt lat="48.66421" lon="7.19068">
        <ele>397.74</ele>
        <time>2013-08-11T07:09:27Z</time>
      </trkpt>
      <trkpt lat="48.66429" lon="7.19109">
        <ele>392.09</ele>
        <time>2013-08-11T07:09:30Z</time>
      </trkpt>
      <trkpt lat="48.66434" lon="7.19139">
        <ele>388.31</ele>
        <time>2013-08-11T07:09:32Z</time>
      </trkpt>
      <trkpt lat="48.66434" lon="7.19177">
        <ele>382.47</ele>
        <time>2013-08-11T07:09:35Z</time>
      </trkpt>
      <trkpt lat="48.66429" lon="7.1921">
        <ele>377.37</ele>
        <time>2013-08-11T07:09:38Z</time>
      </trkpt>
      <trkpt lat="48.66412" lon="7.19229">
        <ele>373.59</ele>
        <time>2013-08-11T07:09:41Z</time>
      </trkpt>
      <trkpt lat="48.6639" lon="7.19233">
        <ele>371.28</ele>
        <time>2013-08-11T07:09:44Z</time>
      </trkpt>
      <trkpt lat="48.66368" lon="7.1924">
        <ele>369.86</ele>
        <time>2013-08-11T07:09:47Z</time>
      </trkpt>
      <trkpt lat="48.66347" lon="7.19244">
        <ele>368.69</ele>
        <time>2013-08-11T07:09:50Z</time>
      </trkpt>
      <trkpt lat="48.66325" lon="7.19248">
        <ele>367.23</ele>
        <time>2013-08-11T07:09:53Z</time>
      </trkpt>
      <trkpt lat="48.66302" lon="7.19246">
        <ele>366.03</ele>
        <time>2013-08-11T07:09:56Z</time>
      </trkpt>
      <trkpt lat="48.66278" lon="7.19244">
        <ele>365.45</ele>
        <time>2013-08-11T07:09:59Z</time>
      </trkpt>
      <trkpt lat="48.66255" lon="7.19244">
        <ele>365.78</ele>
        <time>2013-08-11T07:10:02Z</time>
      </trkpt>
      <trkpt lat="48.66232" lon="7.19259">
        <ele>366.69</ele>
        <time>2013-08-11T07:10:05Z</time>
      </trkpt>
      <trkpt lat="48.66225" lon="7.19285">
        <ele>367.33</ele>
        <time>2013-08-11T07:10:07Z</time>
      </trkpt>
      <trkpt lat="48.66222" lon="7.19315">
        <ele>368.32</ele>
        <time>2013-08-11T07:10:09Z</time>
      </trkpt>
      <trkpt lat="48.66222" lon="7.19345">
        <ele>369.13</ele>
        <time>2013-08-11T07:10:11Z</time>
      </trkpt>
      <trkpt lat="48.66221" lon="7.19373">
        <ele>369.27</ele>
        <time>2013-08-11T07:10:13Z</time>
      </trkpt>
      <trkpt lat="48.66215" lon="7.19409">
        <ele>367.61</ele>
        <time>2013-08-11T07:10:16Z</time>
      </trkpt>
      <trkpt lat="48.66198" lon="7.19435">
        <ele>365.61</ele>
        <time>2013-08-11T07:10:19Z</time>
      </trkpt>
      <trkpt lat="48.66176" lon="7.19456">
        <ele>361.48</ele>
        <time>2013-08-11T07:10:22Z</time>
      </trkpt>
      <trkpt lat="48.6616" lon="7.19482">
        <ele>355.29</ele>
        <time>2013-08-11T07:10:25Z</time>
      </trkpt>
      <trkpt lat="48.66147" lon="7.19514">
        <ele>349.71</ele>
        <time>2013-08-11T07:10:28Z</time>
      </trkpt>
      <trkpt lat="48.66137" lon="7.19547">
        <ele>345.74</ele>
        <time>2013-08-11T07:10:31Z</time>
      </trkpt>
      <trkpt lat="48.66131" lon="7.19577">
        <ele>343.09</ele>
        <time>2013-08-11T07:10:34Z</time>
      </trkpt>
      <trkpt lat="48.66127" lon="7.19604">
        <ele>341.64</ele>
        <time>2013-08-11T07:10:37Z</time>
      </trkpt>
      <trkpt lat="48.6612" lon="7.19637">
        <ele>341.5</ele>
        <time>2013-08-11T07:10:41Z</time>
      </trkpt>
      <trkpt lat="48.66113" lon="7.19665">
        <ele>342</ele>
        <time>2013-08-11T07:10:45Z</time>
      </trkpt>
      <trkpt lat="48.66105" lon="7.1969">
        <ele>342.65</ele>
        <time>2013-08-11T07:10:49Z</time>
      </trkpt>
      <trkpt lat="48.66096" lon="7.19716">
        <ele>343.73</ele>
        <time>2013-08-11T07:10:53Z</time>
      </trkpt>
      <trkpt lat="48.66078" lon="7.19718">
        <ele>344.75</ele>
        <time>2013-08-11T07:10:57Z</time>
      </trkpt>
      <trkpt lat="48.66061" lon="7.19705">
        <ele>343.51</ele>
        <time>2013-08-11T07:11:02Z</time>
      </trkpt>
      <trkpt lat="48.66051" lon="7.19682">
        <ele>343.06</ele>
        <time>2013-08-11T07:11:07Z</time>
      </trkpt>
      <trkpt lat="48.66049" lon="7.19654">
        <ele>345.16</ele>
        <time>2013-08-11T07:11:12Z</time>
      </trkpt>
      <trkpt lat="48.66042" lon="7.19628">
        <ele>347.1</ele>
        <time>2013-08-11T07:11:18Z</time>
      </trkpt>
      <trkpt lat="48.66032" lon="7.19598">
        <ele>348.27</ele>
        <time>2013-08-11T07:11:24Z</time>
      </trkpt>
      <trkpt lat="48.66025" lon="7.1957">
        <ele>349.93</ele>
        <time>2013-08-11T07:11:30Z</time>
      </trkpt>
      <trkpt lat="48.66019" lon="7.1954">
        <ele>352.12</ele>
        <time>2013-08-11T07:11:36Z</time>
      </trkpt>
      <trkpt lat="48.66013" lon="7.1951">
        <ele>355.27</ele>
        <time>2013-08-11T07:11:42Z</time>
      </trkpt>
      <trkpt lat="48.66009" lon="7.19482">
        <ele>358.06</ele>
        <time>2013-08-11T07:11:47Z</time>
      </trkpt>
      <trkpt lat="48.66002" lon="7.19454">
        <ele>361.26</ele>
        <time>2013-08-11T07:11:53Z</time>
      </trkpt>
      <trkpt lat="48.65996" lon="7.19426">
        <ele>363.94</ele>
        <time>2013-08-11T07:11:59Z</time>
      </trkpt>
      <trkpt lat="48.65988" lon="7.19401">
        <ele>366.5</ele>
        <time>2013-08-11T07:12:05Z</time>
      </trkpt>
      <trkpt lat="48.65982" lon="7.19375">
        <ele>368.8</ele>
        <time>2013-08-11T07:12:11Z</time>
      </trkpt>
      <trkpt lat="48.65975" lon="7.19349">
        <ele>371.2</ele>
        <time>2013-08-11T07:12:17Z</time>
      </trkpt>
      <trkpt lat="48.65964" lon="7.19323">
        <ele>373.54</ele>
        <time>2013-08-11T07:12:23Z</time>
      </trkpt>
      <trkpt lat="48.65953" lon="7.19298">
        <ele>375.8</ele>
        <time>2013-08-11T07:12:29Z</time>
      </trkpt>
      <trkpt lat="48.65942" lon="7.19274">
        <ele>378.29</ele>
        <time>2013-08-11T07:12:36Z</time>
      </trkpt>
      <trkpt lat="48.65928" lon="7.19244">
        <ele>380.34</ele>
        <time>2013-08-11T07:12:46Z</time>
      </trkpt>
      <trkpt lat="48.65918" lon="7.1927">
        <ele>375.96</ele>
        <time>2013-08-11T07:13:08Z</time>
      </trkpt>
      <trkpt lat="48.65919" lon="7.19302">
        <ele>373.65</ele>
        <time>2013-08-11T07:13:14Z</time>
      </trkpt>
      <trkpt lat="48.65919" lon="7.19332">
        <ele>368.54</ele>
        <time>2013-08-11T07:13:20Z</time>
      </trkpt>
      <trkpt lat="48.65921" lon="7.19364">
        <ele>366.8</ele>
        <time>2013-08-11T07:13:25Z</time>
      </trkpt>
      <trkpt lat="48.65924" lon="7.19392">
        <ele>366.1</ele>
        <time>2013-08-11T07:13:28Z</time>
      </trkpt>
      <trkpt lat="48.65927" lon="7.19422">
        <ele>364.51</ele>
        <time>2013-08-11T07:13:33Z</time>
      </trkpt>
      <trkpt lat="48.65932" lon="7.1945">
        <ele>362.32</ele>
        <time>2013-08-11T07:13:37Z</time>
      </trkpt>
      <trkpt lat="48.65946" lon="7.19484">
        <ele>359.02</ele>
        <time>2013-08-11T07:13:44Z</time>
      </trkpt>
      <trkpt lat="48.65954" lon="7.1951">
        <ele>355.89</ele>
        <time>2013-08-11T07:13:53Z</time>
      </trkpt>
      <trkpt lat="48.65962" lon="7.19542">
        <ele>352.88</ele>
        <time>2013-08-11T07:13:59Z</time>
      </trkpt>
      <trkpt lat="48.65968" lon="7.1957">
        <ele>345.67</ele>
        <time>2013-08-11T07:14:03Z</time>
      </trkpt>
      <trkpt lat="48.65973" lon="7.19607">
        <ele>337.6</ele>
        <time>2013-08-11T07:14:10Z</time>
      </trkpt>
      <trkpt lat="48.65971" lon="7.19643">
        <ele>332.59</ele>
        <time>2013-08-11T07:14:43Z</time>
      </trkpt>
      <trkpt lat="48.65956" lon="7.19665">
        <ele>327.45</ele>
        <time>2013-08-11T07:14:51Z</time>
      </trkpt>
      <trkpt lat="48.65957" lon="7.19697">
        <ele>323.51</ele>
        <time>2013-08-11T07:14:57Z</time>
      </trkpt>
      <trkpt lat="48.65968" lon="7.1972">
        <ele>316.46</ele>
        <time>2013-08-11T07:15:02Z</time>
      </trkpt>
      <trkpt lat="48.65979" lon="7.19746">
        <ele>312.59</ele>
        <time>2013-08-11T07:15:08Z</time>
      </trkpt>
      <trkpt lat="48.65988" lon="7.1977">
        <ele>310.82</ele>
        <time>2013-08-11T07:15:13Z</time>
      </trkpt>
      <trkpt lat="48.65998" lon="7.19798">
        <ele>309.81</ele>
        <time>2013-08-11T07:15:19Z</time>
      </trkpt>
      <trkpt lat="48.66008" lon="7.19828">
        <ele>309.13</ele>
        <time>2013-08-11T07:15:24Z</time>
      </trkpt>
      <trkpt lat="48.6602" lon="7.19853">
        <ele>309.92</ele>
        <time>2013-08-11T07:15:29Z</time>
      </trkpt>
      <trkpt lat="48.66037" lon="7.19873">
        <ele>310.43</ele>
        <time>2013-08-11T07:15:34Z</time>
      </trkpt>
      <trkpt lat="48.66051" lon="7.19892">
        <ele>306.89</ele>
        <time>2013-08-11T07:15:38Z</time>
      </trkpt>
      <trkpt lat="48.66072" lon="7.19898">
        <ele>300.65</ele>
        <time>2013-08-11T07:15:43Z</time>
      </trkpt>
      <trkpt lat="48.6609" lon="7.19898">
        <ele>296.49</ele>
        <time>2013-08-11T07:15:49Z</time>
      </trkpt>
      <trkpt lat="48.66075" lon="7.1992">
        <ele>288.22</ele>
        <time>2013-08-11T07:16:06Z</time>
      </trkpt>
      <trkpt lat="48.66055" lon="7.19922">
        <ele>289.93</ele>
        <time>2013-08-11T07:16:12Z</time>
      </trkpt>
      <trkpt lat="48.66036" lon="7.19907">
        <ele>294.27</ele>
        <time>2013-08-11T07:16:17Z</time>
      </trkpt>
      <trkpt lat="48.66021" lon="7.1989">
        <ele>298.24</ele>
        <time>2013-08-11T07:16:21Z</time>
      </trkpt>
      <trkpt lat="48.66006" lon="7.19866">
        <ele>304.08</ele>
        <time>2013-08-11T07:16:25Z</time>
      </trkpt>
      <trkpt lat="48.65991" lon="7.19841">
        <ele>310.37</ele>
        <time>2013-08-11T07:16:29Z</time>
      </trkpt>
      <trkpt lat="48.65979" lon="7.19815">
        <ele>314.96</ele>
        <time>2013-08-11T07:16:33Z</time>
      </trkpt>
      <trkpt lat="48.65967" lon="7.19789">
        <ele>316.96</ele>
        <time>2013-08-11T07:16:38Z</time>
      </trkpt>
      <trkpt lat="48.65956" lon="7.19763">
        <ele>316.41</ele>
        <time>2013-08-11T07:16:46Z</time>
      </trkpt>
      <trkpt lat="48.65939" lon="7.19772">
        <ele>310.43</ele>
        <time>2013-08-11T07:17:17Z</time>
      </trkpt>
      <trkpt lat="48.6595" lon="7.19798">
        <ele>304.62</ele>
        <time>2013-08-11T07:17:27Z</time>
      </trkpt>
      <trkpt lat="48.65958" lon="7.19823">
        <ele>300.49</ele>
        <time>2013-08-11T07:17:38Z</time>
      </trkpt>
      <trkpt lat="48.65961" lon="7.19853">
        <ele>296.59</ele>
        <time>2013-08-11T07:17:58Z</time>
      </trkpt>
      <trkpt lat="48.65942" lon="7.19836">
        <ele>292.62</ele>
        <time>2013-08-11T07:18:13Z</time>
      </trkpt>
      <trkpt lat="48.65925" lon="7.1981">
        <ele>292.69</ele>
        <time>2013-08-11T07:18:26Z</time>
      </trkpt>
      <trkpt lat="48.65907" lon="7.19815">
        <ele>293.25</ele>
        <time>2013-08-11T07:18:34Z</time>
      </trkpt>
      <trkpt lat="48.65893" lon="7.19832">
        <ele>292.75</ele>
        <time>2013-08-11T07:18:39Z</time>
      </trkpt>
      <trkpt lat="48.65876" lon="7.19841">
        <ele>292.88</ele>
        <time>2013-08-11T07:18:44Z</time>
      </trkpt>
      <trkpt lat="48.6586" lon="7.19856">
        <ele>293.9</ele>
        <time>2013-08-11T07:18:50Z</time>
      </trkpt>
      <trkpt lat="48.6585" lon="7.19883">
        <ele>295.15</ele>
        <time>2013-08-11T07:18:56Z</time>
      </trkpt>
      <trkpt lat="48.65839" lon="7.19911">
        <ele>296.77</ele>
        <time>2013-08-11T07:19:02Z</time>
      </trkpt>
      <trkpt lat="48.65834" lon="7.19939">
        <ele>298.08</ele>
        <time>2013-08-11T07:19:07Z</time>
      </trkpt>
      <trkpt lat="48.65824" lon="7.19963">
        <ele>299.67</ele>
        <time>2013-08-11T07:19:12Z</time>
      </trkpt>
      <trkpt lat="48.65813" lon="7.19989">
        <ele>304.65</ele>
        <time>2013-08-11T07:19:19Z</time>
      </trkpt>
      <trkpt lat="48.65802" lon="7.20012">
        <ele>309.43</ele>
        <time>2013-08-11T07:19:24Z</time>
      </trkpt>
      <trkpt lat="48.65788" lon="7.20036">
        <ele>312.01</ele>
        <time>2013-08-11T07:19:29Z</time>
      </trkpt>
      <trkpt lat="48.65771" lon="7.20049">
        <ele>315.87</ele>
        <time>2013-08-11T07:19:33Z</time>
      </trkpt>
      <trkpt lat="48.65755" lon="7.20064">
        <ele>319.24</ele>
        <time>2013-08-11T07:19:37Z</time>
      </trkpt>
      <trkpt lat="48.65739" lon="7.20077">
        <ele>321.61</ele>
        <time>2013-08-11T07:19:42Z</time>
      </trkpt>
      <trkpt lat="48.65721" lon="7.20092">
        <ele>322.71</ele>
        <time>2013-08-11T07:19:49Z</time>
      </trkpt>
      <trkpt lat="48.65702" lon="7.20094">
        <ele>323.43</ele>
        <time>2013-08-11T07:19:55Z</time>
      </trkpt>
      <trkpt lat="48.65692" lon="7.20119">
        <ele>322.89</ele>
        <time>2013-08-11T07:20:04Z</time>
      </trkpt>
      <trkpt lat="48.65689" lon="7.2015">
        <ele>319.93</ele>
        <time>2013-08-11T07:20:18Z</time>
      </trkpt>
      <trkpt lat="48.65685" lon="7.20177">
        <ele>318.14</ele>
        <time>2013-08-11T07:20:24Z</time>
      </trkpt>
      <trkpt lat="48.65675" lon="7.20203">
        <ele>316.93</ele>
        <time>2013-08-11T07:20:30Z</time>
      </trkpt>
      <trkpt lat="48.65667" lon="7.20231">
        <ele>315.87</ele>
        <time>2013-08-11T07:20:37Z</time>
      </trkpt>
      <trkpt lat="48.6566" lon="7.20259">
        <ele>315.39</ele>
        <time>2013-08-11T07:20:43Z</time>
      </trkpt>
      <trkpt lat="48.65652" lon="7.20285">
        <ele>314.73</ele>
        <time>2013-08-11T07:20:49Z</time>
      </trkpt>
      <trkpt lat="48.65638" lon="7.20304">
        <ele>314.17</ele>
        <time>2013-08-11T07:20:56Z</time>
      </trkpt>
      <trkpt lat="48.65623" lon="7.20321">
        <ele>313.69</ele>
        <time>2013-08-11T07:21:02Z</time>
      </trkpt>
      <trkpt lat="48.65602" lon="7.20334">
        <ele>312.53</ele>
        <time>2013-08-11T07:21:10Z</time>
      </trkpt>
      <trkpt lat="48.65581" lon="7.20345">
        <ele>311.03</ele>
        <time>2013-08-11T07:21:17Z</time>
      </trkpt>
      <trkpt lat="48.65563" lon="7.20362">
        <ele>310.67</ele>
        <time>2013-08-11T07:21:23Z</time>
      </trkpt>
      <trkpt lat="48.65539" lon="7.20373">
        <ele>309.44</ele>
        <time>2013-08-11T07:21:53Z</time>
      </trkpt>
      <trkpt lat="48.65514" lon="7.20383">
        <ele>307.43</ele>
        <time>2013-08-11T07:22:07Z</time>
      </trkpt>
      <trkpt lat="48.65494" lon="7.20411">
        <ele>306.61</ele>
        <time>2013-08-11T07:22:20Z</time>
      </trkpt>
      <trkpt lat="48.65472" lon="7.20411">
        <ele>306.59</ele>
        <time>2013-08-11T07:22:29Z</time>
      </trkpt>
      <trkpt lat="48.65452" lon="7.20409">
        <ele>309.31</ele>
        <time>2013-08-11T07:22:35Z</time>
      </trkpt>
      <trkpt lat="48.6543" lon="7.20403">
        <ele>310.43</ele>
        <time>2013-08-11T07:22:39Z</time>
      </trkpt>
      <trkpt lat="48.65406" lon="7.20386">
        <ele>312.32</ele>
        <time>2013-08-11T07:22:45Z</time>
      </trkpt>
      <trkpt lat="48.65395" lon="7.20347">
        <ele>314.59</ele>
        <time>2013-08-11T07:22:49Z</time>
      </trkpt>
      <trkpt lat="48.65382" lon="7.20319">
        <ele>324.25</ele>
        <time>2013-08-11T07:22:52Z</time>
      </trkpt>
      <trkpt lat="48.6536" lon="7.20302">
        <ele>332.93</ele>
        <time>2013-08-11T07:22:56Z</time>
      </trkpt>
      <trkpt lat="48.65343" lon="7.20289">
        <ele>336.64</ele>
        <time>2013-08-11T07:22:59Z</time>
      </trkpt>
      <trkpt lat="48.6532" lon="7.20276">
        <ele>340.48</ele>
        <time>2013-08-11T07:23:04Z</time>
      </trkpt>
      <trkpt lat="48.653" lon="7.2027">
        <ele>342.75</ele>
        <time>2013-08-11T07:23:08Z</time>
      </trkpt>
      <trkpt lat="48.65276" lon="7.20259">
        <ele>345.28</ele>
        <time>2013-08-11T07:23:15Z</time>
      </trkpt>
      <trkpt lat="48.65255" lon="7.20261">
        <ele>347.19</ele>
        <time>2013-08-11T07:23:19Z</time>
      </trkpt>
      <trkpt lat="48.65232" lon="7.20263">
        <ele>349.66</ele>
        <time>2013-08-11T07:23:23Z</time>
      </trkpt>
      <trkpt lat="48.65213" lon="7.20265">
        <ele>352.24</ele>
        <time>2013-08-11T07:23:27Z</time>
      </trkpt>
      <trkpt lat="48.65195" lon="7.20274">
        <ele>361.27</ele>
        <time>2013-08-11T07:23:31Z</time>
      </trkpt>
      <trkpt lat="48.65173" lon="7.20274">
        <ele>368.96</ele>
        <time>2013-08-11T07:23:36Z</time>
      </trkpt>
      <trkpt lat="48.65151" lon="7.20263">
        <ele>372.17</ele>
        <time>2013-08-11T07:23:41Z</time>
      </trkpt>
      <trkpt lat="48.6513" lon="7.20242">
        <ele>375.09</ele>
        <time>2013-08-11T07:23:47Z</time>
      </trkpt>
      <trkpt lat="48.65113" lon="7.20222">
        <ele>378.19</ele>
        <time>2013-08-11T07:23:53Z</time>
      </trkpt>
      <trkpt lat="48.65097" lon="7.20201">
        <ele>381.36</ele>
        <time>2013-08-11T07:24:01Z</time>
      </trkpt>
      <trkpt lat="48.65078" lon="7.20195">
        <ele>383.38</ele>
        <time>2013-08-11T07:24:04Z</time>
      </trkpt>
      <trkpt lat="48.65055" lon="7.20177">
        <ele>383.88</ele>
        <time>2013-08-11T07:24:09Z</time>
      </trkpt>
      <trkpt lat="48.65041" lon="7.2016">
        <ele>381.44</ele>
        <time>2013-08-11T07:24:13Z</time>
      </trkpt>
      <trkpt lat="48.65023" lon="7.20137">
        <ele>375.98</ele>
        <time>2013-08-11T07:24:17Z</time>
      </trkpt>
      <trkpt lat="48.65003" lon="7.20124">
        <ele>364.58</ele>
        <time>2013-08-11T07:24:20Z</time>
      </trkpt>
      <trkpt lat="48.64983" lon="7.20115">
        <ele>357.46</ele>
        <time>2013-08-11T07:24:22Z</time>
      </trkpt>
      <trkpt lat="48.64965" lon="7.20104">
        <ele>347.89</ele>
        <time>2013-08-11T07:24:24Z</time>
      </trkpt>
      <trkpt lat="48.64946" lon="7.201">
        <ele>337.32</ele>
        <time>2013-08-11T07:24:26Z</time>
      </trkpt>
      <trkpt lat="48.6492" lon="7.20096">
        <ele>324.1</ele>
        <time>2013-08-11T07:24:29Z</time>
      </trkpt>
      <trkpt lat="48.649" lon="7.20094">
        <ele>315.35</ele>
        <time>2013-08-11T07:24:32Z</time>
      </trkpt>
      <trkpt lat="48.64882" lon="7.20107">
        <ele>308.53</ele>
        <time>2013-08-11T07:24:36Z</time>
      </trkpt>
      <trkpt lat="48.64859" lon="7.20102">
        <ele>304.84</ele>
        <time>2013-08-11T07:24:41Z</time>
      </trkpt>
      <trkpt lat="48.64842" lon="7.20081">
        <ele>303.74</ele>
        <time>2013-08-11T07:24:45Z</time>
      </trkpt>
      <trkpt lat="48.64824" lon="7.2007">
        <ele>303.55</ele>
        <time>2013-08-11T07:24:50Z</time>
      </trkpt>
      <trkpt lat="48.64805" lon="7.20051">
        <ele>303.84</ele>
        <time>2013-08-11T07:25:00Z</time>
      </trkpt>
      <trkpt lat="48.64799" lon="7.20025">
        <ele>306.18</ele>
        <time>2013-08-11T07:25:12Z</time>
      </trkpt>
      <trkpt lat="48.64798" lon="7.19993">
        <ele>308.12</ele>
        <time>2013-08-11T07:25:24Z</time>
      </trkpt>
      <trkpt lat="48.64794" lon="7.19963">
        <ele>306.45</ele>
        <time>2013-08-11T07:25:37Z</time>
      </trkpt>
      <trkpt lat="48.64785" lon="7.19939">
        <ele>306.96</ele>
        <time>2013-08-11T07:25:47Z</time>
      </trkpt>
      <trkpt lat="48.64773" lon="7.19918">
        <ele>311.79</ele>
        <time>2013-08-11T07:25:56Z</time>
      </trkpt>
      <trkpt lat="48.64758" lon="7.19898">
        <ele>317.36</ele>
        <time>2013-08-11T07:26:07Z</time>
      </trkpt>
      <trkpt lat="48.64746" lon="7.19875">
        <ele>321.66</ele>
        <time>2013-08-11T07:26:18Z</time>
      </trkpt>
      <trkpt lat="48.64734" lon="7.19849">
        <ele>323.26</ele>
        <time>2013-08-11T07:26:26Z</time>
      </trkpt>
      <trkpt lat="48.64725" lon="7.19823">
        <ele>323.53</ele>
        <time>2013-08-11T07:26:32Z</time>
      </trkpt>
      <trkpt lat="48.64715" lon="7.19795">
        <ele>323.84</ele>
        <time>2013-08-11T07:26:42Z</time>
      </trkpt>
      <trkpt lat="48.64715" lon="7.19768">
        <ele>323.94</ele>
        <time>2013-08-11T07:26:53Z</time>
      </trkpt>
      <trkpt lat="48.64721" lon="7.19729">
        <ele>325.7</ele>
        <time>2013-08-11T07:27:09Z</time>
      </trkpt>
      <trkpt lat="48.64728" lon="7.19692">
        <ele>328.6</ele>
        <time>2013-08-11T07:27:22Z</time>
      </trkpt>
      <trkpt lat="48.64734" lon="7.19667">
        <ele>330.66</ele>
        <time>2013-08-11T07:27:33Z</time>
      </trkpt>
      <trkpt lat="48.64739" lon="7.19637">
        <ele>332.92</ele>
        <time>2013-08-11T07:27:44Z</time>
      </trkpt>
      <trkpt lat="48.64738" lon="7.19609">
        <ele>336.18</ele>
        <time>2013-08-11T07:27:59Z</time>
      </trkpt>
      <trkpt lat="48.64724" lon="7.19587">
        <ele>341.43</ele>
        <time>2013-08-11T07:28:16Z</time>
      </trkpt>
      <trkpt lat="48.64705" lon="7.19592">
        <ele>347.75</ele>
        <time>2013-08-11T07:28:22Z</time>
      </trkpt>
      <trkpt lat="48.64687" lon="7.19594">
        <ele>356.06</ele>
        <time>2013-08-11T07:28:29Z</time>
      </trkpt>
      <trkpt lat="48.64668" lon="7.19598">
        <ele>364.54</ele>
        <time>2013-08-11T07:28:37Z</time>
      </trkpt>
      <trkpt lat="48.64648" lon="7.19602">
        <ele>371.46</ele>
        <time>2013-08-11T07:28:46Z</time>
      </trkpt>
      <trkpt lat="48.6463" lon="7.19604">
        <ele>376.09</ele>
        <time>2013-08-11T07:28:55Z</time>
      </trkpt>
      <trkpt lat="48.64615" lon="7.19589">
        <ele>380.16</ele>
        <time>2013-08-11T07:29:07Z</time>
      </trkpt>
      <trkpt lat="48.64611" lon="7.19562">
        <ele>380.56</ele>
        <time>2013-08-11T07:29:16Z</time>
      </trkpt>
      <trkpt lat="48.64603" lon="7.19536">
        <ele>378.79</ele>
        <time>2013-08-11T07:29:24Z</time>
      </trkpt>
      <trkpt lat="48.64606" lon="7.19506">
        <ele>375.86</ele>
        <time>2013-08-11T07:29:34Z</time>
      </trkpt>
      <trkpt lat="48.64612" lon="7.19478">
        <ele>373.36</ele>
        <time>2013-08-11T07:29:44Z</time>
      </trkpt>
      <trkpt lat="48.64614" lon="7.19448">
        <ele>372.09</ele>
        <time>2013-08-11T07:29:52Z</time>
      </trkpt>
      <trkpt lat="48.64613" lon="7.1942">
        <ele>371.6</ele>
        <time>2013-08-11T07:30:07Z</time>
      </trkpt>
      <trkpt lat="48.64618" lon="7.19392">
        <ele>371.45</ele>
        <time>2013-08-11T07:30:15Z</time>
      </trkpt>
      <trkpt lat="48.64622" lon="7.1936">
        <ele>372.65</ele>
        <time>2013-08-11T07:30:23Z</time>
      </trkpt>
      <trkpt lat="48.64621" lon="7.1933">
        <ele>377.62</ele>
        <time>2013-08-11T07:30:27Z</time>
      </trkpt>
      <trkpt lat="48.64616" lon="7.193">
        <ele>382.86</ele>
        <time>2013-08-11T07:30:31Z</time>
      </trkpt>
      <trkpt lat="48.6461" lon="7.19274">
        <ele>386.78</ele>
        <time>2013-08-11T07:30:35Z</time>
      </trkpt>
      <trkpt lat="48.64588" lon="7.19263">
        <ele>394.16</ele>
        <time>2013-08-11T07:30:38Z</time>
      </trkpt>
      <trkpt lat="48.64565" lon="7.19263">
        <ele>406.08</ele>
        <time>2013-08-11T07:30:41Z</time>
      </trkpt>
      <trkpt lat="48.64545" lon="7.19278">
        <ele>415.82</ele>
        <time>2013-08-11T07:30:45Z</time>
      </trkpt>
      <trkpt lat="48.64533" lon="7.19302">
        <ele>414.26</ele>
        <time>2013-08-11T07:30:50Z</time>
      </trkpt>
      <trkpt lat="48.64526" lon="7.19332">
        <ele>407.17</ele>
        <time>2013-08-11T07:30:54Z</time>
      </trkpt>
      <trkpt lat="48.64518" lon="7.1936">
        <ele>401.65</ele>
        <time>2013-08-11T07:30:59Z</time>
      </trkpt>
      <trkpt lat="48.645" lon="7.19377">
        <ele>399.22</ele>
        <time>2013-08-11T07:31:07Z</time>
      </trkpt>
      <trkpt lat="48.64483" lon="7.1939">
        <ele>396.4</ele>
        <time>2013-08-11T07:31:12Z</time>
      </trkpt>
      <trkpt lat="48.64462" lon="7.19401">
        <ele>393.76</ele>
        <time>2013-08-11T07:31:15Z</time>
      </trkpt>
      <trkpt lat="48.64444" lon="7.19409">
        <ele>393.5</ele>
        <time>2013-08-11T07:31:17Z</time>
      </trkpt>
      <trkpt lat="48.64419" lon="7.19418">
        <ele>393.3</ele>
        <time>2013-08-11T07:31:20Z</time>
      </trkpt>
      <trkpt lat="48.64397" lon="7.19424">
        <ele>390.94</ele>
        <time>2013-08-11T07:31:23Z</time>
      </trkpt>
      <trkpt lat="48.64378" lon="7.19431">
        <ele>387.16</ele>
        <time>2013-08-11T07:31:26Z</time>
      </trkpt>
      <trkpt lat="48.6436" lon="7.19437">
        <ele>384.08</ele>
        <time>2013-08-11T07:31:29Z</time>
      </trkpt>
      <trkpt lat="48.64336" lon="7.19444">
        <ele>381.69</ele>
        <time>2013-08-11T07:31:33Z</time>
      </trkpt>
      <trkpt lat="48.64317" lon="7.19441">
        <ele>381.31</ele>
        <time>2013-08-11T07:31:36Z</time>
      </trkpt>
      <trkpt lat="48.64298" lon="7.19433">
        <ele>382.74</ele>
        <time>2013-08-11T07:31:39Z</time>
      </trkpt>
      <trkpt lat="48.64279" lon="7.19422">
        <ele>385.07</ele>
        <time>2013-08-11T07:31:42Z</time>
      </trkpt>
      <trkpt lat="48.64263" lon="7.19407">
        <ele>386.97</ele>
        <time>2013-08-11T07:31:45Z</time>
      </trkpt>
      <trkpt lat="48.64243" lon="7.1939">
        <ele>388.08</ele>
        <time>2013-08-11T07:31:49Z</time>
      </trkpt>
      <trkpt lat="48.64229" lon="7.19373">
        <ele>388.37</ele>
        <time>2013-08-11T07:31:52Z</time>
      </trkpt>
      <trkpt lat="48.64214" lon="7.19347">
        <ele>388.27</ele>
        <time>2013-08-11T07:31:56Z</time>
      </trkpt>
      <trkpt lat="48.64205" lon="7.19315">
        <ele>385.86</ele>
        <time>2013-08-11T07:32:00Z</time>
      </trkpt>
      <trkpt lat="48.64201" lon="7.19285">
        <ele>383.29</ele>
        <time>2013-08-11T07:32:04Z</time>
      </trkpt>
      <trkpt lat="48.64201" lon="7.19257">
        <ele>381.44</ele>
        <time>2013-08-11T07:32:08Z</time>
      </trkpt>
      <trkpt lat="48.64201" lon="7.19225">
        <ele>379.78</ele>
        <time>2013-08-11T07:32:13Z</time>
      </trkpt>
      <trkpt lat="48.64199" lon="7.19193">
        <ele>378.04</ele>
        <time>2013-08-11T07:32:18Z</time>
      </trkpt>
      <trkpt lat="48.64191" lon="7.19165">
        <ele>376.17</ele>
        <time>2013-08-11T07:32:23Z</time>
      </trkpt>
      <trkpt lat="48.64189" lon="7.19137">
        <ele>375.15</ele>
        <time>2013-08-11T07:32:28Z</time>
      </trkpt>
      <trkpt lat="48.64186" lon="7.19107">
        <ele>374.69</ele>
        <time>2013-08-11T07:32:34Z</time>
      </trkpt>
      <trkpt lat="48.64182" lon="7.19077">
        <ele>376.01</ele>
        <time>2013-08-11T07:32:40Z</time>
      </trkpt>
      <trkpt lat="48.64167" lon="7.19055">
        <ele>378.14</ele>
        <time>2013-08-11T07:32:46Z</time>
      </trkpt>
      <trkpt lat="48.64145" lon="7.19062">
        <ele>380.31</ele>
        <time>2013-08-11T07:32:50Z</time>
      </trkpt>
      <trkpt lat="48.64131" lon="7.19083">
        <ele>383.8</ele>
        <time>2013-08-11T07:32:57Z</time>
      </trkpt>
      <trkpt lat="48.6412" lon="7.19107">
        <ele>389.95</ele>
        <time>2013-08-11T07:33:09Z</time>
      </trkpt>
      <trkpt lat="48.64114" lon="7.19135">
        <ele>393.51</ele>
        <time>2013-08-11T07:33:19Z</time>
      </trkpt>
      <trkpt lat="48.64101" lon="7.19162">
        <ele>396.3</ele>
        <time>2013-08-11T07:33:29Z</time>
      </trkpt>
      <trkpt lat="48.64092" lon="7.19188">
        <ele>397.72</ele>
        <time>2013-08-11T07:33:34Z</time>
      </trkpt>
      <trkpt lat="48.64081" lon="7.19214">
        <ele>398.32</ele>
        <time>2013-08-11T07:33:38Z</time>
      </trkpt>
      <trkpt lat="48.64064" lon="7.19235">
        <ele>397.79</ele>
        <time>2013-08-11T07:33:41Z</time>
      </trkpt>
      <trkpt lat="48.64046" lon="7.19246">
        <ele>396.84</ele>
        <time>2013-08-11T07:33:44Z</time>
      </trkpt>
      <trkpt lat="48.64032" lon="7.19263">
        <ele>394.87</ele>
        <time>2013-08-11T07:33:47Z</time>
      </trkpt>
      <trkpt lat="48.64012" lon="7.1927">
        <ele>383.39</ele>
        <time>2013-08-11T07:33:52Z</time>
      </trkpt>
      <trkpt lat="48.63998" lon="7.19244">
        <ele>375.25</ele>
        <time>2013-08-11T07:33:57Z</time>
      </trkpt>
      <trkpt lat="48.63986" lon="7.1922">
        <ele>371.81</ele>
        <time>2013-08-11T07:34:01Z</time>
      </trkpt>
      <trkpt lat="48.63975" lon="7.19197">
        <ele>369.86</ele>
        <time>2013-08-11T07:34:05Z</time>
      </trkpt>
      <trkpt lat="48.63965" lon="7.19171">
        <ele>368.89</ele>
        <time>2013-08-11T07:34:10Z</time>
      </trkpt>
      <trkpt lat="48.63949" lon="7.19152">
        <ele>368.61</ele>
        <time>2013-08-11T07:34:20Z</time>
      </trkpt>
      <trkpt lat="48.63938" lon="7.1918">
        <ele>369.28</ele>
        <time>2013-08-11T07:34:26Z</time>
      </trkpt>
      <trkpt lat="48.63932" lon="7.1921">
        <ele>369.53</ele>
        <time>2013-08-11T07:34:32Z</time>
      </trkpt>
      <trkpt lat="48.63926" lon="7.19238">
        <ele>370.4</ele>
        <time>2013-08-11T07:34:38Z</time>
      </trkpt>
      <trkpt lat="48.63915" lon="7.19263">
        <ele>371.82</ele>
        <time>2013-08-11T07:34:44Z</time>
      </trkpt>
      <trkpt lat="48.63903" lon="7.19287">
        <ele>373.09</ele>
        <time>2013-08-11T07:34:49Z</time>
      </trkpt>
      <trkpt lat="48.63889" lon="7.19308">
        <ele>379.39</ele>
        <time>2013-08-11T07:34:54Z</time>
      </trkpt>
      <trkpt lat="48.63871" lon="7.19323">
        <ele>382.37</ele>
        <time>2013-08-11T07:34:58Z</time>
      </trkpt>
      <trkpt lat="48.63852" lon="7.19319">
        <ele>382.89</ele>
        <time>2013-08-11T07:35:06Z</time>
      </trkpt>
      <trkpt lat="48.63844" lon="7.19293">
        <ele>381.77</ele>
        <time>2013-08-11T07:35:12Z</time>
      </trkpt>
      <trkpt lat="48.63836" lon="7.19265">
        <ele>380.87</ele>
        <time>2013-08-11T07:35:17Z</time>
      </trkpt>
      <trkpt lat="48.63833" lon="7.19233">
        <ele>379.57</ele>
        <time>2013-08-11T07:35:23Z</time>
      </trkpt>
      <trkpt lat="48.63829" lon="7.19203">
        <ele>378.82</ele>
        <time>2013-08-11T07:35:28Z</time>
      </trkpt>
      <trkpt lat="48.63817" lon="7.1918">
        <ele>378.65</ele>
        <time>2013-08-11T07:35:33Z</time>
      </trkpt>
      <trkpt lat="48.63798" lon="7.19173">
        <ele>378.61</ele>
        <time>2013-08-11T07:35:36Z</time>
      </trkpt>
      <trkpt lat="48.63772" lon="7.19177">
        <ele>379.28</ele>
        <time>2013-08-11T07:35:41Z</time>
      </trkpt>
      <trkpt lat="48.63752" lon="7.1918">
        <ele>380.86</ele>
        <time>2013-08-11T07:35:45Z</time>
      </trkpt>
      <trkpt lat="48.63734" lon="7.19165">
        <ele>382.22</ele>
        <time>2013-08-11T07:35:51Z</time>
      </trkpt>
      <trkpt lat="48.63721" lon="7.19143">
        <ele>386.09</ele>
        <time>2013-08-11T07:35:56Z</time>
      </trkpt>
      <trkpt lat="48.63702" lon="7.19126">
        <ele>390.71</ele>
        <time>2013-08-11T07:36:01Z</time>
      </trkpt>
      <trkpt lat="48.6368" lon="7.19122">
        <ele>394.07</ele>
        <time>2013-08-11T07:36:08Z</time>
      </trkpt>
      <trkpt lat="48.63689" lon="7.19098">
        <ele>390.59</ele>
        <time>2013-08-11T07:36:46Z</time>
      </trkpt>
      <trkpt lat="48.63706" lon="7.19074">
        <ele>389.6</ele>
        <time>2013-08-11T07:37:01Z</time>
      </trkpt>
      <trkpt lat="48.63705" lon="7.19038">
        <ele>390.8</ele>
        <time>2013-08-11T07:37:17Z</time>
      </trkpt>
      <trkpt lat="48.63695" lon="7.19012">
        <ele>392.89</ele>
        <time>2013-08-11T07:37:29Z</time>
      </trkpt>
      <trkpt lat="48.63675" lon="7.18991">
        <ele>396.64</ele>
        <time>2013-08-11T07:37:39Z</time>
      </trkpt>
      <trkpt lat="48.63661" lon="7.18971">
        <ele>399.44</ele>
        <time>2013-08-11T07:37:45Z</time>
      </trkpt>
      <trkpt lat="48.63645" lon="7.18952">
        <ele>401.99</ele>
        <time>2013-08-11T07:37:52Z</time>
      </trkpt>
      <trkpt lat="48.63629" lon="7.18937">
        <ele>403.52</ele>
        <time>2013-08-11T07:37:56Z</time>
      </trkpt>
      <trkpt lat="48.63613" lon="7.1892">
        <ele>404.59</ele>
        <time>2013-08-11T07:38:01Z</time>
      </trkpt>
      <trkpt lat="48.63597" lon="7.18907">
        <ele>405.35</ele>
        <time>2013-08-11T07:38:06Z</time>
      </trkpt>
      <trkpt lat="48.63582" lon="7.18888">
        <ele>405.55</ele>
        <time>2013-08-11T07:38:12Z</time>
      </trkpt>
      <trkpt lat="48.63568" lon="7.18864">
        <ele>406.41</ele>
        <time>2013-08-11T07:38:19Z</time>
      </trkpt>
      <trkpt lat="48.63555" lon="7.18845">
        <ele>406.53</ele>
        <time>2013-08-11T07:38:23Z</time>
      </trkpt>
      <trkpt lat="48.63541" lon="7.18828">
        <ele>406.57</ele>
        <time>2013-08-11T07:38:27Z</time>
      </trkpt>
      <trkpt lat="48.63528" lon="7.18808">
        <ele>406.58</ele>
        <time>2013-08-11T07:38:31Z</time>
      </trkpt>
      <trkpt lat="48.63513" lon="7.18783">
        <ele>406.59</ele>
        <time>2013-08-11T07:38:36Z</time>
      </trkpt>
      <trkpt lat="48.635" lon="7.18755">
        <ele>407.35</ele>
        <time>2013-08-11T07:38:41Z</time>
      </trkpt>
      <trkpt lat="48.63488" lon="7.18727">
        <ele>405.94</ele>
        <time>2013-08-11T07:38:46Z</time>
      </trkpt>
      <trkpt lat="48.63476" lon="7.18705">
        <ele>404.44</ele>
        <time>2013-08-11T07:38:50Z</time>
      </trkpt>
      <trkpt lat="48.63465" lon="7.18682">
        <ele>403.28</ele>
        <time>2013-08-11T07:38:54Z</time>
      </trkpt>
      <trkpt lat="48.63454" lon="7.18654">
        <ele>402.75</ele>
        <time>2013-08-11T07:38:59Z</time>
      </trkpt>
      <trkpt lat="48.63447" lon="7.18622">
        <ele>402.64</ele>
        <time>2013-08-11T07:39:03Z</time>
      </trkpt>
      <trkpt lat="48.6344" lon="7.18592">
        <ele>402.61</ele>
        <time>2013-08-11T07:39:07Z</time>
      </trkpt>
      <trkpt lat="48.63434" lon="7.18564">
        <ele>402.6</ele>
        <time>2013-08-11T07:39:11Z</time>
      </trkpt>
      <trkpt lat="48.63422" lon="7.18536">
        <ele>402.59</ele>
        <time>2013-08-11T07:39:15Z</time>
      </trkpt>
      <trkpt lat="48.6341" lon="7.18512">
        <ele>402.59</ele>
        <time>2013-08-11T07:39:18Z</time>
      </trkpt>
      <trkpt lat="48.63397" lon="7.18489">
        <ele>403.17</ele>
        <time>2013-08-11T07:39:21Z</time>
      </trkpt>
      <trkpt lat="48.63386" lon="7.18461">
        <ele>403.41</ele>
        <time>2013-08-11T07:39:24Z</time>
      </trkpt>
      <trkpt lat="48.63373" lon="7.18431">
        <ele>402.69</ele>
        <time>2013-08-11T07:39:27Z</time>
      </trkpt>
      <trkpt lat="48.63364" lon="7.18403">
        <ele>401.22</ele>
        <time>2013-08-11T07:39:30Z</time>
      </trkpt>
      <trkpt lat="48.63357" lon="7.18375">
        <ele>399.84</ele>
        <time>2013-08-11T07:39:33Z</time>
      </trkpt>
      <trkpt lat="48.63351" lon="7.18345">
        <ele>398.29</ele>
        <time>2013-08-11T07:39:36Z</time>
      </trkpt>
      <trkpt lat="48.63349" lon="7.18315">
        <ele>397.31</ele>
        <time>2013-08-11T07:39:39Z</time>
      </trkpt>
      <trkpt lat="48.63345" lon="7.18283">
        <ele>396.57</ele>
        <time>2013-08-11T07:39:43Z</time>
      </trkpt>
      <trkpt lat="48.63333" lon="7.18259">
        <ele>395.9</ele>
        <time>2013-08-11T07:39:47Z</time>
      </trkpt>
      <trkpt lat="48.6332" lon="7.18238">
        <ele>395.94</ele>
        <time>2013-08-11T07:39:51Z</time>
      </trkpt>
      <trkpt lat="48.63306" lon="7.1822">
        <ele>396.82</ele>
        <time>2013-08-11T07:39:55Z</time>
      </trkpt>
      <trkpt lat="48.63285" lon="7.18218">
        <ele>398.75</ele>
        <time>2013-08-11T07:40:00Z</time>
      </trkpt>
      <trkpt lat="48.6326" lon="7.18216">
        <ele>399.54</ele>
        <time>2013-08-11T07:40:10Z</time>
      </trkpt>
      <trkpt lat="48.63242" lon="7.18182">
        <ele>400.66</ele>
        <time>2013-08-11T07:40:24Z</time>
      </trkpt>
      <trkpt lat="48.63234" lon="7.18154">
        <ele>402.86</ele>
        <time>2013-08-11T07:40:34Z</time>
      </trkpt>
      <trkpt lat="48.63231" lon="7.18124">
        <ele>406.41</ele>
        <time>2013-08-11T07:40:45Z</time>
      </trkpt>
      <trkpt lat="48.63228" lon="7.18085">
        <ele>410.89</ele>
        <time>2013-08-11T07:41:01Z</time>
      </trkpt>
      <trkpt lat="48.63231" lon="7.18057">
        <ele>413.59</ele>
        <time>2013-08-11T07:41:12Z</time>
      </trkpt>
      <trkpt lat="48.63238" lon="7.18032">
        <ele>414.53</ele>
        <time>2013-08-11T07:41:22Z</time>
      </trkpt>
      <trkpt lat="48.63245" lon="7.18006">
        <ele>415.45</ele>
        <time>2013-08-11T07:41:33Z</time>
      </trkpt>
      <trkpt lat="48.63241" lon="7.17976">
        <ele>415.58</ele>
        <time>2013-08-11T07:41:42Z</time>
      </trkpt>
      <trkpt lat="48.63223" lon="7.17982">
        <ele>415.84</ele>
        <time>2013-08-11T07:41:55Z</time>
      </trkpt>
      <trkpt lat="48.63203" lon="7.17993">
        <ele>417.5</ele>
        <time>2013-08-11T07:42:02Z</time>
      </trkpt>
      <trkpt lat="48.63189" lon="7.18019">
        <ele>419.49</ele>
        <time>2013-08-11T07:42:10Z</time>
      </trkpt>
      <trkpt lat="48.63178" lon="7.18047">
        <ele>421.74</ele>
        <time>2013-08-11T07:42:15Z</time>
      </trkpt>
      <trkpt lat="48.63168" lon="7.18075">
        <ele>426.73</ele>
        <time>2013-08-11T07:42:22Z</time>
      </trkpt>
      <trkpt lat="48.6316" lon="7.18102">
        <ele>432.34</ele>
        <time>2013-08-11T07:42:30Z</time>
      </trkpt>
      <trkpt lat="48.63152" lon="7.18128">
        <ele>436.54</ele>
        <time>2013-08-11T07:42:38Z</time>
      </trkpt>
      <trkpt lat="48.6314" lon="7.18152">
        <ele>439.7</ele>
        <time>2013-08-11T07:42:43Z</time>
      </trkpt>
      <trkpt lat="48.63128" lon="7.18175">
        <ele>441.72</ele>
        <time>2013-08-11T07:42:48Z</time>
      </trkpt>
      <trkpt lat="48.63116" lon="7.18197">
        <ele>442.96</ele>
        <time>2013-08-11T07:42:53Z</time>
      </trkpt>
      <trkpt lat="48.63105" lon="7.1822">
        <ele>444.16</ele>
        <time>2013-08-11T07:42:59Z</time>
      </trkpt>
      <trkpt lat="48.63094" lon="7.18244">
        <ele>446.13</ele>
        <time>2013-08-11T07:43:07Z</time>
      </trkpt>
      <trkpt lat="48.6309" lon="7.18272">
        <ele>448.49</ele>
        <time>2013-08-11T07:43:16Z</time>
      </trkpt>
      <trkpt lat="48.63087" lon="7.183">
        <ele>450.79</ele>
        <time>2013-08-11T07:43:26Z</time>
      </trkpt>
      <trkpt lat="48.63081" lon="7.18328">
        <ele>452.48</ele>
        <time>2013-08-11T07:43:37Z</time>
      </trkpt>
      <trkpt lat="48.63075" lon="7.18302">
        <ele>453.27</ele>
        <time>2013-08-11T07:43:53Z</time>
      </trkpt>
      <trkpt lat="48.63083" lon="7.18276">
        <ele>454.83</ele>
        <time>2013-08-11T07:44:02Z</time>
      </trkpt>
      <trkpt lat="48.63092" lon="7.18251">
        <ele>458.04</ele>
        <time>2013-08-11T07:44:12Z</time>
      </trkpt>
      <trkpt lat="48.63091" lon="7.1822">
        <ele>463.63</ele>
        <time>2013-08-11T07:44:22Z</time>
      </trkpt>
      <trkpt lat="48.63094" lon="7.18193">
        <ele>470.32</ele>
        <time>2013-08-11T07:44:32Z</time>
      </trkpt>
      <trkpt lat="48.63092" lon="7.18165">
        <ele>476.07</ele>
        <time>2013-08-11T07:44:41Z</time>
      </trkpt>
      <trkpt lat="48.63085" lon="7.18139">
        <ele>480.14</ele>
        <time>2013-08-11T07:44:48Z</time>
      </trkpt>
      <trkpt lat="48.63084" lon="7.18111">
        <ele>484.86</ele>
        <time>2013-08-11T07:44:57Z</time>
      </trkpt>
      <trkpt lat="48.63072" lon="7.1809">
        <ele>488.87</ele>
        <time>2013-08-11T07:45:05Z</time>
      </trkpt>
      <trkpt lat="48.63073" lon="7.18062">
        <ele>495.28</ele>
        <time>2013-08-11T07:45:17Z</time>
      </trkpt>
      <trkpt lat="48.63083" lon="7.18038">
        <ele>498.87</ele>
        <time>2013-08-11T07:45:24Z</time>
      </trkpt>
      <trkpt lat="48.63092" lon="7.1801">
        <ele>503.3</ele>
        <time>2013-08-11T07:45:33Z</time>
      </trkpt>
      <trkpt lat="48.63099" lon="7.17984">
        <ele>506.22</ele>
        <time>2013-08-11T07:45:42Z</time>
      </trkpt>
      <trkpt lat="48.63108" lon="7.17957">
        <ele>506.54</ele>
        <time>2013-08-11T07:45:49Z</time>
      </trkpt>
      <trkpt lat="48.63115" lon="7.17931">
        <ele>506.58</ele>
        <time>2013-08-11T07:45:56Z</time>
      </trkpt>
      <trkpt lat="48.63125" lon="7.17905">
        <ele>505.44</ele>
        <time>2013-08-11T07:46:04Z</time>
      </trkpt>
      <trkpt lat="48.63136" lon="7.17879">
        <ele>504.08</ele>
        <time>2013-08-11T07:46:13Z</time>
      </trkpt>
      <trkpt lat="48.63145" lon="7.17854">
        <ele>502.74</ele>
        <time>2013-08-11T07:46:24Z</time>
      </trkpt>
      <trkpt lat="48.63154" lon="7.17828">
        <ele>501.63</ele>
        <time>2013-08-11T07:46:36Z</time>
      </trkpt>
      <trkpt lat="48.63158" lon="7.178">
        <ele>500.61</ele>
        <time>2013-08-11T07:46:51Z</time>
      </trkpt>
      <trkpt lat="48.63171" lon="7.17781">
        <ele>499.59</ele>
        <time>2013-08-11T07:47:28Z</time>
      </trkpt>
      <trkpt lat="48.63173" lon="7.17753">
        <ele>497.93</ele>
        <time>2013-08-11T07:47:56Z</time>
      </trkpt>
      <trkpt lat="48.63188" lon="7.17733">
        <ele>496.66</ele>
        <time>2013-08-11T07:48:08Z</time>
      </trkpt>
      <trkpt lat="48.63198" lon="7.17708">
        <ele>495.73</ele>
        <time>2013-08-11T07:48:17Z</time>
      </trkpt>
      <trkpt lat="48.63213" lon="7.17688">
        <ele>496.58</ele>
        <time>2013-08-11T07:48:39Z</time>
      </trkpt>
      <trkpt lat="48.63229" lon="7.17675">
        <ele>497.35</ele>
        <time>2013-08-11T07:48:49Z</time>
      </trkpt>
      <trkpt lat="48.63248" lon="7.17671">
        <ele>498.88</ele>
        <time>2013-08-11T07:48:59Z</time>
      </trkpt>
      <trkpt lat="48.63268" lon="7.17667">
        <ele>503.45</ele>
        <time>2013-08-11T07:49:40Z</time>
      </trkpt>
      <trkpt lat="48.63286" lon="7.17667">
        <ele>505.51</ele>
        <time>2013-08-11T07:50:02Z</time>
      </trkpt>
      <trkpt lat="48.63304" lon="7.17667">
        <ele>506.27</ele>
        <time>2013-08-11T07:50:11Z</time>
      </trkpt>
      <trkpt lat="48.63322" lon="7.17671">
        <ele>507.4</ele>
        <time>2013-08-11T07:50:24Z</time>
      </trkpt>
      <trkpt lat="48.63337" lon="7.17686">
        <ele>508.91</ele>
        <time>2013-08-11T07:50:32Z</time>
      </trkpt>
      <trkpt lat="48.63355" lon="7.17699">
        <ele>512.14</ele>
        <time>2013-08-11T07:50:43Z</time>
      </trkpt>
      <trkpt lat="48.6337" lon="7.17714">
        <ele>515.34</ele>
        <time>2013-08-11T07:50:50Z</time>
      </trkpt>
      <trkpt lat="48.63386" lon="7.17729">
        <ele>518.41</ele>
        <time>2013-08-11T07:50:57Z</time>
      </trkpt>
      <trkpt lat="48.63403" lon="7.17744">
        <ele>521.5</ele>
        <time>2013-08-11T07:51:04Z</time>
      </trkpt>
      <trkpt lat="48.63418" lon="7.17761">
        <ele>524.15</ele>
        <time>2013-08-11T07:51:10Z</time>
      </trkpt>
      <trkpt lat="48.63433" lon="7.17781">
        <ele>525.57</ele>
        <time>2013-08-11T07:51:14Z</time>
      </trkpt>
      <trkpt lat="48.63448" lon="7.178">
        <ele>526.79</ele>
        <time>2013-08-11T07:51:19Z</time>
      </trkpt>
      <trkpt lat="48.63464" lon="7.17813">
        <ele>528.55</ele>
        <time>2013-08-11T07:51:26Z</time>
      </trkpt>
      <trkpt lat="48.63483" lon="7.17817">
        <ele>529.41</ele>
        <time>2013-08-11T07:51:32Z</time>
      </trkpt>
      <trkpt lat="48.63485" lon="7.17787">
        <ele>528.71</ele>
        <time>2013-08-11T07:51:41Z</time>
      </trkpt>
      <trkpt lat="48.63477" lon="7.17761">
        <ele>527.93</ele>
        <time>2013-08-11T07:51:46Z</time>
      </trkpt>
      <trkpt lat="48.63464" lon="7.1774">
        <ele>526.38</ele>
        <time>2013-08-11T07:51:53Z</time>
      </trkpt>
      <trkpt lat="48.63449" lon="7.17721">
        <ele>524.12</ele>
        <time>2013-08-11T07:52:01Z</time>
      </trkpt>
      <trkpt lat="48.63438" lon="7.17695">
        <ele>522.16</ele>
        <time>2013-08-11T07:52:09Z</time>
      </trkpt>
      <trkpt lat="48.63435" lon="7.17667">
        <ele>521.69</ele>
        <time>2013-08-11T07:52:15Z</time>
      </trkpt>
      <trkpt lat="48.63429" lon="7.17639">
        <ele>521.86</ele>
        <time>2013-08-11T07:52:21Z</time>
      </trkpt>
      <trkpt lat="48.63419" lon="7.17613">
        <ele>523.39</ele>
        <time>2013-08-11T07:52:27Z</time>
      </trkpt>
      <trkpt lat="48.63401" lon="7.176">
        <ele>525.58</ele>
        <time>2013-08-11T07:52:31Z</time>
      </trkpt>
      <trkpt lat="48.63379" lon="7.17596">
        <ele>528.9</ele>
        <time>2013-08-11T07:52:35Z</time>
      </trkpt>
      <trkpt lat="48.6336" lon="7.17587">
        <ele>533.23</ele>
        <time>2013-08-11T07:52:40Z</time>
      </trkpt>
      <trkpt lat="48.63333" lon="7.17575">
        <ele>536.15</ele>
        <time>2013-08-11T07:52:45Z</time>
      </trkpt>
      <trkpt lat="48.63316" lon="7.17566">
        <ele>536.98</ele>
        <time>2013-08-11T07:52:48Z</time>
      </trkpt>
      <trkpt lat="48.63297" lon="7.17557">
        <ele>536.76</ele>
        <time>2013-08-11T07:52:51Z</time>
      </trkpt>
      <trkpt lat="48.63274" lon="7.17551">
        <ele>536.64</ele>
        <time>2013-08-11T07:52:55Z</time>
      </trkpt>
      <trkpt lat="48.63254" lon="7.17549">
        <ele>536.02</ele>
        <time>2013-08-11T07:53:00Z</time>
      </trkpt>
      <trkpt lat="48.63231" lon="7.17555">
        <ele>535.73</ele>
        <time>2013-08-11T07:53:04Z</time>
      </trkpt>
      <trkpt lat="48.63212" lon="7.17564">
        <ele>535.63</ele>
        <time>2013-08-11T07:53:08Z</time>
      </trkpt>
      <trkpt lat="48.63195" lon="7.17572">
        <ele>534.91</ele>
        <time>2013-08-11T07:53:15Z</time>
      </trkpt>
      <trkpt lat="48.63178" lon="7.1759">
        <ele>534.61</ele>
        <time>2013-08-11T07:53:24Z</time>
      </trkpt>
      <trkpt lat="48.63158" lon="7.17607">
        <ele>534.85</ele>
        <time>2013-08-11T07:53:29Z</time>
      </trkpt>
      <trkpt lat="48.63142" lon="7.1762">
        <ele>535.6</ele>
        <time>2013-08-11T07:53:33Z</time>
      </trkpt>
      <trkpt lat="48.63125" lon="7.1763">
        <ele>536.17</ele>
        <time>2013-08-11T07:53:36Z</time>
      </trkpt>
      <trkpt lat="48.63107" lon="7.17645">
        <ele>537.14</ele>
        <time>2013-08-11T07:53:40Z</time>
      </trkpt>
      <trkpt lat="48.63092" lon="7.17663">
        <ele>538.06</ele>
        <time>2013-08-11T07:53:45Z</time>
      </trkpt>
      <trkpt lat="48.63078" lon="7.17684">
        <ele>539.15</ele>
        <time>2013-08-11T07:53:50Z</time>
      </trkpt>
      <trkpt lat="48.63064" lon="7.17705">
        <ele>540.5</ele>
        <time>2013-08-11T07:53:55Z</time>
      </trkpt>
      <trkpt lat="48.6305" lon="7.17729">
        <ele>541.91</ele>
        <time>2013-08-11T07:54:00Z</time>
      </trkpt>
      <trkpt lat="48.63039" lon="7.17757">
        <ele>543.11</ele>
        <time>2013-08-11T07:54:05Z</time>
      </trkpt>
      <trkpt lat="48.63028" lon="7.17781">
        <ele>543.97</ele>
        <time>2013-08-11T07:54:17Z</time>
      </trkpt>
      <trkpt lat="48.63019" lon="7.17804">
        <ele>544.05</ele>
        <time>2013-08-11T07:54:27Z</time>
      </trkpt>
      <trkpt lat="48.63013" lon="7.17834">
        <ele>547.31</ele>
        <time>2013-08-11T07:54:35Z</time>
      </trkpt>
      <trkpt lat="48.6301" lon="7.17862">
        <ele>548.15</ele>
        <time>2013-08-11T07:54:40Z</time>
      </trkpt>
      <trkpt lat="48.63001" lon="7.17901">
        <ele>548.59</ele>
        <time>2013-08-11T07:54:42Z</time>
      </trkpt>
      <trkpt lat="48.62991" lon="7.17924">
        <ele>548.84</ele>
        <time>2013-08-11T07:54:43Z</time>
      </trkpt>
      <trkpt lat="48.6298" lon="7.1795">
        <ele>549.03</ele>
        <time>2013-08-11T07:54:44Z</time>
      </trkpt>
      <trkpt lat="48.62957" lon="7.17984">
        <ele>549.71</ele>
        <time>2013-08-11T07:54:46Z</time>
      </trkpt>
      <trkpt lat="48.62936" lon="7.18004">
        <ele>550.1</ele>
        <time>2013-08-11T07:54:48Z</time>
      </trkpt>
      <trkpt lat="48.62922" lon="7.18021">
        <ele>550.75</ele>
        <time>2013-08-11T07:54:50Z</time>
      </trkpt>
      <trkpt lat="48.62909" lon="7.1804">
        <ele>551.76</ele>
        <time>2013-08-11T07:54:54Z</time>
      </trkpt>
      <trkpt lat="48.629" lon="7.18066">
        <ele>552.97</ele>
        <time>2013-08-11T07:54:59Z</time>
      </trkpt>
      <trkpt lat="48.62892" lon="7.18096">
        <ele>554.91</ele>
        <time>2013-08-11T07:55:05Z</time>
      </trkpt>
      <trkpt lat="48.62888" lon="7.18124">
        <ele>556.95</ele>
        <time>2013-08-11T07:55:10Z</time>
      </trkpt>
      <trkpt lat="48.62884" lon="7.18156">
        <ele>557.91</ele>
        <time>2013-08-11T07:55:16Z</time>
      </trkpt>
      <trkpt lat="48.62876" lon="7.18188">
        <ele>559.06</ele>
        <time>2013-08-11T07:55:20Z</time>
      </trkpt>
      <trkpt lat="48.62873" lon="7.1822">
        <ele>559.42</ele>
        <time>2013-08-11T07:55:24Z</time>
      </trkpt>
      <trkpt lat="48.62873" lon="7.18248">
        <ele>559.54</ele>
        <time>2013-08-11T07:55:28Z</time>
      </trkpt>
      <trkpt lat="48.62874" lon="7.18281">
        <ele>560.16</ele>
        <time>2013-08-11T07:55:33Z</time>
      </trkpt>
      <trkpt lat="48.62872" lon="7.18311">
        <ele>560.45</ele>
        <time>2013-08-11T07:55:37Z</time>
      </trkpt>
      <trkpt lat="48.62866" lon="7.18338">
        <ele>558.82</ele>
        <time>2013-08-11T07:55:44Z</time>
      </trkpt>
      <trkpt lat="48.6286" lon="7.18311">
        <ele>553.09</ele>
        <time>2013-08-11T07:56:14Z</time>
      </trkpt>
      <trkpt lat="48.62854" lon="7.18283">
        <ele>551.86</ele>
        <time>2013-08-11T07:56:23Z</time>
      </trkpt>
      <trkpt lat="48.62848" lon="7.18255">
        <ele>550.79</ele>
        <time>2013-08-11T07:56:32Z</time>
      </trkpt>
      <trkpt lat="48.62839" lon="7.18229">
        <ele>551.43</ele>
        <time>2013-08-11T07:56:41Z</time>
      </trkpt>
      <trkpt lat="48.62823" lon="7.18214">
        <ele>552.38</ele>
        <time>2013-08-11T07:56:47Z</time>
      </trkpt>
      <trkpt lat="48.6281" lon="7.18197">
        <ele>553.38</ele>
        <time>2013-08-11T07:56:54Z</time>
      </trkpt>
      <trkpt lat="48.62799" lon="7.18171">
        <ele>553.56</ele>
        <time>2013-08-11T07:57:01Z</time>
      </trkpt>
      <trkpt lat="48.62792" lon="7.18139">
        <ele>552.65</ele>
        <time>2013-08-11T07:57:07Z</time>
      </trkpt>
      <trkpt lat="48.62789" lon="7.18109">
        <ele>550.8</ele>
        <time>2013-08-11T07:57:11Z</time>
      </trkpt>
      <trkpt lat="48.62785" lon="7.18081">
        <ele>551.92</ele>
        <time>2013-08-11T07:57:15Z</time>
      </trkpt>
      <trkpt lat="48.62782" lon="7.18053">
        <ele>553.89</ele>
        <time>2013-08-11T07:57:19Z</time>
      </trkpt>
      <trkpt lat="48.62778" lon="7.18023">
        <ele>553.74</ele>
        <time>2013-08-11T07:57:24Z</time>
      </trkpt>
      <trkpt lat="48.62776" lon="7.17993">
        <ele>552.8</ele>
        <time>2013-08-11T07:57:29Z</time>
      </trkpt>
      <trkpt lat="48.62773" lon="7.17965">
        <ele>550.57</ele>
        <time>2013-08-11T07:57:33Z</time>
      </trkpt>
      <trkpt lat="48.62766" lon="7.17933">
        <ele>546.52</ele>
        <time>2013-08-11T07:57:38Z</time>
      </trkpt>
      <trkpt lat="48.62749" lon="7.17905">
        <ele>546.24</ele>
        <time>2013-08-11T07:57:42Z</time>
      </trkpt>
      <trkpt lat="48.62731" lon="7.17886">
        <ele>546.51</ele>
        <time>2013-08-11T07:57:47Z</time>
      </trkpt>
      <trkpt lat="48.6271" lon="7.17894">
        <ele>547.27</ele>
        <time>2013-08-11T07:57:55Z</time>
      </trkpt>
      <trkpt lat="48.62703" lon="7.17931">
        <ele>547.51</ele>
        <time>2013-08-11T07:58:00Z</time>
      </trkpt>
      <trkpt lat="48.62698" lon="7.17963">
        <ele>547.56</ele>
        <time>2013-08-11T07:58:03Z</time>
      </trkpt>
      <trkpt lat="48.62689" lon="7.17993">
        <ele>548.27</ele>
        <time>2013-08-11T07:58:08Z</time>
      </trkpt>
      <trkpt lat="48.62677" lon="7.17972">
        <ele>546.6</ele>
        <time>2013-08-11T07:58:27Z</time>
      </trkpt>
      <trkpt lat="48.62663" lon="7.17952">
        <ele>543.54</ele>
        <time>2013-08-11T07:58:32Z</time>
      </trkpt>
      <trkpt lat="48.62655" lon="7.17924">
        <ele>541.55</ele>
        <time>2013-08-11T07:58:37Z</time>
      </trkpt>
      <trkpt lat="48.62651" lon="7.17892">
        <ele>539.94</ele>
        <time>2013-08-11T07:58:43Z</time>
      </trkpt>
      <trkpt lat="48.62644" lon="7.17858">
        <ele>539.12</ele>
        <time>2013-08-11T07:58:51Z</time>
      </trkpt>
      <trkpt lat="48.6263" lon="7.17875">
        <ele>536.93</ele>
        <time>2013-08-11T07:58:57Z</time>
      </trkpt>
      <trkpt lat="48.62621" lon="7.17901">
        <ele>535.14</ele>
        <time>2013-08-11T07:59:03Z</time>
      </trkpt>
      <trkpt lat="48.62604" lon="7.17892">
        <ele>530.17</ele>
        <time>2013-08-11T07:59:14Z</time>
      </trkpt>
      <trkpt lat="48.62597" lon="7.17862">
        <ele>526.95</ele>
        <time>2013-08-11T07:59:22Z</time>
      </trkpt>
      <trkpt lat="48.62585" lon="7.17841">
        <ele>524.9</ele>
        <time>2013-08-11T07:59:28Z</time>
      </trkpt>
      <trkpt lat="48.6257" lon="7.17821">
        <ele>523.32</ele>
        <time>2013-08-11T07:59:33Z</time>
      </trkpt>
      <trkpt lat="48.62553" lon="7.178">
        <ele>520.93</ele>
        <time>2013-08-11T07:59:40Z</time>
      </trkpt>
      <trkpt lat="48.62555" lon="7.17772">
        <ele>518.12</ele>
        <time>2013-08-11T07:59:47Z</time>
      </trkpt>
      <trkpt lat="48.62557" lon="7.17744">
        <ele>514.9</ele>
        <time>2013-08-11T07:59:56Z</time>
      </trkpt>
      <trkpt lat="48.62561" lon="7.1771">
        <ele>511.5</ele>
        <time>2013-08-11T08:00:02Z</time>
      </trkpt>
      <trkpt lat="48.62565" lon="7.1768">
        <ele>508.41</ele>
        <time>2013-08-11T08:00:05Z</time>
      </trkpt>
      <trkpt lat="48.62569" lon="7.1765">
        <ele>507.03</ele>
        <time>2013-08-11T08:00:08Z</time>
      </trkpt>
      <trkpt lat="48.62572" lon="7.17618">
        <ele>508.04</ele>
        <time>2013-08-11T08:00:11Z</time>
      </trkpt>
      <trkpt lat="48.62575" lon="7.17585">
        <ele>508.5</ele>
        <time>2013-08-11T08:00:14Z</time>
      </trkpt>
      <trkpt lat="48.62575" lon="7.17551">
        <ele>509.13</ele>
        <time>2013-08-11T08:00:17Z</time>
      </trkpt>
      <trkpt lat="48.62575" lon="7.17517">
        <ele>509.65</ele>
        <time>2013-08-11T08:00:20Z</time>
      </trkpt>
      <trkpt lat="48.62578" lon="7.17484">
        <ele>510.44</ele>
        <time>2013-08-11T08:00:23Z</time>
      </trkpt>
      <trkpt lat="48.62585" lon="7.1745">
        <ele>511.54</ele>
        <time>2013-08-11T08:00:26Z</time>
      </trkpt>
      <trkpt lat="48.62594" lon="7.17418">
        <ele>512.98</ele>
        <time>2013-08-11T08:00:29Z</time>
      </trkpt>
      <trkpt lat="48.62598" lon="7.17384">
        <ele>513.91</ele>
        <time>2013-08-11T08:00:32Z</time>
      </trkpt>
      <trkpt lat="48.626" lon="7.17345">
        <ele>513.87</ele>
        <time>2013-08-11T08:00:35Z</time>
      </trkpt>
      <trkpt lat="48.62601" lon="7.17309">
        <ele>513.27</ele>
        <time>2013-08-11T08:00:38Z</time>
      </trkpt>
      <trkpt lat="48.62601" lon="7.17276">
        <ele>512.19</ele>
        <time>2013-08-11T08:00:41Z</time>
      </trkpt>
      <trkpt lat="48.62601" lon="7.1724">
        <ele>509.56</ele>
        <time>2013-08-11T08:00:44Z</time>
      </trkpt>
      <trkpt lat="48.62601" lon="7.17212">
        <ele>507.57</ele>
        <time>2013-08-11T08:00:46Z</time>
      </trkpt>
      <trkpt lat="48.626" lon="7.17173">
        <ele>504.15</ele>
        <time>2013-08-11T08:00:49Z</time>
      </trkpt>
      <trkpt lat="48.62599" lon="7.17139">
        <ele>499.56</ele>
        <time>2013-08-11T08:00:52Z</time>
      </trkpt>
      <trkpt lat="48.62601" lon="7.17109">
        <ele>494.73</ele>
        <time>2013-08-11T08:00:55Z</time>
      </trkpt>
      <trkpt lat="48.6261" lon="7.17077">
        <ele>489.81</ele>
        <time>2013-08-11T08:00:58Z</time>
      </trkpt>
      <trkpt lat="48.62622" lon="7.17042">
        <ele>485.09</ele>
        <time>2013-08-11T08:01:01Z</time>
      </trkpt>
      <trkpt lat="48.62633" lon="7.17012">
        <ele>481.22</ele>
        <time>2013-08-11T08:01:04Z</time>
      </trkpt>
      <trkpt lat="48.62648" lon="7.16989">
        <ele>477.61</ele>
        <time>2013-08-11T08:01:07Z</time>
      </trkpt>
      <trkpt lat="48.62661" lon="7.16963">
        <ele>470.34</ele>
        <time>2013-08-11T08:01:11Z</time>
      </trkpt>
      <trkpt lat="48.62668" lon="7.16933">
        <ele>466.14</ele>
        <time>2013-08-11T08:01:16Z</time>
      </trkpt>
      <trkpt lat="48.62667" lon="7.16905">
        <ele>464.02</ele>
        <time>2013-08-11T08:01:21Z</time>
      </trkpt>
      <trkpt lat="48.6266" lon="7.16875">
        <ele>460.54</ele>
        <time>2013-08-11T08:01:26Z</time>
      </trkpt>
      <trkpt lat="48.62654" lon="7.16849">
        <ele>455.15</ele>
        <time>2013-08-11T08:01:29Z</time>
      </trkpt>
      <trkpt lat="48.62646" lon="7.16824">
        <ele>449.26</ele>
        <time>2013-08-11T08:01:32Z</time>
      </trkpt>
      <trkpt lat="48.62639" lon="7.16798">
        <ele>444.72</ele>
        <time>2013-08-11T08:01:35Z</time>
      </trkpt>
      <trkpt lat="48.62629" lon="7.16766">
        <ele>440.63</ele>
        <time>2013-08-11T08:01:39Z</time>
      </trkpt>
      <trkpt lat="48.62616" lon="7.16738">
        <ele>436.85</ele>
        <time>2013-08-11T08:01:43Z</time>
      </trkpt>
      <trkpt lat="48.62606" lon="7.16714">
        <ele>434.37</ele>
        <time>2013-08-11T08:01:47Z</time>
      </trkpt>
      <trkpt lat="48.62594" lon="7.16691">
        <ele>433.01</ele>
        <time>2013-08-11T08:01:52Z</time>
      </trkpt>
      <trkpt lat="48.62596" lon="7.16663">
        <ele>432.69</ele>
        <time>2013-08-11T08:01:57Z</time>
      </trkpt>
      <trkpt lat="48.62583" lon="7.1663">
        <ele>432.09</ele>
        <time>2013-08-11T08:02:42Z</time>
      </trkpt>
      <trkpt lat="48.62574" lon="7.16605">
        <ele>429.6</ele>
        <time>2013-08-11T08:02:56Z</time>
      </trkpt>
      <trkpt lat="48.62555" lon="7.16611">
        <ele>427.84</ele>
        <time>2013-08-11T08:03:02Z</time>
      </trkpt>
      <trkpt lat="48.62539" lon="7.16624">
        <ele>425.59</ele>
        <time>2013-08-11T08:05:01Z</time>
      </trkpt>
      <trkpt lat="48.62521" lon="7.16624">
        <ele>425.59</ele>
        <time>2013-08-11T08:05:14Z</time>
      </trkpt>
      <trkpt lat="48.62505" lon="7.16639">
        <ele>426.03</ele>
        <time>2013-08-11T08:05:31Z</time>
      </trkpt>
      <trkpt lat="48.62491" lon="7.16656">
        <ele>426.59</ele>
        <time>2013-08-11T08:05:48Z</time>
      </trkpt>
      <trkpt lat="48.62474" lon="7.16667">
        <ele>427.58</ele>
        <time>2013-08-11T08:06:10Z</time>
      </trkpt>
      <trkpt lat="48.62455" lon="7.16669">
        <ele>436.26</ele>
        <time>2013-08-11T08:08:34Z</time>
      </trkpt>
      <trkpt lat="48.62453" lon="7.16641">
        <ele>438.4</ele>
        <time>2013-08-11T08:08:53Z</time>
      </trkpt>
      <trkpt lat="48.62454" lon="7.16669">
        <ele>448.25</ele>
        <time>2013-08-11T08:10:26Z</time>
      </trkpt>
      <trkpt lat="48.62472" lon="7.16678">
        <ele>449.59</ele>
        <time>2013-08-11T08:11:03Z</time>
      </trkpt>
      <trkpt lat="48.62486" lon="7.1666">
        <ele>448.61</ele>
        <time>2013-08-11T08:11:41Z</time>
      </trkpt>
      <trkpt lat="48.62503" lon="7.16652">
        <ele>451.3</ele>
        <time>2013-08-11T08:12:58Z</time>
      </trkpt>
      <trkpt lat="48.62522" lon="7.1665">
        <ele>453.3</ele>
        <time>2013-08-11T08:13:09Z</time>
      </trkpt>
      <trkpt lat="48.62539" lon="7.16658">
        <ele>452.38</ele>
        <time>2013-08-11T08:13:22Z</time>
      </trkpt>
      <trkpt lat="48.62527" lon="7.1668">
        <ele>446.36</ele>
        <time>2013-08-11T08:13:56Z</time>
      </trkpt>
      <trkpt lat="48.62513" lon="7.16699">
        <ele>446.07</ele>
        <time>2013-08-11T08:14:06Z</time>
      </trkpt>
      <trkpt lat="48.62498" lon="7.16718">
        <ele>446.52</ele>
        <time>2013-08-11T08:14:13Z</time>
      </trkpt>
      <trkpt lat="48.62481" lon="7.16731">
        <ele>447.27</ele>
        <time>2013-08-11T08:14:21Z</time>
      </trkpt>
      <trkpt lat="48.6246" lon="7.16733">
        <ele>447.13</ele>
        <time>2013-08-11T08:14:30Z</time>
      </trkpt>
      <trkpt lat="48.62442" lon="7.16727">
        <ele>445.14</ele>
        <time>2013-08-11T08:14:40Z</time>
      </trkpt>
      <trkpt lat="48.62422" lon="7.16723">
        <ele>443.14</ele>
        <time>2013-08-11T08:14:50Z</time>
      </trkpt>
      <trkpt lat="48.62404" lon="7.16731">
        <ele>441.68</ele>
        <time>2013-08-11T08:15:02Z</time>
      </trkpt>
      <trkpt lat="48.62388" lon="7.16744">
        <ele>441.6</ele>
        <time>2013-08-11T08:15:11Z</time>
      </trkpt>
      <trkpt lat="48.6237" lon="7.16759">
        <ele>441.59</ele>
        <time>2013-08-11T08:15:20Z</time>
      </trkpt>
      <trkpt lat="48.62352" lon="7.16776">
        <ele>442.52</ele>
        <time>2013-08-11T08:15:24Z</time>
      </trkpt>
      <trkpt lat="48.62336" lon="7.16796">
        <ele>443.92</ele>
        <time>2013-08-11T08:15:29Z</time>
      </trkpt>
      <trkpt lat="48.62321" lon="7.16811">
        <ele>445.11</ele>
        <time>2013-08-11T08:15:34Z</time>
      </trkpt>
      <trkpt lat="48.62304" lon="7.16824">
        <ele>446.19</ele>
        <time>2013-08-11T08:15:40Z</time>
      </trkpt>
      <trkpt lat="48.62289" lon="7.16841">
        <ele>447.31</ele>
        <time>2013-08-11T08:15:48Z</time>
      </trkpt>
      <trkpt lat="48.62274" lon="7.16856">
        <ele>448.32</ele>
        <time>2013-08-11T08:15:56Z</time>
      </trkpt>
      <trkpt lat="48.6226" lon="7.16877">
        <ele>448.55</ele>
        <time>2013-08-11T08:16:03Z</time>
      </trkpt>
      <trkpt lat="48.62244" lon="7.16892">
        <ele>447.82</ele>
        <time>2013-08-11T08:16:10Z</time>
      </trkpt>
      <trkpt lat="48.62227" lon="7.16907">
        <ele>447.61</ele>
        <time>2013-08-11T08:16:19Z</time>
      </trkpt>
      <trkpt lat="48.62211" lon="7.1692">
        <ele>447.01</ele>
        <time>2013-08-11T08:16:28Z</time>
      </trkpt>
      <trkpt lat="48.62196" lon="7.16942">
        <ele>446.63</ele>
        <time>2013-08-11T08:16:36Z</time>
      </trkpt>
      <trkpt lat="48.62181" lon="7.16963">
        <ele>445.69</ele>
        <time>2013-08-11T08:16:44Z</time>
      </trkpt>
      <trkpt lat="48.62167" lon="7.16982">
        <ele>445.36</ele>
        <time>2013-08-11T08:16:50Z</time>
      </trkpt>
      <trkpt lat="48.62153" lon="7.17002">
        <ele>444.73</ele>
        <time>2013-08-11T08:16:56Z</time>
      </trkpt>
      <trkpt lat="48.62137" lon="7.17023">
        <ele>444.61</ele>
        <time>2013-08-11T08:17:02Z</time>
      </trkpt>
      <trkpt lat="48.62123" lon="7.1704">
        <ele>444.02</ele>
        <time>2013-08-11T08:17:08Z</time>
      </trkpt>
      <trkpt lat="48.62106" lon="7.17055">
        <ele>444.47</ele>
        <time>2013-08-11T08:17:15Z</time>
      </trkpt>
      <trkpt lat="48.62089" lon="7.1707">
        <ele>444.13</ele>
        <time>2013-08-11T08:17:21Z</time>
      </trkpt>
      <trkpt lat="48.62071" lon="7.17085">
        <ele>443.82</ele>
        <time>2013-08-11T08:17:24Z</time>
      </trkpt>
      <trkpt lat="48.6205" lon="7.17096">
        <ele>442.98</ele>
        <time>2013-08-11T08:17:28Z</time>
      </trkpt>
      <trkpt lat="48.62031" lon="7.17103">
        <ele>442.64</ele>
        <time>2013-08-11T08:17:35Z</time>
      </trkpt>
      <trkpt lat="48.62026" lon="7.1713">
        <ele>443.28</ele>
        <time>2013-08-11T08:17:42Z</time>
      </trkpt>
      <trkpt lat="48.62017" lon="7.17158">
        <ele>444.86</ele>
        <time>2013-08-11T08:17:50Z</time>
      </trkpt>
      <trkpt lat="48.62007" lon="7.17182">
        <ele>446.36</ele>
        <time>2013-08-11T08:17:59Z</time>
      </trkpt>
      <trkpt lat="48.61998" lon="7.17208">
        <ele>448.18</ele>
        <time>2013-08-11T08:18:08Z</time>
      </trkpt>
      <trkpt lat="48.61992" lon="7.17233">
        <ele>450.07</ele>
        <time>2013-08-11T08:18:18Z</time>
      </trkpt>
      <trkpt lat="48.61984" lon="7.17259">
        <ele>451.01</ele>
        <time>2013-08-11T08:18:29Z</time>
      </trkpt>
      <trkpt lat="48.61977" lon="7.17285">
        <ele>451.98</ele>
        <time>2013-08-11T08:18:38Z</time>
      </trkpt>
      <trkpt lat="48.61966" lon="7.17309">
        <ele>453.12</ele>
        <time>2013-08-11T08:18:47Z</time>
      </trkpt>
      <trkpt lat="48.61957" lon="7.17334">
        <ele>454.38</ele>
        <time>2013-08-11T08:18:56Z</time>
      </trkpt>
      <trkpt lat="48.61947" lon="7.17358">
        <ele>456.05</ele>
        <time>2013-08-11T08:19:05Z</time>
      </trkpt>
      <trkpt lat="48.61936" lon="7.17381">
        <ele>458.52</ele>
        <time>2013-08-11T08:19:16Z</time>
      </trkpt>
      <trkpt lat="48.61924" lon="7.17403">
        <ele>461.25</ele>
        <time>2013-08-11T08:19:29Z</time>
      </trkpt>
      <trkpt lat="48.61913" lon="7.17424">
        <ele>464</ele>
        <time>2013-08-11T08:19:42Z</time>
      </trkpt>
      <trkpt lat="48.61899" lon="7.17442">
        <ele>468.15</ele>
        <time>2013-08-11T08:19:58Z</time>
      </trkpt>
      <trkpt lat="48.61884" lon="7.17461">
        <ele>470.95</ele>
        <time>2013-08-11T08:20:08Z</time>
      </trkpt>
      <trkpt lat="48.61868" lon="7.17474">
        <ele>473.24</ele>
        <time>2013-08-11T08:20:18Z</time>
      </trkpt>
      <trkpt lat="48.61851" lon="7.17491">
        <ele>475.84</ele>
        <time>2013-08-11T08:20:29Z</time>
      </trkpt>
      <trkpt lat="48.61838" lon="7.1751">
        <ele>477.37</ele>
        <time>2013-08-11T08:20:39Z</time>
      </trkpt>
      <trkpt lat="48.61824" lon="7.17527">
        <ele>479.27</ele>
        <time>2013-08-11T08:20:49Z</time>
      </trkpt>
      <trkpt lat="48.61814" lon="7.17551">
        <ele>482.27</ele>
        <time>2013-08-11T08:21:03Z</time>
      </trkpt>
      <trkpt lat="48.61801" lon="7.1757">
        <ele>485.97</ele>
        <time>2013-08-11T08:21:18Z</time>
      </trkpt>
      <trkpt lat="48.61788" lon="7.17592">
        <ele>490.45</ele>
        <time>2013-08-11T08:21:34Z</time>
      </trkpt>
      <trkpt lat="48.61773" lon="7.17607">
        <ele>493.67</ele>
        <time>2013-08-11T08:21:45Z</time>
      </trkpt>
      <trkpt lat="48.6176" lon="7.17626">
        <ele>496.95</ele>
        <time>2013-08-11T08:21:57Z</time>
      </trkpt>
      <trkpt lat="48.61744" lon="7.17641">
        <ele>502.23</ele>
        <time>2013-08-11T08:22:13Z</time>
      </trkpt>
      <trkpt lat="48.6173" lon="7.17658">
        <ele>505.94</ele>
        <time>2013-08-11T08:22:25Z</time>
      </trkpt>
      <trkpt lat="48.61717" lon="7.17678">
        <ele>510.12</ele>
        <time>2013-08-11T08:22:40Z</time>
      </trkpt>
      <trkpt lat="48.61703" lon="7.17697">
        <ele>512.6</ele>
        <time>2013-08-11T08:22:52Z</time>
      </trkpt>
      <trkpt lat="48.61688" lon="7.17714">
        <ele>515.83</ele>
        <time>2013-08-11T08:23:06Z</time>
      </trkpt>
      <trkpt lat="48.61676" lon="7.17733">
        <ele>518.61</ele>
        <time>2013-08-11T08:23:20Z</time>
      </trkpt>
      <trkpt lat="48.61662" lon="7.17751">
        <ele>520.04</ele>
        <time>2013-08-11T08:23:27Z</time>
      </trkpt>
      <trkpt lat="48.61649" lon="7.1777">
        <ele>521.9</ele>
        <time>2013-08-11T08:23:38Z</time>
      </trkpt>
      <trkpt lat="48.61636" lon="7.17789">
        <ele>524.18</ele>
        <time>2013-08-11T08:23:50Z</time>
      </trkpt>
      <trkpt lat="48.61624" lon="7.17813">
        <ele>527.18</ele>
        <time>2013-08-11T08:24:05Z</time>
      </trkpt>
      <trkpt lat="48.61613" lon="7.17836">
        <ele>528.48</ele>
        <time>2013-08-11T08:24:17Z</time>
      </trkpt>
      <trkpt lat="48.61607" lon="7.17862">
        <ele>528.57</ele>
        <time>2013-08-11T08:24:24Z</time>
      </trkpt>
      <trkpt lat="48.61623" lon="7.17879">
        <ele>529.17</ele>
        <time>2013-08-11T08:24:35Z</time>
      </trkpt>
      <trkpt lat="48.61637" lon="7.17901">
        <ele>529.97</ele>
        <time>2013-08-11T08:24:42Z</time>
      </trkpt>
      <trkpt lat="48.61645" lon="7.17929">
        <ele>530.44</ele>
        <time>2013-08-11T08:24:47Z</time>
      </trkpt>
      <trkpt lat="48.61652" lon="7.17954">
        <ele>531.32</ele>
        <time>2013-08-11T08:24:52Z</time>
      </trkpt>
      <trkpt lat="48.61655" lon="7.17982">
        <ele>531.53</ele>
        <time>2013-08-11T08:24:57Z</time>
      </trkpt>
      <trkpt lat="48.61653" lon="7.18012">
        <ele>531.58</ele>
        <time>2013-08-11T08:25:03Z</time>
      </trkpt>
      <trkpt lat="48.61649" lon="7.18042">
        <ele>532.41</ele>
        <time>2013-08-11T08:25:09Z</time>
      </trkpt>
      <trkpt lat="48.61641" lon="7.1807">
        <ele>532.82</ele>
        <time>2013-08-11T08:25:17Z</time>
      </trkpt>
      <trkpt lat="48.61634" lon="7.18098">
        <ele>534.07</ele>
        <time>2013-08-11T08:25:24Z</time>
      </trkpt>
      <trkpt lat="48.61628" lon="7.18128">
        <ele>535.26</ele>
        <time>2013-08-11T08:25:30Z</time>
      </trkpt>
      <trkpt lat="48.61635" lon="7.18154">
        <ele>535.33</ele>
        <time>2013-08-11T08:25:42Z</time>
      </trkpt>
      <trkpt lat="48.61651" lon="7.18169">
        <ele>533.36</ele>
        <time>2013-08-11T08:26:06Z</time>
      </trkpt>
      <trkpt lat="48.61656" lon="7.18197">
        <ele>532.67</ele>
        <time>2013-08-11T08:26:14Z</time>
      </trkpt>
      <trkpt lat="48.61664" lon="7.18223">
        <ele>530.96</ele>
        <time>2013-08-11T08:26:30Z</time>
      </trkpt>
      <trkpt lat="48.61674" lon="7.18251">
        <ele>529.48</ele>
        <time>2013-08-11T08:26:45Z</time>
      </trkpt>
      <trkpt lat="48.6168" lon="7.18278">
        <ele>527.46</ele>
        <time>2013-08-11T08:26:50Z</time>
      </trkpt>
      <trkpt lat="48.61691" lon="7.18306">
        <ele>526.02</ele>
        <time>2013-08-11T08:26:57Z</time>
      </trkpt>
      <trkpt lat="48.61707" lon="7.18323">
        <ele>524.58</ele>
        <time>2013-08-11T08:27:04Z</time>
      </trkpt>
      <trkpt lat="48.61713" lon="7.18349">
        <ele>523.33</ele>
        <time>2013-08-11T08:27:10Z</time>
      </trkpt>
      <trkpt lat="48.61726" lon="7.18373">
        <ele>521.01</ele>
        <time>2013-08-11T08:27:21Z</time>
      </trkpt>
      <trkpt lat="48.61738" lon="7.18396">
        <ele>519.27</ele>
        <time>2013-08-11T08:27:27Z</time>
      </trkpt>
      <trkpt lat="48.61753" lon="7.18411">
        <ele>516.84</ele>
        <time>2013-08-11T08:27:38Z</time>
      </trkpt>
      <trkpt lat="48.61735" lon="7.18409">
        <ele>506.32</ele>
        <time>2013-08-11T08:28:04Z</time>
      </trkpt>
      <trkpt lat="48.61722" lon="7.18388">
        <ele>503.9</ele>
        <time>2013-08-11T08:28:13Z</time>
      </trkpt>
      <trkpt lat="48.61703" lon="7.18377">
        <ele>503.62</ele>
        <time>2013-08-11T08:28:21Z</time>
      </trkpt>
      <trkpt lat="48.61687" lon="7.18358">
        <ele>503.59</ele>
        <time>2013-08-11T08:28:29Z</time>
      </trkpt>
      <trkpt lat="48.61672" lon="7.18336">
        <ele>503.78</ele>
        <time>2013-08-11T08:28:36Z</time>
      </trkpt>
      <trkpt lat="48.61654" lon="7.18323">
        <ele>503.62</ele>
        <time>2013-08-11T08:28:42Z</time>
      </trkpt>
      <trkpt lat="48.61639" lon="7.18308">
        <ele>503.59</ele>
        <time>2013-08-11T08:28:50Z</time>
      </trkpt>
      <trkpt lat="48.61624" lon="7.18293">
        <ele>504.89</ele>
        <time>2013-08-11T08:28:57Z</time>
      </trkpt>
      <trkpt lat="48.61605" lon="7.18298">
        <ele>505.17</ele>
        <time>2013-08-11T08:29:02Z</time>
      </trkpt>
      <trkpt lat="48.61583" lon="7.18317">
        <ele>504.84</ele>
        <time>2013-08-11T08:29:05Z</time>
      </trkpt>
      <trkpt lat="48.61568" lon="7.18345">
        <ele>504.12</ele>
        <time>2013-08-11T08:29:08Z</time>
      </trkpt>
      <trkpt lat="48.61553" lon="7.18373">
        <ele>503.81</ele>
        <time>2013-08-11T08:29:11Z</time>
      </trkpt>
      <trkpt lat="48.61542" lon="7.18399">
        <ele>503.11</ele>
        <time>2013-08-11T08:29:14Z</time>
      </trkpt>
      <trkpt lat="48.61532" lon="7.18429">
        <ele>502.17</ele>
        <time>2013-08-11T08:29:18Z</time>
      </trkpt>
      <trkpt lat="48.61533" lon="7.18459">
        <ele>500.72</ele>
        <time>2013-08-11T08:29:23Z</time>
      </trkpt>
      <trkpt lat="48.61538" lon="7.18487">
        <ele>496.28</ele>
        <time>2013-08-11T08:29:28Z</time>
      </trkpt>
      <trkpt lat="48.61545" lon="7.18517">
        <ele>492.94</ele>
        <time>2013-08-11T08:29:34Z</time>
      </trkpt>
      <trkpt lat="48.61551" lon="7.18544">
        <ele>490.46</ele>
        <time>2013-08-11T08:29:39Z</time>
      </trkpt>
      <trkpt lat="48.61557" lon="7.18572">
        <ele>489.8</ele>
        <time>2013-08-11T08:29:44Z</time>
      </trkpt>
      <trkpt lat="48.61561" lon="7.18605">
        <ele>489.63</ele>
        <time>2013-08-11T08:29:50Z</time>
      </trkpt>
      <trkpt lat="48.61563" lon="7.18632">
        <ele>489.6</ele>
        <time>2013-08-11T08:29:56Z</time>
      </trkpt>
      <trkpt lat="48.61562" lon="7.1866">
        <ele>489.59</ele>
        <time>2013-08-11T08:30:03Z</time>
      </trkpt>
      <trkpt lat="48.61556" lon="7.1869">
        <ele>490.66</ele>
        <time>2013-08-11T08:30:11Z</time>
      </trkpt>
      <trkpt lat="48.61547" lon="7.18716">
        <ele>492.04</ele>
        <time>2013-08-11T08:30:18Z</time>
      </trkpt>
      <trkpt lat="48.61532" lon="7.18735">
        <ele>492.9</ele>
        <time>2013-08-11T08:30:23Z</time>
      </trkpt>
      <trkpt lat="48.61515" lon="7.18748">
        <ele>494.43</ele>
        <time>2013-08-11T08:30:30Z</time>
      </trkpt>
      <trkpt lat="48.61493" lon="7.18753">
        <ele>497.6</ele>
        <time>2013-08-11T08:30:35Z</time>
      </trkpt>
      <trkpt lat="48.61472" lon="7.18755">
        <ele>501.76</ele>
        <time>2013-08-11T08:30:40Z</time>
      </trkpt>
      <trkpt lat="48.61452" lon="7.18748">
        <ele>504.13</ele>
        <time>2013-08-11T08:30:44Z</time>
      </trkpt>
      <trkpt lat="48.61436" lon="7.18731">
        <ele>505.93</ele>
        <time>2013-08-11T08:30:49Z</time>
      </trkpt>
      <trkpt lat="48.61417" lon="7.1871">
        <ele>507.7</ele>
        <time>2013-08-11T08:30:54Z</time>
      </trkpt>
      <trkpt lat="48.61395" lon="7.18705">
        <ele>509.81</ele>
        <time>2013-08-11T08:30:57Z</time>
      </trkpt>
      <trkpt lat="48.61377" lon="7.18701">
        <ele>512.35</ele>
        <time>2013-08-11T08:31:00Z</time>
      </trkpt>
      <trkpt lat="48.61358" lon="7.18688">
        <ele>515.94</ele>
        <time>2013-08-11T08:31:04Z</time>
      </trkpt>
      <trkpt lat="48.61344" lon="7.18665">
        <ele>518.12</ele>
        <time>2013-08-11T08:31:10Z</time>
      </trkpt>
      <trkpt lat="48.61327" lon="7.18641">
        <ele>518.29</ele>
        <time>2013-08-11T08:31:18Z</time>
      </trkpt>
      <trkpt lat="48.61312" lon="7.18622">
        <ele>516.47</ele>
        <time>2013-08-11T08:31:27Z</time>
      </trkpt>
      <trkpt lat="48.61297" lon="7.18605">
        <ele>515.37</ele>
        <time>2013-08-11T08:31:39Z</time>
      </trkpt>
      <trkpt lat="48.6129" lon="7.18579">
        <ele>513.55</ele>
        <time>2013-08-11T08:31:50Z</time>
      </trkpt>
      <trkpt lat="48.61284" lon="7.18553">
        <ele>511.5</ele>
        <time>2013-08-11T08:32:03Z</time>
      </trkpt>
      <trkpt lat="48.61269" lon="7.18536">
        <ele>511.73</ele>
        <time>2013-08-11T08:32:16Z</time>
      </trkpt>
      <trkpt lat="48.61254" lon="7.18517">
        <ele>513.69</ele>
        <time>2013-08-11T08:32:29Z</time>
      </trkpt>
      <trkpt lat="48.61233" lon="7.1851">
        <ele>514.77</ele>
        <time>2013-08-11T08:32:38Z</time>
      </trkpt>
      <trkpt lat="48.61216" lon="7.18497">
        <ele>516.72</ele>
        <time>2013-08-11T08:32:51Z</time>
      </trkpt>
      <trkpt lat="48.61195" lon="7.18495">
        <ele>518.29</ele>
        <time>2013-08-11T08:33:00Z</time>
      </trkpt>
      <trkpt lat="48.61173" lon="7.18497">
        <ele>519.72</ele>
        <time>2013-08-11T08:33:09Z</time>
      </trkpt>
      <trkpt lat="48.61153" lon="7.18504">
        <ele>521.61</ele>
        <time>2013-08-11T08:33:19Z</time>
      </trkpt>
      <trkpt lat="48.61133" lon="7.18504">
        <ele>524.62</ele>
        <time>2013-08-11T08:33:32Z</time>
      </trkpt>
      <trkpt lat="48.61113" lon="7.18499">
        <ele>525.79</ele>
        <time>2013-08-11T08:33:42Z</time>
      </trkpt>
      <trkpt lat="48.61096" lon="7.18487">
        <ele>527.73</ele>
        <time>2013-08-11T08:33:56Z</time>
      </trkpt>
      <trkpt lat="48.61078" lon="7.18476">
        <ele>529.43</ele>
        <time>2013-08-11T08:34:08Z</time>
      </trkpt>
      <trkpt lat="48.61059" lon="7.1848">
        <ele>529.57</ele>
        <time>2013-08-11T08:34:15Z</time>
      </trkpt>
      <trkpt lat="48.6104" lon="7.18482">
        <ele>530.41</ele>
        <time>2013-08-11T08:34:23Z</time>
      </trkpt>
      <trkpt lat="48.61022" lon="7.18474">
        <ele>530.58</ele>
        <time>2013-08-11T08:34:33Z</time>
      </trkpt>
      <trkpt lat="48.61004" lon="7.18463">
        <ele>531.03</ele>
        <time>2013-08-11T08:34:42Z</time>
      </trkpt>
      <trkpt lat="48.60986" lon="7.18454">
        <ele>532.23</ele>
        <time>2013-08-11T08:34:51Z</time>
      </trkpt>
      <trkpt lat="48.60972" lon="7.18437">
        <ele>532.79</ele>
        <time>2013-08-11T08:35:01Z</time>
      </trkpt>
      <trkpt lat="48.60966" lon="7.18409">
        <ele>531.64</ele>
        <time>2013-08-11T08:35:13Z</time>
      </trkpt>
      <trkpt lat="48.60952" lon="7.1839">
        <ele>531.6</ele>
        <time>2013-08-11T08:35:20Z</time>
      </trkpt>
      <trkpt lat="48.60936" lon="7.18377">
        <ele>531.59</ele>
        <time>2013-08-11T08:35:26Z</time>
      </trkpt>
      <trkpt lat="48.6092" lon="7.18358">
        <ele>532.41</ele>
        <time>2013-08-11T08:35:33Z</time>
      </trkpt>
      <trkpt lat="48.60904" lon="7.18341">
        <ele>533.68</ele>
        <time>2013-08-11T08:35:40Z</time>
      </trkpt>
      <trkpt lat="48.60888" lon="7.18328">
        <ele>534.91</ele>
        <time>2013-08-11T08:35:47Z</time>
      </trkpt>
      <trkpt lat="48.60873" lon="7.18313">
        <ele>536.18</ele>
        <time>2013-08-11T08:35:54Z</time>
      </trkpt>
      <trkpt lat="48.60858" lon="7.18296">
        <ele>537.28</ele>
        <time>2013-08-11T08:36:00Z</time>
      </trkpt>
      <trkpt lat="48.60843" lon="7.18278">
        <ele>537.52</ele>
        <time>2013-08-11T08:36:05Z</time>
      </trkpt>
      <trkpt lat="48.60828" lon="7.18261">
        <ele>537.58</ele>
        <time>2013-08-11T08:36:14Z</time>
      </trkpt>
      <trkpt lat="48.60819" lon="7.18235">
        <ele>536.69</ele>
        <time>2013-08-11T08:36:25Z</time>
      </trkpt>
      <trkpt lat="48.60803" lon="7.1822">
        <ele>536.6</ele>
        <time>2013-08-11T08:36:33Z</time>
      </trkpt>
      <trkpt lat="48.60786" lon="7.18203">
        <ele>536.59</ele>
        <time>2013-08-11T08:36:41Z</time>
      </trkpt>
      <trkpt lat="48.60769" lon="7.18188">
        <ele>536.59</ele>
        <time>2013-08-11T08:36:49Z</time>
      </trkpt>
      <trkpt lat="48.60753" lon="7.18173">
        <ele>537.35</ele>
        <time>2013-08-11T08:36:57Z</time>
      </trkpt>
      <trkpt lat="48.60736" lon="7.1816">
        <ele>538.24</ele>
        <time>2013-08-11T08:37:04Z</time>
      </trkpt>
      <trkpt lat="48.60717" lon="7.1815">
        <ele>539.32</ele>
        <time>2013-08-11T08:37:12Z</time>
      </trkpt>
      <trkpt lat="48.60701" lon="7.18137">
        <ele>540.86</ele>
        <time>2013-08-11T08:37:19Z</time>
      </trkpt>
      <trkpt lat="48.60682" lon="7.18124">
        <ele>542.28</ele>
        <time>2013-08-11T08:37:27Z</time>
      </trkpt>
      <trkpt lat="48.60665" lon="7.18115">
        <ele>543.37</ele>
        <time>2013-08-11T08:37:34Z</time>
      </trkpt>
      <trkpt lat="48.60644" lon="7.18113">
        <ele>545.05</ele>
        <time>2013-08-11T08:37:42Z</time>
      </trkpt>
      <trkpt lat="48.60625" lon="7.18113">
        <ele>546.8</ele>
        <time>2013-08-11T08:37:50Z</time>
      </trkpt>
      <trkpt lat="48.60607" lon="7.18117">
        <ele>549.77</ele>
        <time>2013-08-11T08:38:02Z</time>
      </trkpt>
      <trkpt lat="48.60588" lon="7.18128">
        <ele>552.23</ele>
        <time>2013-08-11T08:38:12Z</time>
      </trkpt>
      <trkpt lat="48.60569" lon="7.18137">
        <ele>552.54</ele>
        <time>2013-08-11T08:38:19Z</time>
      </trkpt>
      <trkpt lat="48.60553" lon="7.18154">
        <ele>551.9</ele>
        <time>2013-08-11T08:38:26Z</time>
      </trkpt>
      <trkpt lat="48.60538" lon="7.18171">
        <ele>551.62</ele>
        <time>2013-08-11T08:38:34Z</time>
      </trkpt>
      <trkpt lat="48.60526" lon="7.18193">
        <ele>552.03</ele>
        <time>2013-08-11T08:38:43Z</time>
      </trkpt>
      <trkpt lat="48.60512" lon="7.18212">
        <ele>552.52</ele>
        <time>2013-08-11T08:38:50Z</time>
      </trkpt>
      <trkpt lat="48.60502" lon="7.18235">
        <ele>553.45</ele>
        <time>2013-08-11T08:38:57Z</time>
      </trkpt>
      <trkpt lat="48.60499" lon="7.18263">
        <ele>554.48</ele>
        <time>2013-08-11T08:39:05Z</time>
      </trkpt>
      <trkpt lat="48.60494" lon="7.18293">
        <ele>555.51</ele>
        <time>2013-08-11T08:39:14Z</time>
      </trkpt>
      <trkpt lat="48.60488" lon="7.18323">
        <ele>556.48</ele>
        <time>2013-08-11T08:39:22Z</time>
      </trkpt>
      <trkpt lat="48.60481" lon="7.18349">
        <ele>557.01</ele>
        <time>2013-08-11T08:39:28Z</time>
      </trkpt>
      <trkpt lat="48.60475" lon="7.18375">
        <ele>557.45</ele>
        <time>2013-08-11T08:39:33Z</time>
      </trkpt>
      <trkpt lat="48.60471" lon="7.18407">
        <ele>557.57</ele>
        <time>2013-08-11T08:39:40Z</time>
      </trkpt>
      <trkpt lat="48.60461" lon="7.18433">
        <ele>558.41</ele>
        <time>2013-08-11T08:39:46Z</time>
      </trkpt>
      <trkpt lat="48.60452" lon="7.18461">
        <ele>558.56</ele>
        <time>2013-08-11T08:39:52Z</time>
      </trkpt>
      <trkpt lat="48.60446" lon="7.18489">
        <ele>558.58</ele>
        <time>2013-08-11T08:39:57Z</time>
      </trkpt>
      <trkpt lat="48.60433" lon="7.18512">
        <ele>559.35</ele>
        <time>2013-08-11T08:40:03Z</time>
      </trkpt>
      <trkpt lat="48.60418" lon="7.18529">
        <ele>560.95</ele>
        <time>2013-08-11T08:40:09Z</time>
      </trkpt>
      <trkpt lat="48.60407" lon="7.18553">
        <ele>562.88</ele>
        <time>2013-08-11T08:40:15Z</time>
      </trkpt>
      <trkpt lat="48.60397" lon="7.18579">
        <ele>564.43</ele>
        <time>2013-08-11T08:40:20Z</time>
      </trkpt>
      <trkpt lat="48.60384" lon="7.18602">
        <ele>565.75</ele>
        <time>2013-08-11T08:40:25Z</time>
      </trkpt>
      <trkpt lat="48.60367" lon="7.18628">
        <ele>567.7</ele>
        <time>2013-08-11T08:40:29Z</time>
      </trkpt>
      <trkpt lat="48.60353" lon="7.18654">
        <ele>571.62</ele>
        <time>2013-08-11T08:40:33Z</time>
      </trkpt>
      <trkpt lat="48.60354" lon="7.18682">
        <ele>572.99</ele>
        <time>2013-08-11T08:40:39Z</time>
      </trkpt>
      <trkpt lat="48.60359" lon="7.18716">
        <ele>571.33</ele>
        <time>2013-08-11T08:40:45Z</time>
      </trkpt>
      <trkpt lat="48.60356" lon="7.1875">
        <ele>566</ele>
        <time>2013-08-11T08:40:49Z</time>
      </trkpt>
      <trkpt lat="48.60352" lon="7.18778">
        <ele>561.47</ele>
        <time>2013-08-11T08:40:53Z</time>
      </trkpt>
      <trkpt lat="48.60344" lon="7.18808">
        <ele>558.59</ele>
        <time>2013-08-11T08:40:58Z</time>
      </trkpt>
      <trkpt lat="48.60339" lon="7.18838">
        <ele>557.77</ele>
        <time>2013-08-11T08:41:04Z</time>
      </trkpt>
      <trkpt lat="48.6033" lon="7.18866">
        <ele>557.05</ele>
        <time>2013-08-11T08:41:09Z</time>
      </trkpt>
      <trkpt lat="48.60319" lon="7.1889">
        <ele>556.74</ele>
        <time>2013-08-11T08:41:13Z</time>
      </trkpt>
      <trkpt lat="48.60305" lon="7.18916">
        <ele>556.82</ele>
        <time>2013-08-11T08:41:17Z</time>
      </trkpt>
      <trkpt lat="48.60291" lon="7.18933">
        <ele>556.94</ele>
        <time>2013-08-11T08:41:20Z</time>
      </trkpt>
      <trkpt lat="48.60271" lon="7.1895">
        <ele>556.95</ele>
        <time>2013-08-11T08:41:24Z</time>
      </trkpt>
      <trkpt lat="48.60253" lon="7.18961">
        <ele>556.3</ele>
        <time>2013-08-11T08:41:27Z</time>
      </trkpt>
      <trkpt lat="48.60234" lon="7.18967">
        <ele>555.89</ele>
        <time>2013-08-11T08:41:30Z</time>
      </trkpt>
      <trkpt lat="48.60214" lon="7.18971">
        <ele>555.14</ele>
        <time>2013-08-11T08:41:33Z</time>
      </trkpt>
      <trkpt lat="48.60196" lon="7.18976">
        <ele>555.26</ele>
        <time>2013-08-11T08:41:36Z</time>
      </trkpt>
      <trkpt lat="48.60178" lon="7.18982">
        <ele>555.7</ele>
        <time>2013-08-11T08:41:39Z</time>
      </trkpt>
      <trkpt lat="48.60156" lon="7.18995">
        <ele>556.56</ele>
        <time>2013-08-11T08:41:43Z</time>
      </trkpt>
      <trkpt lat="48.60137" lon="7.19008">
        <ele>558.78</ele>
        <time>2013-08-11T08:41:47Z</time>
      </trkpt>
      <trkpt lat="48.6012" lon="7.19027">
        <ele>562.51</ele>
        <time>2013-08-11T08:41:51Z</time>
      </trkpt>
      <trkpt lat="48.60108" lon="7.19055">
        <ele>565.99</ele>
        <time>2013-08-11T08:41:55Z</time>
      </trkpt>
      <trkpt lat="48.60118" lon="7.19081">
        <ele>567.97</ele>
        <time>2013-08-11T08:42:00Z</time>
      </trkpt>
      <trkpt lat="48.60132" lon="7.19098">
        <ele>568.39</ele>
        <time>2013-08-11T08:42:04Z</time>
      </trkpt>
      <trkpt lat="48.60148" lon="7.19113">
        <ele>568.28</ele>
        <time>2013-08-11T08:42:08Z</time>
      </trkpt>
      <trkpt lat="48.60163" lon="7.19128">
        <ele>567.81</ele>
        <time>2013-08-11T08:42:12Z</time>
      </trkpt>
      <trkpt lat="48.60177" lon="7.19147">
        <ele>567.41</ele>
        <time>2013-08-11T08:42:16Z</time>
      </trkpt>
      <trkpt lat="48.6019" lon="7.19167">
        <ele>567.43</ele>
        <time>2013-08-11T08:42:20Z</time>
      </trkpt>
      <trkpt lat="48.60207" lon="7.19188">
        <ele>567.1</ele>
        <time>2013-08-11T08:42:24Z</time>
      </trkpt>
      <trkpt lat="48.60225" lon="7.19208">
        <ele>566.07</ele>
        <time>2013-08-11T08:42:28Z</time>
      </trkpt>
      <trkpt lat="48.60242" lon="7.19223">
        <ele>565.06</ele>
        <time>2013-08-11T08:42:32Z</time>
      </trkpt>
      <trkpt lat="48.60259" lon="7.19238">
        <ele>564.3</ele>
        <time>2013-08-11T08:42:36Z</time>
      </trkpt>
      <trkpt lat="48.60279" lon="7.19255">
        <ele>561.18</ele>
        <time>2013-08-11T08:42:40Z</time>
      </trkpt>
      <trkpt lat="48.60295" lon="7.19268">
        <ele>559</ele>
        <time>2013-08-11T08:42:43Z</time>
      </trkpt>
      <trkpt lat="48.60313" lon="7.19278">
        <ele>556.78</ele>
        <time>2013-08-11T08:42:46Z</time>
      </trkpt>
      <trkpt lat="48.60331" lon="7.19291">
        <ele>555.51</ele>
        <time>2013-08-11T08:42:49Z</time>
      </trkpt>
      <trkpt lat="48.60348" lon="7.19302">
        <ele>554.4</ele>
        <time>2013-08-11T08:42:52Z</time>
      </trkpt>
      <trkpt lat="48.60364" lon="7.19315">
        <ele>553.93</ele>
        <time>2013-08-11T08:42:55Z</time>
      </trkpt>
      <trkpt lat="48.60383" lon="7.19328">
        <ele>554.31</ele>
        <time>2013-08-11T08:42:58Z</time>
      </trkpt>
      <trkpt lat="48.604" lon="7.19343">
        <ele>554.04</ele>
        <time>2013-08-11T08:43:01Z</time>
      </trkpt>
      <trkpt lat="48.60418" lon="7.19362">
        <ele>552.51</ele>
        <time>2013-08-11T08:43:04Z</time>
      </trkpt>
      <trkpt lat="48.60433" lon="7.19381">
        <ele>550.14</ele>
        <time>2013-08-11T08:43:07Z</time>
      </trkpt>
      <trkpt lat="48.60446" lon="7.19405">
        <ele>547.65</ele>
        <time>2013-08-11T08:43:10Z</time>
      </trkpt>
      <trkpt lat="48.60456" lon="7.19429">
        <ele>545.77</ele>
        <time>2013-08-11T08:43:13Z</time>
      </trkpt>
      <trkpt lat="48.60462" lon="7.19463">
        <ele>542.58</ele>
        <time>2013-08-11T08:43:17Z</time>
      </trkpt>
      <trkpt lat="48.60463" lon="7.19497">
        <ele>537.9</ele>
        <time>2013-08-11T08:43:21Z</time>
      </trkpt>
      <trkpt lat="48.60452" lon="7.19523">
        <ele>534.52</ele>
        <time>2013-08-11T08:43:25Z</time>
      </trkpt>
      <trkpt lat="48.60438" lon="7.19544">
        <ele>532.76</ele>
        <time>2013-08-11T08:43:29Z</time>
      </trkpt>
      <trkpt lat="48.6042" lon="7.19562">
        <ele>531.52</ele>
        <time>2013-08-11T08:43:33Z</time>
      </trkpt>
      <trkpt lat="48.60403" lon="7.19572">
        <ele>530.16</ele>
        <time>2013-08-11T08:43:36Z</time>
      </trkpt>
      <trkpt lat="48.60383" lon="7.19585">
        <ele>528.65</ele>
        <time>2013-08-11T08:43:40Z</time>
      </trkpt>
      <trkpt lat="48.60363" lon="7.19604">
        <ele>527.35</ele>
        <time>2013-08-11T08:43:44Z</time>
      </trkpt>
      <trkpt lat="48.6035" lon="7.19626">
        <ele>527.49</ele>
        <time>2013-08-11T08:43:47Z</time>
      </trkpt>
      <trkpt lat="48.60339" lon="7.1965">
        <ele>527.55</ele>
        <time>2013-08-11T08:43:50Z</time>
      </trkpt>
      <trkpt lat="48.60324" lon="7.19673">
        <ele>526.89</ele>
        <time>2013-08-11T08:43:54Z</time>
      </trkpt>
      <trkpt lat="48.60304" lon="7.1969">
        <ele>526.25</ele>
        <time>2013-08-11T08:43:58Z</time>
      </trkpt>
      <trkpt lat="48.60285" lon="7.19707">
        <ele>525.22</ele>
        <time>2013-08-11T08:44:02Z</time>
      </trkpt>
      <trkpt lat="48.60266" lon="7.19725">
        <ele>525.23</ele>
        <time>2013-08-11T08:44:06Z</time>
      </trkpt>
      <trkpt lat="48.60247" lon="7.1974">
        <ele>524.9</ele>
        <time>2013-08-11T08:44:10Z</time>
      </trkpt>
      <trkpt lat="48.60232" lon="7.19761">
        <ele>524.69</ele>
        <time>2013-08-11T08:44:14Z</time>
      </trkpt>
      <trkpt lat="48.60223" lon="7.19785">
        <ele>525.21</ele>
        <time>2013-08-11T08:44:17Z</time>
      </trkpt>
      <trkpt lat="48.60214" lon="7.19813">
        <ele>525.43</ele>
        <time>2013-08-11T08:44:20Z</time>
      </trkpt>
      <trkpt lat="48.60205" lon="7.19838">
        <ele>525.27</ele>
        <time>2013-08-11T08:44:23Z</time>
      </trkpt>
      <trkpt lat="48.60194" lon="7.19866">
        <ele>524.44</ele>
        <time>2013-08-11T08:44:26Z</time>
      </trkpt>
      <trkpt lat="48.60182" lon="7.19892">
        <ele>523.37</ele>
        <time>2013-08-11T08:44:29Z</time>
      </trkpt>
      <trkpt lat="48.6017" lon="7.19916">
        <ele>522.34</ele>
        <time>2013-08-11T08:44:32Z</time>
      </trkpt>
      <trkpt lat="48.60155" lon="7.19946">
        <ele>521.25</ele>
        <time>2013-08-11T08:44:36Z</time>
      </trkpt>
      <trkpt lat="48.60143" lon="7.19967">
        <ele>520.62</ele>
        <time>2013-08-11T08:44:39Z</time>
      </trkpt>
      <trkpt lat="48.60129" lon="7.19997">
        <ele>519.92</ele>
        <time>2013-08-11T08:44:43Z</time>
      </trkpt>
      <trkpt lat="48.60119" lon="7.20023">
        <ele>518.9</ele>
        <time>2013-08-11T08:44:46Z</time>
      </trkpt>
      <trkpt lat="48.60106" lon="7.20049">
        <ele>517.18</ele>
        <time>2013-08-11T08:44:50Z</time>
      </trkpt>
      <trkpt lat="48.60089" lon="7.20072">
        <ele>514.98</ele>
        <time>2013-08-11T08:44:57Z</time>
      </trkpt>
      <trkpt lat="48.60068" lon="7.20066">
        <ele>512.83</ele>
        <time>2013-08-11T08:45:22Z</time>
      </trkpt>
      <trkpt lat="48.60053" lon="7.20051">
        <ele>511.73</ele>
        <time>2013-08-11T08:45:26Z</time>
      </trkpt>
      <trkpt lat="48.60035" lon="7.20034">
        <ele>510.95</ele>
        <time>2013-08-11T08:45:30Z</time>
      </trkpt>
      <trkpt lat="48.60019" lon="7.20014">
        <ele>510.7</ele>
        <time>2013-08-11T08:45:34Z</time>
      </trkpt>
      <trkpt lat="48.60002" lon="7.19995">
        <ele>510.63</ele>
        <time>2013-08-11T08:45:38Z</time>
      </trkpt>
      <trkpt lat="48.59982" lon="7.1998">
        <ele>510.6</ele>
        <time>2013-08-11T08:45:42Z</time>
      </trkpt>
      <trkpt lat="48.59963" lon="7.19965">
        <ele>511.17</ele>
        <time>2013-08-11T08:45:46Z</time>
      </trkpt>
      <trkpt lat="48.59946" lon="7.19956">
        <ele>511.85</ele>
        <time>2013-08-11T08:45:49Z</time>
      </trkpt>
      <trkpt lat="48.59923" lon="7.19961">
        <ele>513.04</ele>
        <time>2013-08-11T08:45:53Z</time>
      </trkpt>
      <trkpt lat="48.5991" lon="7.19978">
        <ele>514.63</ele>
        <time>2013-08-11T08:45:56Z</time>
      </trkpt>
      <trkpt lat="48.59901" lon="7.2001">
        <ele>515.21</ele>
        <time>2013-08-11T08:46:00Z</time>
      </trkpt>
      <trkpt lat="48.59914" lon="7.20034">
        <ele>509.09</ele>
        <time>2013-08-11T08:46:04Z</time>
      </trkpt>
      <trkpt lat="48.5993" lon="7.20053">
        <ele>505.77</ele>
        <time>2013-08-11T08:46:08Z</time>
      </trkpt>
      <trkpt lat="48.59944" lon="7.20074">
        <ele>504.51</ele>
        <time>2013-08-11T08:46:13Z</time>
      </trkpt>
      <trkpt lat="48.59956" lon="7.20096">
        <ele>503.81</ele>
        <time>2013-08-11T08:46:18Z</time>
      </trkpt>
      <trkpt lat="48.59965" lon="7.20124">
        <ele>502.86</ele>
        <time>2013-08-11T08:46:25Z</time>
      </trkpt>
      <trkpt lat="48.59964" lon="7.20154">
        <ele>502.62</ele>
        <time>2013-08-11T08:46:33Z</time>
      </trkpt>
      <trkpt lat="48.59947" lon="7.20171">
        <ele>502.84</ele>
        <time>2013-08-11T08:46:44Z</time>
      </trkpt>
      <trkpt lat="48.5993" lon="7.2018">
        <ele>504.02</ele>
        <time>2013-08-11T08:46:52Z</time>
      </trkpt>
      <trkpt lat="48.59916" lon="7.20197">
        <ele>506.19</ele>
        <time>2013-08-11T08:46:55Z</time>
      </trkpt>
      <trkpt lat="48.599" lon="7.20216">
        <ele>508.02</ele>
        <time>2013-08-11T08:46:58Z</time>
      </trkpt>
      <trkpt lat="48.59882" lon="7.20233">
        <ele>509.36</ele>
        <time>2013-08-11T08:47:01Z</time>
      </trkpt>
      <trkpt lat="48.59861" lon="7.20246">
        <ele>510.51</ele>
        <time>2013-08-11T08:47:04Z</time>
      </trkpt>
      <trkpt lat="48.59842" lon="7.20261">
        <ele>511.13</ele>
        <time>2013-08-11T08:47:07Z</time>
      </trkpt>
      <trkpt lat="48.59828" lon="7.20289">
        <ele>511.54</ele>
        <time>2013-08-11T08:47:10Z</time>
      </trkpt>
      <trkpt lat="48.59818" lon="7.20325">
        <ele>511.57</ele>
        <time>2013-08-11T08:47:13Z</time>
      </trkpt>
      <trkpt lat="48.5981" lon="7.20362">
        <ele>511.58</ele>
        <time>2013-08-11T08:47:16Z</time>
      </trkpt>
      <trkpt lat="48.59804" lon="7.2039">
        <ele>512.02</ele>
        <time>2013-08-11T08:47:18Z</time>
      </trkpt>
      <trkpt lat="48.59797" lon="7.20422">
        <ele>512.27</ele>
        <time>2013-08-11T08:47:20Z</time>
      </trkpt>
      <trkpt lat="48.59789" lon="7.20454">
        <ele>512.16</ele>
        <time>2013-08-11T08:47:22Z</time>
      </trkpt>
      <trkpt lat="48.5978" lon="7.20484">
        <ele>511.91</ele>
        <time>2013-08-11T08:47:24Z</time>
      </trkpt>
      <trkpt lat="48.59769" lon="7.20514">
        <ele>511.77</ele>
        <time>2013-08-11T08:47:26Z</time>
      </trkpt>
      <trkpt lat="48.59757" lon="7.20542">
        <ele>511.69</ele>
        <time>2013-08-11T08:47:28Z</time>
      </trkpt>
      <trkpt lat="48.59744" lon="7.20568">
        <ele>511.4</ele>
        <time>2013-08-11T08:47:30Z</time>
      </trkpt>
      <trkpt lat="48.5973" lon="7.20592">
        <ele>511.04</ele>
        <time>2013-08-11T08:47:32Z</time>
      </trkpt>
      <trkpt lat="48.59715" lon="7.20615">
        <ele>510.85</ele>
        <time>2013-08-11T08:47:34Z</time>
      </trkpt>
      <trkpt lat="48.59698" lon="7.20632">
        <ele>510.3</ele>
        <time>2013-08-11T08:47:36Z</time>
      </trkpt>
      <trkpt lat="48.59681" lon="7.20643">
        <ele>509.99</ele>
        <time>2013-08-11T08:47:38Z</time>
      </trkpt>
      <trkpt lat="48.59664" lon="7.20652">
        <ele>509.68</ele>
        <time>2013-08-11T08:47:43Z</time>
      </trkpt>
      <trkpt lat="48.59648" lon="7.20665">
        <ele>508.61</ele>
        <time>2013-08-11T08:50:53Z</time>
      </trkpt>
      <trkpt lat="48.5963" lon="7.20667">
        <ele>508.59</ele>
        <time>2013-08-11T08:51:08Z</time>
      </trkpt>
      <trkpt lat="48.59617" lon="7.20686">
        <ele>502.02</ele>
        <time>2013-08-11T08:51:58Z</time>
      </trkpt>
      <trkpt lat="48.59598" lon="7.20686">
        <ele>500.14</ele>
        <time>2013-08-11T08:52:08Z</time>
      </trkpt>
      <trkpt lat="48.5958" lon="7.20692">
        <ele>497.84</ele>
        <time>2013-08-11T08:52:28Z</time>
      </trkpt>
      <trkpt lat="48.59562" lon="7.20692">
        <ele>496.59</ele>
        <time>2013-08-11T08:52:52Z</time>
      </trkpt>
      <trkpt lat="48.59544" lon="7.20699">
        <ele>496.59</ele>
        <time>2013-08-11T08:53:17Z</time>
      </trkpt>
      <trkpt lat="48.59527" lon="7.2071">
        <ele>498.35</ele>
        <time>2013-08-11T08:53:42Z</time>
      </trkpt>
      <trkpt lat="48.59508" lon="7.20707">
        <ele>500.32</ele>
        <time>2013-08-11T08:53:58Z</time>
      </trkpt>
      <trkpt lat="48.5949" lon="7.20714">
        <ele>503.11</ele>
        <time>2013-08-11T08:54:19Z</time>
      </trkpt>
      <trkpt lat="48.59472" lon="7.20716">
        <ele>504.51</ele>
        <time>2013-08-11T08:54:33Z</time>
      </trkpt>
      <trkpt lat="48.59452" lon="7.2071">
        <ele>505.34</ele>
        <time>2013-08-11T08:54:40Z</time>
      </trkpt>
      <trkpt lat="48.59434" lon="7.20705">
        <ele>505.57</ele>
        <time>2013-08-11T08:54:48Z</time>
      </trkpt>
      <trkpt lat="48.59416" lon="7.20705">
        <ele>506.55</ele>
        <time>2013-08-11T08:55:02Z</time>
      </trkpt>
      <trkpt lat="48.59399" lon="7.20714">
        <ele>508.94</ele>
        <time>2013-08-11T08:55:19Z</time>
      </trkpt>
      <trkpt lat="48.59381" lon="7.20718">
        <ele>511.43</ele>
        <time>2013-08-11T08:55:37Z</time>
      </trkpt>
      <trkpt lat="48.59365" lon="7.20731">
        <ele>512.48</ele>
        <time>2013-08-11T08:55:49Z</time>
      </trkpt>
      <trkpt lat="48.59348" lon="7.20746">
        <ele>514.13</ele>
        <time>2013-08-11T08:56:01Z</time>
      </trkpt>
      <trkpt lat="48.59334" lon="7.20763">
        <ele>515.25</ele>
        <time>2013-08-11T08:56:11Z</time>
      </trkpt>
      <trkpt lat="48.59321" lon="7.2078">
        <ele>516.34</ele>
        <time>2013-08-11T08:56:23Z</time>
      </trkpt>
      <trkpt lat="48.59308" lon="7.208">
        <ele>517.45</ele>
        <time>2013-08-11T08:56:34Z</time>
      </trkpt>
      <trkpt lat="48.59295" lon="7.20819">
        <ele>519.24</ele>
        <time>2013-08-11T08:56:46Z</time>
      </trkpt>
      <trkpt lat="48.59283" lon="7.2084">
        <ele>521.08</ele>
        <time>2013-08-11T08:56:57Z</time>
      </trkpt>
      <trkpt lat="48.59271" lon="7.20862">
        <ele>522.91</ele>
        <time>2013-08-11T08:57:08Z</time>
      </trkpt>
      <trkpt lat="48.59256" lon="7.20879">
        <ele>525.14</ele>
        <time>2013-08-11T08:57:19Z</time>
      </trkpt>
      <trkpt lat="48.59242" lon="7.20896">
        <ele>527.79</ele>
        <time>2013-08-11T08:57:30Z</time>
      </trkpt>
      <trkpt lat="48.59228" lon="7.20913">
        <ele>530.38</ele>
        <time>2013-08-11T08:57:40Z</time>
      </trkpt>
      <trkpt lat="48.59211" lon="7.20926">
        <ele>534.07</ele>
        <time>2013-08-11T08:57:50Z</time>
      </trkpt>
      <trkpt lat="48.59199" lon="7.20948">
        <ele>538.52</ele>
        <time>2013-08-11T08:58:01Z</time>
      </trkpt>
      <trkpt lat="48.59186" lon="7.20967">
        <ele>542.27</ele>
        <time>2013-08-11T08:58:11Z</time>
      </trkpt>
      <trkpt lat="48.59171" lon="7.20984">
        <ele>545.26</ele>
        <time>2013-08-11T08:58:19Z</time>
      </trkpt>
      <trkpt lat="48.59159" lon="7.21006">
        <ele>548.29</ele>
        <time>2013-08-11T08:58:28Z</time>
      </trkpt>
      <trkpt lat="48.59146" lon="7.21027">
        <ele>551.32</ele>
        <time>2013-08-11T08:58:38Z</time>
      </trkpt>
      <trkpt lat="48.59136" lon="7.21051">
        <ele>553.82</ele>
        <time>2013-08-11T08:58:48Z</time>
      </trkpt>
      <trkpt lat="48.59122" lon="7.21072">
        <ele>555.3</ele>
        <time>2013-08-11T08:58:57Z</time>
      </trkpt>
      <trkpt lat="48.59104" lon="7.21083">
        <ele>556.63</ele>
        <time>2013-08-11T08:59:05Z</time>
      </trkpt>
      <trkpt lat="48.59092" lon="7.21104">
        <ele>558.28</ele>
        <time>2013-08-11T08:59:14Z</time>
      </trkpt>
      <trkpt lat="48.5908" lon="7.21126">
        <ele>560.2</ele>
        <time>2013-08-11T08:59:25Z</time>
      </trkpt>
      <trkpt lat="48.59067" lon="7.21147">
        <ele>562.18</ele>
        <time>2013-08-11T08:59:35Z</time>
      </trkpt>
      <trkpt lat="48.59058" lon="7.21173">
        <ele>563.23</ele>
        <time>2013-08-11T08:59:43Z</time>
      </trkpt>
      <trkpt lat="48.59049" lon="7.21199">
        <ele>564.48</ele>
        <time>2013-08-11T08:59:55Z</time>
      </trkpt>
      <trkpt lat="48.59043" lon="7.21227">
        <ele>565.35</ele>
        <time>2013-08-11T09:00:06Z</time>
      </trkpt>
      <trkpt lat="48.5903" lon="7.21246">
        <ele>566.41</ele>
        <time>2013-08-11T09:00:19Z</time>
      </trkpt>
      <trkpt lat="48.59023" lon="7.21272">
        <ele>568.25</ele>
        <time>2013-08-11T09:00:34Z</time>
      </trkpt>
      <trkpt lat="48.59022" lon="7.213">
        <ele>569.53</ele>
        <time>2013-08-11T09:00:47Z</time>
      </trkpt>
      <trkpt lat="48.59009" lon="7.21319">
        <ele>570.58</ele>
        <time>2013-08-11T09:01:05Z</time>
      </trkpt>
      <trkpt lat="48.59007" lon="7.21347">
        <ele>574.58</ele>
        <time>2013-08-11T09:02:47Z</time>
      </trkpt>
      <trkpt lat="48.59014" lon="7.21317">
        <ele>577.84</ele>
        <time>2013-08-11T09:05:42Z</time>
      </trkpt>
      <trkpt lat="48.59023" lon="7.21289">
        <ele>578.49</ele>
        <time>2013-08-11T09:05:49Z</time>
      </trkpt>
      <trkpt lat="48.59036" lon="7.2127">
        <ele>578.57</ele>
        <time>2013-08-11T09:05:55Z</time>
      </trkpt>
      <trkpt lat="48.59049" lon="7.21248">
        <ele>578.84</ele>
        <time>2013-08-11T09:06:00Z</time>
      </trkpt>
      <trkpt lat="48.59063" lon="7.21229">
        <ele>579.41</ele>
        <time>2013-08-11T09:06:05Z</time>
      </trkpt>
      <trkpt lat="48.59077" lon="7.2121">
        <ele>579.55</ele>
        <time>2013-08-11T09:06:10Z</time>
      </trkpt>
      <trkpt lat="48.59092" lon="7.21195">
        <ele>579.58</ele>
        <time>2013-08-11T09:06:14Z</time>
      </trkpt>
      <trkpt lat="48.59109" lon="7.21179">
        <ele>579.15</ele>
        <time>2013-08-11T09:06:19Z</time>
      </trkpt>
      <trkpt lat="48.59127" lon="7.21162">
        <ele>578.72</ele>
        <time>2013-08-11T09:06:24Z</time>
      </trkpt>
      <trkpt lat="48.59146" lon="7.21145">
        <ele>577.95</ele>
        <time>2013-08-11T09:06:28Z</time>
      </trkpt>
      <trkpt lat="48.59161" lon="7.21128">
        <ele>577.13</ele>
        <time>2013-08-11T09:06:32Z</time>
      </trkpt>
      <trkpt lat="48.59178" lon="7.21109">
        <ele>576.18</ele>
        <time>2013-08-11T09:06:36Z</time>
      </trkpt>
      <trkpt lat="48.59196" lon="7.21089">
        <ele>575.09</ele>
        <time>2013-08-11T09:06:40Z</time>
      </trkpt>
      <trkpt lat="48.59211" lon="7.21074">
        <ele>574.75</ele>
        <time>2013-08-11T09:06:44Z</time>
      </trkpt>
      <trkpt lat="48.59227" lon="7.21061">
        <ele>574.64</ele>
        <time>2013-08-11T09:06:48Z</time>
      </trkpt>
      <trkpt lat="48.59243" lon="7.21049">
        <ele>574.61</ele>
        <time>2013-08-11T09:06:52Z</time>
      </trkpt>
      <trkpt lat="48.5926" lon="7.21036">
        <ele>575.03</ele>
        <time>2013-08-11T09:06:56Z</time>
      </trkpt>
      <trkpt lat="48.5928" lon="7.21019">
        <ele>574.98</ele>
        <time>2013-08-11T09:07:00Z</time>
      </trkpt>
      <trkpt lat="48.59297" lon="7.21004">
        <ele>574.71</ele>
        <time>2013-08-11T09:07:04Z</time>
      </trkpt>
      <trkpt lat="48.59316" lon="7.20986">
        <ele>575.31</ele>
        <time>2013-08-11T09:07:08Z</time>
      </trkpt>
      <trkpt lat="48.59337" lon="7.20971">
        <ele>575.75</ele>
        <time>2013-08-11T09:07:12Z</time>
      </trkpt>
      <trkpt lat="48.59357" lon="7.20961">
        <ele>576.32</ele>
        <time>2013-08-11T09:07:16Z</time>
      </trkpt>
      <trkpt lat="48.59376" lon="7.20952">
        <ele>576.51</ele>
        <time>2013-08-11T09:07:20Z</time>
      </trkpt>
      <trkpt lat="48.59396" lon="7.20946">
        <ele>577.25</ele>
        <time>2013-08-11T09:07:24Z</time>
      </trkpt>
      <trkpt lat="48.59416" lon="7.20939">
        <ele>577.73</ele>
        <time>2013-08-11T09:07:28Z</time>
      </trkpt>
      <trkpt lat="48.59436" lon="7.20933">
        <ele>578.57</ele>
        <time>2013-08-11T09:07:32Z</time>
      </trkpt>
      <trkpt lat="48.59457" lon="7.20931">
        <ele>578.83</ele>
        <time>2013-08-11T09:07:36Z</time>
      </trkpt>
      <trkpt lat="48.59477" lon="7.20933">
        <ele>578.92</ele>
        <time>2013-08-11T09:07:40Z</time>
      </trkpt>
      <trkpt lat="48.59498" lon="7.20939">
        <ele>579.38</ele>
        <time>2013-08-11T09:07:44Z</time>
      </trkpt>
      <trkpt lat="48.59516" lon="7.20952">
        <ele>579.52</ele>
        <time>2013-08-11T09:07:48Z</time>
      </trkpt>
      <trkpt lat="48.59531" lon="7.20967">
        <ele>580.34</ele>
        <time>2013-08-11T09:07:53Z</time>
      </trkpt>
      <trkpt lat="48.59542" lon="7.20991">
        <ele>581.23</ele>
        <time>2013-08-11T09:08:04Z</time>
      </trkpt>
      <trkpt lat="48.5954" lon="7.21019">
        <ele>582.93</ele>
        <time>2013-08-11T09:08:25Z</time>
      </trkpt>
      <trkpt lat="48.59534" lon="7.21055">
        <ele>587.55</ele>
        <time>2013-08-11T09:08:43Z</time>
      </trkpt>
      <trkpt lat="48.59528" lon="7.21089">
        <ele>591.89</ele>
        <time>2013-08-11T09:08:59Z</time>
      </trkpt>
      <trkpt lat="48.5952" lon="7.21124">
        <ele>597.24</ele>
        <time>2013-08-11T09:09:17Z</time>
      </trkpt>
      <trkpt lat="48.59516" lon="7.21156">
        <ele>602.52</ele>
        <time>2013-08-11T09:09:32Z</time>
      </trkpt>
      <trkpt lat="48.59514" lon="7.21188">
        <ele>607.22</ele>
        <time>2013-08-11T09:09:51Z</time>
      </trkpt>
      <trkpt lat="48.59511" lon="7.21216">
        <ele>611.63</ele>
        <time>2013-08-11T09:10:04Z</time>
      </trkpt>
      <trkpt lat="48.59506" lon="7.21246">
        <ele>617.85</ele>
        <time>2013-08-11T09:10:23Z</time>
      </trkpt>
      <trkpt lat="48.59499" lon="7.21272">
        <ele>623.09</ele>
        <time>2013-08-11T09:10:37Z</time>
      </trkpt>
      <trkpt lat="48.59498" lon="7.213">
        <ele>626.85</ele>
        <time>2013-08-11T09:10:51Z</time>
      </trkpt>
      <trkpt lat="48.59495" lon="7.21328">
        <ele>630.16</ele>
        <time>2013-08-11T09:11:04Z</time>
      </trkpt>
      <trkpt lat="48.59496" lon="7.21355">
        <ele>633.38</ele>
        <time>2013-08-11T09:11:17Z</time>
      </trkpt>
      <trkpt lat="48.59492" lon="7.21383">
        <ele>637.38</ele>
        <time>2013-08-11T09:11:32Z</time>
      </trkpt>
      <trkpt lat="48.59488" lon="7.21411">
        <ele>642.37</ele>
        <time>2013-08-11T09:11:50Z</time>
      </trkpt>
      <trkpt lat="48.5949" lon="7.21439">
        <ele>646.63</ele>
        <time>2013-08-11T09:12:04Z</time>
      </trkpt>
      <trkpt lat="48.59491" lon="7.21467">
        <ele>651.55</ele>
        <time>2013-08-11T09:12:20Z</time>
      </trkpt>
      <trkpt lat="48.59498" lon="7.21493">
        <ele>656.11</ele>
        <time>2013-08-11T09:12:33Z</time>
      </trkpt>
      <trkpt lat="48.59504" lon="7.21521">
        <ele>661.28</ele>
        <time>2013-08-11T09:12:47Z</time>
      </trkpt>
      <trkpt lat="48.59511" lon="7.21546">
        <ele>665.86</ele>
        <time>2013-08-11T09:13:01Z</time>
      </trkpt>
      <trkpt lat="48.59514" lon="7.21574">
        <ele>669.95</ele>
        <time>2013-08-11T09:13:16Z</time>
      </trkpt>
      <trkpt lat="48.59522" lon="7.216">
        <ele>672.28</ele>
        <time>2013-08-11T09:13:28Z</time>
      </trkpt>
      <trkpt lat="48.59529" lon="7.21626">
        <ele>675.18</ele>
        <time>2013-08-11T09:13:43Z</time>
      </trkpt>
      <trkpt lat="48.59535" lon="7.21652">
        <ele>677.31</ele>
        <time>2013-08-11T09:13:57Z</time>
      </trkpt>
      <trkpt lat="48.59543" lon="7.21679">
        <ele>679.85</ele>
        <time>2013-08-11T09:14:09Z</time>
      </trkpt>
      <trkpt lat="48.59543" lon="7.21709">
        <ele>680.55</ele>
        <time>2013-08-11T09:14:19Z</time>
      </trkpt>
      <trkpt lat="48.59552" lon="7.21733">
        <ele>679.6</ele>
        <time>2013-08-11T09:14:38Z</time>
      </trkpt>
      <trkpt lat="48.59569" lon="7.21746">
        <ele>677.59</ele>
        <time>2013-08-11T09:15:15Z</time>
      </trkpt>
      <trkpt lat="48.59559" lon="7.2177">
        <ele>678.53</ele>
        <time>2013-08-11T09:15:32Z</time>
      </trkpt>
      <trkpt lat="48.59569" lon="7.21793">
        <ele>678.17</ele>
        <time>2013-08-11T09:15:51Z</time>
      </trkpt>
      <trkpt lat="48.59578" lon="7.21819">
        <ele>679.95</ele>
        <time>2013-08-11T09:16:07Z</time>
      </trkpt>
      <trkpt lat="48.59583" lon="7.21847">
        <ele>682.22</ele>
        <time>2013-08-11T09:16:22Z</time>
      </trkpt>
      <trkpt lat="48.5959" lon="7.21873">
        <ele>684.91</ele>
        <time>2013-08-11T09:16:38Z</time>
      </trkpt>
      <trkpt lat="48.59598" lon="7.21898">
        <ele>688.18</ele>
        <time>2013-08-11T09:16:55Z</time>
      </trkpt>
      <trkpt lat="48.59606" lon="7.21924">
        <ele>692.31</ele>
        <time>2013-08-11T09:17:09Z</time>
      </trkpt>
      <trkpt lat="48.59612" lon="7.2195">
        <ele>695.99</ele>
        <time>2013-08-11T09:17:24Z</time>
      </trkpt>
      <trkpt lat="48.59619" lon="7.21976">
        <ele>699.79</ele>
        <time>2013-08-11T09:17:40Z</time>
      </trkpt>
      <trkpt lat="48.59626" lon="7.22001">
        <ele>703.02</ele>
        <time>2013-08-11T09:17:54Z</time>
      </trkpt>
      <trkpt lat="48.59636" lon="7.22025">
        <ele>706.76</ele>
        <time>2013-08-11T09:18:08Z</time>
      </trkpt>
      <trkpt lat="48.59642" lon="7.22053">
        <ele>710.59</ele>
        <time>2013-08-11T09:18:25Z</time>
      </trkpt>
      <trkpt lat="48.59651" lon="7.22079">
        <ele>714.13</ele>
        <time>2013-08-11T09:18:40Z</time>
      </trkpt>
      <trkpt lat="48.59664" lon="7.22098">
        <ele>717.49</ele>
        <time>2013-08-11T09:18:53Z</time>
      </trkpt>
      <trkpt lat="48.59677" lon="7.22119">
        <ele>719.75</ele>
        <time>2013-08-11T09:19:07Z</time>
      </trkpt>
      <trkpt lat="48.59692" lon="7.22136">
        <ele>720.57</ele>
        <time>2013-08-11T09:19:21Z</time>
      </trkpt>
      <trkpt lat="48.5971" lon="7.22149">
        <ele>721.58</ele>
        <time>2013-08-11T09:19:36Z</time>
      </trkpt>
      <trkpt lat="48.59728" lon="7.22162">
        <ele>723.14</ele>
        <time>2013-08-11T09:19:48Z</time>
      </trkpt>
      <trkpt lat="48.59744" lon="7.22175">
        <ele>724.48</ele>
        <time>2013-08-11T09:20:01Z</time>
      </trkpt>
      <trkpt lat="48.59757" lon="7.22194">
        <ele>726.24</ele>
        <time>2013-08-11T09:20:14Z</time>
      </trkpt>
      <trkpt lat="48.59768" lon="7.22218">
        <ele>727.96</ele>
        <time>2013-08-11T09:20:28Z</time>
      </trkpt>
      <trkpt lat="48.59781" lon="7.22239">
        <ele>729.24</ele>
        <time>2013-08-11T09:20:38Z</time>
      </trkpt>
      <trkpt lat="48.59794" lon="7.22263">
        <ele>730.91</ele>
        <time>2013-08-11T09:20:43Z</time>
      </trkpt>
      <trkpt lat="48.59786" lon="7.22289">
        <ele>733.05</ele>
        <time>2013-08-11T09:20:50Z</time>
      </trkpt>
      <trkpt lat="48.59773" lon="7.2231">
        <ele>733.55</ele>
        <time>2013-08-11T09:20:59Z</time>
      </trkpt>
      <trkpt lat="48.59761" lon="7.22334">
        <ele>734.45</ele>
        <time>2013-08-11T09:21:08Z</time>
      </trkpt>
      <trkpt lat="48.5975" lon="7.22358">
        <ele>735.48</ele>
        <time>2013-08-11T09:21:17Z</time>
      </trkpt>
      <trkpt lat="48.5974" lon="7.22381">
        <ele>736.7</ele>
        <time>2013-08-11T09:21:25Z</time>
      </trkpt>
      <trkpt lat="48.59734" lon="7.22413">
        <ele>738.96</ele>
        <time>2013-08-11T09:21:37Z</time>
      </trkpt>
      <trkpt lat="48.59727" lon="7.22441">
        <ele>741.09</ele>
        <time>2013-08-11T09:22:33Z</time>
      </trkpt>
      <trkpt lat="48.59722" lon="7.22469">
        <ele>743.34</ele>
        <time>2013-08-11T09:22:39Z</time>
      </trkpt>
      <trkpt lat="48.59717" lon="7.22497">
        <ele>744.54</ele>
        <time>2013-08-11T09:22:44Z</time>
      </trkpt>
      <trkpt lat="48.59725" lon="7.22525">
        <ele>745.34</ele>
        <time>2013-08-11T09:22:49Z</time>
      </trkpt>
      <trkpt lat="48.59741" lon="7.22548">
        <ele>745.53</ele>
        <time>2013-08-11T09:22:54Z</time>
      </trkpt>
      <trkpt lat="48.59757" lon="7.22574">
        <ele>745.32</ele>
        <time>2013-08-11T09:22:58Z</time>
      </trkpt>
      <trkpt lat="48.59771" lon="7.22591">
        <ele>744.46</ele>
        <time>2013-08-11T09:23:01Z</time>
      </trkpt>
      <trkpt lat="48.59784" lon="7.22611">
        <ele>742.69</ele>
        <time>2013-08-11T09:23:04Z</time>
      </trkpt>
      <trkpt lat="48.598" lon="7.22634">
        <ele>739.55</ele>
        <time>2013-08-11T09:23:08Z</time>
      </trkpt>
      <trkpt lat="48.59815" lon="7.22658">
        <ele>735.58</ele>
        <time>2013-08-11T09:23:12Z</time>
      </trkpt>
      <trkpt lat="48.59829" lon="7.22679">
        <ele>732.96</ele>
        <time>2013-08-11T09:23:16Z</time>
      </trkpt>
      <trkpt lat="48.59843" lon="7.22705">
        <ele>731.34</ele>
        <time>2013-08-11T09:23:20Z</time>
      </trkpt>
      <trkpt lat="48.59854" lon="7.22731">
        <ele>730.14</ele>
        <time>2013-08-11T09:23:24Z</time>
      </trkpt>
      <trkpt lat="48.59864" lon="7.22759">
        <ele>729.77</ele>
        <time>2013-08-11T09:23:28Z</time>
      </trkpt>
      <trkpt lat="48.59875" lon="7.22791">
        <ele>729.65</ele>
        <time>2013-08-11T09:23:32Z</time>
      </trkpt>
      <trkpt lat="48.59876" lon="7.22823">
        <ele>729.61</ele>
        <time>2013-08-11T09:23:36Z</time>
      </trkpt>
      <trkpt lat="48.5987" lon="7.22849">
        <ele>728.33</ele>
        <time>2013-08-11T09:23:40Z</time>
      </trkpt>
      <trkpt lat="48.59856" lon="7.22866">
        <ele>726.32</ele>
        <time>2013-08-11T09:23:45Z</time>
      </trkpt>
      <trkpt lat="48.59839" lon="7.22881">
        <ele>725.72</ele>
        <time>2013-08-11T09:23:51Z</time>
      </trkpt>
      <trkpt lat="48.59822" lon="7.2289">
        <ele>725.61</ele>
        <time>2013-08-11T09:23:57Z</time>
      </trkpt>
      <trkpt lat="48.59803" lon="7.229">
        <ele>725.59</ele>
        <time>2013-08-11T09:24:03Z</time>
      </trkpt>
      <trkpt lat="48.59786" lon="7.22909">
        <ele>725.59</ele>
        <time>2013-08-11T09:24:09Z</time>
      </trkpt>
      <trkpt lat="48.59769" lon="7.22918">
        <ele>725.59</ele>
        <time>2013-08-11T09:24:17Z</time>
      </trkpt>
      <trkpt lat="48.59746" lon="7.22926">
        <ele>725.84</ele>
        <time>2013-08-11T09:24:29Z</time>
      </trkpt>
      <trkpt lat="48.59725" lon="7.22933">
        <ele>726.81</ele>
        <time>2013-08-11T09:24:40Z</time>
      </trkpt>
      <trkpt lat="48.59707" lon="7.22937">
        <ele>728.06</ele>
        <time>2013-08-11T09:24:47Z</time>
      </trkpt>
      <trkpt lat="48.59686" lon="7.22939">
        <ele>729.18</ele>
        <time>2013-08-11T09:24:53Z</time>
      </trkpt>
      <trkpt lat="48.59668" lon="7.22935">
        <ele>729.52</ele>
        <time>2013-08-11T09:24:59Z</time>
      </trkpt>
      <trkpt lat="48.59648" lon="7.2293">
        <ele>730.4</ele>
        <time>2013-08-11T09:25:06Z</time>
      </trkpt>
      <trkpt lat="48.59628" lon="7.2293">
        <ele>731.12</ele>
        <time>2013-08-11T09:25:11Z</time>
      </trkpt>
      <trkpt lat="48.59608" lon="7.22928">
        <ele>731.73</ele>
        <time>2013-08-11T09:25:16Z</time>
      </trkpt>
      <trkpt lat="48.59588" lon="7.22937">
        <ele>732.32</ele>
        <time>2013-08-11T09:25:20Z</time>
      </trkpt>
      <trkpt lat="48.59568" lon="7.22948">
        <ele>732.75</ele>
        <time>2013-08-11T09:25:24Z</time>
      </trkpt>
      <trkpt lat="48.59549" lon="7.2296">
        <ele>733.39</ele>
        <time>2013-08-11T09:25:29Z</time>
      </trkpt>
      <trkpt lat="48.59529" lon="7.22971">
        <ele>734.65</ele>
        <time>2013-08-11T09:25:39Z</time>
      </trkpt>
      <trkpt lat="48.5951" lon="7.22986">
        <ele>735.42</ele>
        <time>2013-08-11T09:25:45Z</time>
      </trkpt>
      <trkpt lat="48.59492" lon="7.23001">
        <ele>735.56</ele>
        <time>2013-08-11T09:25:51Z</time>
      </trkpt>
      <trkpt lat="48.59477" lon="7.23018">
        <ele>736.35</ele>
        <time>2013-08-11T09:25:56Z</time>
      </trkpt>
      <trkpt lat="48.59463" lon="7.23038">
        <ele>736.78</ele>
        <time>2013-08-11T09:26:01Z</time>
      </trkpt>
      <trkpt lat="48.59449" lon="7.23057">
        <ele>737.45</ele>
        <time>2013-08-11T09:26:07Z</time>
      </trkpt>
      <trkpt lat="48.59431" lon="7.23076">
        <ele>737.56</ele>
        <time>2013-08-11T09:26:13Z</time>
      </trkpt>
      <trkpt lat="48.59414" lon="7.23091">
        <ele>736.82</ele>
        <time>2013-08-11T09:26:18Z</time>
      </trkpt>
      <trkpt lat="48.59397" lon="7.23106">
        <ele>736.07</ele>
        <time>2013-08-11T09:26:23Z</time>
      </trkpt>
      <trkpt lat="48.59377" lon="7.23119">
        <ele>735.7</ele>
        <time>2013-08-11T09:26:28Z</time>
      </trkpt>
      <trkpt lat="48.59358" lon="7.23128">
        <ele>734.85</ele>
        <time>2013-08-11T09:26:33Z</time>
      </trkpt>
      <trkpt lat="48.5934" lon="7.23141">
        <ele>734.9</ele>
        <time>2013-08-11T09:26:38Z</time>
      </trkpt>
      <trkpt lat="48.59321" lon="7.23151">
        <ele>735.43</ele>
        <time>2013-08-11T09:26:43Z</time>
      </trkpt>
      <trkpt lat="48.593" lon="7.23162">
        <ele>735.8</ele>
        <time>2013-08-11T09:26:48Z</time>
      </trkpt>
      <trkpt lat="48.59283" lon="7.23177">
        <ele>737.46</ele>
        <time>2013-08-11T09:26:54Z</time>
      </trkpt>
      <trkpt lat="48.59266" lon="7.2319">
        <ele>738.39</ele>
        <time>2013-08-11T09:27:00Z</time>
      </trkpt>
      <trkpt lat="48.59246" lon="7.23199">
        <ele>739</ele>
        <time>2013-08-11T09:27:07Z</time>
      </trkpt>
      <trkpt lat="48.59229" lon="7.23207">
        <ele>740.03</ele>
        <time>2013-08-11T09:27:12Z</time>
      </trkpt>
      <trkpt lat="48.59206" lon="7.23218">
        <ele>741.73</ele>
        <time>2013-08-11T09:27:22Z</time>
      </trkpt>
      <trkpt lat="48.59189" lon="7.23227">
        <ele>742.39</ele>
        <time>2013-08-11T09:27:27Z</time>
      </trkpt>
      <trkpt lat="48.5917" lon="7.23233">
        <ele>742.55</ele>
        <time>2013-08-11T09:27:33Z</time>
      </trkpt>
      <trkpt lat="48.59151" lon="7.23244">
        <ele>742.59</ele>
        <time>2013-08-11T09:27:42Z</time>
      </trkpt>
      <trkpt lat="48.59136" lon="7.23261">
        <ele>742.59</ele>
        <time>2013-08-11T09:27:49Z</time>
      </trkpt>
      <trkpt lat="48.59127" lon="7.23287">
        <ele>742.84</ele>
        <time>2013-08-11T09:27:55Z</time>
      </trkpt>
      <trkpt lat="48.59131" lon="7.23319">
        <ele>744.03</ele>
        <time>2013-08-11T09:28:01Z</time>
      </trkpt>
      <trkpt lat="48.59136" lon="7.23351">
        <ele>745.66</ele>
        <time>2013-08-11T09:28:06Z</time>
      </trkpt>
      <trkpt lat="48.5914" lon="7.23381">
        <ele>746.86</ele>
        <time>2013-08-11T09:28:12Z</time>
      </trkpt>
      <trkpt lat="48.59148" lon="7.23407">
        <ele>748.57</ele>
        <time>2013-08-11T09:28:17Z</time>
      </trkpt>
      <trkpt lat="48.59159" lon="7.2343">
        <ele>750.17</ele>
        <time>2013-08-11T09:28:23Z</time>
      </trkpt>
      <trkpt lat="48.5917" lon="7.23452">
        <ele>751.28</ele>
        <time>2013-08-11T09:28:29Z</time>
      </trkpt>
      <trkpt lat="48.59184" lon="7.23473">
        <ele>752.3</ele>
        <time>2013-08-11T09:28:35Z</time>
      </trkpt>
      <trkpt lat="48.59198" lon="7.23497">
        <ele>753.22</ele>
        <time>2013-08-11T09:28:41Z</time>
      </trkpt>
      <trkpt lat="48.59211" lon="7.23521">
        <ele>754.1</ele>
        <time>2013-08-11T09:28:47Z</time>
      </trkpt>
      <trkpt lat="48.59222" lon="7.23544">
        <ele>754.94</ele>
        <time>2013-08-11T09:28:53Z</time>
      </trkpt>
      <trkpt lat="48.59233" lon="7.23568">
        <ele>755.47</ele>
        <time>2013-08-11T09:28:59Z</time>
      </trkpt>
      <trkpt lat="48.59245" lon="7.23589">
        <ele>756.83</ele>
        <time>2013-08-11T09:29:05Z</time>
      </trkpt>
      <trkpt lat="48.59259" lon="7.23611">
        <ele>758.47</ele>
        <time>2013-08-11T09:29:11Z</time>
      </trkpt>
      <trkpt lat="48.59273" lon="7.2363">
        <ele>759.57</ele>
        <time>2013-08-11T09:29:16Z</time>
      </trkpt>
      <trkpt lat="48.59286" lon="7.23651">
        <ele>760.35</ele>
        <time>2013-08-11T09:29:21Z</time>
      </trkpt>
      <trkpt lat="48.593" lon="7.23671">
        <ele>761.3</ele>
        <time>2013-08-11T09:29:26Z</time>
      </trkpt>
      <trkpt lat="48.59315" lon="7.23692">
        <ele>762.53</ele>
        <time>2013-08-11T09:29:31Z</time>
      </trkpt>
      <trkpt lat="48.59329" lon="7.23718">
        <ele>763.92</ele>
        <time>2013-08-11T09:29:36Z</time>
      </trkpt>
      <trkpt lat="48.59343" lon="7.23742">
        <ele>765.11</ele>
        <time>2013-08-11T09:29:41Z</time>
      </trkpt>
      <trkpt lat="48.59356" lon="7.23763">
        <ele>766.91</ele>
        <time>2013-08-11T09:29:47Z</time>
      </trkpt>
      <trkpt lat="48.59366" lon="7.23789">
        <ele>768.26</ele>
        <time>2013-08-11T09:29:54Z</time>
      </trkpt>
      <trkpt lat="48.59373" lon="7.23814">
        <ele>768.76</ele>
        <time>2013-08-11T09:29:59Z</time>
      </trkpt>
      <trkpt lat="48.59382" lon="7.23845">
        <ele>769.44</ele>
        <time>2013-08-11T09:30:05Z</time>
      </trkpt>
      <trkpt lat="48.59393" lon="7.23868">
        <ele>769.56</ele>
        <time>2013-08-11T09:30:11Z</time>
      </trkpt>
      <trkpt lat="48.5941" lon="7.23883">
        <ele>770.35</ele>
        <time>2013-08-11T09:30:17Z</time>
      </trkpt>
      <trkpt lat="48.5943" lon="7.2389">
        <ele>771.24</ele>
        <time>2013-08-11T09:30:24Z</time>
      </trkpt>
      <trkpt lat="48.5945" lon="7.23892">
        <ele>772.8</ele>
        <time>2013-08-11T09:30:31Z</time>
      </trkpt>
      <trkpt lat="48.59469" lon="7.23887">
        <ele>774.13</ele>
        <time>2013-08-11T09:30:37Z</time>
      </trkpt>
      <trkpt lat="48.59488" lon="7.23883">
        <ele>775.58</ele>
        <time>2013-08-11T09:30:43Z</time>
      </trkpt>
      <trkpt lat="48.59507" lon="7.23875">
        <ele>777.14</ele>
        <time>2013-08-11T09:30:50Z</time>
      </trkpt>
      <trkpt lat="48.59523" lon="7.2386">
        <ele>778.77</ele>
        <time>2013-08-11T09:30:56Z</time>
      </trkpt>
      <trkpt lat="48.59542" lon="7.23842">
        <ele>780.02</ele>
        <time>2013-08-11T09:31:02Z</time>
      </trkpt>
      <trkpt lat="48.5956" lon="7.23827">
        <ele>781.07</ele>
        <time>2013-08-11T09:31:08Z</time>
      </trkpt>
      <trkpt lat="48.59577" lon="7.23814">
        <ele>781.5</ele>
        <time>2013-08-11T09:31:14Z</time>
      </trkpt>
      <trkpt lat="48.59594" lon="7.23804">
        <ele>782.34</ele>
        <time>2013-08-11T09:31:20Z</time>
      </trkpt>
      <trkpt lat="48.59611" lon="7.23795">
        <ele>783.11</ele>
        <time>2013-08-11T09:31:25Z</time>
      </trkpt>
      <trkpt lat="48.5963" lon="7.23791">
        <ele>783.48</ele>
        <time>2013-08-11T09:31:30Z</time>
      </trkpt>
      <trkpt lat="48.59649" lon="7.23787">
        <ele>784.01</ele>
        <time>2013-08-11T09:31:36Z</time>
      </trkpt>
      <trkpt lat="48.59668" lon="7.23784">
        <ele>784.92</ele>
        <time>2013-08-11T09:31:42Z</time>
      </trkpt>
      <trkpt lat="48.59686" lon="7.23782">
        <ele>786.59</ele>
        <time>2013-08-11T09:31:48Z</time>
      </trkpt>
      <trkpt lat="48.59706" lon="7.23789">
        <ele>788.66</ele>
        <time>2013-08-11T09:31:55Z</time>
      </trkpt>
      <trkpt lat="48.59723" lon="7.23799">
        <ele>790.62</ele>
        <time>2013-08-11T09:32:01Z</time>
      </trkpt>
      <trkpt lat="48.59739" lon="7.23814">
        <ele>792.82</ele>
        <time>2013-08-11T09:32:07Z</time>
      </trkpt>
      <trkpt lat="48.59757" lon="7.23832">
        <ele>794.52</ele>
        <time>2013-08-11T09:32:13Z</time>
      </trkpt>
      <trkpt lat="48.59771" lon="7.23849">
        <ele>795.34</ele>
        <time>2013-08-11T09:32:18Z</time>
      </trkpt>
      <trkpt lat="48.59784" lon="7.23868">
        <ele>795.53</ele>
        <time>2013-08-11T09:32:23Z</time>
      </trkpt>
      <trkpt lat="48.598" lon="7.2389">
        <ele>795.58</ele>
        <time>2013-08-11T09:32:28Z</time>
      </trkpt>
      <trkpt lat="48.59817" lon="7.23909">
        <ele>794.65</ele>
        <time>2013-08-11T09:32:33Z</time>
      </trkpt>
      <trkpt lat="48.59834" lon="7.23917">
        <ele>793.59</ele>
        <time>2013-08-11T09:32:38Z</time>
      </trkpt>
      <trkpt lat="48.59854" lon="7.23917">
        <ele>792.52</ele>
        <time>2013-08-11T09:32:44Z</time>
      </trkpt>
      <trkpt lat="48.59872" lon="7.23922">
        <ele>787.18</ele>
        <time>2013-08-11T09:33:10Z</time>
      </trkpt>
      <trkpt lat="48.59883" lon="7.23945">
        <ele>776.65</ele>
        <time>2013-08-11T09:34:48Z</time>
      </trkpt>
      <trkpt lat="48.59864" lon="7.23943">
        <ele>766.57</ele>
        <time>2013-08-11T09:45:51Z</time>
      </trkpt>
      <trkpt lat="48.59877" lon="7.23924">
        <ele>767.59</ele>
        <time>2013-08-11T09:46:27Z</time>
      </trkpt>
      <trkpt lat="48.59859" lon="7.23928">
        <ele>763.72</ele>
        <time>2013-08-11T09:47:22Z</time>
      </trkpt>
      <trkpt lat="48.59841" lon="7.23935">
        <ele>763.28</ele>
        <time>2013-08-11T09:47:32Z</time>
      </trkpt>
      <trkpt lat="48.59822" lon="7.23939">
        <ele>763.57</ele>
        <time>2013-08-11T09:47:42Z</time>
      </trkpt>
      <trkpt lat="48.59803" lon="7.23945">
        <ele>764.53</ele>
        <time>2013-08-11T09:47:54Z</time>
      </trkpt>
      <trkpt lat="48.59787" lon="7.2396">
        <ele>766</ele>
        <time>2013-08-11T09:48:08Z</time>
      </trkpt>
      <trkpt lat="48.59774" lon="7.23982">
        <ele>767.69</ele>
        <time>2013-08-11T09:48:21Z</time>
      </trkpt>
      <trkpt lat="48.59759" lon="7.23999">
        <ele>768.99</ele>
        <time>2013-08-11T09:48:32Z</time>
      </trkpt>
      <trkpt lat="48.59748" lon="7.2402">
        <ele>769.53</ele>
        <time>2013-08-11T09:48:40Z</time>
      </trkpt>
      <trkpt lat="48.59745" lon="7.24048">
        <ele>771.13</ele>
        <time>2013-08-11T09:48:48Z</time>
      </trkpt>
      <trkpt lat="48.59736" lon="7.24074">
        <ele>774.96</ele>
        <time>2013-08-11T09:49:01Z</time>
      </trkpt>
      <trkpt lat="48.59722" lon="7.24091">
        <ele>777.6</ele>
        <time>2013-08-11T09:49:13Z</time>
      </trkpt>
      <trkpt lat="48.59712" lon="7.24115">
        <ele>780.13</ele>
        <time>2013-08-11T09:49:24Z</time>
      </trkpt>
      <trkpt lat="48.59701" lon="7.24138">
        <ele>781.93</ele>
        <time>2013-08-11T09:49:35Z</time>
      </trkpt>
      <trkpt lat="48.59694" lon="7.24164">
        <ele>784.16</ele>
        <time>2013-08-11T09:49:45Z</time>
      </trkpt>
      <trkpt lat="48.5968" lon="7.24186">
        <ele>786.1</ele>
        <time>2013-08-11T09:49:57Z</time>
      </trkpt>
      <trkpt lat="48.59663" lon="7.24199">
        <ele>787.58</ele>
        <time>2013-08-11T09:50:08Z</time>
      </trkpt>
      <trkpt lat="48.59645" lon="7.24201">
        <ele>788.35</ele>
        <time>2013-08-11T09:50:13Z</time>
      </trkpt>
      <trkpt lat="48.59626" lon="7.24205">
        <ele>789.22</ele>
        <time>2013-08-11T09:50:18Z</time>
      </trkpt>
      <trkpt lat="48.59609" lon="7.24214">
        <ele>790.22</ele>
        <time>2013-08-11T09:50:25Z</time>
      </trkpt>
      <trkpt lat="48.59592" lon="7.24231">
        <ele>792.04</ele>
        <time>2013-08-11T09:50:34Z</time>
      </trkpt>
      <trkpt lat="48.5958" lon="7.24252">
        <ele>793.4</ele>
        <time>2013-08-11T09:50:42Z</time>
      </trkpt>
      <trkpt lat="48.59569" lon="7.24276">
        <ele>794.75</ele>
        <time>2013-08-11T09:50:52Z</time>
      </trkpt>
      <trkpt lat="48.59563" lon="7.24302">
        <ele>796.32</ele>
        <time>2013-08-11T09:51:03Z</time>
      </trkpt>
      <trkpt lat="48.59551" lon="7.24323">
        <ele>798.1</ele>
        <time>2013-08-11T09:51:15Z</time>
      </trkpt>
      <trkpt lat="48.59536" lon="7.24338">
        <ele>799.33</ele>
        <time>2013-08-11T09:51:25Z</time>
      </trkpt>
      <trkpt lat="48.59518" lon="7.24344">
        <ele>802.15</ele>
        <time>2013-08-11T09:51:40Z</time>
      </trkpt>
      <trkpt lat="48.595" lon="7.24342">
        <ele>805.97</ele>
        <time>2013-08-11T09:51:55Z</time>
      </trkpt>
      <trkpt lat="48.5948" lon="7.24344">
        <ele>810.48</ele>
        <time>2013-08-11T09:52:12Z</time>
      </trkpt>
      <trkpt lat="48.59462" lon="7.24347">
        <ele>815.3</ele>
        <time>2013-08-11T09:52:27Z</time>
      </trkpt>
      <trkpt lat="48.59444" lon="7.24351">
        <ele>819.48</ele>
        <time>2013-08-11T09:52:42Z</time>
      </trkpt>
      <trkpt lat="48.59426" lon="7.24355">
        <ele>823.37</ele>
        <time>2013-08-11T09:53:01Z</time>
      </trkpt>
      <trkpt lat="48.59406" lon="7.24353">
        <ele>825.46</ele>
        <time>2013-08-11T09:53:16Z</time>
      </trkpt>
      <trkpt lat="48.59388" lon="7.24355">
        <ele>828.8</ele>
        <time>2013-08-11T09:53:30Z</time>
      </trkpt>
      <trkpt lat="48.5937" lon="7.24357">
        <ele>831.16</ele>
        <time>2013-08-11T09:53:44Z</time>
      </trkpt>
      <trkpt lat="48.59349" lon="7.24357">
        <ele>833.13</ele>
        <time>2013-08-11T09:53:52Z</time>
      </trkpt>
      <trkpt lat="48.59331" lon="7.24355">
        <ele>834.91</ele>
        <time>2013-08-11T09:53:58Z</time>
      </trkpt>
      <trkpt lat="48.59313" lon="7.24355">
        <ele>837.9</ele>
        <time>2013-08-11T09:54:08Z</time>
      </trkpt>
      <trkpt lat="48.59295" lon="7.24353">
        <ele>841.19</ele>
        <time>2013-08-11T09:54:23Z</time>
      </trkpt>
      <trkpt lat="48.59277" lon="7.24353">
        <ele>842.55</ele>
        <time>2013-08-11T09:54:36Z</time>
      </trkpt>
      <trkpt lat="48.59258" lon="7.24349">
        <ele>844.42</ele>
        <time>2013-08-11T09:54:45Z</time>
      </trkpt>
      <trkpt lat="48.5924" lon="7.24349">
        <ele>847.3</ele>
        <time>2013-08-11T09:54:57Z</time>
      </trkpt>
      <trkpt lat="48.59221" lon="7.24351">
        <ele>850.75</ele>
        <time>2013-08-11T09:55:11Z</time>
      </trkpt>
      <trkpt lat="48.59201" lon="7.24357">
        <ele>853.95</ele>
        <time>2013-08-11T09:55:23Z</time>
      </trkpt>
      <trkpt lat="48.59184" lon="7.24368">
        <ele>856.13</ele>
        <time>2013-08-11T09:55:32Z</time>
      </trkpt>
      <trkpt lat="48.59167" lon="7.24379">
        <ele>857.32</ele>
        <time>2013-08-11T09:55:41Z</time>
      </trkpt>
      <trkpt lat="48.59153" lon="7.24396">
        <ele>859.61</ele>
        <time>2013-08-11T09:55:52Z</time>
      </trkpt>
      <trkpt lat="48.59143" lon="7.24422">
        <ele>861.18</ele>
        <time>2013-08-11T09:56:00Z</time>
      </trkpt>
      <trkpt lat="48.59151" lon="7.24447">
        <ele>862.51</ele>
        <time>2013-08-11T09:56:16Z</time>
      </trkpt>
      <trkpt lat="48.59156" lon="7.24475">
        <ele>863.76</ele>
        <time>2013-08-11T09:56:27Z</time>
      </trkpt>
      <trkpt lat="48.5916" lon="7.24503">
        <ele>865.24</ele>
        <time>2013-08-11T09:56:38Z</time>
      </trkpt>
      <trkpt lat="48.59162" lon="7.24531">
        <ele>866.25</ele>
        <time>2013-08-11T09:56:47Z</time>
      </trkpt>
      <trkpt lat="48.59167" lon="7.24559">
        <ele>867.44</ele>
        <time>2013-08-11T09:56:58Z</time>
      </trkpt>
      <trkpt lat="48.5917" lon="7.24587">
        <ele>869.69</ele>
        <time>2013-08-11T09:57:12Z</time>
      </trkpt>
      <trkpt lat="48.59175" lon="7.24615">
        <ele>871.61</ele>
        <time>2013-08-11T09:57:22Z</time>
      </trkpt>
      <trkpt lat="48.59178" lon="7.24643">
        <ele>873.04</ele>
        <time>2013-08-11T09:57:29Z</time>
      </trkpt>
      <trkpt lat="48.59187" lon="7.24669">
        <ele>874.22</ele>
        <time>2013-08-11T09:57:37Z</time>
      </trkpt>
      <trkpt lat="48.59198" lon="7.24692">
        <ele>874.52</ele>
        <time>2013-08-11T09:57:43Z</time>
      </trkpt>
      <trkpt lat="48.59208" lon="7.24716">
        <ele>875.26</ele>
        <time>2013-08-11T09:57:48Z</time>
      </trkpt>
      <trkpt lat="48.59215" lon="7.24746">
        <ele>875.95</ele>
        <time>2013-08-11T09:57:53Z</time>
      </trkpt>
      <trkpt lat="48.59224" lon="7.24771">
        <ele>876.44</ele>
        <time>2013-08-11T09:57:58Z</time>
      </trkpt>
      <trkpt lat="48.5923" lon="7.24797">
        <ele>878.39</ele>
        <time>2013-08-11T09:58:02Z</time>
      </trkpt>
      <trkpt lat="48.59235" lon="7.24829">
        <ele>881.84</ele>
        <time>2013-08-11T09:58:06Z</time>
      </trkpt>
      <trkpt lat="48.59229" lon="7.24859">
        <ele>885.07</ele>
        <time>2013-08-11T09:58:15Z</time>
      </trkpt>
      <trkpt lat="48.59228" lon="7.24887">
        <ele>885.55</ele>
        <time>2013-08-11T09:58:24Z</time>
      </trkpt>
      <trkpt lat="48.59228" lon="7.24915">
        <ele>886.27</ele>
        <time>2013-08-11T09:58:34Z</time>
      </trkpt>
      <trkpt lat="48.59226" lon="7.24943">
        <ele>886.57</ele>
        <time>2013-08-11T09:58:43Z</time>
      </trkpt>
      <trkpt lat="48.59226" lon="7.24973">
        <ele>886.59</ele>
        <time>2013-08-11T09:58:55Z</time>
      </trkpt>
      <trkpt lat="48.59223" lon="7.25001">
        <ele>886.59</ele>
        <time>2013-08-11T09:59:04Z</time>
      </trkpt>
      <trkpt lat="48.59213" lon="7.25025">
        <ele>886.01</ele>
        <time>2013-08-11T09:59:12Z</time>
      </trkpt>
      <trkpt lat="48.59214" lon="7.25053">
        <ele>885.61</ele>
        <time>2013-08-11T09:59:22Z</time>
      </trkpt>
      <trkpt lat="48.59222" lon="7.25078">
        <ele>885.59</ele>
        <time>2013-08-11T09:59:38Z</time>
      </trkpt>
      <trkpt lat="48.59231" lon="7.25104">
        <ele>885.59</ele>
        <time>2013-08-11T09:59:50Z</time>
      </trkpt>
      <trkpt lat="48.59249" lon="7.25115">
        <ele>886.53</ele>
        <time>2013-08-11T10:00:02Z</time>
      </trkpt>
      <trkpt lat="48.59265" lon="7.25128">
        <ele>887.4</ele>
        <time>2013-08-11T10:00:09Z</time>
      </trkpt>
      <trkpt lat="48.59284" lon="7.25141">
        <ele>888.5</ele>
        <time>2013-08-11T10:00:19Z</time>
      </trkpt>
      <trkpt lat="48.59301" lon="7.25149">
        <ele>889.65</ele>
        <time>2013-08-11T10:00:25Z</time>
      </trkpt>
      <trkpt lat="48.59318" lon="7.25158">
        <ele>890.8</ele>
        <time>2013-08-11T10:00:30Z</time>
      </trkpt>
      <trkpt lat="48.59338" lon="7.25164">
        <ele>893.04</ele>
        <time>2013-08-11T10:00:36Z</time>
      </trkpt>
      <trkpt lat="48.59357" lon="7.2516">
        <ele>895.72</ele>
        <time>2013-08-11T10:00:43Z</time>
      </trkpt>
      <trkpt lat="48.59375" lon="7.25158">
        <ele>896.96</ele>
        <time>2013-08-11T10:00:48Z</time>
      </trkpt>
      <trkpt lat="48.59397" lon="7.25149">
        <ele>897.44</ele>
        <time>2013-08-11T10:00:53Z</time>
      </trkpt>
      <trkpt lat="48.59413" lon="7.2513">
        <ele>896.87</ele>
        <time>2013-08-11T10:00:58Z</time>
      </trkpt>
      <trkpt lat="48.59426" lon="7.25111">
        <ele>896.64</ele>
        <time>2013-08-11T10:01:04Z</time>
      </trkpt>
      <trkpt lat="48.59443" lon="7.251">
        <ele>897.18</ele>
        <time>2013-08-11T10:01:08Z</time>
      </trkpt>
      <trkpt lat="48.59462" lon="7.25096">
        <ele>898.69</ele>
        <time>2013-08-11T10:01:13Z</time>
      </trkpt>
      <trkpt lat="48.5948" lon="7.25098">
        <ele>900.76</ele>
        <time>2013-08-11T10:01:17Z</time>
      </trkpt>
      <trkpt lat="48.59496" lon="7.25111">
        <ele>903.03</ele>
        <time>2013-08-11T10:01:23Z</time>
      </trkpt>
      <trkpt lat="48.59509" lon="7.25136">
        <ele>904.28</ele>
        <time>2013-08-11T10:01:30Z</time>
      </trkpt>
      <trkpt lat="48.59521" lon="7.25158">
        <ele>904.55</ele>
        <time>2013-08-11T10:01:37Z</time>
      </trkpt>
      <trkpt lat="48.59538" lon="7.25177">
        <ele>905.02</ele>
        <time>2013-08-11T10:01:44Z</time>
      </trkpt>
      <trkpt lat="48.59552" lon="7.25201">
        <ele>905.49</ele>
        <time>2013-08-11T10:01:50Z</time>
      </trkpt>
      <trkpt lat="48.59564" lon="7.25222">
        <ele>905.57</ele>
        <time>2013-08-11T10:01:55Z</time>
      </trkpt>
      <trkpt lat="48.59577" lon="7.2525">
        <ele>904.46</ele>
        <time>2013-08-11T10:01:59Z</time>
      </trkpt>
      <trkpt lat="48.59592" lon="7.25269">
        <ele>901.91</ele>
        <time>2013-08-11T10:02:04Z</time>
      </trkpt>
      <trkpt lat="48.5961" lon="7.25278">
        <ele>899.97</ele>
        <time>2013-08-11T10:02:09Z</time>
      </trkpt>
      <trkpt lat="48.59628" lon="7.25284">
        <ele>894.9</ele>
        <time>2013-08-11T10:02:13Z</time>
      </trkpt>
      <trkpt lat="48.59647" lon="7.25286">
        <ele>889.22</ele>
        <time>2013-08-11T10:02:17Z</time>
      </trkpt>
      <trkpt lat="48.59664" lon="7.25278">
        <ele>886.2</ele>
        <time>2013-08-11T10:02:22Z</time>
      </trkpt>
      <trkpt lat="48.59683" lon="7.25271">
        <ele>884.3</ele>
        <time>2013-08-11T10:02:28Z</time>
      </trkpt>
      <trkpt lat="48.59702" lon="7.25265">
        <ele>883.76</ele>
        <time>2013-08-11T10:02:33Z</time>
      </trkpt>
      <trkpt lat="48.59723" lon="7.25263">
        <ele>881.94</ele>
        <time>2013-08-11T10:02:37Z</time>
      </trkpt>
      <trkpt lat="48.59746" lon="7.25267">
        <ele>881.02</ele>
        <time>2013-08-11T10:02:41Z</time>
      </trkpt>
      <trkpt lat="48.5977" lon="7.25263">
        <ele>882.67</ele>
        <time>2013-08-11T10:02:45Z</time>
      </trkpt>
      <trkpt lat="48.59789" lon="7.25259">
        <ele>883.53</ele>
        <time>2013-08-11T10:02:48Z</time>
      </trkpt>
      <trkpt lat="48.59808" lon="7.25252">
        <ele>882.74</ele>
        <time>2013-08-11T10:02:51Z</time>
      </trkpt>
      <trkpt lat="48.59826" lon="7.25244">
        <ele>880.83</ele>
        <time>2013-08-11T10:02:55Z</time>
      </trkpt>
      <trkpt lat="48.59843" lon="7.25235">
        <ele>879.23</ele>
        <time>2013-08-11T10:02:59Z</time>
      </trkpt>
      <trkpt lat="48.59862" lon="7.25224">
        <ele>871.21</ele>
        <time>2013-08-11T10:03:03Z</time>
      </trkpt>
      <trkpt lat="48.59882" lon="7.25211">
        <ele>865.91</ele>
        <time>2013-08-11T10:03:09Z</time>
      </trkpt>
      <trkpt lat="48.59901" lon="7.25201">
        <ele>864.22</ele>
        <time>2013-08-11T10:03:14Z</time>
      </trkpt>
      <trkpt lat="48.59919" lon="7.25194">
        <ele>863.11</ele>
        <time>2013-08-11T10:03:18Z</time>
      </trkpt>
      <trkpt lat="48.59937" lon="7.25192">
        <ele>862.75</ele>
        <time>2013-08-11T10:03:22Z</time>
      </trkpt>
      <trkpt lat="48.59958" lon="7.2519">
        <ele>862.64</ele>
        <time>2013-08-11T10:03:26Z</time>
      </trkpt>
      <trkpt lat="48.59981" lon="7.2519">
        <ele>862.36</ele>
        <time>2013-08-11T10:03:30Z</time>
      </trkpt>
      <trkpt lat="48.60039" lon="7.25192">
        <ele>860.82</ele>
        <time>2013-08-11T10:03:34Z</time>
      </trkpt>
      <trkpt lat="48.60052" lon="7.25173">
        <ele>858.51</ele>
        <time>2013-08-11T10:03:39Z</time>
      </trkpt>
      <trkpt lat="48.60072" lon="7.25164">
        <ele>853.6</ele>
        <time>2013-08-11T10:03:42Z</time>
      </trkpt>
      <trkpt lat="48.6009" lon="7.25158">
        <ele>848.28</ele>
        <time>2013-08-11T10:03:45Z</time>
      </trkpt>
      <trkpt lat="48.6011" lon="7.25156">
        <ele>843.94</ele>
        <time>2013-08-11T10:03:50Z</time>
      </trkpt>
      <trkpt lat="48.60129" lon="7.2516">
        <ele>844.03</ele>
        <time>2013-08-11T10:03:54Z</time>
      </trkpt>
      <trkpt lat="48.60149" lon="7.25164">
        <ele>845.1</ele>
        <time>2013-08-11T10:03:58Z</time>
      </trkpt>
      <trkpt lat="48.6017" lon="7.25171">
        <ele>845.68</ele>
        <time>2013-08-11T10:04:02Z</time>
      </trkpt>
      <trkpt lat="48.60187" lon="7.25181">
        <ele>846.46</ele>
        <time>2013-08-11T10:04:05Z</time>
      </trkpt>
      <trkpt lat="48.60205" lon="7.25194">
        <ele>847.11</ele>
        <time>2013-08-11T10:04:08Z</time>
      </trkpt>
      <trkpt lat="48.60223" lon="7.25203">
        <ele>847.44</ele>
        <time>2013-08-11T10:04:12Z</time>
      </trkpt>
      <trkpt lat="48.60239" lon="7.25218">
        <ele>847.12</ele>
        <time>2013-08-11T10:04:17Z</time>
      </trkpt>
      <trkpt lat="48.60254" lon="7.25235">
        <ele>845.64</ele>
        <time>2013-08-11T10:04:21Z</time>
      </trkpt>
      <trkpt lat="48.6027" lon="7.25248">
        <ele>844.92</ele>
        <time>2013-08-11T10:04:25Z</time>
      </trkpt>
      <trkpt lat="48.60284" lon="7.25267">
        <ele>844.01</ele>
        <time>2013-08-11T10:04:29Z</time>
      </trkpt>
      <trkpt lat="48.60301" lon="7.25291">
        <ele>842.59</ele>
        <time>2013-08-11T10:04:35Z</time>
      </trkpt>
      <trkpt lat="48.60312" lon="7.25265">
        <ele>834.94</ele>
        <time>2013-08-11T10:04:49Z</time>
      </trkpt>
      <trkpt lat="48.60313" lon="7.25237">
        <ele>830.99</ele>
        <time>2013-08-11T10:04:55Z</time>
      </trkpt>
      <trkpt lat="48.60301" lon="7.25214">
        <ele>829.92</ele>
        <time>2013-08-11T10:05:00Z</time>
      </trkpt>
      <trkpt lat="48.60284" lon="7.25199">
        <ele>829.42</ele>
        <time>2013-08-11T10:05:05Z</time>
      </trkpt>
      <trkpt lat="48.6027" lon="7.25181">
        <ele>826.24</ele>
        <time>2013-08-11T10:05:09Z</time>
      </trkpt>
      <trkpt lat="48.60263" lon="7.25156">
        <ele>823.19</ele>
        <time>2013-08-11T10:05:12Z</time>
      </trkpt>
      <trkpt lat="48.60256" lon="7.25128">
        <ele>819.84</ele>
        <time>2013-08-11T10:05:15Z</time>
      </trkpt>
      <trkpt lat="48.60246" lon="7.25096">
        <ele>816.6</ele>
        <time>2013-08-11T10:05:19Z</time>
      </trkpt>
      <trkpt lat="48.60237" lon="7.25063">
        <ele>814.11</ele>
        <time>2013-08-11T10:05:23Z</time>
      </trkpt>
      <trkpt lat="48.60224" lon="7.25035">
        <ele>812.39</ele>
        <time>2013-08-11T10:05:27Z</time>
      </trkpt>
      <trkpt lat="48.60214" lon="7.25012">
        <ele>811.49</ele>
        <time>2013-08-11T10:05:30Z</time>
      </trkpt>
      <trkpt lat="48.60201" lon="7.24993">
        <ele>810.14</ele>
        <time>2013-08-11T10:05:33Z</time>
      </trkpt>
      <trkpt lat="48.60184" lon="7.24971">
        <ele>807.71</ele>
        <time>2013-08-11T10:05:37Z</time>
      </trkpt>
      <trkpt lat="48.6017" lon="7.24952">
        <ele>805.8</ele>
        <time>2013-08-11T10:05:40Z</time>
      </trkpt>
      <trkpt lat="48.60154" lon="7.24932">
        <ele>804.08</ele>
        <time>2013-08-11T10:05:43Z</time>
      </trkpt>
      <trkpt lat="48.60136" lon="7.24913">
        <ele>802.39</ele>
        <time>2013-08-11T10:05:46Z</time>
      </trkpt>
      <trkpt lat="48.60119" lon="7.24896">
        <ele>801.35</ele>
        <time>2013-08-11T10:05:49Z</time>
      </trkpt>
      <trkpt lat="48.60099" lon="7.24877">
        <ele>800.91</ele>
        <time>2013-08-11T10:05:52Z</time>
      </trkpt>
      <trkpt lat="48.60076" lon="7.24857">
        <ele>800.73</ele>
        <time>2013-08-11T10:05:55Z</time>
      </trkpt>
      <trkpt lat="48.60051" lon="7.24842">
        <ele>800.21</ele>
        <time>2013-08-11T10:05:58Z</time>
      </trkpt>
      <trkpt lat="48.60034" lon="7.24834">
        <ele>799.94</ele>
        <time>2013-08-11T10:06:00Z</time>
      </trkpt>
      <trkpt lat="48.6001" lon="7.24823">
        <ele>799.74</ele>
        <time>2013-08-11T10:06:03Z</time>
      </trkpt>
      <trkpt lat="48.59988" lon="7.24812">
        <ele>799.65</ele>
        <time>2013-08-11T10:06:06Z</time>
      </trkpt>
      <trkpt lat="48.59964" lon="7.24797">
        <ele>799.62</ele>
        <time>2013-08-11T10:06:09Z</time>
      </trkpt>
      <trkpt lat="48.59945" lon="7.24787">
        <ele>799.35</ele>
        <time>2013-08-11T10:06:12Z</time>
      </trkpt>
      <trkpt lat="48.59929" lon="7.24767">
        <ele>798.73</ele>
        <time>2013-08-11T10:06:18Z</time>
      </trkpt>
      <trkpt lat="48.59937" lon="7.24739">
        <ele>792.96</ele>
        <time>2013-08-11T10:06:27Z</time>
      </trkpt>
      <trkpt lat="48.59957" lon="7.24729">
        <ele>789.05</ele>
        <time>2013-08-11T10:06:32Z</time>
      </trkpt>
      <trkpt lat="48.59978" lon="7.24726">
        <ele>787.37</ele>
        <time>2013-08-11T10:06:36Z</time>
      </trkpt>
      <trkpt lat="48.60002" lon="7.24724">
        <ele>786.84</ele>
        <time>2013-08-11T10:06:40Z</time>
      </trkpt>
      <trkpt lat="48.60022" lon="7.24722">
        <ele>787.13</ele>
        <time>2013-08-11T10:06:43Z</time>
      </trkpt>
      <trkpt lat="48.60041" lon="7.24722">
        <ele>786.96</ele>
        <time>2013-08-11T10:06:46Z</time>
      </trkpt>
      <trkpt lat="48.60062" lon="7.24722">
        <ele>787.32</ele>
        <time>2013-08-11T10:06:49Z</time>
      </trkpt>
      <trkpt lat="48.60083" lon="7.24722">
        <ele>787.48</ele>
        <time>2013-08-11T10:06:52Z</time>
      </trkpt>
      <trkpt lat="48.60105" lon="7.24724">
        <ele>788.12</ele>
        <time>2013-08-11T10:06:55Z</time>
      </trkpt>
      <trkpt lat="48.60125" lon="7.24726">
        <ele>788.83</ele>
        <time>2013-08-11T10:06:58Z</time>
      </trkpt>
      <trkpt lat="48.60147" lon="7.24726">
        <ele>789.35</ele>
        <time>2013-08-11T10:07:02Z</time>
      </trkpt>
      <trkpt lat="48.60168" lon="7.24729">
        <ele>789.53</ele>
        <time>2013-08-11T10:07:07Z</time>
      </trkpt>
      <trkpt lat="48.60187" lon="7.24729">
        <ele>787.87</ele>
        <time>2013-08-11T10:07:11Z</time>
      </trkpt>
      <trkpt lat="48.6021" lon="7.24729">
        <ele>785.3</ele>
        <time>2013-08-11T10:07:15Z</time>
      </trkpt>
      <trkpt lat="48.60228" lon="7.24729">
        <ele>783.2</ele>
        <time>2013-08-11T10:07:19Z</time>
      </trkpt>
      <trkpt lat="48.60212" lon="7.24714">
        <ele>773.81</ele>
        <time>2013-08-11T10:07:31Z</time>
      </trkpt>
      <trkpt lat="48.60194" lon="7.24709">
        <ele>766.79</ele>
        <time>2013-08-11T10:07:38Z</time>
      </trkpt>
      <trkpt lat="48.60175" lon="7.24703">
        <ele>762.14</ele>
        <time>2013-08-11T10:07:47Z</time>
      </trkpt>
      <trkpt lat="48.60155" lon="7.24692">
        <ele>761.69</ele>
        <time>2013-08-11T10:07:53Z</time>
      </trkpt>
      <trkpt lat="48.60137" lon="7.24686">
        <ele>761.61</ele>
        <time>2013-08-11T10:07:58Z</time>
      </trkpt>
      <trkpt lat="48.60117" lon="7.24679">
        <ele>761.59</ele>
        <time>2013-08-11T10:08:04Z</time>
      </trkpt>
      <trkpt lat="48.60097" lon="7.24666">
        <ele>762.79</ele>
        <time>2013-08-11T10:08:09Z</time>
      </trkpt>
      <trkpt lat="48.60079" lon="7.24653">
        <ele>763.4</ele>
        <time>2013-08-11T10:08:14Z</time>
      </trkpt>
      <trkpt lat="48.60059" lon="7.24643">
        <ele>762.86</ele>
        <time>2013-08-11T10:08:19Z</time>
      </trkpt>
      <trkpt lat="48.6004" lon="7.24632">
        <ele>761.99</ele>
        <time>2013-08-11T10:08:23Z</time>
      </trkpt>
      <trkpt lat="48.6002" lon="7.24619">
        <ele>760.24</ele>
        <time>2013-08-11T10:08:28Z</time>
      </trkpt>
      <trkpt lat="48.59999" lon="7.24611">
        <ele>759.99</ele>
        <time>2013-08-11T10:08:33Z</time>
      </trkpt>
      <trkpt lat="48.59979" lon="7.24604">
        <ele>760.98</ele>
        <time>2013-08-11T10:08:37Z</time>
      </trkpt>
      <trkpt lat="48.5996" lon="7.24602">
        <ele>761.4</ele>
        <time>2013-08-11T10:08:41Z</time>
      </trkpt>
      <trkpt lat="48.5994" lon="7.24608">
        <ele>760.95</ele>
        <time>2013-08-11T10:08:45Z</time>
      </trkpt>
      <trkpt lat="48.5992" lon="7.24619">
        <ele>760.56</ele>
        <time>2013-08-11T10:08:49Z</time>
      </trkpt>
      <trkpt lat="48.59901" lon="7.24613">
        <ele>760.59</ele>
        <time>2013-08-11T10:08:55Z</time>
      </trkpt>
      <trkpt lat="48.59883" lon="7.24596">
        <ele>760.01</ele>
        <time>2013-08-11T10:09:08Z</time>
      </trkpt>
      <trkpt lat="48.59867" lon="7.24583">
        <ele>759.04</ele>
        <time>2013-08-11T10:09:12Z</time>
      </trkpt>
      <trkpt lat="48.59847" lon="7.24566">
        <ele>758.01</ele>
        <time>2013-08-11T10:09:17Z</time>
      </trkpt>
      <trkpt lat="48.59832" lon="7.24544">
        <ele>756.98</ele>
        <time>2013-08-11T10:09:23Z</time>
      </trkpt>
      <trkpt lat="48.59819" lon="7.24525">
        <ele>756.1</ele>
        <time>2013-08-11T10:09:28Z</time>
      </trkpt>
      <trkpt lat="48.59804" lon="7.24505">
        <ele>753.43</ele>
        <time>2013-08-11T10:09:33Z</time>
      </trkpt>
      <trkpt lat="48.59788" lon="7.24486">
        <ele>749.92</ele>
        <time>2013-08-11T10:09:38Z</time>
      </trkpt>
      <trkpt lat="48.59774" lon="7.24465">
        <ele>748.91</ele>
        <time>2013-08-11T10:09:43Z</time>
      </trkpt>
      <trkpt lat="48.59767" lon="7.24437">
        <ele>748.67</ele>
        <time>2013-08-11T10:09:48Z</time>
      </trkpt>
      <trkpt lat="48.59764" lon="7.24407">
        <ele>749.29</ele>
        <time>2013-08-11T10:09:53Z</time>
      </trkpt>
      <trkpt lat="48.59761" lon="7.24377">
        <ele>750.3</ele>
        <time>2013-08-11T10:09:59Z</time>
      </trkpt>
      <trkpt lat="48.59761" lon="7.24344">
        <ele>750.54</ele>
        <time>2013-08-11T10:10:05Z</time>
      </trkpt>
      <trkpt lat="48.59767" lon="7.24314">
        <ele>750.58</ele>
        <time>2013-08-11T10:10:11Z</time>
      </trkpt>
      <trkpt lat="48.59773" lon="7.24289">
        <ele>750.59</ele>
        <time>2013-08-11T10:10:19Z</time>
      </trkpt>
      <trkpt lat="48.59786" lon="7.24267">
        <ele>751.86</ele>
        <time>2013-08-11T10:10:24Z</time>
      </trkpt>
      <trkpt lat="48.59799" lon="7.24239">
        <ele>754.69</ele>
        <time>2013-08-11T10:10:29Z</time>
      </trkpt>
      <trkpt lat="48.59812" lon="7.24218">
        <ele>756.58</ele>
        <time>2013-08-11T10:10:34Z</time>
      </trkpt>
      <trkpt lat="48.59824" lon="7.24196">
        <ele>757.41</ele>
        <time>2013-08-11T10:10:40Z</time>
      </trkpt>
      <trkpt lat="48.59836" lon="7.24171">
        <ele>758.92</ele>
        <time>2013-08-11T10:10:50Z</time>
      </trkpt>
      <trkpt lat="48.59845" lon="7.24147">
        <ele>759.47</ele>
        <time>2013-08-11T10:10:56Z</time>
      </trkpt>
      <trkpt lat="48.59856" lon="7.24121">
        <ele>759.57</ele>
        <time>2013-08-11T10:11:03Z</time>
      </trkpt>
      <trkpt lat="48.59866" lon="7.24093">
        <ele>760.41</ele>
        <time>2013-08-11T10:11:10Z</time>
      </trkpt>
      <trkpt lat="48.59874" lon="7.24066">
        <ele>760.81</ele>
        <time>2013-08-11T10:11:16Z</time>
      </trkpt>
      <trkpt lat="48.5989" lon="7.24042">
        <ele>761.55</ele>
        <time>2013-08-11T10:11:26Z</time>
      </trkpt>
      <trkpt lat="48.5989" lon="7.24014">
        <ele>759.17</ele>
        <time>2013-08-11T10:13:49Z</time>
      </trkpt>
      <trkpt lat="48.59913" lon="7.2401">
        <ele>755.73</ele>
        <time>2013-08-11T10:13:55Z</time>
      </trkpt>
      <trkpt lat="48.59931" lon="7.24014">
        <ele>754.93</ele>
        <time>2013-08-11T10:13:58Z</time>
      </trkpt>
      <trkpt lat="48.59954" lon="7.2402">
        <ele>754.7</ele>
        <time>2013-08-11T10:14:02Z</time>
      </trkpt>
      <trkpt lat="48.59974" lon="7.24025">
        <ele>754.62</ele>
        <time>2013-08-11T10:14:07Z</time>
      </trkpt>
      <trkpt lat="48.59994" lon="7.24033">
        <ele>753.77</ele>
        <time>2013-08-11T10:14:12Z</time>
      </trkpt>
      <trkpt lat="48.60015" lon="7.2404">
        <ele>752.19</ele>
        <time>2013-08-11T10:14:17Z</time>
      </trkpt>
      <trkpt lat="48.60032" lon="7.24048">
        <ele>751.73</ele>
        <time>2013-08-11T10:14:22Z</time>
      </trkpt>
      <trkpt lat="48.60051" lon="7.24048">
        <ele>752.31</ele>
        <time>2013-08-11T10:14:27Z</time>
      </trkpt>
      <trkpt lat="48.60069" lon="7.24048">
        <ele>755.57</ele>
        <time>2013-08-11T10:14:31Z</time>
      </trkpt>
      <trkpt lat="48.60088" lon="7.24044">
        <ele>761.28</ele>
        <time>2013-08-11T10:14:35Z</time>
      </trkpt>
      <trkpt lat="48.6011" lon="7.2404">
        <ele>766.43</ele>
        <time>2013-08-11T10:14:39Z</time>
      </trkpt>
      <trkpt lat="48.60129" lon="7.24038">
        <ele>770.54</ele>
        <time>2013-08-11T10:14:42Z</time>
      </trkpt>
      <trkpt lat="48.6015" lon="7.24031">
        <ele>773.46</ele>
        <time>2013-08-11T10:14:45Z</time>
      </trkpt>
      <trkpt lat="48.60169" lon="7.24023">
        <ele>775.27</ele>
        <time>2013-08-11T10:14:48Z</time>
      </trkpt>
      <trkpt lat="48.60187" lon="7.24014">
        <ele>774.95</ele>
        <time>2013-08-11T10:14:51Z</time>
      </trkpt>
      <trkpt lat="48.60207" lon="7.24008">
        <ele>772.21</ele>
        <time>2013-08-11T10:14:54Z</time>
      </trkpt>
      <trkpt lat="48.60227" lon="7.23999">
        <ele>767.01</ele>
        <time>2013-08-11T10:14:57Z</time>
      </trkpt>
      <trkpt lat="48.60249" lon="7.2399">
        <ele>761.78</ele>
        <time>2013-08-11T10:15:00Z</time>
      </trkpt>
      <trkpt lat="48.60273" lon="7.2398">
        <ele>757.51</ele>
        <time>2013-08-11T10:15:03Z</time>
      </trkpt>
      <trkpt lat="48.60295" lon="7.23965">
        <ele>754.67</ele>
        <time>2013-08-11T10:15:06Z</time>
      </trkpt>
      <trkpt lat="48.60317" lon="7.2395">
        <ele>753.47</ele>
        <time>2013-08-11T10:15:09Z</time>
      </trkpt>
      <trkpt lat="48.60339" lon="7.23935">
        <ele>752.27</ele>
        <time>2013-08-11T10:15:12Z</time>
      </trkpt>
      <trkpt lat="48.6036" lon="7.2392">
        <ele>750.28</ele>
        <time>2013-08-11T10:15:15Z</time>
      </trkpt>
      <trkpt lat="48.60381" lon="7.23898">
        <ele>748.48</ele>
        <time>2013-08-11T10:15:18Z</time>
      </trkpt>
      <trkpt lat="48.60401" lon="7.23877">
        <ele>746.56</ele>
        <time>2013-08-11T10:15:21Z</time>
      </trkpt>
      <trkpt lat="48.60421" lon="7.23853">
        <ele>744.98</ele>
        <time>2013-08-11T10:15:24Z</time>
      </trkpt>
      <trkpt lat="48.6044" lon="7.23832">
        <ele>743.35</ele>
        <time>2013-08-11T10:15:27Z</time>
      </trkpt>
      <trkpt lat="48.60458" lon="7.23823">
        <ele>720.99</ele>
        <time>2013-08-11T10:16:07Z</time>
      </trkpt>
      <trkpt lat="48.60475" lon="7.2381">
        <ele>711.21</ele>
        <time>2013-08-11T10:16:12Z</time>
      </trkpt>
      <trkpt lat="48.60494" lon="7.23804">
        <ele>706.63</ele>
        <time>2013-08-11T10:16:19Z</time>
      </trkpt>
      <trkpt lat="48.60512" lon="7.23802">
        <ele>705.73</ele>
        <time>2013-08-11T10:16:26Z</time>
      </trkpt>
      <trkpt lat="48.60533" lon="7.23793">
        <ele>705.61</ele>
        <time>2013-08-11T10:16:32Z</time>
      </trkpt>
      <trkpt lat="48.60552" lon="7.23789">
        <ele>706.36</ele>
        <time>2013-08-11T10:16:37Z</time>
      </trkpt>
      <trkpt lat="48.6057" lon="7.23784">
        <ele>706.54</ele>
        <time>2013-08-11T10:16:42Z</time>
      </trkpt>
      <trkpt lat="48.60591" lon="7.2378">
        <ele>706.58</ele>
        <time>2013-08-11T10:16:47Z</time>
      </trkpt>
      <trkpt lat="48.6061" lon="7.23778">
        <ele>707.27</ele>
        <time>2013-08-11T10:16:53Z</time>
      </trkpt>
      <trkpt lat="48.60633" lon="7.23774">
        <ele>706.94</ele>
        <time>2013-08-11T10:16:58Z</time>
      </trkpt>
      <trkpt lat="48.60653" lon="7.23772">
        <ele>706.37</ele>
        <time>2013-08-11T10:17:02Z</time>
      </trkpt>
      <trkpt lat="48.60675" lon="7.23772">
        <ele>705.94</ele>
        <time>2013-08-11T10:17:06Z</time>
      </trkpt>
      <trkpt lat="48.60697" lon="7.23772">
        <ele>705.7</ele>
        <time>2013-08-11T10:17:10Z</time>
      </trkpt>
      <trkpt lat="48.60717" lon="7.23772">
        <ele>704.25</ele>
        <time>2013-08-11T10:17:14Z</time>
      </trkpt>
      <trkpt lat="48.60738" lon="7.23776">
        <ele>702.68</ele>
        <time>2013-08-11T10:17:18Z</time>
      </trkpt>
      <trkpt lat="48.60758" lon="7.23782">
        <ele>701.25</ele>
        <time>2013-08-11T10:17:22Z</time>
      </trkpt>
      <trkpt lat="48.60781" lon="7.23784">
        <ele>699.1</ele>
        <time>2013-08-11T10:17:26Z</time>
      </trkpt>
      <trkpt lat="48.60802" lon="7.23787">
        <ele>697.38</ele>
        <time>2013-08-11T10:17:30Z</time>
      </trkpt>
      <trkpt lat="48.60821" lon="7.23795">
        <ele>696.95</ele>
        <time>2013-08-11T10:17:34Z</time>
      </trkpt>
      <trkpt lat="48.60842" lon="7.23804">
        <ele>698.76</ele>
        <time>2013-08-11T10:17:38Z</time>
      </trkpt>
      <trkpt lat="48.60863" lon="7.2381">
        <ele>700.94</ele>
        <time>2013-08-11T10:17:42Z</time>
      </trkpt>
      <trkpt lat="48.60884" lon="7.23821">
        <ele>703.77</ele>
        <time>2013-08-11T10:17:46Z</time>
      </trkpt>
      <trkpt lat="48.60906" lon="7.23823">
        <ele>704.91</ele>
        <time>2013-08-11T10:17:51Z</time>
      </trkpt>
      <trkpt lat="48.60928" lon="7.23825">
        <ele>703.86</ele>
        <time>2013-08-11T10:17:55Z</time>
      </trkpt>
      <trkpt lat="48.60948" lon="7.23827">
        <ele>701.73</ele>
        <time>2013-08-11T10:17:59Z</time>
      </trkpt>
      <trkpt lat="48.60967" lon="7.23827">
        <ele>697.16</ele>
        <time>2013-08-11T10:18:05Z</time>
      </trkpt>
      <trkpt lat="48.60989" lon="7.23825">
        <ele>692.28</ele>
        <time>2013-08-11T10:18:09Z</time>
      </trkpt>
      <trkpt lat="48.61011" lon="7.2383">
        <ele>677.53</ele>
        <time>2013-08-11T10:18:13Z</time>
      </trkpt>
      <trkpt lat="48.61031" lon="7.23834">
        <ele>669.36</ele>
        <time>2013-08-11T10:18:16Z</time>
      </trkpt>
      <trkpt lat="48.61053" lon="7.23836">
        <ele>663.47</ele>
        <time>2013-08-11T10:18:20Z</time>
      </trkpt>
      <trkpt lat="48.61076" lon="7.2384">
        <ele>662.33</ele>
        <time>2013-08-11T10:18:24Z</time>
      </trkpt>
      <trkpt lat="48.61098" lon="7.23845">
        <ele>664.02</ele>
        <time>2013-08-11T10:18:28Z</time>
      </trkpt>
      <trkpt lat="48.61117" lon="7.23847">
        <ele>667.21</ele>
        <time>2013-08-11T10:18:31Z</time>
      </trkpt>
      <trkpt lat="48.6114" lon="7.23851">
        <ele>671.03</ele>
        <time>2013-08-11T10:18:35Z</time>
      </trkpt>
      <trkpt lat="48.61159" lon="7.23853">
        <ele>672.76</ele>
        <time>2013-08-11T10:18:38Z</time>
      </trkpt>
      <trkpt lat="48.61181" lon="7.23857">
        <ele>674.26</ele>
        <time>2013-08-11T10:18:41Z</time>
      </trkpt>
      <trkpt lat="48.61205" lon="7.2387">
        <ele>675.86</ele>
        <time>2013-08-11T10:18:44Z</time>
      </trkpt>
      <trkpt lat="48.61226" lon="7.23887">
        <ele>678.12</ele>
        <time>2013-08-11T10:18:47Z</time>
      </trkpt>
      <trkpt lat="48.61244" lon="7.23902">
        <ele>680.57</ele>
        <time>2013-08-11T10:18:50Z</time>
      </trkpt>
      <trkpt lat="48.61264" lon="7.23915">
        <ele>682.31</ele>
        <time>2013-08-11T10:18:53Z</time>
      </trkpt>
      <trkpt lat="48.61284" lon="7.23928">
        <ele>683.05</ele>
        <time>2013-08-11T10:18:56Z</time>
      </trkpt>
      <trkpt lat="48.61302" lon="7.23945">
        <ele>685.32</ele>
        <time>2013-08-11T10:18:59Z</time>
      </trkpt>
      <trkpt lat="48.61319" lon="7.23965">
        <ele>689.74</ele>
        <time>2013-08-11T10:19:02Z</time>
      </trkpt>
      <trkpt lat="48.61336" lon="7.23982">
        <ele>693.12</ele>
        <time>2013-08-11T10:19:05Z</time>
      </trkpt>
      <trkpt lat="48.61353" lon="7.23999">
        <ele>694.55</ele>
        <time>2013-08-11T10:19:08Z</time>
      </trkpt>
      <trkpt lat="48.6137" lon="7.24014">
        <ele>694.46</ele>
        <time>2013-08-11T10:19:11Z</time>
      </trkpt>
      <trkpt lat="48.61387" lon="7.24029">
        <ele>691.04</ele>
        <time>2013-08-11T10:19:14Z</time>
      </trkpt>
      <trkpt lat="48.61408" lon="7.24044">
        <ele>684.34</ele>
        <time>2013-08-11T10:19:17Z</time>
      </trkpt>
      <trkpt lat="48.6143" lon="7.24059">
        <ele>677.08</ele>
        <time>2013-08-11T10:19:20Z</time>
      </trkpt>
      <trkpt lat="48.61451" lon="7.24072">
        <ele>669.53</ele>
        <time>2013-08-11T10:19:23Z</time>
      </trkpt>
      <trkpt lat="48.61474" lon="7.24085">
        <ele>662.85</ele>
        <time>2013-08-11T10:19:26Z</time>
      </trkpt>
      <trkpt lat="48.61495" lon="7.24096">
        <ele>657.96</ele>
        <time>2013-08-11T10:19:29Z</time>
      </trkpt>
      <trkpt lat="48.61518" lon="7.24096">
        <ele>654.31</ele>
        <time>2013-08-11T10:19:32Z</time>
      </trkpt>
      <trkpt lat="48.61542" lon="7.24091">
        <ele>649.13</ele>
        <time>2013-08-11T10:19:35Z</time>
      </trkpt>
      <trkpt lat="48.61561" lon="7.24089">
        <ele>644.21</ele>
        <time>2013-08-11T10:19:37Z</time>
      </trkpt>
      <trkpt lat="48.6158" lon="7.24087">
        <ele>637.44</ele>
        <time>2013-08-11T10:19:39Z</time>
      </trkpt>
      <trkpt lat="48.61599" lon="7.24083">
        <ele>630.63</ele>
        <time>2013-08-11T10:19:41Z</time>
      </trkpt>
      <trkpt lat="48.61618" lon="7.24078">
        <ele>625.3</ele>
        <time>2013-08-11T10:19:43Z</time>
      </trkpt>
      <trkpt lat="48.61643" lon="7.24078">
        <ele>618.31</ele>
        <time>2013-08-11T10:19:46Z</time>
      </trkpt>
      <trkpt lat="48.61668" lon="7.24078">
        <ele>612.72</ele>
        <time>2013-08-11T10:19:49Z</time>
      </trkpt>
      <trkpt lat="48.61694" lon="7.24076">
        <ele>608.68</ele>
        <time>2013-08-11T10:19:52Z</time>
      </trkpt>
      <trkpt lat="48.61717" lon="7.24072">
        <ele>605.05</ele>
        <time>2013-08-11T10:19:55Z</time>
      </trkpt>
      <trkpt lat="48.6174" lon="7.24068">
        <ele>601.35</ele>
        <time>2013-08-11T10:19:58Z</time>
      </trkpt>
      <trkpt lat="48.61765" lon="7.24068">
        <ele>599.86</ele>
        <time>2013-08-11T10:20:01Z</time>
      </trkpt>
      <trkpt lat="48.61788" lon="7.24068">
        <ele>599.7</ele>
        <time>2013-08-11T10:20:04Z</time>
      </trkpt>
      <trkpt lat="48.61812" lon="7.2407">
        <ele>600.47</ele>
        <time>2013-08-11T10:20:07Z</time>
      </trkpt>
      <trkpt lat="48.61833" lon="7.24083">
        <ele>600.87</ele>
        <time>2013-08-11T10:20:10Z</time>
      </trkpt>
      <trkpt lat="48.61856" lon="7.24096">
        <ele>600.27</ele>
        <time>2013-08-11T10:20:13Z</time>
      </trkpt>
      <trkpt lat="48.61877" lon="7.24102">
        <ele>599.05</ele>
        <time>2013-08-11T10:20:16Z</time>
      </trkpt>
      <trkpt lat="48.61899" lon="7.24113">
        <ele>597.96</ele>
        <time>2013-08-11T10:20:19Z</time>
      </trkpt>
      <trkpt lat="48.61921" lon="7.24126">
        <ele>596.59</ele>
        <time>2013-08-11T10:20:22Z</time>
      </trkpt>
      <trkpt lat="48.61942" lon="7.24134">
        <ele>595.43</ele>
        <time>2013-08-11T10:20:25Z</time>
      </trkpt>
      <trkpt lat="48.61966" lon="7.24134">
        <ele>591.3</ele>
        <time>2013-08-11T10:20:28Z</time>
      </trkpt>
      <trkpt lat="48.61987" lon="7.24128">
        <ele>582.87</ele>
        <time>2013-08-11T10:20:30Z</time>
      </trkpt>
      <trkpt lat="48.62008" lon="7.24119">
        <ele>571.62</ele>
        <time>2013-08-11T10:20:32Z</time>
      </trkpt>
      <trkpt lat="48.62026" lon="7.24102">
        <ele>559.86</ele>
        <time>2013-08-11T10:20:34Z</time>
      </trkpt>
      <trkpt lat="48.62041" lon="7.24087">
        <ele>548.87</ele>
        <time>2013-08-11T10:20:36Z</time>
      </trkpt>
      <trkpt lat="48.62054" lon="7.24068">
        <ele>538.99</ele>
        <time>2013-08-11T10:20:38Z</time>
      </trkpt>
      <trkpt lat="48.62069" lon="7.24042">
        <ele>520.35</ele>
        <time>2013-08-11T10:21:04Z</time>
      </trkpt>
      <trkpt lat="48.62084" lon="7.24023">
        <ele>518.08</ele>
        <time>2013-08-11T10:21:44Z</time>
      </trkpt>
      <trkpt lat="48.62096" lon="7.23995">
        <ele>516.44</ele>
        <time>2013-08-11T10:21:55Z</time>
      </trkpt>
      <trkpt lat="48.62104" lon="7.23967">
        <ele>514.87</ele>
        <time>2013-08-11T10:22:01Z</time>
      </trkpt>
      <trkpt lat="48.62113" lon="7.23937">
        <ele>513.21</ele>
        <time>2013-08-11T10:22:06Z</time>
      </trkpt>
      <trkpt lat="48.62121" lon="7.23911">
        <ele>511.44</ele>
        <time>2013-08-11T10:22:09Z</time>
      </trkpt>
      <trkpt lat="48.62131" lon="7.23881">
        <ele>509.35</ele>
        <time>2013-08-11T10:22:13Z</time>
      </trkpt>
      <trkpt lat="48.6214" lon="7.23853">
        <ele>507.64</ele>
        <time>2013-08-11T10:22:16Z</time>
      </trkpt>
      <trkpt lat="48.62149" lon="7.23825">
        <ele>505.63</ele>
        <time>2013-08-11T10:22:19Z</time>
      </trkpt>
      <trkpt lat="48.62154" lon="7.23795">
        <ele>503.62</ele>
        <time>2013-08-11T10:22:22Z</time>
      </trkpt>
      <trkpt lat="48.62157" lon="7.23765">
        <ele>501.18</ele>
        <time>2013-08-11T10:22:25Z</time>
      </trkpt>
      <trkpt lat="48.6216" lon="7.23735">
        <ele>497.84</ele>
        <time>2013-08-11T10:22:28Z</time>
      </trkpt>
      <trkpt lat="48.62158" lon="7.23701">
        <ele>493.92</ele>
        <time>2013-08-11T10:22:32Z</time>
      </trkpt>
      <trkpt lat="48.62151" lon="7.23666">
        <ele>490.01</ele>
        <time>2013-08-11T10:22:37Z</time>
      </trkpt>
      <trkpt lat="48.62142" lon="7.23639">
        <ele>487.34</ele>
        <time>2013-08-11T10:22:41Z</time>
      </trkpt>
      <trkpt lat="48.62135" lon="7.23611">
        <ele>484.19</ele>
        <time>2013-08-11T10:22:45Z</time>
      </trkpt>
      <trkpt lat="48.62122" lon="7.23587">
        <ele>480.71</ele>
        <time>2013-08-11T10:22:51Z</time>
      </trkpt>
      <trkpt lat="48.6211" lon="7.23557">
        <ele>477.15</ele>
        <time>2013-08-11T10:23:44Z</time>
      </trkpt>
      <trkpt lat="48.62093" lon="7.23527">
        <ele>476.14</ele>
        <time>2013-08-11T10:23:47Z</time>
      </trkpt>
      <trkpt lat="48.62081" lon="7.23499">
        <ele>473.38</ele>
        <time>2013-08-11T10:23:51Z</time>
      </trkpt>
      <trkpt lat="48.62084" lon="7.23469">
        <ele>470.96</ele>
        <time>2013-08-11T10:23:58Z</time>
      </trkpt>
      <trkpt lat="48.62097" lon="7.23443">
        <ele>470.71</ele>
        <time>2013-08-11T10:24:02Z</time>
      </trkpt>
      <trkpt lat="48.62106" lon="7.23415">
        <ele>470.62</ele>
        <time>2013-08-11T10:24:07Z</time>
      </trkpt>
      <trkpt lat="48.62114" lon="7.23385">
        <ele>471.18</ele>
        <time>2013-08-11T10:24:11Z</time>
      </trkpt>
      <trkpt lat="48.62128" lon="7.2336">
        <ele>471.24</ele>
        <time>2013-08-11T10:24:16Z</time>
      </trkpt>
      <trkpt lat="48.62141" lon="7.2334">
        <ele>469.28</ele>
        <time>2013-08-11T10:24:20Z</time>
      </trkpt>
      <trkpt lat="48.62153" lon="7.23319">
        <ele>465.38</ele>
        <time>2013-08-11T10:24:24Z</time>
      </trkpt>
      <trkpt lat="48.6216" lon="7.23291">
        <ele>459.14</ele>
        <time>2013-08-11T10:24:28Z</time>
      </trkpt>
      <trkpt lat="48.6217" lon="7.23265">
        <ele>453.83</ele>
        <time>2013-08-11T10:24:32Z</time>
      </trkpt>
      <trkpt lat="48.62187" lon="7.23244">
        <ele>450.93</ele>
        <time>2013-08-11T10:24:37Z</time>
      </trkpt>
      <trkpt lat="48.62206" lon="7.23227">
        <ele>450.67</ele>
        <time>2013-08-11T10:24:42Z</time>
      </trkpt>
      <trkpt lat="48.62221" lon="7.23212">
        <ele>450.6</ele>
        <time>2013-08-11T10:24:48Z</time>
      </trkpt>
      <trkpt lat="48.62233" lon="7.23192">
        <ele>451.41</ele>
        <time>2013-08-11T10:24:54Z</time>
      </trkpt>
      <trkpt lat="48.62249" lon="7.23162">
        <ele>450.89</ele>
        <time>2013-08-11T10:25:03Z</time>
      </trkpt>
      <trkpt lat="48.62259" lon="7.23134">
        <ele>448.4</ele>
        <time>2013-08-11T10:25:07Z</time>
      </trkpt>
      <trkpt lat="48.62267" lon="7.23106">
        <ele>445.51</ele>
        <time>2013-08-11T10:25:10Z</time>
      </trkpt>
      <trkpt lat="48.62278" lon="7.23078">
        <ele>442</ele>
        <time>2013-08-11T10:25:14Z</time>
      </trkpt>
      <trkpt lat="48.62297" lon="7.2307">
        <ele>439.92</ele>
        <time>2013-08-11T10:25:18Z</time>
      </trkpt>
      <trkpt lat="48.62316" lon="7.23061">
        <ele>439.01</ele>
        <time>2013-08-11T10:25:22Z</time>
      </trkpt>
      <trkpt lat="48.62334" lon="7.23048">
        <ele>438.77</ele>
        <time>2013-08-11T10:25:25Z</time>
      </trkpt>
      <trkpt lat="48.62348" lon="7.23031">
        <ele>438.23</ele>
        <time>2013-08-11T10:25:28Z</time>
      </trkpt>
      <trkpt lat="48.62365" lon="7.23008">
        <ele>438.04</ele>
        <time>2013-08-11T10:25:32Z</time>
      </trkpt>
      <trkpt lat="48.62378" lon="7.22988">
        <ele>438.61</ele>
        <time>2013-08-11T10:25:35Z</time>
      </trkpt>
      <trkpt lat="48.62393" lon="7.22965">
        <ele>439.72</ele>
        <time>2013-08-11T10:25:39Z</time>
      </trkpt>
      <trkpt lat="48.62406" lon="7.22943">
        <ele>440.47</ele>
        <time>2013-08-11T10:25:42Z</time>
      </trkpt>
      <trkpt lat="48.62418" lon="7.22918">
        <ele>441.81</ele>
        <time>2013-08-11T10:25:46Z</time>
      </trkpt>
      <trkpt lat="48.62424" lon="7.22885">
        <ele>442.34</ele>
        <time>2013-08-11T10:25:50Z</time>
      </trkpt>
      <trkpt lat="48.6243" lon="7.22849">
        <ele>442.24</ele>
        <time>2013-08-11T10:25:53Z</time>
      </trkpt>
      <trkpt lat="48.62437" lon="7.22817">
        <ele>441.03</ele>
        <time>2013-08-11T10:25:56Z</time>
      </trkpt>
      <trkpt lat="48.62447" lon="7.22787">
        <ele>439.76</ele>
        <time>2013-08-11T10:25:59Z</time>
      </trkpt>
      <trkpt lat="48.62459" lon="7.22761">
        <ele>438.51</ele>
        <time>2013-08-11T10:26:02Z</time>
      </trkpt>
      <trkpt lat="48.62476" lon="7.22742">
        <ele>437.15</ele>
        <time>2013-08-11T10:26:05Z</time>
      </trkpt>
      <trkpt lat="48.62494" lon="7.22724">
        <ele>435.81</ele>
        <time>2013-08-11T10:26:08Z</time>
      </trkpt>
      <trkpt lat="48.62511" lon="7.22703">
        <ele>433.84</ele>
        <time>2013-08-11T10:26:11Z</time>
      </trkpt>
      <trkpt lat="48.62531" lon="7.22692">
        <ele>431.52</ele>
        <time>2013-08-11T10:26:14Z</time>
      </trkpt>
      <trkpt lat="48.62553" lon="7.22686">
        <ele>429.58</ele>
        <time>2013-08-11T10:26:17Z</time>
      </trkpt>
      <trkpt lat="48.62576" lon="7.22686">
        <ele>427.74</ele>
        <time>2013-08-11T10:26:20Z</time>
      </trkpt>
      <trkpt lat="48.62596" lon="7.22688">
        <ele>426.5</ele>
        <time>2013-08-11T10:26:23Z</time>
      </trkpt>
      <trkpt lat="48.62616" lon="7.22692">
        <ele>425.97</ele>
        <time>2013-08-11T10:26:26Z</time>
      </trkpt>
      <trkpt lat="48.62636" lon="7.22699">
        <ele>425.94</ele>
        <time>2013-08-11T10:26:29Z</time>
      </trkpt>
      <trkpt lat="48.62656" lon="7.22694">
        <ele>424.61</ele>
        <time>2013-08-11T10:26:32Z</time>
      </trkpt>
      <trkpt lat="48.62677" lon="7.22692">
        <ele>422.18</ele>
        <time>2013-08-11T10:26:35Z</time>
      </trkpt>
      <trkpt lat="48.62696" lon="7.2269">
        <ele>420.68</ele>
        <time>2013-08-11T10:26:38Z</time>
      </trkpt>
      <trkpt lat="48.62715" lon="7.22688">
        <ele>420.05</ele>
        <time>2013-08-11T10:26:41Z</time>
      </trkpt>
      <trkpt lat="48.62734" lon="7.22688">
        <ele>420.22</ele>
        <time>2013-08-11T10:26:44Z</time>
      </trkpt>
      <trkpt lat="48.62756" lon="7.2269">
        <ele>420.43</ele>
        <time>2013-08-11T10:26:47Z</time>
      </trkpt>
      <trkpt lat="48.62778" lon="7.22692">
        <ele>420.27</ele>
        <time>2013-08-11T10:26:50Z</time>
      </trkpt>
      <trkpt lat="48.62802" lon="7.22697">
        <ele>418.36</ele>
        <time>2013-08-11T10:26:53Z</time>
      </trkpt>
      <trkpt lat="48.62825" lon="7.22697">
        <ele>415.06</ele>
        <time>2013-08-11T10:26:56Z</time>
      </trkpt>
      <trkpt lat="48.62848" lon="7.22697">
        <ele>410.77</ele>
        <time>2013-08-11T10:26:59Z</time>
      </trkpt>
      <trkpt lat="48.6287" lon="7.22697">
        <ele>407.53</ele>
        <time>2013-08-11T10:27:02Z</time>
      </trkpt>
      <trkpt lat="48.62892" lon="7.22694">
        <ele>405.39</ele>
        <time>2013-08-11T10:27:05Z</time>
      </trkpt>
      <trkpt lat="48.62913" lon="7.22686">
        <ele>404.35</ele>
        <time>2013-08-11T10:27:08Z</time>
      </trkpt>
      <trkpt lat="48.62931" lon="7.22675">
        <ele>403.91</ele>
        <time>2013-08-11T10:27:11Z</time>
      </trkpt>
      <trkpt lat="48.62946" lon="7.22656">
        <ele>403.73</ele>
        <time>2013-08-11T10:27:14Z</time>
      </trkpt>
      <trkpt lat="48.6296" lon="7.22634">
        <ele>404.48</ele>
        <time>2013-08-11T10:27:17Z</time>
      </trkpt>
      <trkpt lat="48.62973" lon="7.22613">
        <ele>405.56</ele>
        <time>2013-08-11T10:27:20Z</time>
      </trkpt>
      <trkpt lat="48.62985" lon="7.22591">
        <ele>406.98</ele>
        <time>2013-08-11T10:27:23Z</time>
      </trkpt>
      <trkpt lat="48.62999" lon="7.22572">
        <ele>408.35</ele>
        <time>2013-08-11T10:27:26Z</time>
      </trkpt>
      <trkpt lat="48.63013" lon="7.22553">
        <ele>409.5</ele>
        <time>2013-08-11T10:27:29Z</time>
      </trkpt>
      <trkpt lat="48.63031" lon="7.22538">
        <ele>410.57</ele>
        <time>2013-08-11T10:27:32Z</time>
      </trkpt>
      <trkpt lat="48.63048" lon="7.22527">
        <ele>411.6</ele>
        <time>2013-08-11T10:27:35Z</time>
      </trkpt>
      <trkpt lat="48.63064" lon="7.22514">
        <ele>412.61</ele>
        <time>2013-08-11T10:27:38Z</time>
      </trkpt>
      <trkpt lat="48.63079" lon="7.22495">
        <ele>413.43</ele>
        <time>2013-08-11T10:27:41Z</time>
      </trkpt>
      <trkpt lat="48.63087" lon="7.22465">
        <ele>414.1</ele>
        <time>2013-08-11T10:27:44Z</time>
      </trkpt>
      <trkpt lat="48.63088" lon="7.22433">
        <ele>413.37</ele>
        <time>2013-08-11T10:27:47Z</time>
      </trkpt>
      <trkpt lat="48.63082" lon="7.22405">
        <ele>411.65</ele>
        <time>2013-08-11T10:27:50Z</time>
      </trkpt>
      <trkpt lat="48.63085" lon="7.22375">
        <ele>408.29</ele>
        <time>2013-08-11T10:27:54Z</time>
      </trkpt>
      <trkpt lat="48.63105" lon="7.22358">
        <ele>405.43</ele>
        <time>2013-08-11T10:27:58Z</time>
      </trkpt>
      <trkpt lat="48.63123" lon="7.22355">
        <ele>403.79</ele>
        <time>2013-08-11T10:28:01Z</time>
      </trkpt>
      <trkpt lat="48.63144" lon="7.22362">
        <ele>402.16</ele>
        <time>2013-08-11T10:28:04Z</time>
      </trkpt>
      <trkpt lat="48.63163" lon="7.22379">
        <ele>398.28</ele>
        <time>2013-08-11T10:28:07Z</time>
      </trkpt>
      <trkpt lat="48.63179" lon="7.22403">
        <ele>391.19</ele>
        <time>2013-08-11T10:28:10Z</time>
      </trkpt>
      <trkpt lat="48.63191" lon="7.22433">
        <ele>384.52</ele>
        <time>2013-08-11T10:28:13Z</time>
      </trkpt>
      <trkpt lat="48.63204" lon="7.22458">
        <ele>379.82</ele>
        <time>2013-08-11T10:28:16Z</time>
      </trkpt>
      <trkpt lat="48.63219" lon="7.2248">
        <ele>376.94</ele>
        <time>2013-08-11T10:28:19Z</time>
      </trkpt>
      <trkpt lat="48.63235" lon="7.22493">
        <ele>375.58</ele>
        <time>2013-08-11T10:28:22Z</time>
      </trkpt>
      <trkpt lat="48.63256" lon="7.22482">
        <ele>375.34</ele>
        <time>2013-08-11T10:28:26Z</time>
      </trkpt>
      <trkpt lat="48.6327" lon="7.22461">
        <ele>375.48</ele>
        <time>2013-08-11T10:28:29Z</time>
      </trkpt>
      <trkpt lat="48.63283" lon="7.22439">
        <ele>375.55</ele>
        <time>2013-08-11T10:28:32Z</time>
      </trkpt>
      <trkpt lat="48.63293" lon="7.22415">
        <ele>375.57</ele>
        <time>2013-08-11T10:28:35Z</time>
      </trkpt>
      <trkpt lat="48.63299" lon="7.22385">
        <ele>375.58</ele>
        <time>2013-08-11T10:28:38Z</time>
      </trkpt>
      <trkpt lat="48.63301" lon="7.22355">
        <ele>375.01</ele>
        <time>2013-08-11T10:28:41Z</time>
      </trkpt>
      <trkpt lat="48.63303" lon="7.22325">
        <ele>374.19</ele>
        <time>2013-08-11T10:28:44Z</time>
      </trkpt>
      <trkpt lat="48.63312" lon="7.223">
        <ele>373.84</ele>
        <time>2013-08-11T10:28:47Z</time>
      </trkpt>
      <trkpt lat="48.63327" lon="7.22278">
        <ele>373.7</ele>
        <time>2013-08-11T10:28:50Z</time>
      </trkpt>
      <trkpt lat="48.63344" lon="7.22263">
        <ele>374.21</ele>
        <time>2013-08-11T10:28:53Z</time>
      </trkpt>
      <trkpt lat="48.63364" lon="7.22261">
        <ele>374.87</ele>
        <time>2013-08-11T10:28:56Z</time>
      </trkpt>
      <trkpt lat="48.63382" lon="7.22257">
        <ele>376.55</ele>
        <time>2013-08-11T10:28:59Z</time>
      </trkpt>
      <trkpt lat="48.63403" lon="7.22252">
        <ele>378.75</ele>
        <time>2013-08-11T10:29:02Z</time>
      </trkpt>
      <trkpt lat="48.63421" lon="7.22248">
        <ele>380.64</ele>
        <time>2013-08-11T10:29:05Z</time>
      </trkpt>
      <trkpt lat="48.63438" lon="7.22235">
        <ele>381.77</ele>
        <time>2013-08-11T10:29:08Z</time>
      </trkpt>
      <trkpt lat="48.63452" lon="7.22216">
        <ele>382.68</ele>
        <time>2013-08-11T10:29:11Z</time>
      </trkpt>
      <trkpt lat="48.6346" lon="7.22188">
        <ele>383.46</ele>
        <time>2013-08-11T10:29:14Z</time>
      </trkpt>
      <trkpt lat="48.63463" lon="7.2216">
        <ele>384.55</ele>
        <time>2013-08-11T10:29:17Z</time>
      </trkpt>
      <trkpt lat="48.63463" lon="7.22132">
        <ele>385.73</ele>
        <time>2013-08-11T10:29:20Z</time>
      </trkpt>
      <trkpt lat="48.63464" lon="7.22104">
        <ele>385.4</ele>
        <time>2013-08-11T10:29:23Z</time>
      </trkpt>
      <trkpt lat="48.63476" lon="7.22076">
        <ele>384.27</ele>
        <time>2013-08-11T10:29:27Z</time>
      </trkpt>
      <trkpt lat="48.63499" lon="7.22066">
        <ele>383.8</ele>
        <time>2013-08-11T10:29:31Z</time>
      </trkpt>
      <trkpt lat="48.6352" lon="7.22068">
        <ele>382.31</ele>
        <time>2013-08-11T10:29:34Z</time>
      </trkpt>
      <trkpt lat="48.6354" lon="7.22074">
        <ele>377.13</ele>
        <time>2013-08-11T10:29:37Z</time>
      </trkpt>
      <trkpt lat="48.63562" lon="7.22081">
        <ele>369.22</ele>
        <time>2013-08-11T10:29:40Z</time>
      </trkpt>
      <trkpt lat="48.63582" lon="7.22081">
        <ele>362.28</ele>
        <time>2013-08-11T10:29:43Z</time>
      </trkpt>
      <trkpt lat="48.636" lon="7.2207">
        <ele>355.76</ele>
        <time>2013-08-11T10:29:47Z</time>
      </trkpt>
      <trkpt lat="48.63616" lon="7.22055">
        <ele>351.82</ele>
        <time>2013-08-11T10:29:52Z</time>
      </trkpt>
      <trkpt lat="48.63631" lon="7.22038">
        <ele>350.81</ele>
        <time>2013-08-11T10:29:58Z</time>
      </trkpt>
      <trkpt lat="48.63643" lon="7.22016">
        <ele>350.63</ele>
        <time>2013-08-11T10:30:04Z</time>
      </trkpt>
      <trkpt lat="48.63655" lon="7.21995">
        <ele>350.85</ele>
        <time>2013-08-11T10:30:11Z</time>
      </trkpt>
      <trkpt lat="48.63671" lon="7.21978">
        <ele>352.09</ele>
        <time>2013-08-11T10:30:19Z</time>
      </trkpt>
      <trkpt lat="48.63694" lon="7.21961">
        <ele>354.04</ele>
        <time>2013-08-11T10:30:32Z</time>
      </trkpt>
      <trkpt lat="48.63714" lon="7.21952">
        <ele>356.27</ele>
        <time>2013-08-11T10:30:42Z</time>
      </trkpt>
      <trkpt lat="48.63732" lon="7.2195">
        <ele>356.81</ele>
        <time>2013-08-11T10:30:50Z</time>
      </trkpt>
      <trkpt lat="48.63756" lon="7.21952">
        <ele>359.95</ele>
        <time>2013-08-11T10:31:04Z</time>
      </trkpt>
      <trkpt lat="48.63777" lon="7.21948">
        <ele>364.94</ele>
        <time>2013-08-11T10:31:22Z</time>
      </trkpt>
      <trkpt lat="48.63803" lon="7.21935">
        <ele>371.33</ele>
        <time>2013-08-11T10:31:54Z</time>
      </trkpt>
      <trkpt lat="48.63823" lon="7.2192">
        <ele>377.81</ele>
        <time>2013-08-11T10:32:19Z</time>
      </trkpt>
      <trkpt lat="48.63846" lon="7.21903">
        <ele>384.43</ele>
        <time>2013-08-11T10:32:38Z</time>
      </trkpt>
      <trkpt lat="48.63858" lon="7.21881">
        <ele>392.85</ele>
        <time>2013-08-11T10:32:54Z</time>
      </trkpt>
      <trkpt lat="48.63866" lon="7.21855">
        <ele>397.59</ele>
        <time>2013-08-11T10:33:06Z</time>
      </trkpt>
      <trkpt lat="48.63876" lon="7.21832">
        <ele>401.93</ele>
        <time>2013-08-11T10:33:16Z</time>
      </trkpt>
      <trkpt lat="48.63888" lon="7.21808">
        <ele>409.59</ele>
        <time>2013-08-11T10:33:29Z</time>
      </trkpt>
      <trkpt lat="48.63902" lon="7.21791">
        <ele>416.23</ele>
        <time>2013-08-11T10:33:40Z</time>
      </trkpt>
      <trkpt lat="48.63917" lon="7.21776">
        <ele>420.78</ele>
        <time>2013-08-11T10:33:51Z</time>
      </trkpt>
      <trkpt lat="48.63931" lon="7.21759">
        <ele>425.09</ele>
        <time>2013-08-11T10:34:04Z</time>
      </trkpt>
      <trkpt lat="48.63945" lon="7.21742">
        <ele>423.71</ele>
        <time>2013-08-11T10:34:15Z</time>
      </trkpt>
      <trkpt lat="48.63962" lon="7.21733">
        <ele>418.7</ele>
        <time>2013-08-11T10:34:29Z</time>
      </trkpt>
      <trkpt lat="48.6398" lon="7.21731">
        <ele>414.25</ele>
        <time>2013-08-11T10:34:43Z</time>
      </trkpt>
      <trkpt lat="48.63998" lon="7.21731">
        <ele>411.98</ele>
        <time>2013-08-11T10:34:52Z</time>
      </trkpt>
      <trkpt lat="48.64017" lon="7.21731">
        <ele>411.53</ele>
        <time>2013-08-11T10:35:06Z</time>
      </trkpt>
      <trkpt lat="48.64035" lon="7.21729">
        <ele>412.8</ele>
        <time>2013-08-11T10:35:20Z</time>
      </trkpt>
      <trkpt lat="48.64049" lon="7.21712">
        <ele>415.7</ele>
        <time>2013-08-11T10:35:33Z</time>
      </trkpt>
      <trkpt lat="48.64058" lon="7.21688">
        <ele>421.19</ele>
        <time>2013-08-11T10:35:44Z</time>
      </trkpt>
      <trkpt lat="48.64073" lon="7.21673">
        <ele>425.81</ele>
        <time>2013-08-11T10:35:55Z</time>
      </trkpt>
      <trkpt lat="48.64091" lon="7.21664">
        <ele>430.29</ele>
        <time>2013-08-11T10:36:08Z</time>
      </trkpt>
      <trkpt lat="48.64109" lon="7.21654">
        <ele>434.01</ele>
        <time>2013-08-11T10:36:22Z</time>
      </trkpt>
      <trkpt lat="48.64126" lon="7.21645">
        <ele>434.58</ele>
        <time>2013-08-11T10:36:36Z</time>
      </trkpt>
      <trkpt lat="48.64144" lon="7.21647">
        <ele>432.84</ele>
        <time>2013-08-11T10:36:50Z</time>
      </trkpt>
      <trkpt lat="48.64162" lon="7.21645">
        <ele>433.56</ele>
        <time>2013-08-11T10:37:04Z</time>
      </trkpt>
      <trkpt lat="48.64182" lon="7.21643">
        <ele>434.41</ele>
        <time>2013-08-11T10:37:16Z</time>
      </trkpt>
      <trkpt lat="48.64201" lon="7.21643">
        <ele>436.19</ele>
        <time>2013-08-11T10:37:27Z</time>
      </trkpt>
      <trkpt lat="48.64219" lon="7.21645">
        <ele>439.68</ele>
        <time>2013-08-11T10:37:40Z</time>
      </trkpt>
      <trkpt lat="48.64239" lon="7.21645">
        <ele>441.89</ele>
        <time>2013-08-11T10:37:51Z</time>
      </trkpt>
      <trkpt lat="48.64257" lon="7.21647">
        <ele>444.01</ele>
        <time>2013-08-11T10:38:02Z</time>
      </trkpt>
      <trkpt lat="48.64275" lon="7.21645">
        <ele>446.95</ele>
        <time>2013-08-11T10:38:13Z</time>
      </trkpt>
      <trkpt lat="48.64293" lon="7.21649">
        <ele>450.35</ele>
        <time>2013-08-11T10:38:24Z</time>
      </trkpt>
      <trkpt lat="48.64308" lon="7.21667">
        <ele>456.43</ele>
        <time>2013-08-11T10:38:39Z</time>
      </trkpt>
      <trkpt lat="48.64318" lon="7.21692">
        <ele>463.73</ele>
        <time>2013-08-11T10:38:58Z</time>
      </trkpt>
      <trkpt lat="48.64319" lon="7.2172">
        <ele>468.86</ele>
        <time>2013-08-11T10:39:13Z</time>
      </trkpt>
      <trkpt lat="48.6432" lon="7.21748">
        <ele>472.18</ele>
        <time>2013-08-11T10:39:26Z</time>
      </trkpt>
      <trkpt lat="48.64321" lon="7.21776">
        <ele>475.33</ele>
        <time>2013-08-11T10:39:37Z</time>
      </trkpt>
      <trkpt lat="48.64327" lon="7.21804">
        <ele>477.75</ele>
        <time>2013-08-11T10:39:46Z</time>
      </trkpt>
      <trkpt lat="48.64332" lon="7.21832">
        <ele>479.36</ele>
        <time>2013-08-11T10:39:56Z</time>
      </trkpt>
      <trkpt lat="48.64333" lon="7.2186">
        <ele>479</ele>
        <time>2013-08-11T10:40:08Z</time>
      </trkpt>
      <trkpt lat="48.64335" lon="7.21888">
        <ele>477.46</ele>
        <time>2013-08-11T10:40:19Z</time>
      </trkpt>
      <trkpt lat="48.64344" lon="7.21913">
        <ele>476.62</ele>
        <time>2013-08-11T10:40:31Z</time>
      </trkpt>
      <trkpt lat="48.6435" lon="7.21939">
        <ele>477.35</ele>
        <time>2013-08-11T10:40:41Z</time>
      </trkpt>
      <trkpt lat="48.64347" lon="7.21967">
        <ele>480.04</ele>
        <time>2013-08-11T10:40:54Z</time>
      </trkpt>
      <trkpt lat="48.64338" lon="7.21993">
        <ele>481.42</ele>
        <time>2013-08-11T10:41:03Z</time>
      </trkpt>
      <trkpt lat="48.64334" lon="7.22021">
        <ele>479.6</ele>
        <time>2013-08-11T10:42:03Z</time>
      </trkpt>
      <trkpt lat="48.64316" lon="7.22027">
        <ele>474.92</ele>
        <time>2013-08-11T10:46:27Z</time>
      </trkpt>
      <trkpt lat="48.64298" lon="7.22027">
        <ele>474.6</ele>
        <time>2013-08-11T10:46:38Z</time>
      </trkpt>
      <trkpt lat="48.64279" lon="7.22025">
        <ele>475.55</ele>
        <time>2013-08-11T10:46:52Z</time>
      </trkpt>
      <trkpt lat="48.64261" lon="7.22036">
        <ele>477.44</ele>
        <time>2013-08-11T10:47:06Z</time>
      </trkpt>
      <trkpt lat="48.64244" lon="7.22049">
        <ele>478.48</ele>
        <time>2013-08-11T10:47:17Z</time>
      </trkpt>
      <trkpt lat="48.64227" lon="7.22064">
        <ele>479.45</ele>
        <time>2013-08-11T10:47:25Z</time>
      </trkpt>
      <trkpt lat="48.64209" lon="7.22074">
        <ele>480.39</ele>
        <time>2013-08-11T10:47:32Z</time>
      </trkpt>
      <trkpt lat="48.6419" lon="7.22087">
        <ele>481.57</ele>
        <time>2013-08-11T10:47:38Z</time>
      </trkpt>
      <trkpt lat="48.64172" lon="7.221">
        <ele>482.85</ele>
        <time>2013-08-11T10:47:44Z</time>
      </trkpt>
      <trkpt lat="48.64155" lon="7.22109">
        <ele>484.04</ele>
        <time>2013-08-11T10:47:50Z</time>
      </trkpt>
      <trkpt lat="48.64136" lon="7.22121">
        <ele>485.59</ele>
        <time>2013-08-11T10:47:57Z</time>
      </trkpt>
      <trkpt lat="48.64117" lon="7.22134">
        <ele>487.17</ele>
        <time>2013-08-11T10:48:05Z</time>
      </trkpt>
      <trkpt lat="48.64101" lon="7.22149">
        <ele>488.84</ele>
        <time>2013-08-11T10:48:12Z</time>
      </trkpt>
      <trkpt lat="48.64086" lon="7.22164">
        <ele>490.17</ele>
        <time>2013-08-11T10:48:19Z</time>
      </trkpt>
      <trkpt lat="48.6407" lon="7.22184">
        <ele>491.98</ele>
        <time>2013-08-11T10:48:26Z</time>
      </trkpt>
      <trkpt lat="48.64056" lon="7.22203">
        <ele>494.36</ele>
        <time>2013-08-11T10:48:34Z</time>
      </trkpt>
      <trkpt lat="48.64044" lon="7.22224">
        <ele>496.87</ele>
        <time>2013-08-11T10:48:42Z</time>
      </trkpt>
      <trkpt lat="48.64033" lon="7.22248">
        <ele>501.04</ele>
        <time>2013-08-11T10:48:52Z</time>
      </trkpt>
      <trkpt lat="48.64028" lon="7.22276">
        <ele>505.02</ele>
        <time>2013-08-11T10:49:01Z</time>
      </trkpt>
      <trkpt lat="48.64023" lon="7.22306">
        <ele>508.23</ele>
        <time>2013-08-11T10:49:09Z</time>
      </trkpt>
      <trkpt lat="48.64021" lon="7.22336">
        <ele>510.71</ele>
        <time>2013-08-11T10:49:17Z</time>
      </trkpt>
      <trkpt lat="48.64021" lon="7.22366">
        <ele>511.43</ele>
        <time>2013-08-11T10:49:23Z</time>
      </trkpt>
      <trkpt lat="48.64018" lon="7.22394">
        <ele>512.69</ele>
        <time>2013-08-11T10:49:31Z</time>
      </trkpt>
      <trkpt lat="48.64017" lon="7.22422">
        <ele>515.32</ele>
        <time>2013-08-11T10:49:40Z</time>
      </trkpt>
      <trkpt lat="48.64014" lon="7.2245">
        <ele>517.05</ele>
        <time>2013-08-11T10:49:46Z</time>
      </trkpt>
      <trkpt lat="48.64013" lon="7.22478">
        <ele>517.9</ele>
        <time>2013-08-11T10:49:51Z</time>
      </trkpt>
      <trkpt lat="48.6401" lon="7.22508">
        <ele>519.2</ele>
        <time>2013-08-11T10:49:59Z</time>
      </trkpt>
      <trkpt lat="48.64011" lon="7.22536">
        <ele>519.98</ele>
        <time>2013-08-11T10:50:06Z</time>
      </trkpt>
      <trkpt lat="48.64011" lon="7.22564">
        <ele>521.11</ele>
        <time>2013-08-11T10:50:14Z</time>
      </trkpt>
      <trkpt lat="48.6401" lon="7.22591">
        <ele>522.8</ele>
        <time>2013-08-11T10:50:22Z</time>
      </trkpt>
      <trkpt lat="48.64009" lon="7.22619">
        <ele>524.88</ele>
        <time>2013-08-11T10:50:29Z</time>
      </trkpt>
      <trkpt lat="48.64011" lon="7.22649">
        <ele>526.86</ele>
        <time>2013-08-11T10:50:35Z</time>
      </trkpt>
      <trkpt lat="48.6401" lon="7.22677">
        <ele>528.59</ele>
        <time>2013-08-11T10:50:43Z</time>
      </trkpt>
      <trkpt lat="48.64009" lon="7.22705">
        <ele>529.93</ele>
        <time>2013-08-11T10:50:51Z</time>
      </trkpt>
      <trkpt lat="48.64011" lon="7.22735">
        <ele>530.72</ele>
        <time>2013-08-11T10:50:57Z</time>
      </trkpt>
      <trkpt lat="48.64015" lon="7.22763">
        <ele>532.19</ele>
        <time>2013-08-11T10:51:05Z</time>
      </trkpt>
      <trkpt lat="48.64021" lon="7.22791">
        <ele>533.99</ele>
        <time>2013-08-11T10:51:13Z</time>
      </trkpt>
      <trkpt lat="48.64026" lon="7.22821">
        <ele>536.44</ele>
        <time>2013-08-11T10:51:21Z</time>
      </trkpt>
      <trkpt lat="48.64032" lon="7.22851">
        <ele>538.12</ele>
        <time>2013-08-11T10:51:28Z</time>
      </trkpt>
      <trkpt lat="48.6404" lon="7.22877">
        <ele>539.32</ele>
        <time>2013-08-11T10:51:37Z</time>
      </trkpt>
      <trkpt lat="48.64052" lon="7.22898">
        <ele>540.25</ele>
        <time>2013-08-11T10:51:45Z</time>
      </trkpt>
      <trkpt lat="48.64066" lon="7.2292">
        <ele>541.82</ele>
        <time>2013-08-11T10:51:53Z</time>
      </trkpt>
      <trkpt lat="48.64076" lon="7.22948">
        <ele>542.74</ele>
        <time>2013-08-11T10:52:00Z</time>
      </trkpt>
      <trkpt lat="48.64087" lon="7.22971">
        <ele>543.69</ele>
        <time>2013-08-11T10:52:06Z</time>
      </trkpt>
      <trkpt lat="48.64099" lon="7.22993">
        <ele>544.96</ele>
        <time>2013-08-11T10:52:15Z</time>
      </trkpt>
      <trkpt lat="48.64111" lon="7.23016">
        <ele>547.17</ele>
        <time>2013-08-11T10:52:26Z</time>
      </trkpt>
      <trkpt lat="48.64124" lon="7.23036">
        <ele>548.23</ele>
        <time>2013-08-11T10:52:34Z</time>
      </trkpt>
      <trkpt lat="48.6412" lon="7.23066">
        <ele>550.09</ele>
        <time>2013-08-11T10:52:41Z</time>
      </trkpt>
      <trkpt lat="48.64114" lon="7.23096">
        <ele>551.08</ele>
        <time>2013-08-11T10:52:47Z</time>
      </trkpt>
      <trkpt lat="48.64113" lon="7.23126">
        <ele>551.54</ele>
        <time>2013-08-11T10:52:55Z</time>
      </trkpt>
      <trkpt lat="48.64111" lon="7.23154">
        <ele>552.48</ele>
        <time>2013-08-11T10:53:03Z</time>
      </trkpt>
      <trkpt lat="48.64107" lon="7.23181">
        <ele>552.83</ele>
        <time>2013-08-11T10:53:11Z</time>
      </trkpt>
      <trkpt lat="48.64102" lon="7.23209">
        <ele>553.97</ele>
        <time>2013-08-11T10:53:20Z</time>
      </trkpt>
      <trkpt lat="48.64096" lon="7.23235">
        <ele>555.21</ele>
        <time>2013-08-11T10:53:28Z</time>
      </trkpt>
      <trkpt lat="48.64089" lon="7.23263">
        <ele>555.8</ele>
        <time>2013-08-11T10:53:36Z</time>
      </trkpt>
      <trkpt lat="48.64084" lon="7.23293">
        <ele>557.27</ele>
        <time>2013-08-11T10:53:44Z</time>
      </trkpt>
      <trkpt lat="48.64081" lon="7.23323">
        <ele>558.38</ele>
        <time>2013-08-11T10:53:52Z</time>
      </trkpt>
      <trkpt lat="48.64078" lon="7.23351">
        <ele>559.02</ele>
        <time>2013-08-11T10:54:02Z</time>
      </trkpt>
      <trkpt lat="48.64076" lon="7.23379">
        <ele>559.76</ele>
        <time>2013-08-11T10:54:09Z</time>
      </trkpt>
      <trkpt lat="48.64073" lon="7.23409">
        <ele>560.48</ele>
        <time>2013-08-11T10:54:16Z</time>
      </trkpt>
      <trkpt lat="48.64074" lon="7.23437">
        <ele>561.15</ele>
        <time>2013-08-11T10:54:23Z</time>
      </trkpt>
      <trkpt lat="48.64076" lon="7.23465">
        <ele>560.78</ele>
        <time>2013-08-11T10:54:31Z</time>
      </trkpt>
      <trkpt lat="48.64079" lon="7.23495">
        <ele>559.74</ele>
        <time>2013-08-11T10:54:40Z</time>
      </trkpt>
      <trkpt lat="48.64083" lon="7.23525">
        <ele>560.28</ele>
        <time>2013-08-11T10:54:49Z</time>
      </trkpt>
      <trkpt lat="48.64084" lon="7.23557">
        <ele>561.11</ele>
        <time>2013-08-11T10:54:55Z</time>
      </trkpt>
      <trkpt lat="48.64089" lon="7.23587">
        <ele>561.53</ele>
        <time>2013-08-11T10:55:02Z</time>
      </trkpt>
      <trkpt lat="48.64095" lon="7.23615">
        <ele>562.6</ele>
        <time>2013-08-11T10:55:11Z</time>
      </trkpt>
      <trkpt lat="48.64103" lon="7.23643">
        <ele>565.24</ele>
        <time>2013-08-11T10:55:22Z</time>
      </trkpt>
      <trkpt lat="48.64116" lon="7.23664">
        <ele>564.75</ele>
        <time>2013-08-11T10:55:32Z</time>
      </trkpt>
      <trkpt lat="48.64128" lon="7.23686">
        <ele>565.29</ele>
        <time>2013-08-11T10:55:40Z</time>
      </trkpt>
      <trkpt lat="48.64135" lon="7.23716">
        <ele>566.45</ele>
        <time>2013-08-11T10:55:45Z</time>
      </trkpt>
      <trkpt lat="48.64141" lon="7.23744">
        <ele>568.02</ele>
        <time>2013-08-11T10:55:52Z</time>
      </trkpt>
      <trkpt lat="48.64147" lon="7.23772">
        <ele>570.02</ele>
        <time>2013-08-11T10:56:01Z</time>
      </trkpt>
      <trkpt lat="48.64154" lon="7.23799">
        <ele>571.36</ele>
        <time>2013-08-11T10:56:09Z</time>
      </trkpt>
      <trkpt lat="48.6416" lon="7.23825">
        <ele>572.87</ele>
        <time>2013-08-11T10:56:17Z</time>
      </trkpt>
      <trkpt lat="48.64164" lon="7.23855">
        <ele>574.34</ele>
        <time>2013-08-11T10:56:25Z</time>
      </trkpt>
      <trkpt lat="48.64165" lon="7.23885">
        <ele>575.94</ele>
        <time>2013-08-11T10:56:35Z</time>
      </trkpt>
      <trkpt lat="48.64168" lon="7.23913">
        <ele>577.66</ele>
        <time>2013-08-11T10:56:44Z</time>
      </trkpt>
      <trkpt lat="48.64169" lon="7.23943">
        <ele>578.5</ele>
        <time>2013-08-11T10:56:52Z</time>
      </trkpt>
      <trkpt lat="48.64166" lon="7.23973">
        <ele>579.4</ele>
        <time>2013-08-11T10:57:00Z</time>
      </trkpt>
      <trkpt lat="48.64159" lon="7.24003">
        <ele>581.9</ele>
        <time>2013-08-11T10:57:09Z</time>
      </trkpt>
      <trkpt lat="48.64155" lon="7.24031">
        <ele>584.62</ele>
        <time>2013-08-11T10:57:17Z</time>
      </trkpt>
      <trkpt lat="48.64152" lon="7.24061">
        <ele>587.29</ele>
        <time>2013-08-11T10:57:25Z</time>
      </trkpt>
      <trkpt lat="48.64154" lon="7.24089">
        <ele>590.07</ele>
        <time>2013-08-11T10:57:35Z</time>
      </trkpt>
      <trkpt lat="48.64156" lon="7.24117">
        <ele>591.78</ele>
        <time>2013-08-11T10:57:42Z</time>
      </trkpt>
      <trkpt lat="48.64153" lon="7.24147">
        <ele>592.76</ele>
        <time>2013-08-11T10:57:50Z</time>
      </trkpt>
      <trkpt lat="48.64154" lon="7.24175">
        <ele>593.53</ele>
        <time>2013-08-11T10:57:59Z</time>
      </trkpt>
      <trkpt lat="48.64158" lon="7.24205">
        <ele>594.65</ele>
        <time>2013-08-11T10:58:06Z</time>
      </trkpt>
      <trkpt lat="48.64169" lon="7.24235">
        <ele>596.23</ele>
        <time>2013-08-11T10:58:13Z</time>
      </trkpt>
      <trkpt lat="48.64175" lon="7.24265">
        <ele>596.54</ele>
        <time>2013-08-11T10:58:20Z</time>
      </trkpt>
      <trkpt lat="48.64184" lon="7.24291">
        <ele>597.35</ele>
        <time>2013-08-11T10:58:27Z</time>
      </trkpt>
      <trkpt lat="48.64186" lon="7.24319">
        <ele>599.92</ele>
        <time>2013-08-11T10:58:38Z</time>
      </trkpt>
      <trkpt lat="48.64186" lon="7.24349">
        <ele>602.54</ele>
        <time>2013-08-11T10:58:47Z</time>
      </trkpt>
      <trkpt lat="48.64177" lon="7.24375">
        <ele>603.89</ele>
        <time>2013-08-11T10:58:54Z</time>
      </trkpt>
      <trkpt lat="48.64167" lon="7.24402">
        <ele>605.28</ele>
        <time>2013-08-11T10:59:02Z</time>
      </trkpt>
      <trkpt lat="48.64156" lon="7.24426">
        <ele>605.54</ele>
        <time>2013-08-11T10:59:08Z</time>
      </trkpt>
      <trkpt lat="48.6415" lon="7.24452">
        <ele>605.58</ele>
        <time>2013-08-11T10:59:15Z</time>
      </trkpt>
      <trkpt lat="48.64156" lon="7.24482">
        <ele>605.59</ele>
        <time>2013-08-11T10:59:22Z</time>
      </trkpt>
      <trkpt lat="48.64166" lon="7.24508">
        <ele>606.35</ele>
        <time>2013-08-11T10:59:30Z</time>
      </trkpt>
      <trkpt lat="48.64166" lon="7.24535">
        <ele>607.8</ele>
        <time>2013-08-11T10:59:50Z</time>
      </trkpt>
      <trkpt lat="48.64168" lon="7.24563">
        <ele>607.63</ele>
        <time>2013-08-11T11:00:08Z</time>
      </trkpt>
      <trkpt lat="48.6415" lon="7.24568">
        <ele>590.53</ele>
        <time>2013-08-11T11:11:33Z</time>
      </trkpt>
      <trkpt lat="48.64132" lon="7.24576">
        <ele>590.59</ele>
        <time>2013-08-11T11:11:51Z</time>
      </trkpt>
      <trkpt lat="48.64114" lon="7.24583">
        <ele>590.59</ele>
        <time>2013-08-11T11:12:03Z</time>
      </trkpt>
      <trkpt lat="48.64095" lon="7.24591">
        <ele>591.55</ele>
        <time>2013-08-11T11:12:15Z</time>
      </trkpt>
      <trkpt lat="48.64079" lon="7.24606">
        <ele>593.11</ele>
        <time>2013-08-11T11:12:30Z</time>
      </trkpt>
      <trkpt lat="48.64063" lon="7.24623">
        <ele>595.18</ele>
        <time>2013-08-11T11:12:42Z</time>
      </trkpt>
      <trkpt lat="48.64047" lon="7.24636">
        <ele>597.28</ele>
        <time>2013-08-11T11:12:54Z</time>
      </trkpt>
      <trkpt lat="48.64028" lon="7.24649">
        <ele>599.78</ele>
        <time>2013-08-11T11:13:04Z</time>
      </trkpt>
      <trkpt lat="48.64011" lon="7.24662">
        <ele>601.99</ele>
        <time>2013-08-11T11:13:14Z</time>
      </trkpt>
      <trkpt lat="48.63997" lon="7.24681">
        <ele>604.2</ele>
        <time>2013-08-11T11:13:26Z</time>
      </trkpt>
      <trkpt lat="48.63983" lon="7.24701">
        <ele>606.85</ele>
        <time>2013-08-11T11:13:38Z</time>
      </trkpt>
      <trkpt lat="48.63971" lon="7.24722">
        <ele>609.13</ele>
        <time>2013-08-11T11:13:48Z</time>
      </trkpt>
      <trkpt lat="48.63962" lon="7.24746">
        <ele>612.08</ele>
        <time>2013-08-11T11:13:59Z</time>
      </trkpt>
      <trkpt lat="48.63955" lon="7.24771">
        <ele>616.3</ele>
        <time>2013-08-11T11:14:12Z</time>
      </trkpt>
      <trkpt lat="48.63951" lon="7.24799">
        <ele>620.35</ele>
        <time>2013-08-11T11:14:25Z</time>
      </trkpt>
      <trkpt lat="48.63947" lon="7.24827">
        <ele>622.34</ele>
        <time>2013-08-11T11:14:35Z</time>
      </trkpt>
      <trkpt lat="48.63941" lon="7.24855">
        <ele>623.44</ele>
        <time>2013-08-11T11:14:44Z</time>
      </trkpt>
      <trkpt lat="48.63936" lon="7.24885">
        <ele>623.83</ele>
        <time>2013-08-11T11:14:54Z</time>
      </trkpt>
      <trkpt lat="48.6393" lon="7.24913">
        <ele>625.34</ele>
        <time>2013-08-11T11:14:59Z</time>
      </trkpt>
      <trkpt lat="48.6392" lon="7.24941">
        <ele>626.77</ele>
        <time>2013-08-11T11:15:03Z</time>
      </trkpt>
      <trkpt lat="48.63908" lon="7.24965">
        <ele>628.74</ele>
        <time>2013-08-11T11:15:08Z</time>
      </trkpt>
      <trkpt lat="48.63897" lon="7.24995">
        <ele>630.15</ele>
        <time>2013-08-11T11:15:13Z</time>
      </trkpt>
      <trkpt lat="48.63887" lon="7.2502">
        <ele>631.33</ele>
        <time>2013-08-11T11:15:19Z</time>
      </trkpt>
      <trkpt lat="48.63872" lon="7.25042">
        <ele>631.56</ele>
        <time>2013-08-11T11:15:26Z</time>
      </trkpt>
      <trkpt lat="48.63859" lon="7.25063">
        <ele>631.58</ele>
        <time>2013-08-11T11:15:32Z</time>
      </trkpt>
      <trkpt lat="48.63846" lon="7.25083">
        <ele>631.59</ele>
        <time>2013-08-11T11:15:38Z</time>
      </trkpt>
      <trkpt lat="48.63834" lon="7.25104">
        <ele>631.01</ele>
        <time>2013-08-11T11:15:44Z</time>
      </trkpt>
      <trkpt lat="48.6382" lon="7.25128">
        <ele>630.65</ele>
        <time>2013-08-11T11:15:51Z</time>
      </trkpt>
      <trkpt lat="48.63807" lon="7.25149">
        <ele>631.36</ele>
        <time>2013-08-11T11:15:59Z</time>
      </trkpt>
      <trkpt lat="48.63794" lon="7.25173">
        <ele>632.32</ele>
        <time>2013-08-11T11:16:06Z</time>
      </trkpt>
      <trkpt lat="48.63787" lon="7.25199">
        <ele>634</ele>
        <time>2013-08-11T11:16:13Z</time>
      </trkpt>
      <trkpt lat="48.63777" lon="7.25224">
        <ele>635.5</ele>
        <time>2013-08-11T11:16:19Z</time>
      </trkpt>
      <trkpt lat="48.63768" lon="7.25252">
        <ele>637.68</ele>
        <time>2013-08-11T11:16:27Z</time>
      </trkpt>
      <trkpt lat="48.63759" lon="7.25278">
        <ele>640.46</ele>
        <time>2013-08-11T11:16:34Z</time>
      </trkpt>
      <trkpt lat="48.6375" lon="7.25304">
        <ele>643.75</ele>
        <time>2013-08-11T11:16:43Z</time>
      </trkpt>
      <trkpt lat="48.63742" lon="7.25332">
        <ele>646.61</ele>
        <time>2013-08-11T11:16:51Z</time>
      </trkpt>
      <trkpt lat="48.63733" lon="7.25357">
        <ele>649.45</ele>
        <time>2013-08-11T11:16:58Z</time>
      </trkpt>
      <trkpt lat="48.63724" lon="7.25381">
        <ele>651.45</ele>
        <time>2013-08-11T11:17:05Z</time>
      </trkpt>
      <trkpt lat="48.63714" lon="7.25409">
        <ele>653.88</ele>
        <time>2013-08-11T11:17:13Z</time>
      </trkpt>
      <trkpt lat="48.63705" lon="7.25437">
        <ele>655.61</ele>
        <time>2013-08-11T11:17:20Z</time>
      </trkpt>
      <trkpt lat="48.63696" lon="7.25465">
        <ele>657.18</ele>
        <time>2013-08-11T11:17:28Z</time>
      </trkpt>
      <trkpt lat="48.63689" lon="7.2549">
        <ele>658.37</ele>
        <time>2013-08-11T11:17:36Z</time>
      </trkpt>
      <trkpt lat="48.63681" lon="7.25516">
        <ele>660.05</ele>
        <time>2013-08-11T11:17:44Z</time>
      </trkpt>
      <trkpt lat="48.63671" lon="7.2554">
        <ele>661.2</ele>
        <time>2013-08-11T11:17:51Z</time>
      </trkpt>
      <trkpt lat="48.63665" lon="7.2557">
        <ele>662.22</ele>
        <time>2013-08-11T11:17:58Z</time>
      </trkpt>
      <trkpt lat="48.63658" lon="7.256">
        <ele>662.54</ele>
        <time>2013-08-11T11:18:05Z</time>
      </trkpt>
      <trkpt lat="48.63649" lon="7.25623">
        <ele>663.41</ele>
        <time>2013-08-11T11:18:12Z</time>
      </trkpt>
      <trkpt lat="48.63642" lon="7.25649">
        <ele>663.57</ele>
        <time>2013-08-11T11:18:19Z</time>
      </trkpt>
      <trkpt lat="48.63635" lon="7.25677">
        <ele>664.49</ele>
        <time>2013-08-11T11:18:27Z</time>
      </trkpt>
      <trkpt lat="48.63626" lon="7.25705">
        <ele>665.4</ele>
        <time>2013-08-11T11:18:35Z</time>
      </trkpt>
      <trkpt lat="48.63618" lon="7.25733">
        <ele>665.57</ele>
        <time>2013-08-11T11:18:43Z</time>
      </trkpt>
      <trkpt lat="48.63613" lon="7.25763">
        <ele>665.59</ele>
        <time>2013-08-11T11:18:51Z</time>
      </trkpt>
      <trkpt lat="48.63605" lon="7.25789">
        <ele>665.15</ele>
        <time>2013-08-11T11:18:56Z</time>
      </trkpt>
      <trkpt lat="48.63591" lon="7.2581">
        <ele>664.69</ele>
        <time>2013-08-11T11:19:02Z</time>
      </trkpt>
      <trkpt lat="48.63578" lon="7.25832">
        <ele>663.84</ele>
        <time>2013-08-11T11:19:09Z</time>
      </trkpt>
      <trkpt lat="48.63566" lon="7.25853">
        <ele>663.62</ele>
        <time>2013-08-11T11:19:16Z</time>
      </trkpt>
      <trkpt lat="48.63552" lon="7.25872">
        <ele>663.02</ele>
        <time>2013-08-11T11:19:23Z</time>
      </trkpt>
      <trkpt lat="48.63541" lon="7.25898">
        <ele>662.63</ele>
        <time>2013-08-11T11:19:31Z</time>
      </trkpt>
      <trkpt lat="48.63537" lon="7.25928">
        <ele>663.49</ele>
        <time>2013-08-11T11:19:39Z</time>
      </trkpt>
      <trkpt lat="48.63544" lon="7.25954">
        <ele>665.02</ele>
        <time>2013-08-11T11:19:46Z</time>
      </trkpt>
      <trkpt lat="48.63539" lon="7.25982">
        <ele>666.47</ele>
        <time>2013-08-11T11:19:55Z</time>
      </trkpt>
      <trkpt lat="48.63534" lon="7.2601">
        <ele>666.34</ele>
        <time>2013-08-11T11:20:15Z</time>
      </trkpt>
      <trkpt lat="48.6352" lon="7.26027">
        <ele>665.47</ele>
        <time>2013-08-11T11:20:47Z</time>
      </trkpt>
      <trkpt lat="48.63505" lon="7.26042">
        <ele>667.26</ele>
        <time>2013-08-11T11:21:08Z</time>
      </trkpt>
      <trkpt lat="48.63492" lon="7.26061">
        <ele>668.94</ele>
        <time>2013-08-11T11:21:21Z</time>
      </trkpt>
      <trkpt lat="48.63478" lon="7.26078">
        <ele>671.28</ele>
        <time>2013-08-11T11:21:35Z</time>
      </trkpt>
      <trkpt lat="48.6346" lon="7.26085">
        <ele>674.18</ele>
        <time>2013-08-11T11:21:49Z</time>
      </trkpt>
      <trkpt lat="48.63441" lon="7.26098">
        <ele>676.97</ele>
        <time>2013-08-11T11:22:00Z</time>
      </trkpt>
      <trkpt lat="48.63424" lon="7.26106">
        <ele>679.49</ele>
        <time>2013-08-11T11:22:10Z</time>
      </trkpt>
      <trkpt lat="48.63406" lon="7.26108">
        <ele>682.25</ele>
        <time>2013-08-11T11:22:23Z</time>
      </trkpt>
      <trkpt lat="48.63387" lon="7.26115">
        <ele>684.28</ele>
        <time>2013-08-11T11:22:33Z</time>
      </trkpt>
      <trkpt lat="48.63369" lon="7.26115">
        <ele>685.3</ele>
        <time>2013-08-11T11:22:39Z</time>
      </trkpt>
      <trkpt lat="48.6335" lon="7.26119">
        <ele>686.85</ele>
        <time>2013-08-11T11:22:46Z</time>
      </trkpt>
      <trkpt lat="48.63331" lon="7.26121">
        <ele>689.18</ele>
        <time>2013-08-11T11:22:58Z</time>
      </trkpt>
      <trkpt lat="48.63347" lon="7.26134">
        <ele>696.38</ele>
        <time>2013-08-11T11:23:34Z</time>
      </trkpt>
      <trkpt lat="48.63367" lon="7.26134">
        <ele>697.32</ele>
        <time>2013-08-11T11:23:41Z</time>
      </trkpt>
      <trkpt lat="48.63387" lon="7.26136">
        <ele>699.05</ele>
        <time>2013-08-11T11:23:47Z</time>
      </trkpt>
      <trkpt lat="48.63406" lon="7.26136">
        <ele>700.15</ele>
        <time>2013-08-11T11:23:52Z</time>
      </trkpt>
      <trkpt lat="48.63425" lon="7.2614">
        <ele>701.82</ele>
        <time>2013-08-11T11:23:56Z</time>
      </trkpt>
      <trkpt lat="48.63444" lon="7.26143">
        <ele>702.41</ele>
        <time>2013-08-11T11:24:01Z</time>
      </trkpt>
      <trkpt lat="48.63463" lon="7.26151">
        <ele>702.8</ele>
        <time>2013-08-11T11:24:06Z</time>
      </trkpt>
      <trkpt lat="48.63482" lon="7.26164">
        <ele>703.7</ele>
        <time>2013-08-11T11:24:12Z</time>
      </trkpt>
      <trkpt lat="48.63495" lon="7.26188">
        <ele>704.38</ele>
        <time>2013-08-11T11:24:17Z</time>
      </trkpt>
      <trkpt lat="48.63505" lon="7.26213">
        <ele>705.71</ele>
        <time>2013-08-11T11:24:21Z</time>
      </trkpt>
      <trkpt lat="48.63513" lon="7.26239">
        <ele>708.8</ele>
        <time>2013-08-11T11:24:25Z</time>
      </trkpt>
      <trkpt lat="48.6352" lon="7.26269">
        <ele>711.22</ele>
        <time>2013-08-11T11:24:34Z</time>
      </trkpt>
      <trkpt lat="48.63521" lon="7.26301">
        <ele>712.65</ele>
        <time>2013-08-11T11:24:46Z</time>
      </trkpt>
      <trkpt lat="48.63523" lon="7.26331">
        <ele>713.79</ele>
        <time>2013-08-11T11:24:56Z</time>
      </trkpt>
      <trkpt lat="48.63524" lon="7.26359">
        <ele>715.57</ele>
        <time>2013-08-11T11:25:07Z</time>
      </trkpt>
      <trkpt lat="48.63526" lon="7.26389">
        <ele>718.1</ele>
        <time>2013-08-11T11:25:18Z</time>
      </trkpt>
      <trkpt lat="48.63526" lon="7.26417">
        <ele>720.28</ele>
        <time>2013-08-11T11:25:30Z</time>
      </trkpt>
      <trkpt lat="48.63536" lon="7.26454">
        <ele>722.43</ele>
        <time>2013-08-11T11:25:46Z</time>
      </trkpt>
      <trkpt lat="48.63542" lon="7.2648">
        <ele>723.99</ele>
        <time>2013-08-11T11:25:58Z</time>
      </trkpt>
      <trkpt lat="48.63549" lon="7.26505">
        <ele>725.38</ele>
        <time>2013-08-11T11:26:08Z</time>
      </trkpt>
      <trkpt lat="48.63558" lon="7.26529">
        <ele>725.58</ele>
        <time>2013-08-11T11:26:18Z</time>
      </trkpt>
      <trkpt lat="48.63568" lon="7.26557">
        <ele>725.59</ele>
        <time>2013-08-11T11:26:28Z</time>
      </trkpt>
      <trkpt lat="48.63584" lon="7.26585">
        <ele>725.59</ele>
        <time>2013-08-11T11:26:38Z</time>
      </trkpt>
      <trkpt lat="48.63598" lon="7.2661">
        <ele>725.59</ele>
        <time>2013-08-11T11:26:49Z</time>
      </trkpt>
      <trkpt lat="48.63615" lon="7.2664">
        <ele>726.55</ele>
        <time>2013-08-11T11:27:01Z</time>
      </trkpt>
      <trkpt lat="48.63632" lon="7.2666">
        <ele>726.59</ele>
        <time>2013-08-11T11:27:13Z</time>
      </trkpt>
      <trkpt lat="48.63647" lon="7.26675">
        <ele>725.67</ele>
        <time>2013-08-11T11:27:23Z</time>
      </trkpt>
      <trkpt lat="48.63664" lon="7.26688">
        <ele>725.6</ele>
        <time>2013-08-11T11:27:32Z</time>
      </trkpt>
      <trkpt lat="48.63679" lon="7.26705">
        <ele>725.59</ele>
        <time>2013-08-11T11:27:40Z</time>
      </trkpt>
      <trkpt lat="48.63694" lon="7.26724">
        <ele>725.59</ele>
        <time>2013-08-11T11:27:49Z</time>
      </trkpt>
      <trkpt lat="48.63708" lon="7.26746">
        <ele>725.59</ele>
        <time>2013-08-11T11:27:57Z</time>
      </trkpt>
      <trkpt lat="48.63718" lon="7.26771">
        <ele>725.59</ele>
        <time>2013-08-11T11:28:04Z</time>
      </trkpt>
      <trkpt lat="48.63728" lon="7.26799">
        <ele>725.59</ele>
        <time>2013-08-11T11:28:12Z</time>
      </trkpt>
      <trkpt lat="48.63727" lon="7.26829">
        <ele>725.59</ele>
        <time>2013-08-11T11:28:18Z</time>
      </trkpt>
      <trkpt lat="48.63729" lon="7.26857">
        <ele>724.83</ele>
        <time>2013-08-11T11:28:25Z</time>
      </trkpt>
      <trkpt lat="48.63729" lon="7.26885">
        <ele>724.87</ele>
        <time>2013-08-11T11:28:32Z</time>
      </trkpt>
      <trkpt lat="48.6373" lon="7.26915">
        <ele>725.71</ele>
        <time>2013-08-11T11:28:38Z</time>
      </trkpt>
      <trkpt lat="48.63732" lon="7.26943">
        <ele>726.38</ele>
        <time>2013-08-11T11:28:43Z</time>
      </trkpt>
      <trkpt lat="48.63726" lon="7.26973">
        <ele>726.55</ele>
        <time>2013-08-11T11:28:49Z</time>
      </trkpt>
      <trkpt lat="48.63718" lon="7.27001">
        <ele>726.58</ele>
        <time>2013-08-11T11:28:55Z</time>
      </trkpt>
      <trkpt lat="48.63712" lon="7.27031">
        <ele>726.59</ele>
        <time>2013-08-11T11:29:01Z</time>
      </trkpt>
      <trkpt lat="48.63706" lon="7.27061">
        <ele>726.59</ele>
        <time>2013-08-11T11:29:08Z</time>
      </trkpt>
      <trkpt lat="48.63701" lon="7.27091">
        <ele>725.77</ele>
        <time>2013-08-11T11:29:16Z</time>
      </trkpt>
      <trkpt lat="48.63696" lon="7.27121">
        <ele>724.71</ele>
        <time>2013-08-11T11:29:24Z</time>
      </trkpt>
      <trkpt lat="48.63691" lon="7.27151">
        <ele>724.61</ele>
        <time>2013-08-11T11:29:31Z</time>
      </trkpt>
      <trkpt lat="48.63685" lon="7.27181">
        <ele>723.48</ele>
        <time>2013-08-11T11:29:38Z</time>
      </trkpt>
      <trkpt lat="48.6368" lon="7.27209">
        <ele>722.46</ele>
        <time>2013-08-11T11:29:45Z</time>
      </trkpt>
      <trkpt lat="48.63676" lon="7.27241">
        <ele>722.14</ele>
        <time>2013-08-11T11:29:52Z</time>
      </trkpt>
      <trkpt lat="48.63681" lon="7.27273">
        <ele>723.42</ele>
        <time>2013-08-11T11:29:57Z</time>
      </trkpt>
      <trkpt lat="48.63682" lon="7.27301">
        <ele>725.69</ele>
        <time>2013-08-11T11:30:04Z</time>
      </trkpt>
      <trkpt lat="48.63688" lon="7.27327">
        <ele>727.51</ele>
        <time>2013-08-11T11:30:16Z</time>
      </trkpt>
      <trkpt lat="48.63686" lon="7.27357">
        <ele>727.79</ele>
        <time>2013-08-11T11:31:52Z</time>
      </trkpt>
      <trkpt lat="48.63686" lon="7.27385">
        <ele>729.71</ele>
        <time>2013-08-11T11:32:00Z</time>
      </trkpt>
      <trkpt lat="48.63688" lon="7.27413">
        <ele>731.68</ele>
        <time>2013-08-11T11:32:04Z</time>
      </trkpt>
      <trkpt lat="48.63694" lon="7.27441">
        <ele>733.81</ele>
        <time>2013-08-11T11:32:08Z</time>
      </trkpt>
      <trkpt lat="48.63698" lon="7.27471">
        <ele>736.68</ele>
        <time>2013-08-11T11:32:13Z</time>
      </trkpt>
      <trkpt lat="48.63698" lon="7.27499">
        <ele>739.45</ele>
        <time>2013-08-11T11:32:19Z</time>
      </trkpt>
      <trkpt lat="48.63696" lon="7.27527">
        <ele>740.64</ele>
        <time>2013-08-11T11:32:25Z</time>
      </trkpt>
      <trkpt lat="48.63695" lon="7.27555">
        <ele>742.69</ele>
        <time>2013-08-11T11:32:33Z</time>
      </trkpt>
      <trkpt lat="48.63695" lon="7.27582">
        <ele>745.73</ele>
        <time>2013-08-11T11:32:42Z</time>
      </trkpt>
      <trkpt lat="48.63695" lon="7.27612">
        <ele>748.09</ele>
        <time>2013-08-11T11:32:50Z</time>
      </trkpt>
      <trkpt lat="48.63694" lon="7.2764">
        <ele>749.55</ele>
        <time>2013-08-11T11:32:58Z</time>
      </trkpt>
      <trkpt lat="48.63694" lon="7.2767">
        <ele>752.5</ele>
        <time>2013-08-11T11:33:07Z</time>
      </trkpt>
      <trkpt lat="48.63697" lon="7.277">
        <ele>755.58</ele>
        <time>2013-08-11T11:33:15Z</time>
      </trkpt>
      <trkpt lat="48.637" lon="7.27731">
        <ele>758.61</ele>
        <time>2013-08-11T11:33:24Z</time>
      </trkpt>
      <trkpt lat="48.63706" lon="7.27758">
        <ele>761.1</ele>
        <time>2013-08-11T11:33:33Z</time>
      </trkpt>
      <trkpt lat="48.63711" lon="7.27786">
        <ele>761.52</ele>
        <time>2013-08-11T11:33:40Z</time>
      </trkpt>
      <trkpt lat="48.63714" lon="7.27814">
        <ele>761.58</ele>
        <time>2013-08-11T11:33:46Z</time>
      </trkpt>
      <trkpt lat="48.6372" lon="7.27842">
        <ele>761.59</ele>
        <time>2013-08-11T11:33:55Z</time>
      </trkpt>
      <trkpt lat="48.63734" lon="7.27859">
        <ele>760.77</ele>
        <time>2013-08-11T11:34:04Z</time>
      </trkpt>
      <trkpt lat="48.63737" lon="7.27889">
        <ele>759.86</ele>
        <time>2013-08-11T11:34:10Z</time>
      </trkpt>
      <trkpt lat="48.63735" lon="7.27919">
        <ele>758.74</ele>
        <time>2013-08-11T11:34:19Z</time>
      </trkpt>
      <trkpt lat="48.63744" lon="7.27945">
        <ele>759.19</ele>
        <time>2013-08-11T11:34:26Z</time>
      </trkpt>
      <trkpt lat="48.63753" lon="7.27971">
        <ele>760.11</ele>
        <time>2013-08-11T11:34:33Z</time>
      </trkpt>
      <trkpt lat="48.63759" lon="7.27999">
        <ele>761.1</ele>
        <time>2013-08-11T11:34:40Z</time>
      </trkpt>
      <trkpt lat="48.63762" lon="7.28029">
        <ele>760.74</ele>
        <time>2013-08-11T11:34:46Z</time>
      </trkpt>
      <trkpt lat="48.63769" lon="7.28055">
        <ele>760.17</ele>
        <time>2013-08-11T11:34:53Z</time>
      </trkpt>
      <trkpt lat="48.63777" lon="7.28085">
        <ele>759.23</ele>
        <time>2013-08-11T11:35:00Z</time>
      </trkpt>
      <trkpt lat="48.63788" lon="7.28108">
        <ele>758.24</ele>
        <time>2013-08-11T11:35:07Z</time>
      </trkpt>
      <trkpt lat="48.63799" lon="7.28132">
        <ele>757.24</ele>
        <time>2013-08-11T11:35:14Z</time>
      </trkpt>
      <trkpt lat="48.63806" lon="7.28158">
        <ele>755.06</ele>
        <time>2013-08-11T11:35:23Z</time>
      </trkpt>
      <trkpt lat="48.63815" lon="7.28185">
        <ele>753.05</ele>
        <time>2013-08-11T11:35:31Z</time>
      </trkpt>
      <trkpt lat="48.63832" lon="7.28194">
        <ele>751.09</ele>
        <time>2013-08-11T11:35:41Z</time>
      </trkpt>
      <trkpt lat="48.6385" lon="7.28196">
        <ele>749.63</ele>
        <time>2013-08-11T11:35:49Z</time>
      </trkpt>
      <trkpt lat="48.63868" lon="7.28188">
        <ele>747.49</ele>
        <time>2013-08-11T11:35:57Z</time>
      </trkpt>
      <trkpt lat="48.63887" lon="7.28185">
        <ele>744.56</ele>
        <time>2013-08-11T11:36:06Z</time>
      </trkpt>
      <trkpt lat="48.63904" lon="7.28173">
        <ele>741.4</ele>
        <time>2013-08-11T11:36:11Z</time>
      </trkpt>
      <trkpt lat="48.63922" lon="7.28162">
        <ele>738.19</ele>
        <time>2013-08-11T11:36:19Z</time>
      </trkpt>
      <trkpt lat="48.63939" lon="7.28153">
        <ele>736.48</ele>
        <time>2013-08-11T11:36:28Z</time>
      </trkpt>
      <trkpt lat="48.63959" lon="7.28142">
        <ele>735.46</ele>
        <time>2013-08-11T11:36:35Z</time>
      </trkpt>
      <trkpt lat="48.63977" lon="7.28132">
        <ele>734.49</ele>
        <time>2013-08-11T11:36:41Z</time>
      </trkpt>
      <trkpt lat="48.63993" lon="7.28119">
        <ele>733.66</ele>
        <time>2013-08-11T11:36:50Z</time>
      </trkpt>
      <trkpt lat="48.64011" lon="7.28117">
        <ele>734.46</ele>
        <time>2013-08-11T11:36:59Z</time>
      </trkpt>
      <trkpt lat="48.6403" lon="7.28104">
        <ele>734.81</ele>
        <time>2013-08-11T11:37:04Z</time>
      </trkpt>
      <trkpt lat="48.64052" lon="7.28097">
        <ele>735.15</ele>
        <time>2013-08-11T11:37:09Z</time>
      </trkpt>
      <trkpt lat="48.64074" lon="7.28097">
        <ele>734.83</ele>
        <time>2013-08-11T11:37:12Z</time>
      </trkpt>
      <trkpt lat="48.64097" lon="7.28093">
        <ele>734.44</ele>
        <time>2013-08-11T11:37:15Z</time>
      </trkpt>
      <trkpt lat="48.64117" lon="7.28091">
        <ele>733.51</ele>
        <time>2013-08-11T11:37:18Z</time>
      </trkpt>
      <trkpt lat="48.64136" lon="7.28093">
        <ele>731.96</ele>
        <time>2013-08-11T11:37:21Z</time>
      </trkpt>
      <trkpt lat="48.64156" lon="7.28089">
        <ele>729.65</ele>
        <time>2013-08-11T11:37:25Z</time>
      </trkpt>
      <trkpt lat="48.64177" lon="7.28089">
        <ele>727.12</ele>
        <time>2013-08-11T11:37:29Z</time>
      </trkpt>
      <trkpt lat="48.64196" lon="7.28093">
        <ele>725.41</ele>
        <time>2013-08-11T11:37:32Z</time>
      </trkpt>
      <trkpt lat="48.64219" lon="7.281">
        <ele>723.92</ele>
        <time>2013-08-11T11:37:36Z</time>
      </trkpt>
      <trkpt lat="48.64241" lon="7.28108">
        <ele>723.01</ele>
        <time>2013-08-11T11:37:40Z</time>
      </trkpt>
      <trkpt lat="48.64259" lon="7.28123">
        <ele>721.93</ele>
        <time>2013-08-11T11:37:45Z</time>
      </trkpt>
      <trkpt lat="48.64276" lon="7.28136">
        <ele>721.67</ele>
        <time>2013-08-11T11:37:50Z</time>
      </trkpt>
      <trkpt lat="48.64291" lon="7.28153">
        <ele>721.61</ele>
        <time>2013-08-11T11:37:55Z</time>
      </trkpt>
      <trkpt lat="48.64309" lon="7.28164">
        <ele>721.02</ele>
        <time>2013-08-11T11:38:00Z</time>
      </trkpt>
      <trkpt lat="48.64321" lon="7.28188">
        <ele>720.6</ele>
        <time>2013-08-11T11:38:12Z</time>
      </trkpt>
      <trkpt lat="48.64309" lon="7.28213">
        <ele>719.39</ele>
        <time>2013-08-11T11:38:22Z</time>
      </trkpt>
      <trkpt lat="48.643" lon="7.28237">
        <ele>717.53</ele>
        <time>2013-08-11T11:38:28Z</time>
      </trkpt>
      <trkpt lat="48.64293" lon="7.28263">
        <ele>712.44</ele>
        <time>2013-08-11T11:38:49Z</time>
      </trkpt>
      <trkpt lat="48.64285" lon="7.28288">
        <ele>708.5</ele>
        <time>2013-08-11T11:38:54Z</time>
      </trkpt>
      <trkpt lat="48.64278" lon="7.28314">
        <ele>704.07</ele>
        <time>2013-08-11T11:38:59Z</time>
      </trkpt>
      <trkpt lat="48.64288" lon="7.28338">
        <ele>701.85</ele>
        <time>2013-08-11T11:39:09Z</time>
      </trkpt>
      <trkpt lat="48.64301" lon="7.28359">
        <ele>700.2</ele>
        <time>2013-08-11T11:39:19Z</time>
      </trkpt>
      <trkpt lat="48.64308" lon="7.284">
        <ele>698.78</ele>
        <time>2013-08-11T11:39:34Z</time>
      </trkpt>
      <trkpt lat="48.64306" lon="7.28436">
        <ele>700.31</ele>
        <time>2013-08-11T11:39:49Z</time>
      </trkpt>
      <trkpt lat="48.64301" lon="7.28475">
        <ele>701.64</ele>
        <time>2013-08-11T11:39:58Z</time>
      </trkpt>
      <trkpt lat="48.64292" lon="7.28507">
        <ele>703.15</ele>
        <time>2013-08-11T11:40:05Z</time>
      </trkpt>
      <trkpt lat="48.64288" lon="7.28537">
        <ele>704.06</ele>
        <time>2013-08-11T11:40:10Z</time>
      </trkpt>
      <trkpt lat="48.64282" lon="7.28576">
        <ele>707.33</ele>
        <time>2013-08-11T11:40:17Z</time>
      </trkpt>
      <trkpt lat="48.64282" lon="7.28608">
        <ele>710.56</ele>
        <time>2013-08-11T11:40:23Z</time>
      </trkpt>
      <trkpt lat="48.64287" lon="7.2864">
        <ele>713.62</ele>
        <time>2013-08-11T11:40:28Z</time>
      </trkpt>
      <trkpt lat="48.64293" lon="7.28668">
        <ele>716.34</ele>
        <time>2013-08-11T11:40:32Z</time>
      </trkpt>
      <trkpt lat="48.64303" lon="7.28694">
        <ele>719.14</ele>
        <time>2013-08-11T11:40:36Z</time>
      </trkpt>
      <trkpt lat="48.64313" lon="7.28724">
        <ele>722.52</ele>
        <time>2013-08-11T11:40:41Z</time>
      </trkpt>
      <trkpt lat="48.64319" lon="7.28752">
        <ele>724.54</ele>
        <time>2013-08-11T11:40:46Z</time>
      </trkpt>
      <trkpt lat="48.64328" lon="7.28782">
        <ele>725.92</ele>
        <time>2013-08-11T11:40:51Z</time>
      </trkpt>
      <trkpt lat="48.64334" lon="7.28814">
        <ele>725.69</ele>
        <time>2013-08-11T11:40:55Z</time>
      </trkpt>
      <trkpt lat="48.64347" lon="7.28842">
        <ele>722.55</ele>
        <time>2013-08-11T11:40:59Z</time>
      </trkpt>
      <trkpt lat="48.64363" lon="7.28863">
        <ele>718.83</ele>
        <time>2013-08-11T11:41:03Z</time>
      </trkpt>
      <trkpt lat="48.6438" lon="7.28881">
        <ele>715.6</ele>
        <time>2013-08-11T11:41:07Z</time>
      </trkpt>
      <trkpt lat="48.64398" lon="7.28902">
        <ele>711.34</ele>
        <time>2013-08-11T11:41:11Z</time>
      </trkpt>
      <trkpt lat="48.64416" lon="7.28921">
        <ele>707.28</ele>
        <time>2013-08-11T11:41:16Z</time>
      </trkpt>
      <trkpt lat="48.64432" lon="7.28941">
        <ele>705.64</ele>
        <time>2013-08-11T11:41:22Z</time>
      </trkpt>
      <trkpt lat="48.64447" lon="7.28958">
        <ele>704.73</ele>
        <time>2013-08-11T11:41:29Z</time>
      </trkpt>
      <trkpt lat="48.64462" lon="7.28973">
        <ele>703.93</ele>
        <time>2013-08-11T11:41:35Z</time>
      </trkpt>
      <trkpt lat="48.64478" lon="7.28988">
        <ele>703.62</ele>
        <time>2013-08-11T11:41:43Z</time>
      </trkpt>
      <trkpt lat="48.64496" lon="7.29003">
        <ele>703.02</ele>
        <time>2013-08-11T11:41:49Z</time>
      </trkpt>
      <trkpt lat="48.64509" lon="7.29024">
        <ele>702.04</ele>
        <time>2013-08-11T11:41:53Z</time>
      </trkpt>
      <trkpt lat="48.64522" lon="7.2905">
        <ele>701.73</ele>
        <time>2013-08-11T11:41:57Z</time>
      </trkpt>
      <trkpt lat="48.64536" lon="7.29076">
        <ele>702.21</ele>
        <time>2013-08-11T11:42:01Z</time>
      </trkpt>
      <trkpt lat="48.6455" lon="7.29104">
        <ele>702.03</ele>
        <time>2013-08-11T11:42:05Z</time>
      </trkpt>
      <trkpt lat="48.64564" lon="7.29134">
        <ele>700.61</ele>
        <time>2013-08-11T11:42:09Z</time>
      </trkpt>
      <trkpt lat="48.64581" lon="7.29155">
        <ele>698.79</ele>
        <time>2013-08-11T11:42:13Z</time>
      </trkpt>
      <trkpt lat="48.64601" lon="7.29166">
        <ele>696.46</ele>
        <time>2013-08-11T11:42:17Z</time>
      </trkpt>
      <trkpt lat="48.64621" lon="7.29181">
        <ele>694.74</ele>
        <time>2013-08-11T11:42:21Z</time>
      </trkpt>
      <trkpt lat="48.64642" lon="7.29194">
        <ele>693.38</ele>
        <time>2013-08-11T11:42:25Z</time>
      </trkpt>
      <trkpt lat="48.64658" lon="7.29213">
        <ele>692.01</ele>
        <time>2013-08-11T11:42:30Z</time>
      </trkpt>
      <trkpt lat="48.64667" lon="7.29243">
        <ele>691.15</ele>
        <time>2013-08-11T11:42:34Z</time>
      </trkpt>
      <trkpt lat="48.64673" lon="7.29275">
        <ele>690.52</ele>
        <time>2013-08-11T11:42:38Z</time>
      </trkpt>
      <trkpt lat="48.64685" lon="7.29306">
        <ele>689.88</ele>
        <time>2013-08-11T11:42:42Z</time>
      </trkpt>
      <trkpt lat="48.64699" lon="7.29333">
        <ele>689.68</ele>
        <time>2013-08-11T11:42:46Z</time>
      </trkpt>
      <trkpt lat="48.64711" lon="7.29355">
        <ele>689.63</ele>
        <time>2013-08-11T11:42:49Z</time>
      </trkpt>
      <trkpt lat="48.64729" lon="7.2937">
        <ele>689.02</ele>
        <time>2013-08-11T11:42:53Z</time>
      </trkpt>
      <trkpt lat="48.64749" lon="7.2937">
        <ele>688.15</ele>
        <time>2013-08-11T11:42:57Z</time>
      </trkpt>
      <trkpt lat="48.64772" lon="7.29372">
        <ele>687.08</ele>
        <time>2013-08-11T11:43:01Z</time>
      </trkpt>
      <trkpt lat="48.64794" lon="7.29368">
        <ele>685.62</ele>
        <time>2013-08-11T11:43:05Z</time>
      </trkpt>
      <trkpt lat="48.64818" lon="7.29368">
        <ele>683.8</ele>
        <time>2013-08-11T11:43:09Z</time>
      </trkpt>
      <trkpt lat="48.64839" lon="7.29374">
        <ele>681.6</ele>
        <time>2013-08-11T11:43:13Z</time>
      </trkpt>
      <trkpt lat="48.64859" lon="7.29385">
        <ele>679.21</ele>
        <time>2013-08-11T11:43:17Z</time>
      </trkpt>
      <trkpt lat="48.6488" lon="7.29398">
        <ele>677.17</ele>
        <time>2013-08-11T11:43:21Z</time>
      </trkpt>
      <trkpt lat="48.649" lon="7.29411">
        <ele>675.51</ele>
        <time>2013-08-11T11:43:25Z</time>
      </trkpt>
      <trkpt lat="48.64921" lon="7.29415">
        <ele>673.95</ele>
        <time>2013-08-11T11:43:29Z</time>
      </trkpt>
      <trkpt lat="48.64942" lon="7.29424">
        <ele>672.19</ele>
        <time>2013-08-11T11:43:33Z</time>
      </trkpt>
      <trkpt lat="48.64964" lon="7.29428">
        <ele>670.66</ele>
        <time>2013-08-11T11:43:37Z</time>
      </trkpt>
      <trkpt lat="48.64984" lon="7.29426">
        <ele>669.68</ele>
        <time>2013-08-11T11:43:41Z</time>
      </trkpt>
      <trkpt lat="48.65006" lon="7.29419">
        <ele>668.36</ele>
        <time>2013-08-11T11:43:45Z</time>
      </trkpt>
      <trkpt lat="48.65029" lon="7.29411">
        <ele>666.71</ele>
        <time>2013-08-11T11:43:49Z</time>
      </trkpt>
      <trkpt lat="48.65053" lon="7.29402">
        <ele>665.37</ele>
        <time>2013-08-11T11:43:53Z</time>
      </trkpt>
      <trkpt lat="48.65071" lon="7.294">
        <ele>664.34</ele>
        <time>2013-08-11T11:43:56Z</time>
      </trkpt>
      <trkpt lat="48.65092" lon="7.29411">
        <ele>663.14</ele>
        <time>2013-08-11T11:44:00Z</time>
      </trkpt>
      <trkpt lat="48.65108" lon="7.29426">
        <ele>662.66</ele>
        <time>2013-08-11T11:44:07Z</time>
      </trkpt>
      <trkpt lat="48.65126" lon="7.29436">
        <ele>662.6</ele>
        <time>2013-08-11T11:44:14Z</time>
      </trkpt>
      <trkpt lat="48.65143" lon="7.29445">
        <ele>662.59</ele>
        <time>2013-08-11T11:44:21Z</time>
      </trkpt>
      <trkpt lat="48.65162" lon="7.29447">
        <ele>662.59</ele>
        <time>2013-08-11T11:44:29Z</time>
      </trkpt>
      <trkpt lat="48.65183" lon="7.29449">
        <ele>662.59</ele>
        <time>2013-08-11T11:44:35Z</time>
      </trkpt>
      <trkpt lat="48.65204" lon="7.29458">
        <ele>662.59</ele>
        <time>2013-08-11T11:44:44Z</time>
      </trkpt>
      <trkpt lat="48.65222" lon="7.29469">
        <ele>662.84</ele>
        <time>2013-08-11T11:44:55Z</time>
      </trkpt>
      <trkpt lat="48.65245" lon="7.29471">
        <ele>665.6</ele>
        <time>2013-08-11T11:45:10Z</time>
      </trkpt>
      <trkpt lat="48.65268" lon="7.29479">
        <ele>667.53</ele>
        <time>2013-08-11T11:45:19Z</time>
      </trkpt>
      <trkpt lat="48.65287" lon="7.29492">
        <ele>669.33</ele>
        <time>2013-08-11T11:45:28Z</time>
      </trkpt>
      <trkpt lat="48.65301" lon="7.29518">
        <ele>670.65</ele>
        <time>2013-08-11T11:45:38Z</time>
      </trkpt>
      <trkpt lat="48.65315" lon="7.29544">
        <ele>671.96</ele>
        <time>2013-08-11T11:45:45Z</time>
      </trkpt>
      <trkpt lat="48.65325" lon="7.29569">
        <ele>674.23</ele>
        <time>2013-08-11T11:45:51Z</time>
      </trkpt>
      <trkpt lat="48.65316" lon="7.29595">
        <ele>677.54</ele>
        <time>2013-08-11T11:46:01Z</time>
      </trkpt>
      <trkpt lat="48.65312" lon="7.29625">
        <ele>679.87</ele>
        <time>2013-08-11T11:46:11Z</time>
      </trkpt>
      <trkpt lat="48.65317" lon="7.29653">
        <ele>680.46</ele>
        <time>2013-08-11T11:46:17Z</time>
      </trkpt>
      <trkpt lat="48.65329" lon="7.29679">
        <ele>681.39</ele>
        <time>2013-08-11T11:46:24Z</time>
      </trkpt>
      <trkpt lat="48.65342" lon="7.297">
        <ele>681.79</ele>
        <time>2013-08-11T11:46:29Z</time>
      </trkpt>
      <trkpt lat="48.65357" lon="7.29724">
        <ele>682.45</ele>
        <time>2013-08-11T11:46:35Z</time>
      </trkpt>
      <trkpt lat="48.65372" lon="7.29745">
        <ele>682.83</ele>
        <time>2013-08-11T11:46:44Z</time>
      </trkpt>
      <trkpt lat="48.65388" lon="7.29775">
        <ele>682.85</ele>
        <time>2013-08-11T11:46:53Z</time>
      </trkpt>
      <trkpt lat="48.65405" lon="7.29795">
        <ele>682.2</ele>
        <time>2013-08-11T11:46:59Z</time>
      </trkpt>
      <trkpt lat="48.6542" lon="7.2981">
        <ele>681.16</ele>
        <time>2013-08-11T11:47:04Z</time>
      </trkpt>
      <trkpt lat="48.65435" lon="7.29827">
        <ele>679.09</ele>
        <time>2013-08-11T11:47:16Z</time>
      </trkpt>
      <trkpt lat="48.65452" lon="7.29838">
        <ele>677.86</ele>
        <time>2013-08-11T11:47:26Z</time>
      </trkpt>
      <trkpt lat="48.65467" lon="7.29857">
        <ele>676.78</ele>
        <time>2013-08-11T11:47:37Z</time>
      </trkpt>
      <trkpt lat="48.65481" lon="7.29874">
        <ele>675.74</ele>
        <time>2013-08-11T11:47:45Z</time>
      </trkpt>
      <trkpt lat="48.65491" lon="7.29898">
        <ele>675.36</ele>
        <time>2013-08-11T11:47:52Z</time>
      </trkpt>
      <trkpt lat="48.65502" lon="7.29923">
        <ele>674.67</ele>
        <time>2013-08-11T11:48:00Z</time>
      </trkpt>
      <trkpt lat="48.65513" lon="7.29947">
        <ele>674.85</ele>
        <time>2013-08-11T11:48:07Z</time>
      </trkpt>
      <trkpt lat="48.65525" lon="7.29969">
        <ele>674.34</ele>
        <time>2013-08-11T11:48:31Z</time>
      </trkpt>
      <trkpt lat="48.6554" lon="7.29988">
        <ele>660.74</ele>
        <time>2013-08-11T11:49:25Z</time>
      </trkpt>
      <trkpt lat="48.65553" lon="7.30014">
        <ele>661.47</ele>
        <time>2013-08-11T11:49:35Z</time>
      </trkpt>
      <trkpt lat="48.65575" lon="7.30024">
        <ele>663.47</ele>
        <time>2013-08-11T11:49:41Z</time>
      </trkpt>
      <trkpt lat="48.65593" lon="7.30033">
        <ele>666.61</ele>
        <time>2013-08-11T11:49:46Z</time>
      </trkpt>
      <trkpt lat="48.65607" lon="7.30052">
        <ele>667.42</ele>
        <time>2013-08-11T11:49:52Z</time>
      </trkpt>
      <trkpt lat="48.65626" lon="7.30063">
        <ele>668</ele>
        <time>2013-08-11T11:49:58Z</time>
      </trkpt>
      <trkpt lat="48.65643" lon="7.30076">
        <ele>669.19</ele>
        <time>2013-08-11T11:50:05Z</time>
      </trkpt>
      <trkpt lat="48.65661" lon="7.30084">
        <ele>669.93</ele>
        <time>2013-08-11T11:50:10Z</time>
      </trkpt>
      <trkpt lat="48.65676" lon="7.30102">
        <ele>670.72</ele>
        <time>2013-08-11T11:50:16Z</time>
      </trkpt>
      <trkpt lat="48.65689" lon="7.30125">
        <ele>671.04</ele>
        <time>2013-08-11T11:50:23Z</time>
      </trkpt>
      <trkpt lat="48.65704" lon="7.30142">
        <ele>669.89</ele>
        <time>2013-08-11T11:50:30Z</time>
      </trkpt>
      <trkpt lat="48.65719" lon="7.3016">
        <ele>668.51</ele>
        <time>2013-08-11T11:50:37Z</time>
      </trkpt>
      <trkpt lat="48.65736" lon="7.3017">
        <ele>665.77</ele>
        <time>2013-08-11T11:50:44Z</time>
      </trkpt>
      <trkpt lat="48.65755" lon="7.30181">
        <ele>659.55</ele>
        <time>2013-08-11T11:50:52Z</time>
      </trkpt>
      <trkpt lat="48.65775" lon="7.30181">
        <ele>654.58</ele>
        <time>2013-08-11T11:50:57Z</time>
      </trkpt>
      <trkpt lat="48.65793" lon="7.3017">
        <ele>650.79</ele>
        <time>2013-08-11T11:51:02Z</time>
      </trkpt>
      <trkpt lat="48.65806" lon="7.30147">
        <ele>647.04</ele>
        <time>2013-08-11T11:51:08Z</time>
      </trkpt>
      <trkpt lat="48.65806" lon="7.30119">
        <ele>643.33</ele>
        <time>2013-08-11T11:51:15Z</time>
      </trkpt>
      <trkpt lat="48.658" lon="7.30093">
        <ele>639.07</ele>
        <time>2013-08-11T11:51:22Z</time>
      </trkpt>
      <trkpt lat="48.65786" lon="7.30072">
        <ele>628.56</ele>
        <time>2013-08-11T11:51:27Z</time>
      </trkpt>
      <trkpt lat="48.65771" lon="7.30052">
        <ele>622.07</ele>
        <time>2013-08-11T11:51:33Z</time>
      </trkpt>
      <trkpt lat="48.65756" lon="7.30035">
        <ele>620.54</ele>
        <time>2013-08-11T11:51:40Z</time>
      </trkpt>
      <trkpt lat="48.65743" lon="7.30016">
        <ele>619.76</ele>
        <time>2013-08-11T11:51:46Z</time>
      </trkpt>
      <trkpt lat="48.65728" lon="7.29996">
        <ele>619.19</ele>
        <time>2013-08-11T11:51:51Z</time>
      </trkpt>
      <trkpt lat="48.65713" lon="7.29975">
        <ele>618.73</ele>
        <time>2013-08-11T11:51:56Z</time>
      </trkpt>
      <trkpt lat="48.65697" lon="7.29956">
        <ele>618.62</ele>
        <time>2013-08-11T11:52:01Z</time>
      </trkpt>
      <trkpt lat="48.6568" lon="7.29939">
        <ele>617.91</ele>
        <time>2013-08-11T11:52:06Z</time>
      </trkpt>
      <trkpt lat="48.65662" lon="7.29919">
        <ele>617.23</ele>
        <time>2013-08-11T11:52:11Z</time>
      </trkpt>
      <trkpt lat="48.65646" lon="7.299">
        <ele>615.98</ele>
        <time>2013-08-11T11:52:16Z</time>
      </trkpt>
      <trkpt lat="48.6563" lon="7.29881">
        <ele>615.68</ele>
        <time>2013-08-11T11:52:21Z</time>
      </trkpt>
      <trkpt lat="48.65622" lon="7.29855">
        <ele>615.04</ele>
        <time>2013-08-11T11:52:25Z</time>
      </trkpt>
      <trkpt lat="48.65612" lon="7.29829">
        <ele>614.7</ele>
        <time>2013-08-11T11:52:30Z</time>
      </trkpt>
      <trkpt lat="48.65602" lon="7.29803">
        <ele>615.29</ele>
        <time>2013-08-11T11:52:36Z</time>
      </trkpt>
      <trkpt lat="48.65592" lon="7.29778">
        <ele>615.54</ele>
        <time>2013-08-11T11:52:42Z</time>
      </trkpt>
      <trkpt lat="48.65582" lon="7.29752">
        <ele>615.58</ele>
        <time>2013-08-11T11:52:47Z</time>
      </trkpt>
      <trkpt lat="48.65573" lon="7.29724">
        <ele>616.35</ele>
        <time>2013-08-11T11:52:52Z</time>
      </trkpt>
      <trkpt lat="48.65568" lon="7.29696">
        <ele>617.22</ele>
        <time>2013-08-11T11:52:57Z</time>
      </trkpt>
      <trkpt lat="48.65561" lon="7.29666">
        <ele>618.08</ele>
        <time>2013-08-11T11:53:02Z</time>
      </trkpt>
      <trkpt lat="48.65561" lon="7.29638">
        <ele>618.87</ele>
        <time>2013-08-11T11:53:06Z</time>
      </trkpt>
      <trkpt lat="48.65555" lon="7.29608">
        <ele>619.42</ele>
        <time>2013-08-11T11:53:11Z</time>
      </trkpt>
      <trkpt lat="48.65545" lon="7.29578">
        <ele>619.55</ele>
        <time>2013-08-11T11:53:16Z</time>
      </trkpt>
      <trkpt lat="48.65534" lon="7.2955">
        <ele>620.26</ele>
        <time>2013-08-11T11:53:21Z</time>
      </trkpt>
      <trkpt lat="48.65524" lon="7.29527">
        <ele>620.92</ele>
        <time>2013-08-11T11:53:25Z</time>
      </trkpt>
      <trkpt lat="48.65511" lon="7.29501">
        <ele>621.68</ele>
        <time>2013-08-11T11:53:30Z</time>
      </trkpt>
      <trkpt lat="48.65504" lon="7.29473">
        <ele>623.81</ele>
        <time>2013-08-11T11:53:34Z</time>
      </trkpt>
      <trkpt lat="48.655" lon="7.29441">
        <ele>625.85</ele>
        <time>2013-08-11T11:53:39Z</time>
      </trkpt>
      <trkpt lat="48.65495" lon="7.29413">
        <ele>625.29</ele>
        <time>2013-08-11T11:53:44Z</time>
      </trkpt>
      <trkpt lat="48.65493" lon="7.29383">
        <ele>626.77</ele>
        <time>2013-08-11T11:53:49Z</time>
      </trkpt>
      <trkpt lat="48.65484" lon="7.29355">
        <ele>632.62</ele>
        <time>2013-08-11T11:53:55Z</time>
      </trkpt>
      <trkpt lat="48.6547" lon="7.29336">
        <ele>635.65</ele>
        <time>2013-08-11T11:54:00Z</time>
      </trkpt>
      <trkpt lat="48.65453" lon="7.29318">
        <ele>636.37</ele>
        <time>2013-08-11T11:54:05Z</time>
      </trkpt>
      <trkpt lat="48.65437" lon="7.29301">
        <ele>636.54</ele>
        <time>2013-08-11T11:54:10Z</time>
      </trkpt>
      <trkpt lat="48.6542" lon="7.29282">
        <ele>636</ele>
        <time>2013-08-11T11:54:16Z</time>
      </trkpt>
      <trkpt lat="48.65404" lon="7.29267">
        <ele>635.66</ele>
        <time>2013-08-11T11:54:22Z</time>
      </trkpt>
      <trkpt lat="48.65391" lon="7.29248">
        <ele>635.6</ele>
        <time>2013-08-11T11:54:28Z</time>
      </trkpt>
      <trkpt lat="48.65388" lon="7.2922">
        <ele>635.59</ele>
        <time>2013-08-11T11:54:34Z</time>
      </trkpt>
      <trkpt lat="48.6539" lon="7.29192">
        <ele>635.59</ele>
        <time>2013-08-11T11:54:39Z</time>
      </trkpt>
      <trkpt lat="48.6538" lon="7.29164">
        <ele>636.17</ele>
        <time>2013-08-11T11:54:45Z</time>
      </trkpt>
      <trkpt lat="48.65375" lon="7.29134">
        <ele>636.51</ele>
        <time>2013-08-11T11:54:51Z</time>
      </trkpt>
      <trkpt lat="48.65371" lon="7.29106">
        <ele>637.34</ele>
        <time>2013-08-11T11:54:57Z</time>
      </trkpt>
      <trkpt lat="48.65371" lon="7.29074">
        <ele>638.23</ele>
        <time>2013-08-11T11:55:03Z</time>
      </trkpt>
      <trkpt lat="48.65375" lon="7.29046">
        <ele>639.6</ele>
        <time>2013-08-11T11:55:09Z</time>
      </trkpt>
      <trkpt lat="48.65378" lon="7.29016">
        <ele>640.46</ele>
        <time>2013-08-11T11:55:16Z</time>
      </trkpt>
      <trkpt lat="48.65377" lon="7.28986">
        <ele>641.33</ele>
        <time>2013-08-11T11:55:22Z</time>
      </trkpt>
      <trkpt lat="48.65373" lon="7.28958">
        <ele>641.54</ele>
        <time>2013-08-11T11:55:28Z</time>
      </trkpt>
      <trkpt lat="48.65369" lon="7.2893">
        <ele>642.34</ele>
        <time>2013-08-11T11:55:34Z</time>
      </trkpt>
      <trkpt lat="48.65373" lon="7.28902">
        <ele>642.55</ele>
        <time>2013-08-11T11:55:40Z</time>
      </trkpt>
      <trkpt lat="48.65379" lon="7.28872">
        <ele>643.27</ele>
        <time>2013-08-11T11:55:46Z</time>
      </trkpt>
      <trkpt lat="48.65386" lon="7.28846">
        <ele>643.51</ele>
        <time>2013-08-11T11:55:51Z</time>
      </trkpt>
      <trkpt lat="48.65392" lon="7.28821">
        <ele>644.34</ele>
        <time>2013-08-11T11:55:57Z</time>
      </trkpt>
      <trkpt lat="48.65396" lon="7.28793">
        <ele>644.56</ele>
        <time>2013-08-11T11:56:05Z</time>
      </trkpt>
      <trkpt lat="48.65404" lon="7.28767">
        <ele>644.59</ele>
        <time>2013-08-11T11:56:12Z</time>
      </trkpt>
      <trkpt lat="48.65411" lon="7.28741">
        <ele>643.83</ele>
        <time>2013-08-11T11:56:19Z</time>
      </trkpt>
      <trkpt lat="48.6542" lon="7.28715">
        <ele>644.39</ele>
        <time>2013-08-11T11:56:25Z</time>
      </trkpt>
      <trkpt lat="48.6543" lon="7.2869">
        <ele>645.33</ele>
        <time>2013-08-11T11:56:32Z</time>
      </trkpt>
      <trkpt lat="48.65436" lon="7.28664">
        <ele>645.8</ele>
        <time>2013-08-11T11:56:39Z</time>
      </trkpt>
      <trkpt lat="48.65443" lon="7.28638">
        <ele>646.49</ele>
        <time>2013-08-11T11:56:46Z</time>
      </trkpt>
      <trkpt lat="48.65448" lon="7.28608">
        <ele>647.26</ele>
        <time>2013-08-11T11:56:53Z</time>
      </trkpt>
      <trkpt lat="48.65456" lon="7.28582">
        <ele>646.77</ele>
        <time>2013-08-11T11:56:59Z</time>
      </trkpt>
      <trkpt lat="48.65475" lon="7.2858">
        <ele>646.59</ele>
        <time>2013-08-11T11:57:14Z</time>
      </trkpt>
      <trkpt lat="48.65494" lon="7.2858">
        <ele>646.59</ele>
        <time>2013-08-11T11:57:21Z</time>
      </trkpt>
      <trkpt lat="48.65513" lon="7.28587">
        <ele>647.41</ele>
        <time>2013-08-11T11:57:30Z</time>
      </trkpt>
      <trkpt lat="48.65527" lon="7.28565">
        <ele>647.59</ele>
        <time>2013-08-11T11:57:56Z</time>
      </trkpt>
      <trkpt lat="48.65515" lon="7.28539">
        <ele>651.55</ele>
        <time>2013-08-11T12:04:31Z</time>
      </trkpt>
      <trkpt lat="48.65498" lon="7.28522">
        <ele>651.91</ele>
        <time>2013-08-11T12:04:36Z</time>
      </trkpt>
      <trkpt lat="48.65484" lon="7.28497">
        <ele>651.66</ele>
        <time>2013-08-11T12:04:41Z</time>
      </trkpt>
      <trkpt lat="48.65471" lon="7.28477">
        <ele>652.05</ele>
        <time>2013-08-11T12:04:45Z</time>
      </trkpt>
      <trkpt lat="48.65453" lon="7.28458">
        <ele>652.86</ele>
        <time>2013-08-11T12:04:49Z</time>
      </trkpt>
      <trkpt lat="48.65437" lon="7.28439">
        <ele>653.8</ele>
        <time>2013-08-11T12:04:53Z</time>
      </trkpt>
      <trkpt lat="48.65421" lon="7.28426">
        <ele>654.92</ele>
        <time>2013-08-11T12:04:57Z</time>
      </trkpt>
      <trkpt lat="48.65403" lon="7.28415">
        <ele>655.43</ele>
        <time>2013-08-11T12:05:02Z</time>
      </trkpt>
      <trkpt lat="48.65382" lon="7.28404">
        <ele>657.14</ele>
        <time>2013-08-11T12:05:07Z</time>
      </trkpt>
      <trkpt lat="48.65362" lon="7.28402">
        <ele>658.13</ele>
        <time>2013-08-11T12:05:11Z</time>
      </trkpt>
      <trkpt lat="48.65339" lon="7.28406">
        <ele>655.77</ele>
        <time>2013-08-11T12:05:16Z</time>
      </trkpt>
      <trkpt lat="48.65316" lon="7.28419">
        <ele>651.97</ele>
        <time>2013-08-11T12:05:24Z</time>
      </trkpt>
      <trkpt lat="48.65298" lon="7.28432">
        <ele>650.26</ele>
        <time>2013-08-11T12:05:30Z</time>
      </trkpt>
      <trkpt lat="48.65279" lon="7.28443">
        <ele>646.26</ele>
        <time>2013-08-11T12:05:34Z</time>
      </trkpt>
      <trkpt lat="48.6526" lon="7.28447">
        <ele>642.49</ele>
        <time>2013-08-11T12:05:38Z</time>
      </trkpt>
      <trkpt lat="48.6524" lon="7.28456">
        <ele>641.63</ele>
        <time>2013-08-11T12:05:42Z</time>
      </trkpt>
      <trkpt lat="48.65219" lon="7.28467">
        <ele>641.6</ele>
        <time>2013-08-11T12:05:46Z</time>
      </trkpt>
      <trkpt lat="48.65203" lon="7.28479">
        <ele>641.59</ele>
        <time>2013-08-11T12:05:50Z</time>
      </trkpt>
      <trkpt lat="48.65182" lon="7.2849">
        <ele>641.15</ele>
        <time>2013-08-11T12:05:54Z</time>
      </trkpt>
      <trkpt lat="48.65162" lon="7.28499">
        <ele>640.83</ele>
        <time>2013-08-11T12:05:57Z</time>
      </trkpt>
      <trkpt lat="48.65144" lon="7.28505">
        <ele>641.13</ele>
        <time>2013-08-11T12:06:00Z</time>
      </trkpt>
      <trkpt lat="48.65126" lon="7.28516">
        <ele>641.4</ele>
        <time>2013-08-11T12:06:03Z</time>
      </trkpt>
      <trkpt lat="48.65103" lon="7.28531">
        <ele>640.95</ele>
        <time>2013-08-11T12:06:07Z</time>
      </trkpt>
      <trkpt lat="48.65085" lon="7.28542">
        <ele>640.74</ele>
        <time>2013-08-11T12:06:10Z</time>
      </trkpt>
      <trkpt lat="48.65066" lon="7.28548">
        <ele>641.23</ele>
        <time>2013-08-11T12:06:13Z</time>
      </trkpt>
      <trkpt lat="48.65048" lon="7.28552">
        <ele>641.88</ele>
        <time>2013-08-11T12:06:16Z</time>
      </trkpt>
      <trkpt lat="48.65029" lon="7.28554">
        <ele>642.54</ele>
        <time>2013-08-11T12:06:19Z</time>
      </trkpt>
      <trkpt lat="48.65009" lon="7.28563">
        <ele>643.26</ele>
        <time>2013-08-11T12:06:23Z</time>
      </trkpt>
      <trkpt lat="48.64991" lon="7.28574">
        <ele>643.27</ele>
        <time>2013-08-11T12:06:28Z</time>
      </trkpt>
      <trkpt lat="48.64972" lon="7.28585">
        <ele>643.53</ele>
        <time>2013-08-11T12:06:34Z</time>
      </trkpt>
      <trkpt lat="48.64953" lon="7.28593">
        <ele>643.58</ele>
        <time>2013-08-11T12:06:40Z</time>
      </trkpt>
      <trkpt lat="48.64934" lon="7.28597">
        <ele>643.59</ele>
        <time>2013-08-11T12:06:48Z</time>
      </trkpt>
      <trkpt lat="48.64916" lon="7.28595">
        <ele>643.59</ele>
        <time>2013-08-11T12:06:55Z</time>
      </trkpt>
      <trkpt lat="48.64897" lon="7.28587">
        <ele>643.34</ele>
        <time>2013-08-11T12:07:01Z</time>
      </trkpt>
      <trkpt lat="48.64881" lon="7.28574">
        <ele>642.77</ele>
        <time>2013-08-11T12:07:06Z</time>
      </trkpt>
      <trkpt lat="48.64863" lon="7.28559">
        <ele>642.04</ele>
        <time>2013-08-11T12:07:12Z</time>
      </trkpt>
      <trkpt lat="48.64848" lon="7.28537">
        <ele>641.67</ele>
        <time>2013-08-11T12:07:18Z</time>
      </trkpt>
      <trkpt lat="48.64839" lon="7.28509">
        <ele>640.92</ele>
        <time>2013-08-11T12:07:25Z</time>
      </trkpt>
      <trkpt lat="48.64832" lon="7.28484">
        <ele>640.65</ele>
        <time>2013-08-11T12:07:31Z</time>
      </trkpt>
      <trkpt lat="48.64827" lon="7.28454">
        <ele>640.16</ele>
        <time>2013-08-11T12:07:38Z</time>
      </trkpt>
      <trkpt lat="48.64822" lon="7.28424">
        <ele>639.67</ele>
        <time>2013-08-11T12:07:45Z</time>
      </trkpt>
      <trkpt lat="48.64816" lon="7.28394">
        <ele>639.6</ele>
        <time>2013-08-11T12:07:53Z</time>
      </trkpt>
      <trkpt lat="48.64807" lon="7.28368">
        <ele>639.59</ele>
        <time>2013-08-11T12:07:59Z</time>
      </trkpt>
      <trkpt lat="48.64798" lon="7.28342">
        <ele>639.59</ele>
        <time>2013-08-11T12:08:05Z</time>
      </trkpt>
      <trkpt lat="48.64787" lon="7.28316">
        <ele>639.59</ele>
        <time>2013-08-11T12:08:11Z</time>
      </trkpt>
      <trkpt lat="48.64777" lon="7.28291">
        <ele>639.59</ele>
        <time>2013-08-11T12:08:17Z</time>
      </trkpt>
      <trkpt lat="48.64768" lon="7.28265">
        <ele>639.59</ele>
        <time>2013-08-11T12:08:23Z</time>
      </trkpt>
      <trkpt lat="48.64757" lon="7.28241">
        <ele>639.59</ele>
        <time>2013-08-11T12:08:30Z</time>
      </trkpt>
      <trkpt lat="48.64743" lon="7.2822">
        <ele>640.49</ele>
        <time>2013-08-11T12:08:39Z</time>
      </trkpt>
      <trkpt lat="48.64728" lon="7.28205">
        <ele>640.57</ele>
        <time>2013-08-11T12:08:45Z</time>
      </trkpt>
      <trkpt lat="48.64707" lon="7.28196">
        <ele>640.59</ele>
        <time>2013-08-11T12:08:52Z</time>
      </trkpt>
      <trkpt lat="48.64688" lon="7.2819">
        <ele>640.59</ele>
        <time>2013-08-11T12:08:59Z</time>
      </trkpt>
      <trkpt lat="48.64671" lon="7.28179">
        <ele>640.59</ele>
        <time>2013-08-11T12:09:06Z</time>
      </trkpt>
      <trkpt lat="48.64656" lon="7.28164">
        <ele>642.69</ele>
        <time>2013-08-11T12:09:14Z</time>
      </trkpt>
      <trkpt lat="48.64643" lon="7.28142">
        <ele>644.87</ele>
        <time>2013-08-11T12:09:21Z</time>
      </trkpt>
      <trkpt lat="48.64631" lon="7.28119">
        <ele>646.51</ele>
        <time>2013-08-11T12:09:28Z</time>
      </trkpt>
      <trkpt lat="48.64622" lon="7.28093">
        <ele>648.24</ele>
        <time>2013-08-11T12:09:36Z</time>
      </trkpt>
      <trkpt lat="48.64609" lon="7.2807">
        <ele>649.85</ele>
        <time>2013-08-11T12:09:43Z</time>
      </trkpt>
      <trkpt lat="48.64597" lon="7.28044">
        <ele>651.17</ele>
        <time>2013-08-11T12:09:50Z</time>
      </trkpt>
      <trkpt lat="48.64591" lon="7.28018">
        <ele>652.84</ele>
        <time>2013-08-11T12:09:57Z</time>
      </trkpt>
      <trkpt lat="48.64584" lon="7.27992">
        <ele>654.2</ele>
        <time>2013-08-11T12:10:05Z</time>
      </trkpt>
      <trkpt lat="48.64578" lon="7.27967">
        <ele>655.59</ele>
        <time>2013-08-11T12:10:27Z</time>
      </trkpt>
      <trkpt lat="48.6456" lon="7.27958">
        <ele>653.72</ele>
        <time>2013-08-11T12:10:45Z</time>
      </trkpt>
      <trkpt lat="48.64542" lon="7.27949">
        <ele>660.47</ele>
        <time>2013-08-11T12:11:48Z</time>
      </trkpt>
      <trkpt lat="48.64527" lon="7.27932">
        <ele>661.45</ele>
        <time>2013-08-11T12:11:58Z</time>
      </trkpt>
      <trkpt lat="48.64511" lon="7.27917">
        <ele>662.48</ele>
        <time>2013-08-11T12:12:08Z</time>
      </trkpt>
      <trkpt lat="48.64496" lon="7.27902">
        <ele>663.94</ele>
        <time>2013-08-11T12:12:17Z</time>
      </trkpt>
      <trkpt lat="48.64481" lon="7.27887">
        <ele>666</ele>
        <time>2013-08-11T12:12:27Z</time>
      </trkpt>
      <trkpt lat="48.64465" lon="7.27874">
        <ele>667.85</ele>
        <time>2013-08-11T12:12:36Z</time>
      </trkpt>
      <trkpt lat="48.64449" lon="7.27859">
        <ele>669.98</ele>
        <time>2013-08-11T12:12:45Z</time>
      </trkpt>
      <trkpt lat="48.64432" lon="7.27844">
        <ele>672.02</ele>
        <time>2013-08-11T12:12:54Z</time>
      </trkpt>
      <trkpt lat="48.64416" lon="7.27831">
        <ele>674.5</ele>
        <time>2013-08-11T12:13:04Z</time>
      </trkpt>
      <trkpt lat="48.64401" lon="7.27816">
        <ele>676.79</ele>
        <time>2013-08-11T12:13:14Z</time>
      </trkpt>
      <trkpt lat="48.64382" lon="7.27806">
        <ele>678.41</ele>
        <time>2013-08-11T12:13:24Z</time>
      </trkpt>
      <trkpt lat="48.64366" lon="7.27793">
        <ele>678.57</ele>
        <time>2013-08-11T12:13:32Z</time>
      </trkpt>
      <trkpt lat="48.64348" lon="7.27788">
        <ele>679.27</ele>
        <time>2013-08-11T12:13:40Z</time>
      </trkpt>
      <trkpt lat="48.64329" lon="7.27786">
        <ele>679.56</ele>
        <time>2013-08-11T12:13:48Z</time>
      </trkpt>
      <trkpt lat="48.64311" lon="7.27788">
        <ele>680.27</ele>
        <time>2013-08-11T12:13:56Z</time>
      </trkpt>
      <trkpt lat="48.6429" lon="7.27791">
        <ele>680.57</ele>
        <time>2013-08-11T12:14:05Z</time>
      </trkpt>
      <trkpt lat="48.64271" lon="7.27797">
        <ele>682.07</ele>
        <time>2013-08-11T12:14:13Z</time>
      </trkpt>
      <trkpt lat="48.64253" lon="7.27803">
        <ele>683.3</ele>
        <time>2013-08-11T12:14:21Z</time>
      </trkpt>
      <trkpt lat="48.64235" lon="7.27814">
        <ele>684.62</ele>
        <time>2013-08-11T12:14:28Z</time>
      </trkpt>
      <trkpt lat="48.64216" lon="7.27823">
        <ele>685.9</ele>
        <time>2013-08-11T12:14:35Z</time>
      </trkpt>
      <trkpt lat="48.64197" lon="7.27831">
        <ele>687.18</ele>
        <time>2013-08-11T12:14:42Z</time>
      </trkpt>
      <trkpt lat="48.64182" lon="7.27846">
        <ele>688.9</ele>
        <time>2013-08-11T12:14:51Z</time>
      </trkpt>
      <trkpt lat="48.64165" lon="7.27857">
        <ele>690.51</ele>
        <time>2013-08-11T12:15:06Z</time>
      </trkpt>
      <trkpt lat="48.64165" lon="7.27829">
        <ele>690.59</ele>
        <time>2013-08-11T12:15:28Z</time>
      </trkpt>
      <trkpt lat="48.6418" lon="7.27814">
        <ele>689.72</ele>
        <time>2013-08-11T12:15:35Z</time>
      </trkpt>
      <trkpt lat="48.64192" lon="7.27788">
        <ele>689.61</ele>
        <time>2013-08-11T12:15:41Z</time>
      </trkpt>
      <trkpt lat="48.64205" lon="7.27765">
        <ele>689.16</ele>
        <time>2013-08-11T12:15:46Z</time>
      </trkpt>
      <trkpt lat="48.64221" lon="7.27743">
        <ele>688.72</ele>
        <time>2013-08-11T12:15:51Z</time>
      </trkpt>
      <trkpt lat="48.64238" lon="7.27724">
        <ele>688.63</ele>
        <time>2013-08-11T12:15:55Z</time>
      </trkpt>
      <trkpt lat="48.64251" lon="7.27707">
        <ele>688.61</ele>
        <time>2013-08-11T12:15:58Z</time>
      </trkpt>
      <trkpt lat="48.64267" lon="7.2769">
        <ele>688.6</ele>
        <time>2013-08-11T12:16:01Z</time>
      </trkpt>
      <trkpt lat="48.64279" lon="7.2767">
        <ele>688.59</ele>
        <time>2013-08-11T12:16:04Z</time>
      </trkpt>
      <trkpt lat="48.64295" lon="7.27645">
        <ele>687.91</ele>
        <time>2013-08-11T12:16:08Z</time>
      </trkpt>
      <trkpt lat="48.64311" lon="7.2763">
        <ele>687.72</ele>
        <time>2013-08-11T12:16:11Z</time>
      </trkpt>
      <trkpt lat="48.64326" lon="7.27615">
        <ele>687.26</ele>
        <time>2013-08-11T12:16:14Z</time>
      </trkpt>
      <trkpt lat="48.64343" lon="7.27597">
        <ele>686.75</ele>
        <time>2013-08-11T12:16:19Z</time>
      </trkpt>
      <trkpt lat="48.64359" lon="7.27585">
        <ele>684.8</ele>
        <time>2013-08-11T12:16:23Z</time>
      </trkpt>
      <trkpt lat="48.6438" lon="7.2757">
        <ele>682.35</ele>
        <time>2013-08-11T12:16:27Z</time>
      </trkpt>
      <trkpt lat="48.64395" lon="7.27552">
        <ele>680.57</ele>
        <time>2013-08-11T12:16:31Z</time>
      </trkpt>
      <trkpt lat="48.64411" lon="7.2754">
        <ele>678.11</ele>
        <time>2013-08-11T12:16:37Z</time>
      </trkpt>
      <trkpt lat="48.64431" lon="7.27527">
        <ele>676.12</ele>
        <time>2013-08-11T12:16:42Z</time>
      </trkpt>
      <trkpt lat="48.6445" lon="7.27525">
        <ele>673.78</ele>
        <time>2013-08-11T12:16:49Z</time>
      </trkpt>
      <trkpt lat="48.6447" lon="7.27527">
        <ele>671.74</ele>
        <time>2013-08-11T12:16:56Z</time>
      </trkpt>
      <trkpt lat="48.64491" lon="7.27525">
        <ele>669.91</ele>
        <time>2013-08-11T12:17:03Z</time>
      </trkpt>
      <trkpt lat="48.64509" lon="7.27509">
        <ele>667.12</ele>
        <time>2013-08-11T12:17:10Z</time>
      </trkpt>
      <trkpt lat="48.64532" lon="7.27505">
        <ele>664.54</ele>
        <time>2013-08-11T12:17:16Z</time>
      </trkpt>
      <trkpt lat="48.64553" lon="7.27514">
        <ele>662.12</ele>
        <time>2013-08-11T12:17:21Z</time>
      </trkpt>
      <trkpt lat="48.64572" lon="7.27507">
        <ele>658.96</ele>
        <time>2013-08-11T12:17:27Z</time>
      </trkpt>
      <trkpt lat="48.64572" lon="7.27479">
        <ele>644.81</ele>
        <time>2013-08-11T12:17:33Z</time>
      </trkpt>
      <trkpt lat="48.64571" lon="7.27449">
        <ele>630.32</ele>
        <time>2013-08-11T12:17:38Z</time>
      </trkpt>
      <trkpt lat="48.64567" lon="7.27417">
        <ele>623.41</ele>
        <time>2013-08-11T12:17:43Z</time>
      </trkpt>
      <trkpt lat="48.64566" lon="7.27385">
        <ele>621.04</ele>
        <time>2013-08-11T12:17:47Z</time>
      </trkpt>
      <trkpt lat="48.64565" lon="7.27357">
        <ele>620.2</ele>
        <time>2013-08-11T12:17:50Z</time>
      </trkpt>
      <trkpt lat="48.64563" lon="7.27329">
        <ele>619.85</ele>
        <time>2013-08-11T12:17:53Z</time>
      </trkpt>
      <trkpt lat="48.64558" lon="7.27299">
        <ele>619.09</ele>
        <time>2013-08-11T12:17:57Z</time>
      </trkpt>
      <trkpt lat="48.64556" lon="7.27269">
        <ele>618.75</ele>
        <time>2013-08-11T12:18:01Z</time>
      </trkpt>
      <trkpt lat="48.64554" lon="7.27237">
        <ele>618.64</ele>
        <time>2013-08-11T12:18:05Z</time>
      </trkpt>
      <trkpt lat="48.64548" lon="7.27207">
        <ele>618.61</ele>
        <time>2013-08-11T12:18:09Z</time>
      </trkpt>
      <trkpt lat="48.64544" lon="7.27177">
        <ele>617.77</ele>
        <time>2013-08-11T12:18:15Z</time>
      </trkpt>
      <trkpt lat="48.64556" lon="7.27151">
        <ele>615.12</ele>
        <time>2013-08-11T12:18:19Z</time>
      </trkpt>
      <trkpt lat="48.64563" lon="7.27121">
        <ele>611.37</ele>
        <time>2013-08-11T12:18:22Z</time>
      </trkpt>
      <trkpt lat="48.64566" lon="7.27091">
        <ele>608.17</ele>
        <time>2013-08-11T12:18:25Z</time>
      </trkpt>
      <trkpt lat="48.64572" lon="7.27065">
        <ele>605.66</ele>
        <time>2013-08-11T12:18:28Z</time>
      </trkpt>
      <trkpt lat="48.64581" lon="7.27033">
        <ele>603.67</ele>
        <time>2013-08-11T12:18:32Z</time>
      </trkpt>
      <trkpt lat="48.64586" lon="7.27005">
        <ele>603.04</ele>
        <time>2013-08-11T12:18:35Z</time>
      </trkpt>
      <trkpt lat="48.64591" lon="7.26977">
        <ele>602.2</ele>
        <time>2013-08-11T12:18:38Z</time>
      </trkpt>
      <trkpt lat="48.64597" lon="7.26947">
        <ele>601.85</ele>
        <time>2013-08-11T12:18:41Z</time>
      </trkpt>
      <trkpt lat="48.64603" lon="7.26922">
        <ele>601.7</ele>
        <time>2013-08-11T12:18:44Z</time>
      </trkpt>
      <trkpt lat="48.64615" lon="7.26894">
        <ele>602.06</ele>
        <time>2013-08-11T12:18:48Z</time>
      </trkpt>
      <trkpt lat="48.64626" lon="7.26864">
        <ele>601.98</ele>
        <time>2013-08-11T12:18:52Z</time>
      </trkpt>
      <trkpt lat="48.64636" lon="7.26836">
        <ele>601.68</ele>
        <time>2013-08-11T12:18:57Z</time>
      </trkpt>
      <trkpt lat="48.64645" lon="7.2681">
        <ele>601.36</ele>
        <time>2013-08-11T12:19:02Z</time>
      </trkpt>
      <trkpt lat="48.64656" lon="7.26784">
        <ele>599.46</ele>
        <time>2013-08-11T12:19:06Z</time>
      </trkpt>
      <trkpt lat="48.64667" lon="7.26756">
        <ele>596.26</ele>
        <time>2013-08-11T12:19:11Z</time>
      </trkpt>
      <trkpt lat="48.64677" lon="7.26728">
        <ele>594.06</ele>
        <time>2013-08-11T12:19:17Z</time>
      </trkpt>
      <trkpt lat="48.64687" lon="7.26701">
        <ele>590.34</ele>
        <time>2013-08-11T12:19:22Z</time>
      </trkpt>
      <trkpt lat="48.64696" lon="7.26675">
        <ele>588.71</ele>
        <time>2013-08-11T12:19:26Z</time>
      </trkpt>
      <trkpt lat="48.64705" lon="7.26645">
        <ele>587.28</ele>
        <time>2013-08-11T12:19:31Z</time>
      </trkpt>
      <trkpt lat="48.64717" lon="7.26615">
        <ele>582.44</ele>
        <time>2013-08-11T12:19:36Z</time>
      </trkpt>
      <trkpt lat="48.64728" lon="7.26591">
        <ele>577.75</ele>
        <time>2013-08-11T12:19:40Z</time>
      </trkpt>
      <trkpt lat="48.64744" lon="7.26559">
        <ele>571.6</ele>
        <time>2013-08-11T12:19:51Z</time>
      </trkpt>
      <trkpt lat="48.64758" lon="7.26535">
        <ele>568.61</ele>
        <time>2013-08-11T12:20:17Z</time>
      </trkpt>
      <trkpt lat="48.64771" lon="7.26516">
        <ele>563.07</ele>
        <time>2013-08-11T12:20:20Z</time>
      </trkpt>
      <trkpt lat="48.64788" lon="7.26497">
        <ele>555.57</ele>
        <time>2013-08-11T12:20:24Z</time>
      </trkpt>
      <trkpt lat="48.648" lon="7.26473">
        <ele>550.65</ele>
        <time>2013-08-11T12:20:30Z</time>
      </trkpt>
      <trkpt lat="48.64806" lon="7.26441">
        <ele>549.29</ele>
        <time>2013-08-11T12:20:37Z</time>
      </trkpt>
      <trkpt lat="48.64813" lon="7.26415">
        <ele>548.47</ele>
        <time>2013-08-11T12:20:43Z</time>
      </trkpt>
      <trkpt lat="48.64804" lon="7.26387">
        <ele>541.43</ele>
        <time>2013-08-11T12:20:58Z</time>
      </trkpt>
      <trkpt lat="48.64787" lon="7.26372">
        <ele>533.69</ele>
        <time>2013-08-11T12:21:03Z</time>
      </trkpt>
      <trkpt lat="48.64772" lon="7.26357">
        <ele>529.62</ele>
        <time>2013-08-11T12:21:07Z</time>
      </trkpt>
      <trkpt lat="48.64754" lon="7.26346">
        <ele>526.3</ele>
        <time>2013-08-11T12:21:12Z</time>
      </trkpt>
      <trkpt lat="48.64739" lon="7.26329">
        <ele>524.88</ele>
        <time>2013-08-11T12:21:16Z</time>
      </trkpt>
      <trkpt lat="48.64722" lon="7.26314">
        <ele>523.12</ele>
        <time>2013-08-11T12:21:19Z</time>
      </trkpt>
      <trkpt lat="48.64706" lon="7.26301">
        <ele>520.97</ele>
        <time>2013-08-11T12:21:22Z</time>
      </trkpt>
      <trkpt lat="48.64687" lon="7.26293">
        <ele>517.64</ele>
        <time>2013-08-11T12:21:26Z</time>
      </trkpt>
      <trkpt lat="48.64669" lon="7.26293">
        <ele>514.77</ele>
        <time>2013-08-11T12:21:36Z</time>
      </trkpt>
      <trkpt lat="48.64682" lon="7.26269">
        <ele>512.83</ele>
        <time>2013-08-11T12:23:02Z</time>
      </trkpt>
      <trkpt lat="48.64702" lon="7.26256">
        <ele>513.57</ele>
        <time>2013-08-11T12:23:22Z</time>
      </trkpt>
      <trkpt lat="48.64719" lon="7.26243">
        <ele>510.93</ele>
        <time>2013-08-11T12:24:32Z</time>
      </trkpt>
      <trkpt lat="48.64734" lon="7.26226">
        <ele>509.47</ele>
        <time>2013-08-11T12:24:37Z</time>
      </trkpt>
      <trkpt lat="48.64751" lon="7.26209">
        <ele>508.75</ele>
        <time>2013-08-11T12:24:43Z</time>
      </trkpt>
      <trkpt lat="48.64768" lon="7.26196">
        <ele>507.71</ele>
        <time>2013-08-11T12:24:51Z</time>
      </trkpt>
      <trkpt lat="48.64785" lon="7.26188">
        <ele>507.18</ele>
        <time>2013-08-11T12:25:07Z</time>
      </trkpt>
      <trkpt lat="48.64802" lon="7.26175">
        <ele>510.78</ele>
        <time>2013-08-11T12:25:26Z</time>
      </trkpt>
      <trkpt lat="48.64818" lon="7.2616">
        <ele>512.17</ele>
        <time>2013-08-11T12:25:53Z</time>
      </trkpt>
      <trkpt lat="48.64836" lon="7.26151">
        <ele>514</ele>
        <time>2013-08-11T12:26:02Z</time>
      </trkpt>
      <trkpt lat="48.64853" lon="7.26143">
        <ele>516.9</ele>
        <time>2013-08-11T12:26:12Z</time>
      </trkpt>
      <trkpt lat="48.64873" lon="7.26136">
        <ele>518.4</ele>
        <time>2013-08-11T12:26:21Z</time>
      </trkpt>
      <trkpt lat="48.64889" lon="7.26121">
        <ele>518.58</ele>
        <time>2013-08-11T12:26:30Z</time>
      </trkpt>
      <trkpt lat="48.64903" lon="7.26102">
        <ele>518.59</ele>
        <time>2013-08-11T12:26:38Z</time>
      </trkpt>
      <trkpt lat="48.64917" lon="7.26083">
        <ele>518.59</ele>
        <time>2013-08-11T12:26:46Z</time>
      </trkpt>
      <trkpt lat="48.6493" lon="7.26059">
        <ele>518.34</ele>
        <time>2013-08-11T12:26:54Z</time>
      </trkpt>
      <trkpt lat="48.64942" lon="7.26035">
        <ele>517.67</ele>
        <time>2013-08-11T12:27:02Z</time>
      </trkpt>
      <trkpt lat="48.64954" lon="7.26012">
        <ele>517.6</ele>
        <time>2013-08-11T12:27:11Z</time>
      </trkpt>
      <trkpt lat="48.64966" lon="7.25988">
        <ele>517.59</ele>
        <time>2013-08-11T12:27:21Z</time>
      </trkpt>
      <trkpt lat="48.6498" lon="7.25967">
        <ele>518.17</ele>
        <time>2013-08-11T12:27:31Z</time>
      </trkpt>
      <trkpt lat="48.64995" lon="7.25947">
        <ele>519.64</ele>
        <time>2013-08-11T12:27:41Z</time>
      </trkpt>
      <trkpt lat="48.6501" lon="7.25932">
        <ele>521.18</ele>
        <time>2013-08-11T12:27:49Z</time>
      </trkpt>
      <trkpt lat="48.65024" lon="7.25915">
        <ele>523.14</ele>
        <time>2013-08-11T12:27:58Z</time>
      </trkpt>
      <trkpt lat="48.65036" lon="7.25894">
        <ele>525.14</ele>
        <time>2013-08-11T12:28:07Z</time>
      </trkpt>
      <trkpt lat="48.65051" lon="7.25879">
        <ele>525.51</ele>
        <time>2013-08-11T12:28:13Z</time>
      </trkpt>
      <trkpt lat="48.65066" lon="7.25859">
        <ele>526.4</ele>
        <time>2013-08-11T12:28:20Z</time>
      </trkpt>
      <trkpt lat="48.65078" lon="7.25834">
        <ele>527.01</ele>
        <time>2013-08-11T12:28:29Z</time>
      </trkpt>
      <trkpt lat="48.65087" lon="7.25808">
        <ele>527.55</ele>
        <time>2013-08-11T12:28:38Z</time>
      </trkpt>
      <trkpt lat="48.65094" lon="7.25782">
        <ele>528.49</ele>
        <time>2013-08-11T12:28:47Z</time>
      </trkpt>
      <trkpt lat="48.65095" lon="7.25754">
        <ele>529.51</ele>
        <time>2013-08-11T12:28:56Z</time>
      </trkpt>
      <trkpt lat="48.65089" lon="7.25724">
        <ele>530.48</ele>
        <time>2013-08-11T12:29:05Z</time>
      </trkpt>
      <trkpt lat="48.6508" lon="7.25696">
        <ele>531.76</ele>
        <time>2013-08-11T12:29:14Z</time>
      </trkpt>
      <trkpt lat="48.65075" lon="7.25668">
        <ele>532.92</ele>
        <time>2013-08-11T12:29:21Z</time>
      </trkpt>
      <trkpt lat="48.6507" lon="7.25641">
        <ele>533.47</ele>
        <time>2013-08-11T12:29:27Z</time>
      </trkpt>
      <trkpt lat="48.6506" lon="7.25613">
        <ele>534.73</ele>
        <time>2013-08-11T12:29:35Z</time>
      </trkpt>
      <trkpt lat="48.6506" lon="7.25583">
        <ele>535.44</ele>
        <time>2013-08-11T12:29:41Z</time>
      </trkpt>
      <trkpt lat="48.65078" lon="7.25572">
        <ele>535.12</ele>
        <time>2013-08-11T12:29:46Z</time>
      </trkpt>
      <trkpt lat="48.65099" lon="7.25565">
        <ele>534.76</ele>
        <time>2013-08-11T12:29:50Z</time>
      </trkpt>
      <trkpt lat="48.65114" lon="7.2555">
        <ele>535.9</ele>
        <time>2013-08-11T12:30:01Z</time>
      </trkpt>
      <trkpt lat="48.65124" lon="7.25525">
        <ele>536.86</ele>
        <time>2013-08-11T12:30:06Z</time>
      </trkpt>
      <trkpt lat="48.6514" lon="7.25501">
        <ele>538.29</ele>
        <time>2013-08-11T12:30:10Z</time>
      </trkpt>
      <trkpt lat="48.65154" lon="7.25484">
        <ele>539.04</ele>
        <time>2013-08-11T12:30:13Z</time>
      </trkpt>
      <trkpt lat="48.6517" lon="7.25471">
        <ele>539.8</ele>
        <time>2013-08-11T12:30:16Z</time>
      </trkpt>
      <trkpt lat="48.65192" lon="7.25465">
        <ele>540.34</ele>
        <time>2013-08-11T12:30:20Z</time>
      </trkpt>
      <trkpt lat="48.65213" lon="7.25458">
        <ele>541.44</ele>
        <time>2013-08-11T12:30:24Z</time>
      </trkpt>
      <trkpt lat="48.65231" lon="7.25452">
        <ele>542.66</ele>
        <time>2013-08-11T12:30:28Z</time>
      </trkpt>
      <trkpt lat="48.6525" lon="7.25443">
        <ele>544.13</ele>
        <time>2013-08-11T12:30:33Z</time>
      </trkpt>
      <trkpt lat="48.6527" lon="7.25435">
        <ele>545.85</ele>
        <time>2013-08-11T12:30:38Z</time>
      </trkpt>
      <trkpt lat="48.65287" lon="7.25426">
        <ele>547.29</ele>
        <time>2013-08-11T12:30:42Z</time>
      </trkpt>
      <trkpt lat="48.65305" lon="7.25422">
        <ele>548.62</ele>
        <time>2013-08-11T12:30:46Z</time>
      </trkpt>
      <trkpt lat="48.65324" lon="7.25415">
        <ele>550.79</ele>
        <time>2013-08-11T12:30:50Z</time>
      </trkpt>
      <trkpt lat="48.65344" lon="7.254">
        <ele>553.28</ele>
        <time>2013-08-11T12:30:55Z</time>
      </trkpt>
      <trkpt lat="48.65361" lon="7.25381">
        <ele>554.86</ele>
        <time>2013-08-11T12:31:00Z</time>
      </trkpt>
      <trkpt lat="48.65377" lon="7.25362">
        <ele>555.42</ele>
        <time>2013-08-11T12:31:05Z</time>
      </trkpt>
      <trkpt lat="48.6539" lon="7.25342">
        <ele>555.54</ele>
        <time>2013-08-11T12:31:09Z</time>
      </trkpt>
      <trkpt lat="48.65406" lon="7.25323">
        <ele>555.58</ele>
        <time>2013-08-11T12:31:14Z</time>
      </trkpt>
      <trkpt lat="48.6542" lon="7.25299">
        <ele>555.59</ele>
        <time>2013-08-11T12:31:19Z</time>
      </trkpt>
      <trkpt lat="48.65432" lon="7.25278">
        <ele>555.59</ele>
        <time>2013-08-11T12:31:24Z</time>
      </trkpt>
      <trkpt lat="48.65446" lon="7.25254">
        <ele>555.34</ele>
        <time>2013-08-11T12:31:29Z</time>
      </trkpt>
      <trkpt lat="48.65458" lon="7.25231">
        <ele>554.77</ele>
        <time>2013-08-11T12:31:34Z</time>
      </trkpt>
      <trkpt lat="48.65472" lon="7.25207">
        <ele>554.63</ele>
        <time>2013-08-11T12:31:39Z</time>
      </trkpt>
      <trkpt lat="48.65486" lon="7.25183">
        <ele>554.17</ele>
        <time>2013-08-11T12:31:43Z</time>
      </trkpt>
      <trkpt lat="48.65498" lon="7.25162">
        <ele>553.83</ele>
        <time>2013-08-11T12:31:46Z</time>
      </trkpt>
      <trkpt lat="48.65512" lon="7.25141">
        <ele>553.94</ele>
        <time>2013-08-11T12:31:49Z</time>
      </trkpt>
      <trkpt lat="48.65525" lon="7.25121">
        <ele>554.32</ele>
        <time>2013-08-11T12:31:52Z</time>
      </trkpt>
      <trkpt lat="48.6554" lon="7.25096">
        <ele>555.08</ele>
        <time>2013-08-11T12:31:56Z</time>
      </trkpt>
      <trkpt lat="48.65554" lon="7.25068">
        <ele>555.43</ele>
        <time>2013-08-11T12:32:00Z</time>
      </trkpt>
      <trkpt lat="48.65567" lon="7.2504">
        <ele>554.94</ele>
        <time>2013-08-11T12:32:03Z</time>
      </trkpt>
      <trkpt lat="48.65582" lon="7.25012">
        <ele>554.16</ele>
        <time>2013-08-11T12:32:06Z</time>
      </trkpt>
      <trkpt lat="48.65597" lon="7.24984">
        <ele>553.58</ele>
        <time>2013-08-11T12:32:09Z</time>
      </trkpt>
      <trkpt lat="48.65612" lon="7.24956">
        <ele>552.76</ele>
        <time>2013-08-11T12:32:12Z</time>
      </trkpt>
      <trkpt lat="48.65627" lon="7.24926">
        <ele>551.4</ele>
        <time>2013-08-11T12:32:15Z</time>
      </trkpt>
      <trkpt lat="48.6564" lon="7.24894">
        <ele>549.91</ele>
        <time>2013-08-11T12:32:18Z</time>
      </trkpt>
      <trkpt lat="48.65652" lon="7.24859">
        <ele>548.71</ele>
        <time>2013-08-11T12:32:21Z</time>
      </trkpt>
      <trkpt lat="48.65664" lon="7.24827">
        <ele>547.81</ele>
        <time>2013-08-11T12:32:24Z</time>
      </trkpt>
      <trkpt lat="48.6568" lon="7.24795">
        <ele>546.86</ele>
        <time>2013-08-11T12:32:27Z</time>
      </trkpt>
      <trkpt lat="48.65693" lon="7.24767">
        <ele>546.12</ele>
        <time>2013-08-11T12:32:30Z</time>
      </trkpt>
      <trkpt lat="48.65707" lon="7.24737">
        <ele>545.82</ele>
        <time>2013-08-11T12:32:33Z</time>
      </trkpt>
      <trkpt lat="48.65722" lon="7.24707">
        <ele>545.25</ele>
        <time>2013-08-11T12:32:36Z</time>
      </trkpt>
      <trkpt lat="48.65737" lon="7.24677">
        <ele>544.62</ele>
        <time>2013-08-11T12:32:39Z</time>
      </trkpt>
      <trkpt lat="48.65754" lon="7.24653">
        <ele>544.02</ele>
        <time>2013-08-11T12:32:42Z</time>
      </trkpt>
      <trkpt lat="48.6577" lon="7.24638">
        <ele>542.94</ele>
        <time>2013-08-11T12:32:45Z</time>
      </trkpt>
      <trkpt lat="48.65789" lon="7.24623">
        <ele>541.91</ele>
        <time>2013-08-11T12:32:50Z</time>
      </trkpt>
      <trkpt lat="48.65775" lon="7.24602">
        <ele>520.14</ele>
        <time>2013-08-11T12:32:58Z</time>
      </trkpt>
      <trkpt lat="48.65756" lon="7.24608">
        <ele>508.62</ele>
        <time>2013-08-11T12:33:01Z</time>
      </trkpt>
      <trkpt lat="48.65737" lon="7.24606">
        <ele>500.73</ele>
        <time>2013-08-11T12:33:04Z</time>
      </trkpt>
      <trkpt lat="48.65715" lon="7.24608">
        <ele>493.33</ele>
        <time>2013-08-11T12:33:09Z</time>
      </trkpt>
      <trkpt lat="48.65696" lon="7.24608">
        <ele>489.95</ele>
        <time>2013-08-11T12:33:13Z</time>
      </trkpt>
      <trkpt lat="48.65677" lon="7.24613">
        <ele>487.76</ele>
        <time>2013-08-11T12:33:17Z</time>
      </trkpt>
      <trkpt lat="48.65656" lon="7.24621">
        <ele>486.66</ele>
        <time>2013-08-11T12:33:27Z</time>
      </trkpt>
      <trkpt lat="48.6564" lon="7.24641">
        <ele>485.24</ele>
        <time>2013-08-11T12:33:31Z</time>
      </trkpt>
      <trkpt lat="48.65625" lon="7.2466">
        <ele>482.58</ele>
        <time>2013-08-11T12:33:34Z</time>
      </trkpt>
      <trkpt lat="48.65608" lon="7.24673">
        <ele>478.26</ele>
        <time>2013-08-11T12:33:38Z</time>
      </trkpt>
      <trkpt lat="48.65601" lon="7.24643">
        <ele>472.65</ele>
        <time>2013-08-11T12:33:46Z</time>
      </trkpt>
      <trkpt lat="48.65613" lon="7.24617">
        <ele>469.05</ele>
        <time>2013-08-11T12:33:50Z</time>
      </trkpt>
      <trkpt lat="48.65622" lon="7.24585">
        <ele>466.79</ele>
        <time>2013-08-11T12:33:54Z</time>
      </trkpt>
      <trkpt lat="48.65626" lon="7.24557">
        <ele>466.1</ele>
        <time>2013-08-11T12:33:57Z</time>
      </trkpt>
      <trkpt lat="48.65634" lon="7.24527">
        <ele>465.31</ele>
        <time>2013-08-11T12:34:01Z</time>
      </trkpt>
      <trkpt lat="48.65645" lon="7.24501">
        <ele>465.07</ele>
        <time>2013-08-11T12:34:05Z</time>
      </trkpt>
      <trkpt lat="48.65626" lon="7.24497">
        <ele>465.34</ele>
        <time>2013-08-11T12:34:35Z</time>
      </trkpt>
      <trkpt lat="48.65626" lon="7.24458">
        <ele>462.83</ele>
        <time>2013-08-11T12:35:04Z</time>
      </trkpt>
      <trkpt lat="48.65629" lon="7.24428">
        <ele>461.78</ele>
        <time>2013-08-11T12:35:14Z</time>
      </trkpt>
      <trkpt lat="48.65645" lon="7.24413">
        <ele>460.78</ele>
        <time>2013-08-11T12:35:23Z</time>
      </trkpt>
      <trkpt lat="48.65662" lon="7.24405">
        <ele>459.49</ele>
        <time>2013-08-11T12:35:32Z</time>
      </trkpt>
      <trkpt lat="48.65685" lon="7.24387">
        <ele>457.12</ele>
        <time>2013-08-11T12:35:54Z</time>
      </trkpt>
      <trkpt lat="48.65693" lon="7.24362">
        <ele>455.22</ele>
        <time>2013-08-11T12:36:05Z</time>
      </trkpt>
      <trkpt lat="48.65701" lon="7.24332">
        <ele>453.54</ele>
        <time>2013-08-11T12:36:13Z</time>
      </trkpt>
      <trkpt lat="48.65703" lon="7.24302">
        <ele>452.56</ele>
        <time>2013-08-11T12:36:18Z</time>
      </trkpt>
      <trkpt lat="48.65701" lon="7.24274">
        <ele>451.9</ele>
        <time>2013-08-11T12:36:22Z</time>
      </trkpt>
      <trkpt lat="48.65695" lon="7.24246">
        <ele>450.9</ele>
        <time>2013-08-11T12:36:27Z</time>
      </trkpt>
      <trkpt lat="48.65686" lon="7.24218">
        <ele>449.88</ele>
        <time>2013-08-11T12:36:33Z</time>
      </trkpt>
      <trkpt lat="48.65673" lon="7.24199">
        <ele>448.71</ele>
        <time>2013-08-11T12:36:42Z</time>
      </trkpt>
      <trkpt lat="48.65656" lon="7.24188">
        <ele>447.7</ele>
        <time>2013-08-11T12:36:52Z</time>
      </trkpt>
      <trkpt lat="48.65638" lon="7.24181">
        <ele>447.59</ele>
        <time>2013-08-11T12:37:03Z</time>
      </trkpt>
      <trkpt lat="48.6562" lon="7.24173">
        <ele>447.84</ele>
        <time>2013-08-11T12:37:12Z</time>
      </trkpt>
      <trkpt lat="48.65604" lon="7.2416">
        <ele>448.53</ele>
        <time>2013-08-11T12:37:21Z</time>
      </trkpt>
      <trkpt lat="48.65586" lon="7.24151">
        <ele>449.27</ele>
        <time>2013-08-11T12:37:31Z</time>
      </trkpt>
      <trkpt lat="48.65567" lon="7.24143">
        <ele>450.33</ele>
        <time>2013-08-11T12:37:41Z</time>
      </trkpt>
      <trkpt lat="48.65549" lon="7.2413">
        <ele>451.73</ele>
        <time>2013-08-11T12:37:52Z</time>
      </trkpt>
      <trkpt lat="48.6553" lon="7.24121">
        <ele>453.21</ele>
        <time>2013-08-11T12:38:01Z</time>
      </trkpt>
      <trkpt lat="48.65512" lon="7.24119">
        <ele>454.63</ele>
        <time>2013-08-11T12:38:10Z</time>
      </trkpt>
      <trkpt lat="48.65494" lon="7.24115">
        <ele>456.07</ele>
        <time>2013-08-11T12:38:18Z</time>
      </trkpt>
      <trkpt lat="48.65475" lon="7.24119">
        <ele>457.12</ele>
        <time>2013-08-11T12:38:26Z</time>
      </trkpt>
      <trkpt lat="48.65456" lon="7.24104">
        <ele>457.78</ele>
        <time>2013-08-11T12:38:33Z</time>
      </trkpt>
      <trkpt lat="48.6545" lon="7.24076">
        <ele>458.4</ele>
        <time>2013-08-11T12:38:38Z</time>
      </trkpt>
      <trkpt lat="48.65449" lon="7.24044">
        <ele>459.23</ele>
        <time>2013-08-11T12:38:43Z</time>
      </trkpt>
      <trkpt lat="48.65453" lon="7.24014">
        <ele>460.08</ele>
        <time>2013-08-11T12:38:48Z</time>
      </trkpt>
      <trkpt lat="48.65462" lon="7.23986">
        <ele>460.72</ele>
        <time>2013-08-11T12:38:53Z</time>
      </trkpt>
      <trkpt lat="48.65465" lon="7.23956">
        <ele>461.47</ele>
        <time>2013-08-11T12:39:00Z</time>
      </trkpt>
      <trkpt lat="48.65458" lon="7.23928">
        <ele>462.39</ele>
        <time>2013-08-11T12:39:06Z</time>
      </trkpt>
      <trkpt lat="48.65452" lon="7.23902">
        <ele>462.55</ele>
        <time>2013-08-11T12:39:12Z</time>
      </trkpt>
      <trkpt lat="48.65443" lon="7.23875">
        <ele>463.41</ele>
        <time>2013-08-11T12:39:18Z</time>
      </trkpt>
      <trkpt lat="48.65438" lon="7.23847">
        <ele>463.55</ele>
        <time>2013-08-11T12:39:23Z</time>
      </trkpt>
      <trkpt lat="48.6543" lon="7.23821">
        <ele>464.34</ele>
        <time>2013-08-11T12:39:28Z</time>
      </trkpt>
      <trkpt lat="48.65422" lon="7.23795">
        <ele>464.53</ele>
        <time>2013-08-11T12:39:33Z</time>
      </trkpt>
      <trkpt lat="48.65416" lon="7.23763">
        <ele>465.51</ele>
        <time>2013-08-11T12:39:39Z</time>
      </trkpt>
      <trkpt lat="48.6541" lon="7.23735">
        <ele>466.33</ele>
        <time>2013-08-11T12:39:44Z</time>
      </trkpt>
      <trkpt lat="48.65406" lon="7.23707">
        <ele>466.54</ele>
        <time>2013-08-11T12:39:50Z</time>
      </trkpt>
      <trkpt lat="48.65404" lon="7.23677">
        <ele>467.4</ele>
        <time>2013-08-11T12:39:56Z</time>
      </trkpt>
      <trkpt lat="48.65399" lon="7.23649">
        <ele>467.81</ele>
        <time>2013-08-11T12:40:02Z</time>
      </trkpt>
      <trkpt lat="48.65392" lon="7.23624">
        <ele>468.45</ele>
        <time>2013-08-11T12:40:08Z</time>
      </trkpt>
      <trkpt lat="48.65379" lon="7.23604">
        <ele>468.57</ele>
        <time>2013-08-11T12:40:14Z</time>
      </trkpt>
      <trkpt lat="48.65366" lon="7.23576">
        <ele>468.59</ele>
        <time>2013-08-11T12:40:21Z</time>
      </trkpt>
      <trkpt lat="48.65359" lon="7.23551">
        <ele>468.59</ele>
        <time>2013-08-11T12:40:27Z</time>
      </trkpt>
      <trkpt lat="48.6536" lon="7.23523">
        <ele>468.59</ele>
        <time>2013-08-11T12:40:36Z</time>
      </trkpt>
      <trkpt lat="48.65379" lon="7.23516">
        <ele>468.59</ele>
        <time>2013-08-11T12:40:46Z</time>
      </trkpt>
      <trkpt lat="48.65396" lon="7.23508">
        <ele>468.59</ele>
        <time>2013-08-11T12:40:54Z</time>
      </trkpt>
      <trkpt lat="48.65404" lon="7.23482">
        <ele>469.41</ele>
        <time>2013-08-11T12:41:02Z</time>
      </trkpt>
      <trkpt lat="48.65402" lon="7.23454">
        <ele>470.32</ele>
        <time>2013-08-11T12:41:08Z</time>
      </trkpt>
      <trkpt lat="48.65399" lon="7.23426">
        <ele>471.21</ele>
        <time>2013-08-11T12:41:13Z</time>
      </trkpt>
      <trkpt lat="48.65399" lon="7.23394">
        <ele>471.5</ele>
        <time>2013-08-11T12:41:18Z</time>
      </trkpt>
      <trkpt lat="48.65403" lon="7.23366">
        <ele>472.16</ele>
        <time>2013-08-11T12:41:25Z</time>
      </trkpt>
      <trkpt lat="48.65422" lon="7.2336">
        <ele>472.58</ele>
        <time>2013-08-11T12:41:37Z</time>
      </trkpt>
      <trkpt lat="48.65437" lon="7.23342">
        <ele>473.41</ele>
        <time>2013-08-11T12:41:46Z</time>
      </trkpt>
      <trkpt lat="48.65452" lon="7.23327">
        <ele>473.58</ele>
        <time>2013-08-11T12:41:55Z</time>
      </trkpt>
      <trkpt lat="48.65465" lon="7.23347">
        <ele>474.41</ele>
        <time>2013-08-11T12:42:08Z</time>
      </trkpt>
      <trkpt lat="48.65474" lon="7.23372">
        <ele>475.76</ele>
        <time>2013-08-11T12:42:20Z</time>
      </trkpt>
      <trkpt lat="48.65476" lon="7.234">
        <ele>477.23</ele>
        <time>2013-08-11T12:42:30Z</time>
      </trkpt>
      <trkpt lat="48.6548" lon="7.23428">
        <ele>479.78</ele>
        <time>2013-08-11T12:42:42Z</time>
      </trkpt>
      <trkpt lat="48.65492" lon="7.2345">
        <ele>482.03</ele>
        <time>2013-08-11T12:42:53Z</time>
      </trkpt>
      <trkpt lat="48.65505" lon="7.23469">
        <ele>483.2</ele>
        <time>2013-08-11T12:43:00Z</time>
      </trkpt>
      <trkpt lat="48.6552" lon="7.23486">
        <ele>484.22</ele>
        <time>2013-08-11T12:43:07Z</time>
      </trkpt>
      <trkpt lat="48.65534" lon="7.23505">
        <ele>485.3</ele>
        <time>2013-08-11T12:43:14Z</time>
      </trkpt>
      <trkpt lat="48.65548" lon="7.23525">
        <ele>486.86</ele>
        <time>2013-08-11T12:43:21Z</time>
      </trkpt>
      <trkpt lat="48.65564" lon="7.23542">
        <ele>487.93</ele>
        <time>2013-08-11T12:43:28Z</time>
      </trkpt>
      <trkpt lat="48.65581" lon="7.23551">
        <ele>489.05</ele>
        <time>2013-08-11T12:43:34Z</time>
      </trkpt>
      <trkpt lat="48.65602" lon="7.23559">
        <ele>490.76</ele>
        <time>2013-08-11T12:43:40Z</time>
      </trkpt>
      <trkpt lat="48.6562" lon="7.23566">
        <ele>494.64</ele>
        <time>2013-08-11T12:43:44Z</time>
      </trkpt>
      <trkpt lat="48.65643" lon="7.23563">
        <ele>498.17</ele>
        <time>2013-08-11T12:43:48Z</time>
      </trkpt>
      <trkpt lat="48.65664" lon="7.23557">
        <ele>500.26</ele>
        <time>2013-08-11T12:43:52Z</time>
      </trkpt>
      <trkpt lat="48.65683" lon="7.23557">
        <ele>501.03</ele>
        <time>2013-08-11T12:43:55Z</time>
      </trkpt>
      <trkpt lat="48.65704" lon="7.23559">
        <ele>500.78</ele>
        <time>2013-08-11T12:43:58Z</time>
      </trkpt>
      <trkpt lat="48.65723" lon="7.23566">
        <ele>499.26</ele>
        <time>2013-08-11T12:44:01Z</time>
      </trkpt>
      <trkpt lat="48.65739" lon="7.23585">
        <ele>497</ele>
        <time>2013-08-11T12:44:05Z</time>
      </trkpt>
      <trkpt lat="48.65757" lon="7.23587">
        <ele>495.26</ele>
        <time>2013-08-11T12:44:11Z</time>
      </trkpt>
      <trkpt lat="48.65773" lon="7.23566">
        <ele>494.22</ele>
        <time>2013-08-11T12:44:15Z</time>
      </trkpt>
      <trkpt lat="48.65781" lon="7.23536">
        <ele>493.79</ele>
        <time>2013-08-11T12:44:19Z</time>
      </trkpt>
      <trkpt lat="48.6579" lon="7.23503">
        <ele>493.08</ele>
        <time>2013-08-11T12:44:23Z</time>
      </trkpt>
      <trkpt lat="48.65793" lon="7.23475">
        <ele>491.78</ele>
        <time>2013-08-11T12:44:26Z</time>
      </trkpt>
      <trkpt lat="48.65795" lon="7.23448">
        <ele>490.26</ele>
        <time>2013-08-11T12:44:29Z</time>
      </trkpt>
      <trkpt lat="48.65795" lon="7.23411">
        <ele>488.61</ele>
        <time>2013-08-11T12:44:32Z</time>
      </trkpt>
      <trkpt lat="48.65796" lon="7.23383">
        <ele>486.1</ele>
        <time>2013-08-11T12:44:34Z</time>
      </trkpt>
      <trkpt lat="48.65792" lon="7.23345">
        <ele>480.38</ele>
        <time>2013-08-11T12:44:37Z</time>
      </trkpt>
      <trkpt lat="48.65784" lon="7.23312">
        <ele>474.5</ele>
        <time>2013-08-11T12:44:40Z</time>
      </trkpt>
      <trkpt lat="48.65771" lon="7.23284">
        <ele>468.99</ele>
        <time>2013-08-11T12:44:43Z</time>
      </trkpt>
      <trkpt lat="48.65756" lon="7.23257">
        <ele>464.6</ele>
        <time>2013-08-11T12:44:46Z</time>
      </trkpt>
      <trkpt lat="48.65747" lon="7.23229">
        <ele>461.27</ele>
        <time>2013-08-11T12:44:49Z</time>
      </trkpt>
      <trkpt lat="48.65744" lon="7.23201">
        <ele>458.45</ele>
        <time>2013-08-11T12:44:52Z</time>
      </trkpt>
      <trkpt lat="48.65747" lon="7.23171">
        <ele>455.53</ele>
        <time>2013-08-11T12:44:55Z</time>
      </trkpt>
      <trkpt lat="48.6575" lon="7.23139">
        <ele>452.82</ele>
        <time>2013-08-11T12:44:58Z</time>
      </trkpt>
      <trkpt lat="48.65759" lon="7.23106">
        <ele>450.26</ele>
        <time>2013-08-11T12:45:01Z</time>
      </trkpt>
      <trkpt lat="48.65772" lon="7.23078">
        <ele>448.28</ele>
        <time>2013-08-11T12:45:04Z</time>
      </trkpt>
      <trkpt lat="48.6579" lon="7.23053">
        <ele>446.87</ele>
        <time>2013-08-11T12:45:07Z</time>
      </trkpt>
      <trkpt lat="48.65803" lon="7.23033">
        <ele>445.69</ele>
        <time>2013-08-11T12:45:10Z</time>
      </trkpt>
      <trkpt lat="48.65811" lon="7.23008">
        <ele>444.48</ele>
        <time>2013-08-11T12:45:13Z</time>
      </trkpt>
      <trkpt lat="48.65822" lon="7.22982">
        <ele>443.14</ele>
        <time>2013-08-11T12:45:16Z</time>
      </trkpt>
      <trkpt lat="48.65835" lon="7.2296">
        <ele>441.8</ele>
        <time>2013-08-11T12:45:19Z</time>
      </trkpt>
      <trkpt lat="48.65848" lon="7.22939">
        <ele>440.52</ele>
        <time>2013-08-11T12:45:22Z</time>
      </trkpt>
      <trkpt lat="48.65863" lon="7.22913">
        <ele>439.31</ele>
        <time>2013-08-11T12:45:26Z</time>
      </trkpt>
      <trkpt lat="48.65877" lon="7.2289">
        <ele>438.63</ele>
        <time>2013-08-11T12:45:36Z</time>
      </trkpt>
      <trkpt lat="48.65869" lon="7.22864">
        <ele>430.66</ele>
        <time>2013-08-11T12:48:04Z</time>
      </trkpt>
      <trkpt lat="48.65855" lon="7.22842">
        <ele>430.59</ele>
        <time>2013-08-11T12:48:26Z</time>
      </trkpt>
      <trkpt lat="48.6584" lon="7.22825">
        <ele>430.59</ele>
        <time>2013-08-11T12:48:35Z</time>
      </trkpt>
    </trkseg>
  </trk>
</gpx>